ECMWFFLT1_sfc_thetae_000.txt.gz
Theta_e
304 304 305 306 308 312 311 311 311 311 313 314 314 315 317 319 322 326 331 332 333 332 332 331 331 331 331 331 330 328 327 327 327 323 322 322 319 319 320 320 320 320 320 320 319 316 314 312 314 319 322 322 324 324 324 324 324 326 327 327 326 327 327
304 306 307 308 309 310 310 310 310 311 312 313 314 315 316 318 320 322 325 329 332 333 332 332 332 332 331 329 328 328 327 327 328 327 324 322 321 320 318 319 319 321 319 320 319 318 315 312 312 314 317 320 323 324 325 325 325 327 328 328 328 328 325
303 304 305 306 307 309 309 310 311 310 310 311 313 314 315 317 318 320 323 326 328 331 332 333 332 331 331 330 329 328 328 326 328 327 325 324 323 323 320 320 318 318 320 318 318 318 318 317 313 314 316 317 316 320 323 324 325 327 329 329 329 326 322
302 302 302 303 305 306 307 308 309 309 310 310 311 313 314 316 317 320 322 324 327 329 331 332 332 332 331 331 330 329 328 327 327 327 325 325 324 323 321 320 319 319 319 318 317 318 318 316 315 315 317 317 318 318 321 324 326 328 328 328 326 323 320
301 302 302 302 303 304 306 306 307 309 309 310 311 311 312 314 315 317 320 322 324 327 329 331 331 332 332 331 330 329 328 328 327 326 326 325 324 323 322 321 320 321 321 321 321 320 319 319 318 316 316 318 319 319 322 323 324 325 326 326 325 321 318
302 302 302 303 304 304 305 305 306 306 307 308 310 311 311 312 313 314 316 319 322 323 327 330 331 330 331 331 329 329 328 327 327 326 326 325 325 323 323 323 322 321 322 324 324 322 322 321 320 317 318 320 317 319 322 322 318 319 320 322 319 317 315
302 302 302 303 304 305 305 305 305 305 306 307 309 310 312 312 313 314 315 317 320 323 325 327 329 330 330 331 329 329 328 328 328 327 326 325 326 326 326 324 323 323 323 325 325 324 322 320 319 318 318 319 320 320 323 322 319 318 317 316 315 314 313
302 302 302 303 303 303 305 305 306 307 307 308 309 311 312 312 313 314 314 315 317 319 322 324 327 329 329 330 329 328 328 329 327 327 326 325 325 325 325 325 325 324 324 325 326 325 325 323 322 321 320 317 319 321 320 321 318 320 314 313 312 310 310
303 303 302 303 303 304 304 304 304 305 306 307 308 309 310 312 313 314 314 314 315 317 319 321 324 326 327 328 328 328 328 329 327 326 326 326 325 326 325 326 326 325 326 326 327 326 326 325 325 323 322 320 317 316 319 318 318 315 315 312 310 309 308
299 300 301 302 302 303 303 303 303 304 305 306 308 311 312 312 313 313 313 314 314 315 316 318 321 324 326 327 327 327 327 329 328 327 327 326 326 327 326 326 325 325 326 327 327 327 327 326 326 325 324 321 321 318 317 316 317 313 313 314 309 308 307
300 300 300 301 302 302 302 303 303 303 304 306 307 308 308 309 311 313 314 314 314 314 315 317 319 321 323 325 326 327 327 327 327 327 327 327 326 326 325 326 326 325 326 326 327 327 327 326 326 325 324 324 324 320 319 317 318 318 313 312 310 307 306
300 300 300 301 301 301 301 302 302 303 304 305 305 306 306 307 308 309 310 312 314 314 314 316 318 319 321 322 324 325 327 327 326 327 327 327 326 326 325 325 326 325 326 326 326 327 327 326 326 326 325 325 324 324 322 321 317 316 317 311 309 309 306
300 301 301 301 301 301 301 302 302 302 303 304 305 306 306 306 307 308 311 313 314 314 314 314 316 318 319 320 322 323 326 327 326 326 326 327 327 326 324 324 324 325 325 325 325 326 326 326 326 326 326 325 325 325 324 323 319 314 314 313 309 307 306
300 301 301 301 301 301 301 302 302 302 303 303 304 304 304 305 306 307 309 311 312 313 314 314 314 315 317 318 320 322 324 325 325 326 326 326 327 326 324 324 324 325 325 324 324 325 325 326 326 326 326 325 324 325 324 323 318 306 306 310 309 306 305
300 300 300 300 300 300 301 301 302 302 302 302 304 304 303 304 305 306 308 311 313 314 314 314 314 315 315 316 318 321 322 324 325 325 326 325 326 326 325 323 324 324 324 324 323 323 324 324 324 325 326 325 324 324 326 323 317 309 305 307 307 307 305
300 300 300 300 299 299 300 300 301 301 301 301 302 303 303 303 303 304 306 307 310 313 314 314 314 315 315 315 316 318 321 323 324 324 324 324 325 325 324 323 323 323 324 323 323 323 323 323 324 324 324 324 324 323 323 323 314 309 305 304 306 304 304
299 299 299 299 299 299 300 300 301 300 300 301 300 301 302 302 303 303 304 307 308 310 314 314 314 314 315 316 316 318 320 322 324 324 324 324 324 324 324 323 323 323 322 321 321 321 322 323 323 324 324 324 324 323 321 319 316 310 305 303 303 303 303
299 299 299 299 299 299 299 299 300 299 300 300 300 300 301 302 302 302 302 304 307 310 313 314 313 313 314 316 317 318 320 321 323 324 324 325 323 324 323 323 323 323 322 321 321 320 320 320 321 323 323 323 323 323 318 316 314 310 305 304 302 301 300
299 298 299 299 299 299 299 299 299 299 299 298 299 299 299 300 301 301 302 303 305 308 312 313 313 313 313 314 316 319 320 321 323 323 324 324 325 324 323 323 323 323 321 320 320 320 319 319 320 321 322 323 322 322 317 313 311 309 307 302 298 296 297
299 299 299 299 299 299 298 298 298 297 298 298 297 298 298 299 300 300 301 303 304 307 310 313 314 313 313 314 315 317 319 321 322 323 323 323 324 323 323 323 322 321 320 320 320 318 316 317 318 319 321 322 321 318 312 310 308 307 303 298 297 297 296
299 299 299 299 298 298 298 297 297 297 297 297 297 297 297 298 298 300 301 302 304 306 309 312 313 314 314 314 315 316 318 319 321 322 322 322 323 322 322 322 322 321 319 318 319 317 316 316 317 318 320 320 318 314 309 307 305 302 299 297 295 293 294
299 299 299 298 298 297 297 297 297 296 296 296 297 297 297 298 298 299 300 302 303 305 308 311 314 314 313 313 315 316 318 319 320 320 321 321 321 320 319 320 319 318 316 314 311 310 311 311 316 316 316 316 313 311 307 304 302 298 297 295 293 294 293
299 299 298 297 297 297 296 296 296 296 296 296 296 296 296 297 298 299 300 302 304 306 307 310 310 307 308 313 315 317 319 319 320 320 319 319 318 317 316 315 315 311 309 308 306 304 304 305 309 314 313 312 309 307 304 302 300 298 297 295 293 292 291
298 297 297 296 296 296 295 295 295 295 295 295 296 296 296 296 297 299 301 302 303 305 308 310 306 303 302 304 312 316 318 319 320 319 317 317 314 312 312 311 310 309 308 306 306 301 301 302 303 303 304 305 306 307 304 301 300 298 297 296 293 293 292
297 297 296 295 295 295 295 294 294 294 294 295 295 296 296 297 298 299 301 303 304 305 307 306 303 301 301 301 304 314 318 319 317 316 314 313 311 309 307 305 303 303 304 306 306 304 302 300 300 299 299 300 300 301 302 305 301 298 297 294 293 294 293
296 295 295 295 294 294 293 293 293 293 293 294 295 295 296 297 298 300 302 303 304 306 307 305 301 301 301 300 300 307 317 316 314 313 311 309 307 305 304 301 299 299 300 302 304 304 305 302 298 298 297 298 298 298 296 296 297 301 298 296 294 293 293
295 294 294 294 294 293 293 292 292 293 294 294 294 295 296 297 299 301 303 305 306 307 308 305 300 300 300 300 299 303 315 313 312 311 310 308 306 305 304 301 299 298 299 300 301 302 302 301 300 299 299 299 298 295 293 293 294 295 297 300 298 295 293
294 294 294 294 293 292 292 292 292 292 293 293 294 295 296 297 299 302 305 307 307 308 309 304 300 300 300 299 299 300 314 311 310 309 310 308 306 305 305 303 301 300 298 299 300 300 300 299 298 297 295 294 294 294 295 296 296 297 296 296 296 294 291
294 294 294 293 292 291 291 291 291 292 292 293 295 296 296 298 300 304 306 308 308 308 310 301 300 299 299 299 299 306 312 310 308 306 305 306 306 305 304 303 302 301 299 298 297 295 297 297 295 293 291 290 290 290 290 291 291 292 293 292 291 290 290
294 293 293 292 291 290 290 290 290 291 291 292 293 294 295 298 302 305 307 307 307 308 307 300 298 299 299 298 300 309 309 308 306 303 302 302 303 303 303 303 302 301 299 299 295 293 294 296 296 293 291 289 289 288 288 290 290 289 289 289 289 289 289
293 293 292 291 290 289 289 290 290 291 291 292 293 294 295 297 301 305 305 306 306 304 301 299 296 297 297 297 302 308 307 306 302 300 298 297 297 299 300 300 301 299 298 297 292 292 293 295 294 292 290 289 287 287 287 289 290 289 290 289 289 289 289
293 292 291 290 289 288 288 288 290 291 292 292 293 294 296 297 300 303 304 304 303 302 300 298 295 295 296 296 301 305 304 302 299 296 295 295 295 296 297 297 298 297 297 295 291 292 292 296 294 292 291 289 287 286 287 288 288 288 288 288 288 289 289
292 291 290 289 288 287 288 288 288 290 291 292 292 294 296 299 297 296 298 300 300 300 299 298 297 294 295 296 299 303 303 300 297 295 295 295 293 293 294 295 295 292 292 291 291 291 292 293 294 293 292 289 286 285 288 288 288 288 287 287 287 288 288
291 291 290 289 288 288 288 287 289 290 290 292 294 296 295 294 293 293 293 294 295 295 297 296 295 293 294 295 296 298 301 301 298 296 295 294 293 292 292 293 293 291 290 290 290 290 291 291 292 293 293 290 288 288 289 288 288 288 287 288 288 288 288
292 291 290 289 286 286 288 288 289 289 289 291 292 292 292 291 290 290 290 291 291 292 295 295 294 293 293 294 294 296 300 299 297 296 295 294 293 293 293 293 292 291 289 289 289 289 290 290 291 292 290 288 287 288 289 289 288 288 288 288 287 287 287
291 291 290 288 286 286 287 288 289 289 288 288 290 290 290 289 289 288 288 288 289 290 291 293 293 293 292 293 293 293 294 295 293 296 295 292 293 292 292 292 291 290 289 289 289 289 289 289 289 288 287 287 287 287 288 288 287 287 287 287 287 285 285
291 291 290 288 287 286 286 287 288 288 287 287 287 288 288 289 288 287 287 287 288 289 290 290 291 291 291 291 291 291 291 292 293 295 295 293 291 290 290 291 290 288 288 288 288 288 288 288 288 287 287 287 287 288 288 287 287 287 286 285 285 284 284

ECMWFFLT1_sfc_thetae_003.txt.gz
Theta_e
309 309 310 311 313 313 312 314 314 315 317 317 318 319 321 321 321 322 323 324 326 331 333 331 331 331 331 331 330 330 331 330 329 327 329 329 326 326 329 328 328 328 326 325 323 319 316 315 316 322 326 328 328 331 331 329 328 329 332 331 329 328 330
310 310 311 311 311 312 312 313 313 314 315 316 317 317 319 320 321 321 322 322 323 325 330 331 332 333 332 330 330 330 329 330 330 330 330 329 328 327 326 327 327 326 325 325 324 323 317 316 315 316 319 327 332 331 332 333 332 332 334 333 331 330 333
309 309 309 309 310 311 310 311 312 312 313 314 316 317 317 319 320 321 321 322 323 325 327 327 331 332 332 331 331 331 331 329 330 330 328 331 330 329 328 327 325 325 325 324 323 323 322 321 316 317 319 321 318 322 331 332 333 333 334 335 335 332 334
307 307 307 307 308 309 309 310 310 311 312 312 313 315 316 317 319 320 321 321 322 325 325 325 328 330 332 332 333 335 331 329 329 330 327 328 330 329 329 328 326 326 324 322 322 323 323 321 318 318 320 320 317 319 329 332 332 332 332 335 334 334 334
306 306 306 305 306 307 307 308 309 310 311 312 313 313 315 317 317 318 319 320 321 322 323 326 328 330 332 332 334 335 334 332 330 329 329 327 328 330 329 329 328 329 328 327 327 326 324 323 322 320 319 319 318 321 327 332 331 330 330 332 332 332 331
307 306 306 305 306 305 306 307 307 307 309 309 310 311 313 315 316 316 317 318 319 321 323 323 325 327 330 332 333 333 334 332 330 328 328 328 329 329 329 329 329 328 328 329 329 328 327 327 325 320 321 321 318 319 326 328 326 328 330 330 330 329 329
306 306 305 305 306 305 306 305 306 306 307 308 309 310 312 313 314 316 317 317 318 319 320 321 323 325 327 329 332 331 331 333 332 330 328 329 330 330 331 329 328 328 329 330 329 329 328 326 325 322 322 322 321 320 325 325 326 323 323 325 325 326 327
305 305 305 306 306 305 305 305 305 305 305 307 308 309 311 311 312 313 315 316 316 317 319 320 321 323 325 327 329 330 330 332 333 332 329 329 329 330 330 329 329 331 329 329 329 330 328 328 327 325 324 320 320 321 322 324 323 324 323 321 319 319 320
305 305 305 305 305 305 305 304 304 305 305 305 307 307 308 310 310 311 312 314 316 317 318 319 320 321 323 324 326 328 329 332 328 331 332 330 330 331 331 331 329 329 330 330 330 330 328 329 329 328 327 323 319 315 321 321 321 322 324 318 315 315 315
304 304 303 304 304 305 305 305 304 305 305 305 306 307 307 308 310 312 312 313 314 316 317 318 319 320 322 322 323 325 328 330 330 330 331 330 331 331 331 331 329 329 331 330 330 330 330 330 329 329 328 324 324 318 315 317 320 319 321 322 316 312 312
304 304 304 303 304 304 304 304 305 304 304 305 305 306 306 307 308 309 310 312 313 315 316 317 318 318 319 320 322 323 325 329 330 328 329 331 331 331 330 331 330 329 330 329 330 331 331 331 330 328 328 327 327 321 319 317 319 323 321 324 321 313 311
304 304 304 304 303 302 303 303 303 303 304 304 305 305 305 306 307 308 309 310 311 312 314 316 317 318 318 318 320 322 323 325 327 328 328 329 330 330 329 328 329 329 329 331 332 331 332 332 330 329 328 328 328 327 324 322 318 324 325 321 322 317 312
304 303 303 303 302 302 302 303 303 303 303 304 304 304 304 304 305 306 307 308 309 310 311 314 316 317 317 317 318 320 322 323 324 325 328 329 330 331 330 328 328 328 330 331 331 331 331 332 331 329 329 328 328 328 326 324 320 321 324 324 319 316 313
303 303 303 303 302 302 303 303 303 303 303 303 304 304 304 304 305 305 306 306 308 309 310 312 314 316 316 316 317 318 320 322 322 323 325 327 328 328 329 327 327 329 330 330 331 330 330 331 331 330 329 328 327 329 326 325 321 321 322 324 319 314 312
303 303 302 302 302 302 302 302 303 303 302 303 303 303 303 304 304 304 305 305 306 307 308 310 313 314 314 314 315 316 318 319 321 322 323 324 326 328 328 327 327 328 329 329 330 329 330 330 330 329 328 328 327 328 330 325 322 320 317 318 315 313 309
303 302 302 302 302 302 302 302 303 302 302 302 303 303 303 303 303 303 303 304 305 306 307 308 311 313 314 314 314 315 316 317 318 320 321 323 324 326 327 326 327 329 329 328 328 329 329 330 330 328 328 329 327 328 329 328 326 323 318 316 315 310 309
302 302 302 302 302 302 302 302 302 302 302 302 302 303 303 303 303 303 303 303 304 305 305 307 309 311 313 315 315 314 314 316 317 319 320 322 323 325 325 326 326 327 327 326 326 327 330 330 330 328 328 329 329 328 330 330 329 324 320 314 313 310 308
302 302 302 302 302 302 302 302 302 302 301 301 301 301 302 303 302 302 302 302 303 303 304 306 307 309 312 314 315 315 315 315 316 317 319 321 320 324 325 326 326 327 327 325 325 325 326 329 328 328 327 328 328 330 331 331 328 324 319 315 312 311 309
302 302 302 302 302 302 302 301 302 302 301 300 300 301 300 301 301 301 301 302 302 303 304 305 306 307 310 313 315 316 316 315 315 316 318 320 322 323 324 325 327 327 326 325 326 327 326 328 329 328 327 328 328 330 331 329 327 323 320 315 312 309 309
302 302 302 302 302 301 301 301 301 300 301 300 300 299 300 299 300 300 300 301 301 302 303 304 304 305 307 310 313 315 316 316 316 316 318 319 322 322 324 325 328 328 327 327 327 327 327 327 329 329 328 328 328 329 330 328 324 321 318 313 310 309 305
302 302 302 302 302 302 301 301 300 300 300 299 299 299 298 298 299 299 299 300 300 301 302 302 303 304 306 308 311 313 314 314 315 316 317 318 321 322 323 325 328 329 328 328 329 329 328 325 326 327 328 328 329 329 325 322 321 319 316 311 308 306 307
302 302 302 301 301 301 300 300 299 299 299 299 299 299 299 299 298 298 298 298 299 300 300 301 302 303 304 306 309 312 314 314 314 315 316 318 320 322 323 325 328 329 327 320 316 318 319 318 325 324 326 327 327 328 323 321 319 315 314 312 308 307 305
301 301 301 300 300 299 299 298 298 298 298 298 298 298 298 298 298 297 297 298 298 299 299 301 300 299 300 305 308 310 313 315 314 315 315 317 319 322 323 324 327 318 315 313 311 309 309 310 313 321 326 327 327 328 324 320 316 312 311 310 307 303 302
301 300 300 299 299 298 298 297 297 297 297 297 297 297 297 296 296 297 297 297 297 298 299 300 298 296 297 298 304 309 313 314 315 315 315 316 318 320 322 323 326 321 316 312 314 305 306 306 306 307 310 314 316 328 325 319 314 312 309 307 305 304 304
299 299 298 298 298 298 297 297 296 296 296 296 296 297 296 296 296 296 297 297 297 298 298 297 295 296 296 297 299 306 310 314 315 315 315 316 317 320 321 323 326 327 326 324 323 315 308 304 303 303 303 305 307 309 310 318 314 309 309 307 304 305 307
298 298 297 297 297 297 296 296 295 295 295 296 296 295 295 295 295 296 296 296 297 298 298 297 295 296 296 296 297 300 307 311 315 316 317 317 318 319 321 322 324 325 325 313 317 320 317 311 301 301 302 303 303 303 302 303 305 312 312 311 308 307 308
297 297 297 297 296 296 296 295 295 295 295 295 294 294 294 294 295 295 295 296 296 297 298 297 295 296 296 296 296 298 306 308 313 316 317 317 319 320 321 321 322 321 320 319 321 318 315 312 310 309 310 312 313 306 300 299 300 302 307 313 311 309 312
297 296 296 296 295 295 295 295 294 294 293 293 292 292 293 293 294 295 295 296 297 297 298 296 295 296 296 296 296 297 307 308 312 316 317 318 319 320 321 321 322 320 316 317 317 313 312 312 312 311 310 310 310 309 310 308 309 311 314 316 315 316 310
296 296 295 295 295 294 293 293 292 292 292 292 292 292 293 293 293 294 295 296 296 297 299 296 296 296 296 296 296 303 307 308 311 315 316 317 319 320 321 322 322 320 315 315 306 300 304 310 311 309 305 304 303 303 299 295 296 299 309 312 310 307 304
295 295 295 294 293 292 291 291 292 292 291 291 291 291 292 292 293 294 294 295 296 297 299 299 296 296 296 296 297 304 306 308 311 315 315 317 318 319 320 321 321 317 314 315 301 297 298 302 306 304 302 300 300 299 297 296 292 291 291 291 291 291 291
295 295 294 293 292 291 291 291 291 292 291 290 290 291 292 292 293 294 295 295 296 297 300 301 298 297 296 296 299 305 307 309 311 314 314 316 317 318 318 310 314 316 314 312 295 295 296 302 304 302 300 298 297 294 293 295 295 292 290 290 290 289 290
296 295 294 292 292 290 290 290 291 291 291 290 290 291 292 292 293 295 296 296 297 297 299 301 300 297 296 296 299 307 308 310 311 311 312 313 315 315 316 309 306 309 311 305 293 294 295 302 303 301 299 298 294 293 294 294 293 292 293 292 290 291 291
296 295 294 293 292 291 291 290 290 290 290 290 290 291 292 293 294 296 297 298 298 299 300 303 306 298 297 297 297 306 309 309 309 310 311 309 306 306 310 310 304 297 298 293 293 293 295 297 300 300 299 297 294 292 294 295 295 295 294 292 292 293 294
296 295 294 293 293 291 290 289 290 289 289 290 290 290 291 292 292 295 298 299 300 302 304 307 308 296 297 297 297 300 309 310 311 311 309 307 306 304 304 305 304 296 293 292 293 293 295 295 296 300 301 298 296 295 294 294 293 291 292 292 292 293 293
296 295 295 294 290 289 290 290 289 289 289 289 289 290 290 291 291 291 292 293 296 299 302 302 307 296 295 296 297 297 308 312 312 311 308 308 307 306 304 303 301 295 292 292 293 293 293 293 295 300 298 292 290 290 293 293 293 293 292 292 290 290 290
296 295 294 293 290 288 289 288 288 289 288 288 289 289 288 289 289 290 290 291 292 294 298 300 297 298 293 294 295 296 300 306 299 309 308 306 306 305 304 303 299 293 291 291 292 291 292 291 292 291 288 289 289 289 291 293 291 290 290 289 289 288 290
296 295 295 293 290 288 287 287 288 288 287 287 288 288 288 288 288 288 288 289 290 292 294 298 295 295 296 293 294 296 296 296 297 307 308 306 303 301 299 298 294 290 291 291 290 290 290 290 290 288 288 288 288 289 292 290 290 289 288 288 289 289 289

ECMWFFLT1_sfc_thetae_006.txt.gz
Theta_e
315 315 316 317 318 318 317 318 319 319 320 320 321 321 322 323 323 324 326 327 326 327 328 331 331 333 335 335 335 335 334 333 331 327 328 331 325 325 325 324 327 328 329 328 327 324 321 320 322 327 330 330 330 328 327 328 328 328 328 328 325 326 326
317 316 316 317 316 317 316 317 318 318 318 320 320 320 322 322 323 323 324 325 325 326 326 327 331 333 333 334 336 335 331 330 331 331 329 330 330 329 325 325 326 326 327 327 327 327 321 320 319 322 324 329 329 327 328 330 330 331 332 330 327 327 326
316 316 316 315 316 316 315 316 317 317 317 318 319 320 320 321 322 323 322 323 324 325 325 326 328 331 333 333 334 334 334 331 332 330 329 329 332 335 328 327 325 326 327 326 325 325 324 325 318 318 323 322 320 323 329 330 330 332 332 333 331 328 327
316 316 315 315 314 314 313 314 315 316 316 316 318 318 319 319 321 322 321 323 324 324 324 324 326 328 330 332 333 334 333 332 331 331 328 328 332 334 331 330 328 327 326 325 325 325 325 323 321 321 323 321 323 324 327 330 330 330 331 333 332 330 331
315 315 315 314 313 313 313 313 313 314 315 316 317 316 317 318 319 319 321 321 321 323 323 324 325 327 329 330 332 334 332 332 333 331 329 327 328 330 332 332 331 330 329 329 328 327 325 324 324 321 321 323 322 323 326 329 329 328 329 330 330 331 332
314 314 313 313 314 313 313 313 313 312 313 314 315 315 316 317 317 317 319 319 320 321 322 323 324 325 327 328 329 331 331 332 332 332 329 329 328 328 329 332 333 331 330 330 332 330 330 328 325 322 321 322 319 321 321 325 325 326 327 328 330 330 331
314 314 313 313 314 313 313 313 312 312 312 313 313 313 315 316 316 317 318 318 319 320 320 322 323 324 325 324 326 327 330 332 333 331 330 330 331 331 331 329 331 331 332 332 331 331 327 328 325 323 322 321 322 318 320 323 325 321 324 328 330 330 331
313 312 312 313 313 313 313 313 312 312 312 313 312 314 313 314 314 315 316 316 317 319 320 320 321 323 323 323 324 325 327 330 331 329 330 329 330 331 331 328 328 330 331 332 333 331 329 330 328 325 324 319 318 321 319 322 322 320 323 326 329 329 330
311 312 312 312 312 313 313 312 312 312 313 312 313 313 313 313 312 312 313 315 316 317 318 319 321 321 322 322 322 323 324 326 329 330 329 328 328 328 331 331 328 328 331 332 333 333 332 330 331 329 325 322 317 315 319 318 320 319 324 323 326 329 329
312 311 311 311 312 312 312 312 311 312 313 313 312 313 312 312 312 312 312 313 315 316 317 318 319 320 321 322 321 322 323 325 326 326 328 329 332 333 333 333 331 329 328 331 332 332 332 330 330 329 327 324 323 317 315 315 318 318 321 323 320 324 327
311 311 311 310 311 311 311 311 311 311 312 313 312 312 311 311 310 310 311 311 312 314 315 316 317 318 320 320 321 321 322 324 324 326 327 330 330 329 331 332 332 331 332 331 330 331 331 330 330 330 328 327 326 321 319 315 317 322 321 324 324 321 324
312 311 311 311 311 310 309 309 310 310 311 311 311 311 310 310 310 310 311 310 310 311 314 315 316 317 319 319 320 320 322 323 322 323 325 327 328 331 330 328 331 330 330 332 331 330 330 330 332 333 331 328 327 327 322 319 315 322 325 323 325 325 323
311 310 311 310 309 309 308 309 308 309 309 310 310 310 309 308 309 309 309 309 310 311 312 314 315 316 317 318 318 319 321 321 321 321 323 325 325 327 329 328 330 331 331 331 331 331 330 331 332 333 333 330 327 327 326 322 319 319 325 325 325 324 325
311 310 310 309 309 308 309 308 308 308 307 307 308 309 308 308 308 308 309 309 309 310 310 311 313 314 315 316 318 318 319 320 320 320 320 321 324 326 326 326 331 329 333 332 330 330 330 332 332 332 332 332 328 328 326 324 320 320 327 329 327 324 324
310 310 310 309 309 308 308 307 308 307 307 306 307 307 307 308 308 308 308 308 309 309 309 310 311 313 313 315 317 318 318 319 319 319 320 320 321 323 326 326 327 332 330 330 333 330 329 330 332 330 332 331 328 327 328 324 322 321 323 327 325 325 323
309 309 309 309 308 308 308 307 307 306 305 305 306 306 307 307 307 307 307 307 308 308 309 310 311 311 311 312 314 316 317 318 318 319 320 320 320 321 322 324 326 327 328 328 331 333 331 331 332 330 330 330 329 328 327 326 324 321 324 323 323 320 320
309 309 309 309 308 308 308 307 306 305 305 305 304 305 306 306 306 306 306 307 307 307 308 308 309 310 310 311 312 314 316 316 317 318 319 320 319 320 321 322 324 326 331 330 329 328 330 331 331 329 329 329 330 327 329 328 327 325 326 322 323 319 319
308 308 308 308 308 308 307 307 306 305 305 304 305 305 305 306 305 305 305 305 306 307 307 308 308 309 310 311 312 313 314 316 317 317 318 319 318 321 321 321 323 326 324 326 326 327 330 330 329 330 329 328 329 330 330 329 326 325 325 323 321 320 320
307 307 307 307 307 307 306 306 305 305 305 305 305 305 304 304 304 304 304 305 306 306 307 308 308 308 309 309 310 311 313 315 316 317 317 318 319 321 322 322 322 324 324 324 327 328 329 331 330 331 329 329 330 328 329 329 328 325 325 323 320 317 317
307 307 306 306 306 305 305 305 304 304 305 304 304 303 303 303 304 304 304 304 304 304 305 306 307 308 308 308 309 310 311 313 315 316 318 318 319 320 321 321 322 323 323 325 326 329 332 329 332 331 330 333 331 330 330 329 326 325 323 323 318 317 315
306 306 306 305 304 304 304 305 304 304 304 304 303 303 303 303 303 303 303 303 304 305 304 304 305 306 307 307 308 308 310 311 313 315 317 317 318 319 320 321 322 322 323 324 326 329 329 330 332 332 332 330 329 329 328 327 326 325 325 323 318 316 315
306 306 305 304 304 303 303 304 304 304 304 303 303 303 303 303 302 302 303 303 303 304 303 304 304 305 305 306 307 307 308 309 311 313 316 317 318 318 319 321 322 323 323 317 313 317 320 321 332 331 333 333 330 328 327 327 327 327 324 322 319 318 315
305 305 304 303 303 303 303 303 303 303 303 303 302 302 302 301 301 301 301 302 302 303 303 303 302 299 299 304 307 307 308 309 310 311 313 316 317 318 318 320 321 314 311 310 309 308 309 309 313 326 334 333 330 328 327 327 326 325 323 321 318 317 314
304 303 303 302 302 302 302 303 303 302 302 302 301 302 301 301 300 300 300 300 301 301 302 302 298 296 295 296 301 304 306 307 309 310 311 314 315 317 318 319 321 317 314 310 314 305 306 306 307 309 311 315 318 329 328 326 327 327 322 321 318 316 314
302 302 301 301 302 302 302 301 301 301 301 301 301 301 300 300 300 300 300 300 300 300 300 298 295 295 295 294 296 301 303 304 306 308 309 312 314 316 317 319 320 321 322 322 322 323 313 304 303 305 306 308 310 310 314 326 326 325 323 320 318 317 317
302 301 301 301 301 301 301 300 300 300 300 300 300 299 299 299 299 299 299 299 299 299 300 297 295 294 294 294 294 297 301 302 303 305 308 310 313 315 317 318 319 320 322 312 317 322 327 323 305 302 303 303 306 305 304 304 308 323 325 322 319 318 318
301 300 301 301 300 300 299 299 299 299 299 299 298 298 298 298 298 298 298 298 298 298 299 297 294 294 294 293 293 294 300 300 301 303 305 308 311 314 316 317 318 319 321 322 323 323 324 326 326 319 317 320 324 314 304 304 303 305 313 323 321 320 320
300 299 300 299 299 298 298 298 297 297 297 296 296 296 296 296 296 297 297 297 296 297 298 295 294 293 293 293 293 293 300 300 300 302 304 306 307 310 315 317 318 319 321 322 323 321 324 323 325 324 321 323 325 324 322 320 320 320 320 326 325 326 323
300 299 299 299 298 297 297 296 295 296 296 296 296 296 295 295 295 295 295 296 295 295 297 294 293 293 293 293 293 297 299 299 299 300 302 305 307 308 311 316 318 319 321 321 313 305 312 323 324 324 322 322 323 325 322 301 303 314 320 325 325 326 324
299 299 298 298 297 297 296 296 296 295 295 295 294 294 294 294 295 295 295 296 296 296 296 295 293 292 292 292 293 298 298 298 299 299 301 304 307 309 310 314 318 319 320 321 311 302 304 309 322 323 322 320 318 313 308 306 294 292 292 293 295 296 296
299 298 298 297 296 296 296 296 296 296 294 293 293 293 294 293 294 294 294 294 295 294 295 296 293 293 292 292 294 298 298 298 299 300 301 303 306 308 310 307 314 319 320 321 304 300 300 314 324 323 322 317 311 308 304 304 302 295 292 292 292 293 293
299 298 297 297 296 296 296 296 296 296 294 294 293 293 293 293 293 294 294 294 295 294 295 295 294 293 292 293 295 298 298 299 299 300 302 303 306 308 310 309 308 312 316 316 298 300 299 312 324 322 320 315 312 310 308 307 303 300 301 301 300 300 298
299 298 297 297 297 296 297 296 295 294 294 293 292 292 292 292 292 292 294 294 294 295 295 296 297 294 293 293 293 298 299 298 299 301 303 304 306 308 310 313 312 302 301 299 296 297 298 305 321 321 317 315 312 308 307 307 305 301 299 300 301 301 300
299 298 298 297 297 297 297 296 295 294 293 292 292 291 291 291 292 292 294 294 294 295 296 297 300 294 294 293 293 294 299 300 302 303 304 305 306 308 310 313 318 306 300 296 296 295 298 300 304 318 317 315 314 307 302 302 297 295 298 298 299 299 298
300 299 298 297 296 295 296 296 294 293 292 292 291 290 291 291 291 292 293 293 294 294 295 296 299 297 294 294 293 293 298 301 304 305 305 307 308 310 311 314 316 306 296 294 295 295 296 298 299 316 316 302 295 293 302 299 297 297 297 297 297 296 297
299 299 298 298 296 294 295 294 293 292 292 291 290 289 290 290 291 291 292 293 293 293 294 295 294 296 296 295 294 293 294 299 299 305 307 309 310 310 313 314 314 297 294 293 294 294 296 295 299 311 293 291 292 293 294 297 295 296 296 296 296 295 295
299 299 298 297 296 295 293 292 292 292 291 290 289 288 289 289 290 290 291 291 292 293 294 294 294 293 295 295 295 294 293 294 298 305 309 311 311 311 313 315 309 293 293 293 293 293 294 296 303 291 291 291 291 293 298 295 295 296 295 296 295 295 294

ECMWFFLT1_sfc_thetae_009.txt.gz
Theta_e
316 317 319 320 320 320 318 321 321 322 322 321 321 320 321 322 323 323 324 325 325 326 326 326 327 330 332 332 334 335 334 333 333 330 329 330 327 328 333 330 329 330 327 325 325 323 320 319 322 328 329 330 331 331 330 329 328 327 330 331 328 328 329
320 319 319 318 318 319 318 319 320 320 321 322 321 320 321 321 321 322 323 323 323 324 325 325 327 327 329 332 332 332 334 336 335 335 333 330 331 329 331 330 331 331 330 324 323 325 321 319 319 323 324 329 330 330 329 330 328 330 330 329 327 326 329
317 318 318 317 318 319 318 318 318 318 319 320 321 321 322 320 321 322 321 322 322 323 323 323 325 326 329 330 332 332 334 335 337 337 334 333 333 334 334 331 328 328 325 323 322 323 323 324 319 320 325 324 322 326 330 329 329 329 329 330 329 327 326
317 319 317 318 318 317 316 317 317 317 318 318 319 321 322 321 321 321 321 322 322 323 321 321 323 324 326 327 329 331 333 333 334 334 334 334 335 335 335 336 329 325 323 323 323 323 323 322 321 321 322 321 323 324 327 329 329 328 329 330 329 328 327
320 319 318 317 317 317 316 316 316 316 317 317 319 318 319 321 321 320 321 321 321 322 321 322 322 323 325 326 327 328 330 332 334 334 334 333 334 333 334 335 333 332 330 326 325 325 324 324 323 321 321 322 322 323 325 330 328 328 328 327 328 329 328
319 319 318 318 318 316 317 316 315 314 314 315 316 317 317 318 318 319 320 319 319 321 321 322 322 323 324 325 326 327 328 329 332 333 333 333 332 332 331 334 335 333 332 333 331 329 332 331 327 325 322 323 320 321 322 325 324 327 327 327 328 328 327
318 319 318 317 318 317 315 315 316 315 314 315 315 315 317 317 317 318 319 319 319 319 320 321 322 323 323 322 324 325 325 327 329 332 334 332 332 332 333 332 332 330 332 333 332 331 329 329 327 326 324 324 323 321 322 321 326 323 324 326 327 328 327
318 316 316 317 317 317 316 316 316 315 315 315 314 317 317 318 317 317 317 317 317 319 319 319 320 322 322 321 321 323 324 325 326 328 331 332 331 331 330 330 331 332 332 334 333 330 329 327 328 328 326 320 321 322 322 320 322 322 322 323 326 327 328
316 316 316 316 315 317 316 316 316 316 316 315 317 317 317 317 316 316 316 317 317 317 318 318 318 319 320 321 321 323 323 325 325 326 327 331 332 333 331 331 329 328 330 332 333 333 332 332 333 332 330 327 320 317 320 318 318 319 323 321 324 326 326
315 314 314 315 316 317 317 316 315 316 317 317 316 316 316 316 316 316 315 315 316 316 317 317 318 319 320 321 320 321 321 323 324 324 325 326 329 332 333 332 331 329 330 332 331 332 332 332 333 333 332 328 326 321 316 316 317 318 321 322 319 323 326
316 316 315 315 316 315 315 315 315 314 315 315 316 317 317 316 315 315 314 313 314 314 315 316 317 318 319 319 320 320 321 322 322 324 325 325 326 328 329 329 331 330 330 330 330 331 331 331 331 333 332 332 330 324 322 318 317 321 320 323 322 320 325
316 315 315 315 315 314 314 314 314 313 314 315 313 314 314 314 314 314 314 313 313 313 314 314 315 316 317 317 318 319 321 321 321 321 323 324 325 325 326 327 329 329 330 330 330 331 330 330 329 331 331 331 328 326 325 323 318 321 324 322 321 324 323
315 314 315 315 314 313 313 313 312 312 313 313 313 313 312 312 313 312 312 312 311 311 312 312 313 315 316 317 317 318 319 320 320 320 321 322 323 325 325 325 327 328 329 329 329 329 330 330 329 328 328 328 328 328 327 325 321 320 326 326 322 322 324
315 315 315 314 313 313 313 312 311 312 312 311 312 311 310 310 310 311 311 311 311 311 311 311 312 313 314 315 316 317 318 318 318 319 320 320 321 323 323 323 324 327 330 329 328 328 328 330 329 327 328 328 327 328 326 324 321 320 324 327 326 323 323
315 314 314 314 313 312 312 312 312 312 311 311 311 310 309 309 310 310 310 310 310 310 310 310 311 312 312 313 314 316 316 317 318 318 319 319 319 320 321 322 322 323 325 327 329 328 327 328 330 329 327 327 326 327 328 325 323 322 320 327 326 326 324
314 314 314 313 313 312 312 312 312 311 311 310 310 310 309 309 308 308 308 308 309 309 310 310 310 310 311 311 312 313 314 315 316 317 318 318 319 319 319 320 321 323 324 324 326 329 330 329 329 329 329 328 326 326 328 329 326 322 322 324 327 323 323
313 313 313 312 312 312 312 312 312 311 311 310 309 309 309 308 308 307 307 307 308 308 308 309 309 309 310 310 311 311 312 313 314 316 317 317 318 319 319 319 319 322 322 323 324 327 329 329 328 328 328 329 329 327 328 330 329 326 325 322 327 323 323
312 312 312 312 312 312 312 312 312 310 310 309 309 308 308 308 307 307 307 307 307 308 308 309 308 308 309 310 311 311 312 312 314 314 315 317 317 318 319 319 320 321 321 321 323 324 326 328 328 328 328 329 330 330 330 330 329 329 325 324 327 325 324
312 312 311 312 312 311 311 311 310 310 309 308 308 308 307 307 307 306 306 307 307 307 308 308 308 309 309 310 310 311 311 312 312 313 314 315 317 318 319 319 320 321 321 320 321 322 324 327 329 329 328 327 327 329 329 329 329 328 326 326 324 324 323
311 311 311 311 311 310 309 309 309 308 308 308 307 306 306 306 306 306 306 306 306 307 307 308 308 308 309 309 309 309 310 310 311 312 313 314 316 317 318 318 319 320 321 321 321 322 323 325 329 331 328 328 329 330 329 329 327 327 326 325 325 325 322
311 310 310 310 309 309 308 308 308 308 307 306 306 305 305 305 305 306 306 306 306 306 306 307 307 307 308 308 309 309 309 309 310 311 312 313 314 316 317 318 319 320 320 321 321 322 323 323 324 327 328 330 330 328 326 326 327 325 325 324 322 322 320
310 309 308 308 308 308 307 307 307 307 306 306 306 306 306 305 305 304 305 305 305 306 306 306 307 307 308 307 308 308 308 308 309 309 310 312 313 314 316 317 317 318 320 316 311 312 314 314 325 325 327 331 331 327 327 327 328 326 324 323 321 321 319
308 308 307 307 307 307 306 306 306 305 305 305 305 305 306 305 305 304 304 304 304 305 305 306 304 300 300 306 307 307 308 308 308 308 308 309 311 312 314 316 318 313 310 309 308 305 304 303 306 320 327 329 330 328 326 326 328 328 325 322 321 319 316
307 306 307 307 307 306 305 305 305 304 304 304 304 304 304 304 303 303 303 303 303 303 304 304 299 297 296 296 302 304 304 305 306 307 308 308 308 310 312 314 317 315 313 309 312 304 302 301 301 302 306 311 317 330 326 325 329 327 323 322 322 319 316
306 306 306 305 305 305 305 304 303 303 303 303 303 303 303 302 302 303 303 303 303 303 303 300 296 296 296 295 296 302 303 303 303 304 304 305 307 309 310 311 314 316 318 319 319 319 312 304 301 300 301 304 304 304 305 323 329 326 325 323 323 320 318
305 305 305 304 305 304 303 303 302 302 301 301 301 300 301 301 301 302 302 301 301 302 302 299 296 295 295 295 294 297 301 301 301 302 303 303 304 306 308 310 311 314 317 311 315 319 320 320 307 301 301 302 303 304 304 302 305 327 329 324 323 321 318
304 304 304 304 304 303 302 301 302 301 300 300 299 299 299 299 300 300 300 300 300 301 301 299 295 295 294 293 293 294 301 300 300 300 301 302 303 303 305 307 309 311 314 317 318 318 319 320 321 321 316 317 321 316 303 303 303 301 312 328 326 323 322
304 304 304 303 302 302 302 301 301 300 299 298 298 297 297 297 298 298 299 299 299 299 300 296 294 294 293 293 292 293 298 299 299 300 300 300 301 302 303 304 307 309 312 314 317 317 319 319 320 320 322 322 323 326 325 323 323 325 322 327 327 325 324
303 303 303 302 301 301 301 300 299 299 298 298 298 298 298 297 297 297 297 298 297 297 298 295 294 293 293 292 292 297 298 298 298 298 298 300 300 301 302 303 304 306 309 311 308 303 307 319 320 319 320 323 323 325 327 318 315 314 323 328 328 326 325
303 302 302 301 300 300 300 299 299 299 298 297 296 296 296 297 297 297 297 297 296 296 297 296 294 293 292 292 293 297 297 296 296 297 297 298 299 300 301 302 303 304 307 309 305 301 299 302 319 319 319 320 323 324 325 324 301 304 307 310 313 310 309
303 302 301 300 300 300 300 299 299 299 297 296 296 296 296 296 296 297 296 296 296 295 296 296 293 293 292 292 293 296 296 296 296 296 296 298 299 299 300 300 303 304 306 308 302 300 300 303 316 318 319 319 321 321 323 316 312 303 294 294 295 299 302
302 302 301 301 301 300 299 298 298 298 297 297 296 296 296 295 295 296 296 296 296 295 295 295 293 292 292 292 294 296 295 295 294 295 296 296 298 299 300 300 300 300 303 304 300 299 299 303 315 318 319 319 318 319 321 316 313 310 310 309 307 306 303
303 302 302 301 301 300 300 299 298 297 297 296 295 295 295 294 294 294 295 295 294 294 294 294 295 292 293 292 292 295 295 294 294 294 295 295 296 298 299 300 300 296 295 296 296 296 297 296 310 318 319 318 318 318 318 316 316 317 315 312 309 307 306
302 302 302 301 300 300 299 297 297 297 296 295 294 294 294 294 293 293 294 294 294 294 295 295 295 293 293 292 292 292 294 294 295 295 295 295 296 297 298 300 302 299 295 295 296 296 297 297 297 313 320 319 320 321 309 315 312 303 311 306 306 306 305
302 302 302 301 299 298 298 297 297 296 295 294 293 293 293 293 292 292 293 293 293 293 294 295 295 294 293 292 292 292 294 295 296 296 295 296 296 297 299 300 302 300 296 295 295 296 296 297 296 307 318 308 299 299 314 313 312 309 306 304 303 303 303
302 302 301 301 299 297 297 296 296 296 295 293 292 292 291 291 291 291 291 291 292 292 293 294 293 295 293 292 292 291 291 293 293 296 296 296 297 298 300 301 302 300 297 296 296 296 297 296 298 306 307 296 296 299 303 311 309 307 303 301 301 300 300
301 301 300 300 298 297 296 296 295 294 294 292 291 290 290 290 290 289 288 288 290 291 292 293 293 292 293 292 291 291 291 291 291 295 297 297 298 299 300 302 303 299 298 297 296 296 296 297 304 302 294 294 296 299 310 307 307 305 300 299 299 300 300

ECMWFFLT1_sfc_thetae_012.txt.gz
Theta_e
324 318 322 321 325 327 325 323 327 328 328 326 327 321 325 325 326 327 327 326 325 323 324 324 325 326 328 329 331 332 331 330 332 330 329 330 326 326 329 328 327 328 328 327 324 320 318 316 320 325 326 326 324 324 324 324 324 324 326 327 327 326 326
320 321 320 320 321 323 322 325 325 323 325 324 324 326 326 325 324 324 326 326 325 324 322 322 323 324 325 327 328 329 330 331 331 331 330 329 329 326 326 325 326 326 327 328 328 327 319 316 317 320 321 325 326 327 326 326 326 327 327 327 326 326 326
321 320 321 319 322 321 322 323 324 323 325 328 325 324 325 323 325 325 324 324 324 323 323 320 321 322 323 322 323 325 329 329 331 331 330 330 330 329 328 327 325 326 325 325 325 323 323 320 316 317 323 322 321 323 328 326 326 327 327 328 326 325 324
320 321 321 318 321 320 320 321 322 324 326 322 326 325 324 322 324 324 323 321 321 322 321 320 320 320 321 323 325 326 325 326 327 329 330 330 330 329 328 328 327 327 325 323 322 322 320 318 321 319 321 321 322 321 325 328 327 327 326 326 326 324 324
320 321 320 319 320 320 321 319 322 321 320 321 321 322 323 323 323 323 323 322 321 321 320 320 320 320 321 322 322 323 323 325 327 328 330 330 330 330 329 330 330 329 328 326 325 323 322 320 320 322 322 324 323 322 324 326 328 326 325 324 326 325 325
321 320 319 321 321 320 320 319 320 319 319 319 321 321 322 321 321 320 321 321 320 320 320 320 320 320 321 321 320 321 322 323 324 326 328 330 329 328 329 331 331 330 329 329 327 325 324 328 325 320 323 327 322 324 325 324 323 325 324 324 325 325 325
319 320 321 319 320 320 320 320 320 319 318 318 318 318 320 321 320 321 320 320 319 318 317 317 318 318 318 318 319 319 320 322 323 323 324 328 330 329 330 330 331 330 330 330 329 328 327 328 325 323 323 325 326 323 326 325 324 322 322 324 325 325 325
319 319 319 319 320 319 321 320 320 320 319 318 318 320 321 320 320 320 318 317 316 316 316 316 317 317 318 318 318 318 319 320 320 321 322 323 326 328 329 328 329 329 330 330 331 330 329 328 327 326 324 319 319 322 321 326 324 322 321 324 325 324 324
318 318 318 318 320 321 320 320 319 319 319 319 319 319 319 319 318 317 316 316 316 316 315 315 315 315 316 317 317 317 318 320 320 320 320 321 323 326 328 329 328 328 329 330 330 330 330 330 329 327 326 323 317 315 320 320 323 321 325 323 324 324 323
318 317 316 317 318 320 320 319 319 319 319 319 319 319 318 317 316 316 315 315 315 315 315 315 315 315 315 315 315 316 316 317 318 319 320 320 321 323 326 329 328 328 328 329 329 329 329 329 329 328 327 324 322 317 315 316 318 320 323 323 319 321 324
317 317 317 318 318 318 318 318 317 316 316 317 317 317 318 317 316 316 314 314 314 314 313 312 312 312 313 313 314 315 316 317 318 318 319 320 320 321 322 325 328 327 328 328 328 329 329 329 329 328 328 328 326 321 319 316 317 323 324 327 324 322 324
316 316 317 318 318 316 315 315 315 316 317 317 316 315 314 313 313 313 314 313 313 313 313 312 313 312 312 312 313 314 315 316 316 316 318 319 320 320 320 321 323 326 329 328 328 328 328 329 329 328 327 328 328 326 323 320 316 321 327 323 326 327 328
315 315 315 315 315 314 314 314 314 315 315 315 313 313 312 311 311 311 311 311 311 311 311 311 310 310 311 311 312 312 312 314 314 315 316 317 318 319 319 319 321 321 325 327 327 327 327 328 329 328 327 328 328 327 325 322 318 317 324 325 327 326 330
316 315 315 315 315 314 315 315 314 315 314 313 313 312 311 310 310 310 309 309 308 309 310 310 311 311 310 310 311 311 312 312 312 313 315 315 317 318 318 318 319 321 323 323 325 327 327 327 328 328 327 327 326 327 326 323 320 319 322 327 327 327 329
316 315 315 315 314 314 314 314 315 313 312 311 311 310 310 310 310 309 308 307 307 308 308 308 309 309 308 308 309 311 312 311 311 312 313 314 315 317 317 317 317 318 320 322 323 324 325 326 327 326 326 326 325 325 327 324 322 320 319 323 324 329 326
315 315 314 314 313 313 313 314 313 312 311 311 311 311 310 310 309 308 307 307 306 306 307 307 308 308 308 308 307 308 310 310 310 310 311 312 313 314 315 316 316 318 320 319 320 322 324 325 326 325 326 326 325 325 326 326 323 320 319 320 323 324 324
315 314 313 313 314 314 313 313 313 312 311 311 310 311 310 309 308 308 307 306 306 306 306 307 307 307 307 307 307 307 307 308 309 310 310 311 311 312 313 314 315 317 318 318 318 319 322 324 324 323 324 326 325 325 324 324 324 321 320 318 321 323 324
314 314 313 313 313 313 313 312 312 311 311 311 310 310 309 309 308 307 306 306 305 305 306 306 306 306 307 307 307 307 307 307 307 308 309 310 312 311 312 312 314 316 316 316 317 318 319 319 322 323 323 324 325 325 325 324 323 323 320 318 319 324 324
314 313 313 313 313 313 313 312 311 312 310 309 309 309 308 307 307 306 306 305 305 305 305 306 306 306 306 307 307 307 307 307 307 307 308 309 310 311 311 311 313 314 315 315 316 317 319 319 320 320 322 324 325 325 325 325 323 322 321 319 319 321 323
313 312 313 313 313 312 311 311 311 309 309 308 308 307 307 306 306 306 305 305 305 305 305 306 306 306 306 306 306 306 306 307 307 307 308 308 309 309 310 311 312 313 314 315 315 316 317 318 320 319 320 321 323 323 323 324 324 323 322 319 319 321 320
313 312 313 312 312 311 310 310 309 309 308 307 307 306 305 305 305 305 305 305 305 305 305 305 305 305 305 305 305 305 306 306 306 307 307 308 308 309 309 310 311 312 312 314 315 316 316 316 318 318 319 321 322 322 322 323 323 323 322 321 319 319 319
312 312 311 311 310 309 309 308 309 308 307 307 307 305 305 305 304 304 304 304 305 305 305 305 305 305 305 305 305 305 305 305 305 306 306 306 307 308 308 309 310 311 313 311 308 307 309 310 317 316 318 319 320 322 322 323 322 321 321 320 320 321 319
311 311 311 309 308 308 307 308 308 307 306 305 305 305 304 304 303 303 303 303 303 304 304 305 304 300 299 303 303 303 303 303 303 303 303 305 306 307 307 308 310 310 307 306 305 303 302 302 303 308 313 315 318 321 321 320 321 322 321 320 320 320 318
309 308 308 308 308 307 306 307 307 305 305 305 304 304 304 302 302 302 301 301 301 303 303 304 299 296 296 296 300 301 301 301 302 302 302 302 302 303 304 306 307 308 308 306 307 302 301 301 301 301 301 303 306 314 317 319 320 321 319 318 319 320 318
308 307 307 306 306 306 307 306 304 304 304 304 304 304 302 300 300 300 300 300 300 301 301 300 296 296 295 295 296 299 300 301 301 301 301 301 301 302 302 303 304 306 308 309 310 310 307 303 301 300 300 300 299 298 302 314 318 319 320 319 319 318 318
306 306 306 306 306 307 305 304 303 303 302 304 303 301 300 300 299 299 299 298 298 299 299 298 295 295 295 294 293 295 298 299 299 300 300 300 300 300 301 302 302 304 305 306 309 309 309 310 305 301 302 302 301 300 298 297 301 316 322 321 321 320 319
306 307 308 306 306 305 304 303 303 303 303 302 301 301 299 299 298 298 298 298 298 298 298 297 295 294 294 294 293 293 297 297 298 298 299 299 300 300 300 300 300 301 302 304 305 307 309 310 311 313 311 310 312 309 302 299 298 298 307 321 320 319 321
306 306 305 305 306 305 303 302 302 302 301 301 300 299 298 297 298 298 298 298 297 297 298 295 294 294 293 293 293 293 296 297 297 297 298 298 299 299 300 300 300 300 301 301 303 304 306 308 310 312 313 314 314 314 314 314 311 309 311 316 321 322 323
307 305 304 304 303 303 303 303 301 302 301 300 300 300 298 298 297 297 297 297 296 296 297 294 293 293 293 292 292 295 296 296 296 296 297 297 298 298 299 299 299 299 299 300 300 297 298 302 303 304 306 308 313 316 317 311 308 308 313 317 320 323 324
306 304 304 303 302 302 302 302 302 302 300 300 299 297 297 297 297 297 296 296 296 296 296 295 293 292 292 292 292 295 295 295 295 295 295 296 297 297 298 298 298 298 299 299 298 295 295 296 300 301 303 305 308 312 316 319 308 303 303 305 308 310 310
302 304 304 302 303 303 303 302 300 301 299 297 297 297 296 296 296 296 296 295 295 295 295 295 293 293 292 292 293 294 294 294 294 294 294 296 296 297 297 299 300 298 298 299 296 294 294 296 299 300 301 303 305 307 312 317 318 312 302 303 304 305 305
304 303 301 303 304 302 301 300 299 299 300 298 297 296 296 295 295 295 295 295 296 295 294 295 293 292 292 292 293 294 294 293 293 293 293 294 295 295 296 297 298 298 298 297 294 294 293 296 298 300 301 303 304 306 310 315 314 311 310 310 311 311 308
306 306 304 303 302 301 301 299 299 298 298 297 296 296 295 295 294 294 295 294 294 294 294 294 294 292 292 292 292 293 293 293 292 292 293 293 293 294 295 296 296 294 293 293 293 293 293 293 296 298 300 301 304 306 311 314 315 315 314 314 316 314 315
303 303 303 303 303 301 300 299 300 298 297 297 295 295 294 294 293 293 293 293 293 293 293 293 293 291 291 291 291 291 291 292 292 292 292 293 293 293 294 295 296 295 293 292 292 292 293 293 294 297 298 298 300 305 303 311 311 304 315 314 313 313 311
306 306 305 305 303 301 301 299 299 296 295 295 294 293 293 293 292 292 292 292 292 292 293 294 292 291 291 291 290 291 291 292 293 293 293 293 293 293 294 295 295 295 293 293 292 292 292 293 293 296 297 295 294 294 300 304 312 310 313 311 309 308 307
306 306 305 303 302 299 300 299 297 296 295 293 293 292 292 292 291 290 290 290 291 291 291 291 291 291 290 290 290 290 290 290 290 293 293 292 293 293 294 295 296 295 293 292 292 292 292 292 293 295 294 293 293 293 295 301 306 309 308 308 306 305 305
303 304 303 302 300 298 299 297 296 295 294 293 292 291 291 291 290 289 289 288 289 289 290 290 290 290 290 289 289 289 289 289 290 291 293 292 293 293 293 294 294 293 293 293 292 292 292 292 294 293 293 293 293 293 298 301 305 308 303 303 302 303 303

ECMWFFLT1_sfc_thetae_015.txt.gz
Theta_e
309 310 311 311 312 316 313 314 315 315 317 317 316 315 315 315 317 315 315 315 316 316 320 318 317 318 320 322 323 324 325 325 326 326 325 325 324 324 326 327 326 326 327 326 324 321 317 314 316 320 322 322 322 322 322 322 321 322 323 325 325 324 326
312 312 313 314 311 314 312 314 313 313 315 314 314 315 316 316 317 315 316 316 316 316 319 318 316 317 317 317 317 317 317 320 324 326 326 325 325 325 323 323 324 324 325 324 324 325 320 317 316 316 317 321 322 321 322 322 322 322 323 325 325 326 324
313 313 312 311 311 310 311 311 312 312 313 313 314 314 314 314 314 315 314 314 314 316 318 315 315 315 316 316 317 317 317 317 320 323 324 325 326 326 326 325 322 322 322 322 322 322 323 322 317 316 315 316 317 320 323 322 322 322 322 324 325 325 325
312 311 310 309 310 309 310 309 311 312 314 314 316 315 313 313 313 317 315 314 315 316 316 314 314 315 315 315 316 317 316 316 317 319 321 323 325 325 325 325 324 322 321 320 320 322 322 320 318 318 319 319 318 318 321 324 323 323 324 324 324 324 324
311 310 310 307 311 309 310 310 310 311 310 312 312 312 313 314 314 313 316 315 314 312 313 314 314 315 315 315 315 316 317 317 318 319 319 320 322 325 325 327 327 326 324 323 323 323 322 321 320 318 318 319 319 320 323 323 324 324 323 323 324 324 323
311 310 310 308 311 309 309 308 309 309 309 310 310 310 312 312 312 311 311 312 312 312 313 313 314 314 314 314 314 314 314 315 316 316 316 317 321 323 324 326 326 326 326 326 326 324 322 321 320 318 319 321 319 320 324 323 321 323 324 323 323 324 323
311 311 310 311 311 311 311 309 310 309 308 308 308 308 310 311 312 313 313 312 312 311 312 311 311 312 313 313 313 313 313 314 315 315 315 316 317 320 324 324 325 326 327 328 327 326 323 320 319 318 317 319 321 319 322 324 324 321 322 324 324 323 323
312 312 311 312 312 311 311 311 311 309 308 308 308 309 312 311 311 312 312 311 311 310 310 310 313 311 311 312 312 313 314 314 314 315 315 315 316 316 318 322 324 325 326 327 327 327 327 324 323 322 320 316 316 317 318 322 323 321 322 323 322 322 323
314 313 312 312 312 311 311 309 309 308 308 308 309 309 310 310 310 310 311 310 310 310 310 310 310 310 310 310 311 312 311 316 315 314 314 314 314 315 316 318 322 324 325 326 327 327 327 326 325 324 323 320 316 313 314 315 317 320 324 321 323 324 322
312 311 311 309 310 311 311 309 308 309 308 308 309 311 310 310 309 309 309 309 309 310 309 310 310 309 309 309 310 309 309 311 312 313 314 313 313 315 316 317 319 322 324 325 326 327 326 326 325 325 324 322 320 316 313 312 312 315 321 323 320 324 325
311 311 310 310 309 310 309 309 308 308 308 308 310 311 309 309 310 314 309 308 308 309 309 309 309 309 308 308 308 309 309 310 311 312 313 314 314 315 315 316 317 319 323 324 325 325 326 326 325 324 325 325 323 319 316 313 313 316 318 323 324 322 328
311 311 310 310 310 309 309 308 308 307 307 308 309 308 307 307 307 307 307 307 307 308 308 308 308 308 308 307 308 308 309 310 309 309 310 311 313 314 314 314 315 317 321 323 324 324 324 325 325 324 324 325 325 322 320 318 314 317 321 319 322 329 331
311 310 309 309 309 308 309 308 308 307 307 308 306 307 306 306 306 305 306 306 306 306 306 306 306 306 306 306 306 307 308 308 308 308 309 310 312 313 313 313 314 315 317 320 323 324 324 324 324 325 325 324 324 323 322 320 317 317 321 320 321 326 329
310 310 309 309 308 308 307 308 307 307 307 306 306 306 306 305 305 305 305 305 304 303 303 304 304 304 304 305 306 306 306 307 307 308 308 308 310 311 312 312 313 314 315 316 319 322 324 324 324 324 324 324 323 324 322 320 318 318 321 321 321 323 327
310 309 308 308 308 308 307 307 306 306 305 305 305 305 305 304 305 305 304 304 303 303 303 303 303 303 304 304 304 306 306 305 306 307 307 307 308 310 310 309 310 311 313 314 315 318 321 323 324 323 323 323 323 323 325 322 320 319 319 317 320 321 322
310 309 308 307 308 308 307 306 307 305 305 305 305 305 305 305 305 304 303 303 302 301 302 302 302 303 302 302 302 303 304 304 304 304 305 306 307 308 308 308 308 309 311 311 313 314 317 320 323 323 323 324 323 323 324 324 322 319 319 319 320 320 319
309 308 307 307 307 307 307 306 307 306 306 305 305 305 305 305 304 303 303 302 301 301 302 302 302 302 302 302 302 303 303 303 303 303 304 304 306 307 307 307 308 309 310 309 310 312 314 315 318 320 321 323 323 323 324 324 324 322 321 319 318 320 320
309 308 307 307 307 307 307 306 306 306 305 304 305 304 304 305 303 303 303 302 301 301 301 301 301 301 302 302 302 303 303 303 303 304 304 304 306 305 305 306 308 308 308 308 308 309 310 312 314 317 319 320 321 323 323 323 323 324 322 319 319 319 321
308 308 307 307 307 307 307 306 305 305 305 304 303 304 303 302 303 302 301 301 301 300 300 300 301 301 301 301 302 302 303 303 303 303 303 304 304 304 305 305 306 306 307 307 307 309 310 311 312 313 315 318 319 319 321 322 322 322 321 321 320 316 319
308 307 307 307 307 306 306 305 305 305 305 304 303 302 302 301 301 301 300 300 300 301 301 301 301 301 301 302 302 302 302 302 302 303 303 304 304 304 305 305 305 306 306 307 307 308 308 309 311 311 313 314 316 317 317 319 320 320 320 319 319 319 318
307 307 307 306 306 306 305 304 304 304 304 302 301 301 301 300 299 300 300 299 300 301 300 300 301 301 302 302 301 301 301 301 302 302 302 302 303 302 303 304 304 306 307 307 307 307 308 308 309 309 310 311 312 314 315 316 316 318 319 319 318 317 316
307 307 306 306 305 304 304 302 302 302 302 302 303 301 301 300 299 298 298 298 298 299 300 300 301 301 300 300 300 300 300 301 301 301 301 302 301 301 301 301 302 303 306 307 303 303 304 306 308 307 307 307 307 308 310 314 314 314 317 319 318 318 315
307 306 305 304 303 302 301 301 301 300 300 300 299 300 299 299 297 297 296 296 296 298 298 299 301 297 297 297 297 297 298 298 298 298 299 299 300 301 301 300 302 304 303 302 301 300 299 299 301 304 306 306 306 305 306 308 311 314 315 315 317 318 316
305 304 303 302 301 301 301 301 300 300 299 299 299 299 298 295 295 296 295 295 295 296 297 298 296 294 294 295 296 296 295 296 296 296 297 297 297 298 299 300 300 302 302 302 302 299 298 297 297 297 298 299 302 304 304 304 306 309 313 315 317 318 317
303 302 302 301 300 301 300 299 299 298 297 298 297 297 295 294 294 295 295 295 294 294 295 297 294 294 294 294 295 296 295 295 295 295 296 296 296 297 297 298 299 300 301 301 301 302 301 299 298 297 297 297 297 297 297 303 305 306 309 312 314 315 317
302 301 301 301 300 300 299 298 297 296 296 296 296 294 293 294 294 294 294 293 293 294 294 295 294 294 294 293 293 295 295 295 295 295 295 295 295 296 296 297 297 299 300 301 303 301 300 301 299 298 298 299 299 299 297 296 297 304 308 310 311 313 316
300 299 299 298 298 297 297 295 295 295 296 296 293 292 293 293 293 293 293 293 293 293 294 295 294 294 293 293 292 293 295 294 294 294 294 294 295 295 295 295 295 296 297 298 299 299 299 299 300 300 301 302 304 304 300 299 298 295 299 307 310 311 315
298 297 297 296 296 295 295 294 295 295 294 293 291 291 291 292 292 293 292 292 292 293 295 294 293 293 293 292 292 292 294 295 294 294 294 294 294 294 295 295 295 295 296 296 298 298 298 298 298 299 299 299 300 300 301 303 305 306 302 302 307 310 313
296 296 296 296 295 295 294 294 295 294 293 292 291 291 292 292 291 290 291 291 291 292 293 293 292 292 292 291 292 293 293 293 293 292 293 293 294 294 294 294 295 295 296 297 297 295 296 297 297 297 297 297 298 299 300 301 300 301 304 306 307 308 311
296 295 295 295 294 294 293 293 292 292 291 290 290 291 291 291 291 290 291 291 291 291 291 292 292 292 292 292 292 293 292 292 292 292 292 293 293 293 294 294 294 295 295 296 296 293 293 294 296 296 296 296 297 297 298 301 299 298 299 299 298 300 301
295 295 294 294 294 293 292 292 291 291 290 289 290 291 290 289 289 290 290 290 291 291 291 293 292 292 292 291 292 292 292 291 291 291 291 292 293 293 294 296 297 295 295 296 294 293 292 294 295 296 296 296 295 295 296 299 301 302 300 300 300 297 297
294 294 294 294 294 292 292 292 291 291 290 289 289 289 291 290 289 290 290 291 295 293 291 292 292 291 291 291 292 291 290 289 288 289 289 289 290 291 292 294 295 295 295 295 293 292 292 294 296 296 296 296 295 295 296 297 298 300 302 306 309 309 304
296 295 294 292 292 292 294 291 290 290 289 290 289 289 289 288 288 289 290 290 291 291 290 290 291 291 291 291 291 291 290 288 288 288 288 289 289 289 291 291 293 292 291 291 291 291 292 292 294 296 296 295 295 295 297 298 299 300 304 305 306 308 309
295 293 293 293 293 294 292 291 290 288 288 288 288 287 287 287 288 289 289 290 290 290 291 290 291 291 291 291 290 290 289 289 289 288 288 288 288 288 289 290 292 292 291 291 291 291 291 291 292 295 295 295 295 296 296 297 297 296 299 300 301 302 305
295 296 294 293 292 292 291 290 289 289 287 287 287 286 286 287 287 288 288 289 290 290 291 293 290 291 290 290 290 290 289 289 290 289 288 288 288 288 289 290 291 292 292 291 291 291 291 291 291 294 295 293 293 292 294 296 296 297 297 298 298 299 301
295 298 295 293 291 290 290 289 288 287 286 286 287 286 286 286 286 287 287 288 288 289 289 290 291 290 290 290 290 289 289 289 289 289 288 287 287 288 289 290 292 292 291 291 291 291 291 291 291 293 292 292 292 291 292 294 294 294 295 295 296 296 299
293 292 292 291 290 288 288 288 287 288 286 287 286 285 285 286 285 286 286 287 288 288 288 289 290 290 290 289 289 289 288 288 288 288 289 288 288 289 289 290 290 290 290 291 291 291 291 291 292 291 291 291 291 291 294 294 293 293 293 293 294 295 297

ECMWFFLT1_sfc_thetae_018.txt.gz
Theta_e
305 305 307 308 307 310 308 309 312 311 313 313 312 313 311 314 313 311 312 313 314 316 317 313 313 314 315 315 316 316 317 318 320 322 321 321 320 321 323 324 324 326 326 325 324 320 317 315 317 320 320 320 321 321 320 320 320 323 323 325 326 325 324
307 308 309 312 310 310 308 310 309 309 312 309 311 312 312 313 316 312 310 310 310 313 316 314 313 313 313 312 313 313 314 315 316 318 319 320 320 322 323 321 322 322 323 323 324 324 318 316 316 317 318 320 320 320 321 321 320 320 323 324 325 326 325
309 308 308 307 307 307 307 307 308 308 309 310 310 310 310 310 310 312 310 310 309 312 315 310 310 310 311 312 312 312 314 313 314 315 316 318 320 321 321 322 321 320 322 323 323 322 321 321 317 318 318 317 316 317 320 321 321 321 320 323 324 325 326
309 309 307 305 307 306 306 306 306 308 308 311 310 311 309 310 310 316 310 311 313 314 312 310 310 310 310 310 312 312 312 312 313 313 314 316 317 319 320 320 320 321 321 320 321 320 320 319 319 319 320 321 319 319 322 322 322 323 321 320 322 323 324
309 310 308 307 307 306 306 307 306 307 307 308 309 309 309 310 312 310 312 308 311 308 309 310 311 311 311 310 310 309 310 310 311 313 312 313 313 315 317 320 321 322 321 321 322 322 320 319 319 318 319 320 321 321 323 323 323 323 322 320 321 322 324
310 310 309 307 308 306 307 307 306 306 306 307 306 306 307 309 311 309 308 309 307 309 309 308 308 308 308 309 309 309 308 308 309 309 310 311 312 313 313 318 321 322 322 323 324 324 324 322 321 318 319 320 317 318 321 323 321 323 323 322 321 322 322
309 309 309 307 308 307 308 308 307 307 306 306 305 306 307 308 309 309 310 308 307 307 309 308 308 308 308 308 308 308 308 309 309 309 309 309 311 312 313 314 316 318 321 323 323 323 322 322 320 318 318 316 316 317 319 321 323 321 321 322 322 321 322
309 308 308 308 308 308 307 308 308 307 307 306 306 305 308 307 307 307 307 307 307 307 308 307 309 307 307 309 308 308 308 310 310 310 308 308 311 310 311 311 313 314 317 320 322 323 323 323 322 322 320 316 316 316 315 317 319 320 320 322 321 322 321
311 310 309 310 309 309 309 308 308 307 307 306 305 306 307 306 306 306 307 307 307 307 308 308 307 307 307 307 307 307 306 310 308 307 308 308 309 309 309 311 311 312 315 317 321 322 324 323 323 323 321 318 314 313 316 314 314 318 321 320 321 322 321
310 309 309 309 309 309 309 308 308 307 306 306 308 306 306 305 305 305 306 306 306 306 306 307 307 306 306 306 306 306 306 306 307 307 307 308 309 309 309 310 311 312 314 316 318 321 323 323 323 323 322 320 318 314 313 314 315 314 317 322 319 321 323
311 310 309 309 309 309 307 307 306 307 307 308 308 309 305 305 306 314 305 306 305 305 306 306 306 306 306 306 306 306 306 306 306 307 308 309 308 308 309 309 310 310 312 313 315 317 320 322 322 322 322 322 321 317 315 313 314 317 316 317 321 320 323
310 310 309 309 308 309 308 307 307 307 306 306 308 305 304 304 303 304 304 303 304 304 305 304 305 304 304 304 305 305 306 306 306 306 307 307 308 308 308 308 309 310 311 312 313 315 317 320 321 322 322 321 322 320 318 316 312 318 320 318 319 322 323
310 310 309 308 307 307 307 307 306 305 306 308 304 304 303 303 303 303 303 303 303 303 303 303 303 303 302 302 303 304 304 303 304 305 306 307 307 308 307 307 308 309 310 310 310 312 314 316 319 320 321 321 321 321 320 319 316 316 320 319 318 321 324
309 309 308 308 308 306 306 307 306 306 305 304 304 303 303 302 302 303 302 303 303 301 301 301 301 301 301 301 302 301 302 302 303 304 305 305 306 306 307 306 307 307 308 307 308 309 310 311 314 317 319 320 320 320 320 319 317 317 321 321 321 320 323
309 308 308 306 307 306 306 306 305 304 304 303 303 303 302 302 302 302 301 301 301 301 301 300 300 300 301 301 300 302 302 301 301 301 302 302 303 305 305 305 305 306 306 306 307 307 308 309 310 311 314 318 320 320 321 319 318 317 317 319 319 319 320
308 307 307 305 306 306 305 304 305 304 303 302 303 302 303 301 302 301 301 301 300 300 300 299 299 300 300 299 299 299 301 300 300 300 301 301 302 303 303 303 304 305 306 306 306 307 307 308 309 309 310 313 316 319 321 320 319 317 317 318 320 319 318
308 307 306 305 305 305 305 305 305 304 303 302 303 303 302 302 302 301 301 301 299 299 299 299 299 299 300 299 299 300 299 300 300 300 301 301 301 301 302 302 303 304 305 305 305 305 306 307 307 307 308 309 313 316 319 320 320 318 317 316 317 319 318
308 307 306 305 305 305 305 305 304 304 302 302 302 301 303 302 301 300 301 300 299 299 299 299 298 298 299 299 299 300 299 299 300 300 301 301 303 302 302 301 302 302 303 303 304 304 305 304 306 306 307 308 310 312 315 318 319 320 318 317 319 319 319
308 307 306 305 305 305 305 304 304 303 303 302 301 301 301 300 301 299 299 298 299 298 298 298 298 298 298 298 298 298 299 299 300 300 300 301 301 301 301 301 302 302 302 302 302 303 304 304 305 306 306 307 308 309 311 313 315 316 317 317 318 319 318
308 306 306 305 305 305 305 304 304 303 303 302 301 300 299 298 301 299 298 298 297 297 298 298 298 297 298 297 297 297 297 297 298 298 299 300 300 300 300 300 300 301 300 301 301 301 302 302 303 303 304 305 307 308 307 307 309 310 312 313 315 317 318
307 306 306 305 305 305 305 304 303 303 303 300 300 299 298 298 297 297 296 296 297 298 296 297 297 297 297 296 296 295 295 295 296 296 297 297 298 298 299 299 299 299 300 300 301 302 301 300 300 300 301 302 304 304 305 305 305 306 307 309 310 312 316
306 306 306 305 304 304 304 303 302 302 301 300 301 298 298 297 296 295 295 295 295 296 296 296 297 297 295 294 294 294 294 295 295 295 295 296 296 297 297 298 298 298 302 304 302 301 301 300 300 299 300 301 301 301 302 302 303 304 305 306 307 309 311
306 306 305 304 304 303 302 302 301 299 299 299 298 297 296 295 295 294 293 294 294 295 295 296 299 297 296 295 294 294 294 294 294 294 294 294 294 295 296 296 299 302 301 300 299 298 297 297 298 299 299 299 299 299 299 299 300 301 302 303 304 305 305
305 304 304 303 302 302 301 301 299 298 297 296 296 297 295 294 293 293 292 292 293 294 294 296 296 294 294 294 295 294 293 293 293 293 293 293 293 294 295 295 295 298 300 299 299 297 296 295 295 296 296 298 299 299 298 298 298 300 300 301 302 304 304
304 303 302 302 301 301 300 298 297 296 295 295 295 294 293 293 292 292 292 292 292 292 293 296 294 294 293 293 294 295 294 293 294 293 293 293 293 293 293 294 295 296 296 297 298 298 298 297 295 295 295 295 295 295 296 298 298 298 299 299 301 302 304
303 302 302 301 300 299 298 297 295 294 294 294 294 292 291 291 291 291 291 291 291 291 292 294 293 293 293 293 292 293 293 293 293 293 292 292 292 292 293 293 294 294 295 298 299 297 296 297 296 296 296 296 295 295 293 293 294 299 300 300 300 301 303
302 302 301 300 299 298 296 295 293 293 293 293 290 290 289 290 291 290 291 291 291 291 292 294 293 293 293 292 291 292 292 291 292 292 292 292 292 292 292 292 292 293 293 294 295 295 295 295 295 296 296 296 297 297 296 295 294 293 296 300 300 300 303
301 300 300 298 296 295 295 292 292 291 290 290 290 289 289 290 290 292 290 289 289 291 292 293 292 292 292 291 291 291 291 292 291 291 291 292 292 292 292 292 292 292 292 293 294 294 294 294 294 295 295 295 296 296 297 298 298 298 298 299 300 301 303
299 298 297 295 294 292 292 291 292 291 290 289 288 288 289 289 289 288 288 288 288 289 290 292 291 291 292 291 291 292 290 290 290 290 290 291 291 291 291 291 291 291 291 292 293 292 293 294 294 293 293 294 294 295 296 297 297 297 299 299 299 300 301
297 295 294 294 293 293 292 291 291 290 290 288 288 288 289 288 288 287 287 288 287 288 289 291 291 291 291 291 291 290 289 289 289 289 289 290 290 290 291 291 291 291 291 291 292 291 291 292 292 292 292 293 294 294 295 296 296 295 294 294 294 294 294
296 295 295 294 293 292 291 290 290 291 290 288 287 287 286 286 286 287 287 287 287 288 289 291 291 291 291 291 291 289 289 288 288 288 288 288 289 289 290 293 294 291 290 290 291 291 291 292 292 292 292 292 292 293 294 295 296 297 295 295 294 294 293
296 295 295 293 293 291 291 291 291 289 288 287 287 285 289 285 285 285 285 287 293 292 289 290 291 291 291 291 291 290 288 287 287 286 287 287 287 288 288 290 292 292 291 291 290 290 290 291 292 292 292 291 291 291 292 294 295 295 295 296 296 296 296
296 295 294 293 292 291 291 290 288 288 286 287 287 284 286 285 284 285 285 286 288 289 288 289 290 290 291 291 291 291 289 288 287 287 287 287 287 287 288 288 290 289 289 289 289 289 289 290 291 292 292 291 290 290 293 294 296 296 296 296 296 296 297
294 294 293 292 292 291 290 289 287 287 286 285 284 284 284 284 285 285 286 286 287 287 289 289 289 290 290 291 290 290 289 289 288 288 288 288 287 287 287 288 288 289 289 289 289 289 289 289 290 291 291 291 292 293 293 294 294 294 296 296 296 296 296
294 294 293 293 291 289 288 288 288 286 285 284 283 283 283 285 284 284 285 286 286 287 289 291 289 290 290 290 290 290 289 289 290 289 287 287 287 287 287 288 288 289 289 289 289 289 289 289 289 291 291 291 291 291 293 294 295 294 294 294 294 294 294
295 296 294 293 290 288 287 287 286 285 284 283 283 283 283 282 282 283 284 285 285 285 286 288 290 289 289 290 289 289 289 289 289 289 287 286 287 287 288 288 289 290 288 289 289 289 289 289 290 290 290 290 290 290 291 293 293 293 293 293 292 292 292
295 294 293 290 289 288 286 286 286 286 284 284 284 283 283 283 281 282 283 284 284 284 285 286 288 289 289 289 289 289 289 288 288 288 289 288 288 288 288 288 289 288 288 289 289 289 289 289 289 289 289 290 290 290 292 292 292 292 292 291 291 292 292

ECMWFFLT1_sfc_thetae_021.txt.gz
Theta_e
308 308 304 304 303 308 305 307 308 308 308 309 309 309 309 313 309 309 309 310 312 314 313 310 310 310 312 313 314 313 314 315 315 315 315 317 317 319 323 323 324 325 326 326 325 320 318 315 318 323 323 321 320 322 320 319 319 321 322 324 325 325 324
306 305 306 311 307 309 305 307 306 305 306 306 308 309 309 312 314 308 307 308 309 311 314 310 310 310 310 310 310 311 310 311 313 313 311 311 314 315 318 318 321 322 324 325 325 324 319 316 316 317 318 322 323 323 321 321 320 320 321 322 324 325 324
307 305 305 306 305 304 305 306 305 305 305 306 306 307 307 309 309 309 307 306 307 312 312 308 308 309 309 309 308 309 308 308 309 310 311 311 311 313 315 318 318 319 321 323 323 322 321 321 315 316 317 317 317 320 321 322 322 321 319 320 322 324 324
306 306 305 303 304 304 304 304 305 304 304 307 306 308 307 307 309 312 308 309 309 312 310 308 307 308 307 307 307 307 307 307 307 308 308 309 310 310 311 313 314 316 316 315 318 320 319 318 318 318 320 320 320 319 322 324 323 324 322 320 320 321 323
308 307 306 305 305 305 304 304 304 304 304 304 304 306 306 306 309 306 308 307 309 306 306 306 306 307 307 307 306 307 306 306 306 309 306 307 307 308 309 310 312 313 314 315 319 320 319 319 319 317 318 320 321 320 323 323 324 323 324 323 321 321 322
308 307 306 304 305 305 304 303 303 303 303 306 304 304 304 305 309 306 305 305 305 308 306 306 306 305 305 306 306 305 305 305 306 305 306 305 306 307 308 310 311 311 312 314 316 318 320 320 319 315 317 320 317 319 321 320 319 321 322 322 323 321 321
309 307 306 305 305 305 305 305 305 304 304 303 303 304 303 305 306 307 307 306 305 306 307 306 306 306 305 306 305 305 305 306 306 305 306 306 306 306 307 308 308 309 310 311 314 315 317 316 315 315 315 317 317 316 319 318 319 319 320 322 322 322 321
308 308 307 307 306 305 304 306 306 303 304 304 303 304 306 304 305 305 305 304 305 304 305 305 306 304 304 305 305 305 306 305 305 305 304 304 306 305 305 306 307 308 309 311 312 313 316 317 317 317 316 312 313 315 314 314 316 317 319 322 323 322 322
310 308 308 307 306 306 306 306 306 305 305 303 302 304 305 304 304 305 305 303 303 303 305 305 304 304 304 304 304 303 304 307 304 303 304 303 304 304 304 305 305 306 307 310 311 313 315 316 317 318 318 316 311 308 314 312 311 313 318 319 320 322 321
308 307 307 307 306 306 306 306 305 306 304 303 305 304 304 302 302 302 302 302 303 303 303 303 304 303 304 303 303 302 303 303 304 303 303 304 305 304 304 304 305 306 307 308 309 311 313 315 316 317 318 316 316 311 309 310 312 313 315 317 316 317 320
308 308 307 307 307 306 305 305 304 305 304 305 306 307 304 302 307 308 301 302 300 302 302 302 303 303 303 303 303 302 303 303 302 303 304 304 304 304 305 305 304 305 307 306 309 309 310 312 314 315 316 317 318 314 313 311 311 316 316 314 317 318 319
309 308 307 307 307 307 306 306 305 306 303 304 308 305 302 301 301 301 301 301 301 301 301 302 303 303 302 302 303 303 302 302 302 301 302 303 303 304 303 303 304 304 305 306 307 309 309 309 312 313 314 315 316 317 315 315 311 316 318 315 315 318 319
310 309 308 307 307 307 307 306 305 303 305 307 304 303 302 302 301 301 300 301 301 300 300 301 300 301 301 300 300 302 301 300 300 300 300 301 303 303 301 301 302 304 304 304 305 306 306 308 308 310 312 313 314 315 316 314 312 313 316 317 318 319 320
309 309 308 307 307 307 306 307 305 306 305 305 303 303 302 301 300 301 300 303 302 300 300 300 300 299 299 299 300 299 300 300 300 300 300 300 300 301 301 301 301 303 303 302 304 304 305 305 306 307 309 310 312 313 314 313 310 309 314 318 319 319 321
309 309 308 307 307 306 306 306 305 305 305 304 304 303 302 301 300 300 300 300 300 299 299 299 299 298 298 298 299 300 300 299 299 299 299 299 300 301 300 300 301 301 302 302 302 303 304 304 305 305 305 307 307 309 311 311 310 310 309 315 317 317 317
309 308 308 307 307 306 305 305 305 305 304 303 303 303 303 302 302 299 299 300 299 299 299 298 297 297 297 297 297 297 298 298 298 298 298 299 299 300 299 300 300 300 302 301 301 302 303 303 304 304 305 306 306 307 309 312 312 309 309 311 316 317 317
308 308 308 307 307 306 305 305 305 305 304 304 303 303 302 302 301 300 300 299 298 298 298 297 297 297 297 297 296 297 296 296 296 296 297 298 298 299 299 299 300 300 300 300 300 300 301 301 302 302 302 303 304 305 307 310 313 312 311 310 311 314 317
308 308 308 307 306 305 305 305 305 304 303 303 303 302 301 300 300 299 301 299 298 296 297 296 296 296 296 296 296 296 296 296 296 296 296 297 301 298 298 298 299 299 299 299 299 299 300 299 301 301 301 302 302 303 305 306 308 311 310 307 308 310 313
308 308 307 305 305 305 305 305 305 304 304 303 301 301 302 301 302 299 299 297 296 296 295 295 295 296 296 296 296 295 296 296 296 295 295 296 296 297 297 298 298 299 298 297 298 298 298 299 300 299 299 299 300 300 301 302 304 305 305 305 305 305 306
309 308 306 305 305 305 304 304 304 304 304 303 302 300 299 299 300 299 296 297 297 296 296 296 295 294 295 294 295 294 294 293 294 294 294 295 295 295 296 296 297 297 297 297 297 297 298 298 299 298 299 298 299 298 299 299 301 301 302 303 303 304 305
308 307 306 305 305 305 304 304 304 304 303 301 301 300 299 299 298 296 296 296 296 296 295 294 293 293 294 294 294 293 292 293 293 293 293 294 294 295 295 295 296 296 296 297 297 297 297 298 298 297 297 298 298 298 297 298 298 298 299 300 301 301 303
308 306 305 305 304 304 304 304 303 303 303 302 302 300 299 298 297 295 294 295 295 295 294 294 294 294 293 292 291 292 292 293 293 293 293 293 293 294 294 295 295 295 299 301 300 300 299 299 298 296 297 296 297 297 297 297 296 296 297 297 298 300 301
307 306 305 304 304 304 303 303 302 301 301 300 299 298 297 296 295 295 294 292 292 294 293 294 298 298 297 295 293 293 293 293 292 292 293 292 293 293 293 294 297 299 299 299 298 297 296 296 297 298 297 296 296 296 296 295 295 295 295 295 296 297 298
306 305 305 304 303 303 302 302 301 300 299 297 297 297 296 294 292 292 292 291 290 292 293 294 295 293 293 294 294 292 292 292 292 292 292 291 291 292 293 293 293 296 298 298 297 296 295 294 294 294 295 296 297 297 295 294 295 295 295 295 296 296 297
305 304 304 304 303 303 302 301 300 298 296 295 295 295 293 292 292 292 291 290 289 291 292 296 292 292 293 292 294 294 292 291 292 291 291 291 291 292 292 292 293 294 294 295 295 295 295 295 294 294 293 293 293 293 295 296 295 295 295 294 294 295 296
304 304 304 304 303 302 301 300 298 296 296 295 294 292 291 292 291 290 290 289 290 291 290 293 292 293 292 292 292 293 291 291 291 291 290 290 290 291 291 292 292 292 293 297 298 295 294 294 295 294 294 294 294 294 292 291 293 296 296 295 295 295 295
304 304 303 302 301 301 300 298 295 294 294 292 291 290 290 290 290 289 288 289 289 289 289 293 292 292 292 291 291 291 291 290 290 290 290 290 290 290 290 290 290 291 291 292 293 293 293 292 292 292 293 293 293 294 293 293 292 292 294 296 295 295 297
304 300 299 299 299 298 296 292 292 292 292 291 291 290 290 289 289 290 288 287 287 288 289 292 291 291 291 291 291 291 290 290 290 290 290 290 290 290 290 290 290 290 290 290 292 292 292 291 291 291 291 291 292 292 293 293 294 295 295 295 295 296 297
300 301 300 298 296 294 294 293 291 291 290 289 289 289 288 290 289 288 287 286 286 286 286 290 290 290 291 290 291 291 289 289 289 289 289 289 289 289 290 290 289 289 289 290 291 291 292 292 291 290 290 290 290 291 292 294 295 295 296 296 296 297 297
299 298 297 296 294 293 292 291 291 292 291 290 289 289 290 289 288 286 287 287 285 284 284 289 290 290 290 290 290 289 288 288 288 288 288 288 289 289 289 289 289 288 288 288 290 290 290 291 290 289 289 289 290 290 290 292 293 293 293 293 293 294 294
297 296 296 294 293 292 292 291 291 292 290 289 288 288 289 288 287 287 286 285 284 284 284 289 290 290 290 290 290 288 288 287 287 287 287 288 288 288 288 292 293 290 289 289 290 289 289 290 288 288 288 288 288 288 289 291 293 294 294 293 293 293 292
295 295 293 292 292 291 290 291 290 289 290 289 289 288 290 287 286 285 285 284 292 289 285 288 290 289 290 290 290 289 288 287 286 286 287 287 287 288 288 290 292 291 290 290 289 289 289 289 288 288 287 287 286 287 288 290 290 291 291 292 293 293 293
295 295 293 292 292 291 291 290 288 289 289 289 289 287 289 287 285 285 285 286 285 285 285 285 288 289 290 290 290 289 288 286 286 286 287 287 288 288 289 289 290 289 289 289 288 288 288 289 288 287 287 286 286 286 289 290 291 292 292 293 293 294 294
295 294 293 292 292 291 290 289 287 288 287 287 287 286 286 286 285 285 283 284 284 283 285 286 287 289 289 289 290 289 287 287 287 287 287 288 288 287 288 288 289 289 289 289 288 288 288 288 289 288 288 287 288 289 290 289 290 292 292 292 293 293 294
295 294 292 291 290 288 287 288 288 286 285 285 285 285 284 285 284 283 282 282 283 283 286 290 286 288 289 289 289 289 288 288 289 288 287 287 287 287 287 288 288 289 289 288 288 288 288 288 288 289 288 288 288 288 289 290 290 290 290 291 291 292 292
294 294 292 291 289 287 286 287 285 285 284 284 284 284 282 282 282 281 282 282 281 282 283 285 289 287 288 289 289 289 289 288 288 289 287 286 287 287 288 288 289 289 288 288 288 288 288 288 288 288 288 288 288 288 288 289 289 289 289 289 290 290 291
294 293 292 290 289 287 286 286 286 285 285 285 284 283 283 282 281 281 282 282 283 282 283 282 286 287 288 288 288 288 288 288 288 288 288 287 287 288 288 288 288 288 288 288 288 288 288 288 288 288 288 288 288 288 288 288 288 288 288 288 288 289 290

ECMWFFLT1_sfc_thetae_024.txt.gz
Theta_e
306 307 304 303 302 307 306 307 307 306 307 308 309 309 310 313 310 309 310 311 312 312 313 310 310 310 311 312 313 312 313 314 314 313 312 314 314 315 319 320 323 325 326 325 324 320 318 315 318 325 325 325 326 326 325 323 322 324 326 328 327 327 327
305 306 307 310 307 309 306 305 305 306 306 307 308 309 309 314 315 309 309 309 310 311 313 309 309 309 308 308 309 309 310 311 313 313 312 312 313 314 315 315 319 319 321 324 325 324 319 316 316 317 318 323 325 326 326 325 326 325 325 325 326 327 328
307 304 305 305 305 303 305 304 304 305 305 306 306 307 308 308 309 310 309 310 310 312 312 308 308 308 308 308 308 309 309 309 310 312 312 311 313 313 314 315 313 314 315 319 319 317 319 321 315 315 318 318 317 322 324 325 326 328 327 325 325 325 327
304 305 304 304 303 303 305 304 304 304 305 306 304 306 306 308 312 313 310 310 312 314 310 308 308 308 308 308 308 308 308 308 308 309 310 310 311 311 312 313 313 314 313 312 313 315 315 314 313 314 316 317 317 317 322 325 325 326 327 327 325 324 325
306 306 305 305 304 305 304 304 303 304 305 305 305 306 306 308 310 309 311 309 309 307 308 308 308 308 308 308 308 309 308 308 309 309 307 308 308 309 310 311 312 313 314 314 314 315 314 313 313 312 313 316 317 319 321 323 325 325 326 326 326 326 326
306 306 306 305 304 305 303 303 303 304 303 306 306 307 306 306 309 307 307 308 308 309 307 307 307 307 307 308 308 307 307 308 308 307 307 307 307 308 309 310 312 313 313 314 315 315 316 316 314 312 313 316 313 315 318 320 320 323 325 325 326 326 326
307 306 305 305 305 305 304 305 305 305 305 306 304 306 305 306 308 309 308 307 307 309 309 307 308 308 307 307 307 307 306 307 307 307 307 307 307 307 308 309 309 310 311 313 314 314 314 314 312 311 311 313 314 313 316 319 320 318 321 323 325 325 325
308 307 305 306 305 305 304 305 305 304 305 304 304 305 307 307 307 306 307 306 306 307 307 307 307 306 307 307 308 306 307 306 306 307 305 306 306 306 307 307 309 309 309 310 312 313 314 314 314 313 312 308 309 312 311 316 317 317 317 321 324 325 326
310 309 307 307 305 306 305 306 306 305 305 304 303 306 306 307 307 308 308 305 305 306 307 306 305 306 306 307 305 305 305 309 306 305 305 305 306 306 306 307 307 307 308 309 311 312 313 315 315 316 314 312 308 305 310 309 312 313 318 318 321 324 325
308 308 308 306 305 306 305 305 306 306 305 304 304 306 306 305 306 306 305 305 305 304 304 305 305 305 305 305 305 304 304 304 307 305 305 305 306 306 306 306 306 307 308 309 310 311 312 313 315 315 316 314 312 307 306 306 308 311 315 320 316 321 323
308 309 308 307 306 306 305 305 305 305 305 305 306 307 306 305 306 310 305 304 303 303 304 304 304 304 305 305 304 304 304 305 304 305 306 307 305 306 307 306 306 306 307 307 308 309 310 311 312 313 314 315 316 310 308 306 306 312 313 318 319 319 322
308 308 308 307 306 306 306 305 305 306 305 305 307 306 304 306 306 304 303 302 303 303 302 303 304 303 303 303 305 304 303 303 303 303 303 305 306 306 305 304 304 305 306 306 307 308 309 309 310 311 312 313 313 314 312 310 304 310 318 316 319 321 322
309 308 308 307 306 306 306 306 306 304 305 307 306 306 305 305 305 303 302 303 302 301 302 302 302 302 301 301 302 301 302 302 302 302 302 303 303 303 302 302 303 304 305 305 305 306 306 307 308 309 309 310 312 313 313 311 307 306 313 314 316 320 323
308 308 307 307 307 307 306 307 306 306 306 306 306 305 305 305 304 303 302 305 302 302 301 301 301 300 301 300 300 300 300 301 300 301 303 301 301 301 302 301 302 302 303 303 304 305 305 306 306 307 308 309 309 311 312 310 307 306 309 316 318 319 322
309 309 308 307 307 307 306 306 306 306 305 306 305 305 305 304 304 303 302 302 301 301 300 300 299 300 300 299 299 301 300 299 299 299 300 300 300 301 301 300 301 302 302 302 303 303 304 305 305 305 306 307 307 307 310 308 308 306 305 310 313 317 319
309 308 308 308 307 307 307 306 306 306 305 305 305 305 304 304 303 302 302 301 300 300 300 299 299 299 299 299 299 298 300 299 299 299 299 299 299 300 300 300 300 301 302 302 302 303 303 304 305 304 305 306 306 306 307 308 307 305 306 307 312 312 316
309 308 308 309 308 307 307 306 306 305 305 304 304 304 304 303 302 302 302 301 300 299 299 299 298 298 299 298 298 298 298 298 298 299 299 299 298 299 299 298 299 299 301 300 301 301 302 303 303 304 304 305 305 306 307 308 308 305 305 304 307 309 312
309 308 308 309 308 307 306 305 306 305 304 304 304 303 303 302 302 301 302 301 300 299 298 298 298 298 298 298 298 298 298 298 298 298 298 298 301 300 298 298 298 298 299 299 299 299 300 300 301 302 302 303 303 303 304 305 305 306 304 302 303 307 310
309 309 309 309 308 307 305 305 305 305 305 304 303 303 303 302 303 301 301 300 299 299 298 298 298 298 297 298 297 297 298 298 298 297 297 297 297 297 297 297 297 298 298 297 297 298 299 299 299 300 300 300 301 301 302 302 303 304 304 303 303 302 305
310 309 309 309 307 306 305 305 305 305 305 304 303 302 302 302 303 301 300 299 299 299 298 297 297 296 297 296 296 296 295 295 295 295 296 296 296 296 296 296 297 297 297 297 297 297 298 298 298 299 300 300 300 300 300 300 301 301 301 301 301 302 303
309 308 307 306 306 306 306 305 305 305 305 303 303 302 302 302 302 300 299 299 298 298 297 296 295 295 296 296 297 296 295 296 295 295 295 295 295 295 296 296 296 297 297 297 297 297 297 297 298 298 299 299 299 298 298 298 299 299 299 300 300 299 301
308 308 307 306 305 304 304 304 304 304 304 304 303 302 302 301 300 297 297 297 297 296 296 296 296 295 295 294 294 294 294 294 294 294 294 294 294 295 295 295 296 296 298 299 299 299 299 299 299 297 298 298 297 297 297 297 297 298 298 297 298 299 299
307 307 307 306 305 305 304 304 303 303 303 303 302 301 300 299 299 297 295 295 295 295 295 296 300 296 296 296 295 294 294 294 294 293 294 294 294 294 294 295 296 298 298 298 298 296 295 295 297 298 298 297 297 296 296 296 295 296 296 295 295 297 296
306 307 307 306 305 304 304 304 304 303 303 302 301 300 299 297 295 295 294 294 294 294 294 296 293 292 292 293 295 294 293 293 293 293 293 292 292 293 294 294 294 295 297 297 297 295 294 294 294 294 295 296 297 297 295 295 295 296 295 295 295 295 295
305 306 305 305 305 304 304 304 303 302 301 300 300 299 297 295 294 294 293 293 293 293 294 295 292 292 292 292 293 295 292 292 292 292 292 292 292 292 292 293 293 294 295 295 295 295 295 294 293 293 293 292 292 293 294 296 295 294 295 294 294 295 295
305 304 304 304 304 304 303 303 301 300 300 299 298 296 294 293 293 293 293 292 292 294 293 293 292 292 292 291 291 292 291 291 291 291 291 291 291 291 292 292 292 293 293 295 295 295 295 295 294 294 294 294 293 293 291 291 292 296 296 294 293 293 294
304 304 303 303 303 303 303 302 301 300 298 296 295 293 293 292 292 292 292 292 292 291 291 293 292 292 291 290 290 290 291 290 290 290 291 291 291 291 291 291 291 291 292 293 293 293 293 293 293 293 294 294 294 294 293 292 291 291 293 295 294 293 295
303 301 301 301 301 302 302 299 298 297 296 295 293 293 292 291 292 292 292 290 290 290 291 293 291 290 290 290 290 290 290 290 290 290 290 290 290 290 291 291 291 291 291 291 292 293 292 292 292 292 292 292 293 293 293 294 294 295 295 295 295 295 296
301 300 300 300 300 300 299 298 295 294 293 293 292 292 291 292 291 290 290 289 290 289 288 290 290 290 290 289 290 291 289 289 289 289 289 290 290 290 290 290 290 290 290 290 291 290 291 292 291 290 290 290 291 291 292 293 293 294 295 295 296 296 296
300 299 299 300 299 298 297 295 293 293 292 291 291 291 291 290 290 289 289 289 287 287 286 289 289 290 289 289 290 289 288 288 288 288 288 289 289 289 290 290 290 290 290 290 290 289 289 290 290 289 289 289 289 290 290 292 292 292 292 292 292 292 292
300 299 300 300 298 297 295 294 293 294 293 291 291 290 290 289 288 288 289 288 287 287 286 287 290 290 289 289 290 289 288 288 287 287 287 288 289 289 289 291 292 291 291 291 290 289 289 290 289 289 288 288 287 287 288 291 291 292 292 292 291 291 291
300 299 297 295 294 294 293 293 293 293 292 292 291 290 290 288 288 287 287 287 293 288 286 288 290 289 289 289 290 289 288 287 287 287 287 287 288 288 289 290 291 291 290 290 289 289 289 289 289 288 288 287 286 286 287 289 289 289 290 290 291 292 292
297 296 295 294 294 293 292 291 291 291 291 291 290 290 290 288 288 287 286 289 290 289 287 286 289 289 289 289 290 290 289 287 286 286 287 287 287 288 289 289 290 289 288 288 288 288 288 288 289 288 288 286 286 285 288 288 289 289 289 289 290 291 292
296 296 296 295 294 294 293 291 290 290 289 289 289 288 288 287 286 285 285 285 285 285 287 286 288 289 289 289 289 289 288 287 287 287 287 287 287 287 288 288 289 289 288 288 288 288 288 288 289 289 288 287 287 288 289 288 288 289 288 289 289 290 290
295 295 295 294 293 292 292 292 291 290 288 288 287 287 286 287 286 285 283 283 285 285 287 291 288 289 289 289 289 289 288 288 289 288 287 287 287 287 287 288 288 289 288 288 288 288 288 288 288 289 289 288 288 288 288 289 289 288 288 288 288 288 289
295 295 294 293 291 290 289 289 288 288 287 286 286 285 284 284 285 284 284 285 285 284 284 286 289 288 288 288 288 288 288 288 288 289 287 286 286 287 288 288 288 289 288 288 288 288 288 288 288 288 288 288 288 288 288 288 288 288 287 287 287 286 287
294 293 293 292 291 289 288 288 287 287 287 287 286 285 283 283 283 285 285 285 286 286 285 284 285 287 287 287 287 288 288 288 288 288 288 287 287 287 287 287 288 288 288 288 287 288 287 288 288 287 287 287 287 288 288 287 287 287 286 286 285 286 286

ECMWFFLT1_sfc_thetae_027.txt.gz
Theta_e
320 319 321 322 324 323 321 321 322 322 323 322 322 323 323 322 322 322 323 322 319 318 316 316 316 317 317 318 320 320 320 321 322 321 320 321 321 320 323 324 324 326 328 327 326 322 320 319 322 329 329 329 329 330 330 329 329 330 331 333 332 332 334
320 322 321 322 321 323 321 321 322 321 323 324 323 323 323 321 321 321 322 320 319 317 316 316 317 316 317 317 317 317 317 318 319 320 320 319 320 319 321 321 323 323 324 325 324 324 320 317 319 321 323 329 329 331 332 330 330 332 331 330 330 331 333
319 320 321 321 321 321 320 321 321 321 321 322 323 323 322 321 321 322 320 319 319 318 316 316 317 317 317 317 317 317 317 316 317 317 317 317 318 319 320 320 319 319 319 320 320 319 320 321 315 317 319 318 318 326 327 332 328 328 329 332 333 332 333
320 320 319 319 320 320 320 320 319 319 321 321 322 322 323 321 323 322 321 320 320 319 316 316 316 315 316 317 317 317 317 316 315 315 316 316 316 316 317 317 317 317 315 315 315 317 317 316 315 315 317 317 317 317 323 327 326 325 327 332 331 330 331
321 320 319 318 319 319 320 319 319 319 319 320 321 320 321 323 323 321 322 320 318 318 317 317 316 316 316 316 316 316 316 316 316 315 315 315 315 314 315 315 315 316 315 315 316 316 316 315 315 313 314 316 316 317 320 323 324 323 325 326 326 327 330
322 321 321 320 320 319 318 319 319 317 318 318 318 319 321 322 322 321 320 318 318 318 318 316 316 316 315 314 314 314 314 314 314 315 313 315 315 314 313 315 314 313 313 315 316 315 316 317 316 312 314 315 313 314 317 319 317 319 321 322 325 327 328
321 322 321 320 320 320 319 319 319 318 318 319 319 319 321 322 321 321 321 320 318 318 318 318 317 316 315 312 313 312 313 314 314 314 313 313 314 315 315 313 312 312 313 314 315 315 315 315 313 313 312 313 315 312 315 315 317 315 317 323 324 325 325
321 320 320 321 321 320 320 320 321 321 319 321 320 323 322 323 322 322 321 319 318 318 318 318 317 317 315 313 313 314 314 313 313 312 311 311 310 311 312 311 312 312 312 312 313 313 314 315 315 314 313 309 310 312 312 314 314 315 316 318 320 322 324
320 321 320 319 320 321 321 320 320 321 321 322 323 323 323 322 321 321 320 319 318 317 318 317 316 314 314 313 312 313 312 313 312 312 311 311 311 311 311 311 310 310 312 312 312 312 312 314 315 315 314 312 307 305 310 310 311 312 317 316 318 321 323
320 320 320 320 319 320 321 321 320 320 322 321 321 323 322 322 321 321 319 318 318 318 317 316 315 315 315 313 312 312 312 313 312 311 311 311 311 311 310 310 309 310 310 312 312 312 312 313 313 314 314 312 311 307 305 305 309 310 314 318 315 319 322
319 320 321 321 320 318 318 319 320 319 319 319 321 321 322 320 321 320 319 317 317 317 317 316 315 314 314 312 312 311 312 313 312 312 312 311 311 311 310 310 309 309 310 311 310 312 312 312 311 311 311 313 313 309 308 306 307 312 313 316 317 316 322
319 320 321 321 321 319 318 318 318 319 320 319 319 320 320 319 319 319 318 316 316 316 316 316 315 314 313 312 312 310 312 312 310 310 311 311 311 310 309 309 309 308 309 309 310 310 311 311 311 310 310 312 312 312 310 309 305 310 315 314 318 319 317
318 319 320 320 320 319 319 319 319 319 319 318 319 320 319 318 318 317 316 315 315 315 314 315 315 314 313 312 311 310 311 311 309 309 309 310 308 309 308 306 306 306 306 306 306 307 307 309 311 310 311 311 311 312 311 309 307 306 312 313 313 315 316
319 319 319 320 320 320 321 320 319 319 319 318 319 319 318 318 317 316 315 313 313 314 314 314 314 313 312 311 311 311 310 309 307 308 308 309 308 308 306 304 304 304 306 304 304 304 305 307 308 309 310 310 309 311 310 309 306 306 310 314 314 313 316
320 319 319 319 319 319 320 319 320 318 318 318 318 318 317 319 317 316 314 312 312 312 313 313 313 312 311 311 311 311 310 309 307 307 308 306 307 306 306 304 303 304 304 303 304 302 302 303 305 305 306 308 307 309 311 308 307 307 306 311 312 315 315
320 320 319 319 319 318 319 319 319 318 317 318 318 318 318 318 317 315 314 313 312 313 312 312 313 312 311 310 308 310 310 308 307 307 306 305 304 304 304 304 303 304 305 304 304 304 304 304 304 304 306 307 307 308 308 309 307 305 305 306 310 309 311
321 320 319 319 320 320 319 319 318 317 317 318 316 317 318 317 316 315 314 313 312 313 313 313 312 311 310 309 308 307 308 308 307 306 304 304 303 304 303 303 303 303 303 302 303 303 303 304 303 303 304 305 306 306 308 308 308 306 305 304 307 307 309
320 320 319 319 320 320 320 319 318 317 317 317 316 317 316 317 316 314 314 312 312 312 312 312 311 311 310 310 308 308 307 306 305 304 304 304 302 303 302 302 302 302 303 302 302 302 302 302 302 303 303 303 303 305 306 306 306 306 305 304 305 307 308
320 320 320 320 320 320 319 318 318 317 317 316 316 316 316 315 315 314 313 312 312 312 312 312 311 309 308 308 308 307 306 305 304 303 303 303 302 303 303 302 302 302 302 301 301 301 302 302 301 302 301 302 302 303 304 305 305 304 304 303 304 304 306
321 320 320 320 321 320 319 318 317 316 315 314 314 316 316 315 315 314 313 313 313 312 312 311 310 309 307 307 305 304 304 304 303 303 303 302 302 302 302 301 302 302 301 301 301 301 301 302 302 302 302 302 302 303 303 303 303 303 303 302 303 304 304
320 320 320 320 320 319 319 318 316 314 313 311 310 311 312 314 315 314 314 313 313 313 310 308 308 307 306 305 304 303 303 303 302 302 302 302 302 301 301 301 301 301 301 301 301 302 302 301 302 301 302 302 303 302 301 301 301 301 301 301 301 301 302
322 321 320 320 319 319 318 317 315 314 314 314 312 311 311 313 312 312 312 312 311 310 308 307 306 305 304 303 303 302 301 299 300 300 300 300 301 301 301 301 301 301 302 300 299 299 299 299 299 299 301 302 301 301 300 300 300 299 300 300 300 302 301
319 320 320 319 319 318 317 316 315 313 312 312 312 312 312 312 311 309 308 307 307 307 305 304 300 296 298 300 299 298 299 299 298 298 298 298 299 299 300 300 301 299 298 298 297 296 295 295 297 298 299 300 300 300 299 299 299 299 299 298 299 299 299
317 318 319 320 319 317 315 314 313 312 312 312 312 312 311 310 309 309 306 305 304 303 301 299 293 292 292 294 298 299 297 297 297 297 297 297 297 298 299 299 299 299 299 298 298 295 294 294 294 294 294 296 297 298 298 297 298 299 298 298 299 299 298
315 316 317 318 318 316 314 313 311 311 312 312 312 312 311 310 308 306 304 303 302 301 299 295 291 292 292 292 294 297 298 297 297 297 297 297 297 297 297 298 298 299 299 299 298 298 296 294 293 292 292 292 292 292 293 297 297 297 298 297 297 298 298
313 314 315 316 317 315 313 312 311 311 311 312 311 309 308 306 305 304 303 301 300 299 297 292 292 291 291 291 290 294 296 297 296 296 296 296 296 297 297 297 297 298 298 296 297 298 298 298 295 293 293 293 293 292 291 291 292 297 298 297 297 297 298
311 313 314 315 315 314 312 312 312 312 312 310 308 305 302 301 301 301 301 301 299 297 296 293 291 291 291 290 289 292 297 296 296 296 296 296 296 296 296 296 295 296 297 297 297 297 297 297 297 297 297 297 297 297 293 291 291 290 294 297 297 296 298
310 311 313 313 313 314 312 312 311 310 309 308 304 302 300 299 300 299 298 298 297 296 295 291 290 290 290 290 289 291 297 296 296 296 296 296 296 296 296 296 296 295 296 296 296 295 295 295 295 295 295 295 296 297 297 298 298 298 298 297 297 297 297
309 310 311 311 312 312 312 311 309 308 306 304 302 300 300 299 298 298 297 297 296 295 296 290 290 290 290 289 289 296 296 295 295 295 295 295 295 296 296 296 295 295 295 295 294 290 292 294 293 293 293 294 294 295 296 295 294 294 296 297 298 298 299
308 309 310 310 310 311 310 308 307 305 303 301 299 298 298 298 297 295 295 296 296 295 295 292 289 290 290 288 292 296 295 294 294 294 294 295 295 295 295 295 295 294 294 294 292 289 290 290 292 291 291 291 292 293 293 295 293 292 291 291 291 291 291
307 308 309 309 310 311 310 306 304 303 301 298 297 297 297 297 296 296 295 295 296 296 296 293 289 290 289 289 291 295 294 293 294 294 294 294 295 295 295 293 294 294 294 294 291 289 289 291 291 290 290 290 290 290 291 293 293 294 292 291 291 290 290
308 308 308 309 310 306 303 301 299 299 298 298 296 296 296 294 294 295 296 297 296 296 296 294 290 289 289 289 292 295 294 293 293 293 293 293 294 294 295 294 293 293 293 292 289 289 288 290 290 290 289 289 288 288 290 292 291 291 292 292 293 293 293
308 308 308 308 304 301 299 298 297 296 295 295 294 294 294 294 294 294 295 296 296 297 296 296 295 289 290 290 290 293 294 292 292 292 292 292 292 293 294 294 294 290 289 288 288 288 288 288 289 290 289 288 287 287 290 291 291 291 291 291 291 292 291
307 308 307 302 300 299 298 297 296 295 294 294 294 293 292 293 293 293 293 294 295 296 297 297 296 289 289 289 289 290 294 293 293 292 292 292 292 292 292 292 293 291 289 288 288 288 288 288 288 289 289 288 289 290 290 290 290 290 290 290 290 290 290
308 305 301 299 298 297 297 298 298 296 296 296 296 295 294 295 295 294 293 293 294 296 296 293 297 292 289 289 289 289 292 293 293 292 291 291 291 291 291 291 292 291 288 288 288 288 288 288 288 289 288 288 287 287 289 290 289 289 289 289 289 289 289
301 300 299 298 297 296 296 296 296 296 296 296 295 295 296 296 295 294 294 295 296 297 298 296 292 294 291 289 289 288 288 289 289 291 291 290 290 290 291 291 291 290 288 287 287 287 287 287 288 288 287 287 287 287 288 289 288 288 288 288 288 287 288
299 298 297 296 295 294 294 294 293 294 295 294 294 293 293 294 294 294 293 293 296 296 297 296 293 289 291 288 288 288 288 287 288 291 291 290 291 290 290 291 290 288 287 287 287 287 287 287 288 287 287 287 287 287 288 288 288 288 287 287 287 287 287

ECMWFFLT1_sfc_thetae_030.txt.gz
Theta_e
319 321 324 325 325 324 322 323 324 324 325 325 325 323 324 324 325 324 324 322 319 319 317 317 317 318 320 322 323 325 325 326 327 324 324 325 324 324 327 327 327 327 327 327 326 321 320 319 322 329 330 329 330 332 331 331 331 333 334 336 335 335 337
322 321 322 323 322 324 323 323 324 323 324 324 323 322 321 320 320 320 320 319 318 317 316 316 317 318 320 320 320 320 321 321 323 324 322 321 323 321 323 325 325 324 324 326 324 324 320 318 320 321 322 327 328 333 331 330 330 333 332 332 332 332 334
321 320 321 321 322 323 322 323 323 322 322 323 323 322 320 319 320 320 319 319 319 317 317 317 319 321 321 321 321 321 321 319 319 320 321 320 322 322 322 321 320 319 320 320 321 320 320 321 316 318 321 319 320 328 330 330 332 334 332 333 333 334 334
320 321 320 322 321 322 321 322 321 322 322 322 322 323 321 321 322 321 321 320 320 320 320 319 321 320 321 320 321 321 321 320 319 319 318 319 318 318 318 318 318 317 318 317 317 317 316 315 314 314 316 317 318 321 328 328 330 328 328 334 331 331 333
322 320 320 320 322 322 322 319 320 320 321 321 322 321 323 323 323 322 322 321 320 320 319 320 320 320 321 321 321 321 320 321 321 319 319 318 318 317 317 317 317 318 318 318 317 317 316 316 315 314 313 314 313 314 317 325 326 324 321 323 329 332 331
323 320 320 320 322 320 322 320 320 318 319 319 320 320 322 324 323 322 322 320 319 320 319 319 319 319 319 319 319 320 320 320 320 320 318 319 319 318 317 317 316 316 317 318 317 317 317 317 316 312 314 314 312 314 317 317 316 319 320 318 321 323 325
324 322 321 321 321 320 320 320 320 318 318 320 320 321 323 324 323 323 323 322 320 320 319 320 320 319 319 316 318 318 319 319 319 319 318 319 319 319 319 317 317 316 316 317 316 317 316 315 314 314 314 314 315 313 314 315 317 314 316 318 319 320 323
325 322 321 322 323 320 320 321 320 320 319 320 320 323 324 324 324 324 323 322 320 320 320 320 319 319 318 317 318 319 318 318 317 317 316 316 315 315 315 316 316 316 316 315 315 316 315 316 315 315 313 310 312 314 313 315 316 315 315 319 320 319 319
325 324 322 322 323 323 323 321 320 321 321 320 322 323 324 325 325 324 323 322 321 320 320 319 319 318 317 317 316 318 317 317 318 318 317 316 316 315 315 315 316 314 316 315 315 315 315 316 315 314 315 313 310 308 311 312 314 313 318 317 320 321 321
328 326 324 325 326 326 325 323 320 321 322 322 322 325 324 325 325 325 323 322 321 320 319 318 318 318 317 317 316 316 316 317 317 316 316 316 315 315 314 314 314 315 314 316 316 316 316 316 315 314 313 313 312 309 307 308 311 312 316 319 316 320 322
328 328 327 327 328 326 325 324 322 322 322 323 324 325 324 324 324 323 323 322 321 320 319 319 318 317 318 316 316 316 316 317 316 316 316 316 315 315 314 314 314 312 313 314 313 315 315 315 314 314 313 313 313 310 310 308 309 314 314 317 318 317 322
328 328 328 328 329 326 325 323 323 323 324 324 322 323 324 323 324 323 323 321 321 320 319 319 318 318 317 316 315 314 315 317 316 315 316 315 314 315 313 312 312 312 311 311 312 312 313 312 312 312 313 314 314 313 311 309 307 312 317 315 317 320 319
327 327 328 328 327 326 325 324 323 324 323 323 322 322 322 322 323 322 322 321 320 319 318 318 318 318 317 317 315 315 315 315 314 314 314 315 312 314 312 311 310 309 309 309 309 309 309 311 312 310 311 312 313 314 312 309 307 308 314 314 315 317 317
328 327 328 327 327 326 326 325 324 325 325 324 322 322 321 321 321 321 321 320 319 319 318 318 318 318 316 315 315 315 313 313 312 313 314 312 312 312 310 309 309 309 310 309 308 308 307 308 309 309 311 311 311 312 312 311 308 309 312 316 316 316 318
327 328 328 327 327 326 326 325 326 325 325 325 324 322 321 321 321 321 320 319 319 318 318 317 317 316 315 315 315 315 314 312 312 312 312 311 312 310 311 310 308 309 309 308 309 307 307 306 306 305 306 309 309 311 313 311 309 308 308 312 313 316 315
326 327 327 326 327 326 325 326 327 327 325 325 325 324 322 322 321 321 320 320 318 318 317 317 317 316 315 315 313 314 314 312 312 312 312 311 309 309 309 310 309 309 310 309 309 309 309 308 307 305 306 306 306 309 310 311 310 308 308 308 312 311 313
326 326 326 326 326 326 326 325 326 326 325 325 324 325 323 322 322 321 320 319 318 318 317 317 316 316 315 314 313 313 312 312 312 312 310 309 308 309 309 308 309 309 308 308 308 307 308 307 307 306 306 307 307 307 310 311 311 309 308 307 310 309 311
325 325 325 326 326 327 327 326 326 325 325 324 324 324 323 322 322 321 320 319 318 318 317 317 316 315 315 315 314 313 312 311 312 310 310 310 308 308 308 308 307 308 308 307 307 306 306 306 305 306 305 305 306 307 308 308 309 309 308 307 308 310 311
324 325 325 326 326 327 327 327 327 326 325 323 324 323 323 322 321 321 320 319 319 318 318 317 316 315 315 314 314 313 312 311 310 310 309 309 309 309 308 308 307 307 306 306 305 305 305 306 305 306 305 305 305 306 307 307 308 307 307 307 307 307 310
326 324 325 325 326 326 326 327 327 326 325 324 323 322 322 320 321 321 320 320 319 318 318 317 316 316 315 314 313 312 311 311 310 310 309 308 308 308 307 306 307 306 305 305 304 304 305 305 305 306 307 307 307 307 306 306 306 306 307 306 307 308 307
326 327 326 325 323 325 327 325 325 326 325 324 323 322 320 319 320 320 320 319 319 319 318 317 316 316 314 313 313 312 311 311 309 309 309 308 307 307 306 306 305 305 304 304 304 304 304 303 304 304 305 306 307 306 306 306 306 306 306 306 305 305 306
320 322 324 324 324 324 325 325 325 325 324 324 324 322 321 319 319 319 319 319 318 318 318 316 316 315 313 312 312 311 310 309 308 307 306 306 306 305 305 305 305 305 305 303 300 300 300 299 300 299 301 303 304 305 305 305 305 304 304 304 304 305 305
317 319 320 321 322 324 323 323 324 323 322 322 323 323 322 321 320 319 318 318 318 318 317 316 306 301 305 311 311 309 308 307 306 305 304 304 304 304 304 304 305 304 302 300 299 296 295 295 296 299 300 302 302 302 302 303 303 303 303 302 303 303 303
316 316 318 319 321 321 321 322 323 323 322 321 321 321 320 320 319 320 319 318 317 315 310 303 294 293 293 297 306 307 306 305 304 304 303 303 302 303 303 303 304 303 303 301 301 295 294 294 294 294 295 296 297 299 299 299 300 302 301 302 303 303 303
313 315 316 316 318 320 321 321 320 321 321 319 319 318 317 317 318 319 318 316 314 309 303 294 291 292 292 292 297 304 304 304 303 303 303 302 301 302 302 302 303 304 304 304 303 302 299 295 293 293 292 292 293 293 294 297 298 299 300 300 301 302 303
312 313 315 316 318 319 319 320 320 319 319 320 319 318 318 318 318 317 316 313 309 303 299 292 290 291 291 291 290 297 303 303 302 301 301 301 301 301 301 301 302 303 303 302 300 301 302 303 296 293 293 293 293 292 291 290 291 297 298 298 299 299 301
312 313 314 315 317 318 318 318 319 320 319 319 318 317 319 318 318 316 313 309 304 300 297 292 291 290 291 290 289 293 302 301 301 301 300 300 301 301 301 301 301 301 302 303 303 302 302 302 302 303 302 302 301 299 293 291 291 291 294 297 297 297 299
312 313 313 314 316 317 317 319 318 318 317 317 317 316 317 317 315 312 308 304 300 297 295 290 290 290 290 290 288 291 301 300 300 300 301 301 301 301 302 302 302 301 302 302 303 300 301 300 299 299 299 299 300 301 302 301 301 300 299 298 299 299 299
311 312 312 314 314 315 316 318 318 317 316 317 318 318 317 315 311 306 303 300 297 294 293 290 290 290 289 290 288 299 298 298 298 299 300 301 301 301 301 301 301 301 301 301 298 292 293 297 297 296 296 297 298 299 300 298 296 296 299 301 301 301 301
311 311 312 312 312 314 315 316 316 316 315 315 315 314 311 308 306 302 299 297 295 293 292 291 289 289 290 288 291 299 299 299 299 299 300 300 301 301 301 301 301 300 300 300 295 291 290 291 296 295 295 295 296 296 297 299 296 293 293 292 291 291 290
310 311 311 311 312 313 315 316 315 314 314 313 311 309 307 303 301 300 298 296 295 293 293 292 289 290 289 289 292 298 299 299 299 299 299 300 300 300 300 298 297 298 298 299 293 289 289 292 294 294 294 293 293 294 295 297 298 298 293 292 291 291 291
311 310 310 311 312 313 313 314 313 314 313 310 306 303 301 299 298 299 299 298 297 296 294 292 289 289 289 289 296 299 298 298 298 298 299 298 300 300 299 299 297 297 297 296 290 290 289 291 294 293 293 292 291 292 293 295 295 295 296 296 297 297 295
311 311 311 311 312 312 313 311 311 309 306 303 300 298 297 297 296 297 298 298 297 297 295 294 293 289 290 289 289 297 297 297 297 297 298 297 297 298 298 299 298 292 290 289 289 288 288 288 292 293 292 290 290 289 293 294 294 294 294 294 294 295 295
311 311 312 311 312 312 310 307 305 303 301 299 297 296 296 297 296 297 297 297 297 298 298 297 295 289 290 290 288 290 297 297 297 297 296 295 296 297 297 298 299 294 289 289 288 288 288 288 289 292 291 290 291 291 291 291 291 290 291 292 292 292 292
311 310 311 311 311 309 307 305 302 299 298 297 296 296 296 296 296 296 298 298 298 297 297 297 297 290 289 289 289 288 295 297 296 294 293 294 296 297 297 297 297 294 289 289 288 288 288 288 288 291 290 288 288 287 289 290 290 290 290 290 290 291 291
309 310 310 310 309 305 303 301 299 297 296 296 295 294 294 294 294 294 294 295 296 297 298 297 293 297 290 290 289 289 288 291 289 293 294 295 295 296 297 297 296 292 288 288 288 288 288 287 288 290 288 287 287 287 288 289 289 289 289 290 290 289 290
308 310 309 307 305 302 299 297 296 296 295 294 293 293 294 295 295 295 295 295 296 297 298 300 293 291 294 288 289 288 288 287 288 293 294 294 295 295 295 296 294 289 288 288 288 288 288 288 289 288 287 287 287 287 289 289 289 289 289 288 288 288 289

ECMWFFLT1_sfc_thetae_033.txt.gz
Theta_e
321 323 324 325 325 324 324 325 326 325 326 326 325 324 325 325 326 324 323 322 319 318 317 317 317 318 321 321 321 323 324 324 325 324 323 325 322 322 327 327 327 327 327 325 324 320 320 318 320 328 332 331 332 330 332 333 331 332 333 334 333 334 335
324 323 323 323 322 324 324 324 325 323 324 325 323 322 322 321 321 320 321 320 320 319 317 317 319 320 321 322 322 322 321 320 322 324 323 321 322 320 322 322 323 325 326 325 326 325 320 317 320 321 323 329 330 332 330 332 331 332 332 333 333 333 333
322 321 322 321 322 323 323 324 323 323 323 323 323 321 321 320 321 321 319 319 320 318 317 319 321 321 322 323 323 323 323 322 321 319 319 320 320 321 318 318 317 319 319 322 323 323 322 321 317 317 322 320 320 329 332 332 329 329 332 332 330 330 330
321 321 321 321 321 322 321 322 322 322 323 322 321 322 322 322 323 322 321 320 322 322 320 320 321 321 323 323 323 322 322 322 320 321 320 319 320 317 317 317 317 317 316 315 317 318 317 316 315 315 317 318 320 322 329 329 326 326 328 333 332 331 332
323 321 322 320 321 321 321 320 321 321 322 323 323 321 322 323 323 322 322 321 321 322 320 321 322 321 322 322 322 322 323 323 324 322 321 321 322 319 317 317 316 318 318 317 317 317 315 315 315 313 312 313 313 313 315 328 327 324 324 323 325 329 330
324 322 323 321 322 321 321 320 320 320 321 321 321 322 323 323 323 321 321 320 319 320 321 318 318 320 320 319 321 321 321 320 320 321 319 319 319 319 319 318 317 316 317 318 318 315 316 316 314 311 313 314 312 313 315 317 318 321 322 321 320 318 320
322 323 322 322 323 321 322 320 321 320 320 321 322 323 323 323 323 323 323 322 321 321 320 321 321 320 320 317 319 320 320 320 321 320 319 320 319 319 319 318 316 316 316 319 317 318 317 315 313 314 313 313 313 311 314 314 315 313 316 319 319 318 317
323 322 321 322 323 321 322 323 322 321 320 321 321 323 324 324 324 324 324 322 320 321 320 321 320 320 320 318 319 320 320 320 319 318 317 318 317 317 316 316 318 317 316 315 316 317 316 317 315 314 311 308 310 312 311 314 315 315 315 317 318 320 320
324 323 321 322 323 323 323 323 322 322 322 321 323 323 325 324 325 324 323 322 321 320 321 321 320 319 319 319 318 319 318 318 319 320 319 319 318 317 316 317 317 315 316 314 316 316 315 316 316 315 314 311 308 307 310 309 311 312 316 315 317 320 320
326 324 322 323 325 325 324 323 322 321 324 323 323 324 325 324 325 325 323 322 321 321 321 320 320 319 318 318 319 317 318 319 319 317 319 317 317 318 316 315 315 315 313 316 316 314 315 317 316 315 314 312 310 307 305 306 310 311 315 318 315 317 323
327 326 324 323 325 325 323 323 323 322 322 323 323 324 325 323 324 324 323 323 322 321 321 320 319 319 319 318 318 318 318 319 317 318 318 317 317 317 315 314 315 314 312 314 313 315 315 313 313 314 314 314 313 308 307 305 307 311 311 315 315 313 319
328 327 326 326 326 325 324 323 322 322 324 323 323 325 325 323 324 323 323 323 322 321 320 320 319 320 318 318 317 317 318 317 317 317 318 317 316 317 315 314 313 313 312 312 313 313 312 312 311 310 311 312 312 314 311 309 305 310 313 312 315 318 317
327 326 327 326 326 326 325 324 323 323 323 323 323 325 324 322 323 323 322 322 322 320 319 319 319 319 319 319 317 317 316 317 317 316 316 316 314 315 314 314 311 311 311 310 311 311 310 311 312 309 310 311 311 312 312 311 308 307 313 312 313 314 315
328 327 327 327 326 326 326 326 324 324 324 323 323 323 323 322 322 323 322 322 321 321 320 319 319 319 318 318 317 317 317 315 315 315 316 315 314 315 313 311 311 312 312 310 311 310 310 310 310 310 309 309 309 312 311 310 308 308 312 315 314 313 315
327 327 327 326 326 325 326 326 326 324 324 323 324 322 322 323 322 323 322 321 322 321 320 319 319 319 317 317 317 317 317 314 314 314 316 314 314 313 313 311 310 312 311 310 311 309 309 308 308 308 307 308 306 307 310 308 307 306 306 311 311 313 313
324 324 326 326 326 325 326 326 325 324 323 323 324 323 322 322 322 322 322 322 321 321 320 320 320 319 318 317 316 317 316 315 314 314 313 314 313 313 312 312 311 312 313 311 312 311 311 309 309 307 307 307 306 307 307 308 307 306 306 307 310 309 310
326 326 325 325 326 325 326 325 324 324 324 323 322 324 323 321 321 322 321 321 321 321 320 320 320 319 318 317 317 316 316 315 314 314 313 313 311 312 311 312 311 312 312 311 311 310 310 310 309 307 306 307 307 307 308 309 310 308 308 307 310 310 311
327 326 326 326 326 327 328 329 328 326 325 324 324 324 324 323 322 321 322 321 321 321 321 320 319 319 319 319 318 317 316 314 315 314 315 314 314 312 311 311 311 311 311 309 310 309 309 308 306 306 306 306 305 307 308 308 308 308 307 306 307 309 311
326 325 325 326 326 327 328 327 325 328 325 325 325 325 324 323 322 321 322 322 322 322 321 321 320 319 319 318 318 317 317 315 314 314 313 313 312 310 311 311 311 310 310 309 309 309 308 307 306 306 306 306 305 306 307 307 307 306 305 305 306 306 309
325 326 326 326 327 327 327 327 326 327 327 326 325 325 324 324 325 323 323 324 323 323 322 321 320 320 319 319 318 317 316 315 315 314 313 312 312 312 312 311 311 310 309 309 308 307 307 307 306 306 307 307 307 307 307 307 307 306 306 306 306 306 306
325 326 326 326 326 326 326 326 327 328 327 326 325 325 325 324 324 324 323 323 324 323 323 321 320 319 319 318 318 317 316 315 314 313 313 312 312 311 311 310 310 309 308 308 308 307 304 302 303 303 303 304 304 304 304 304 304 305 305 306 305 306 306
318 318 321 324 324 324 325 326 326 325 326 326 327 326 325 324 323 322 321 323 322 324 323 321 321 319 319 317 317 316 315 314 313 313 312 311 311 310 310 310 309 309 308 310 300 301 301 301 299 298 300 301 302 302 303 303 304 303 304 304 304 306 305
315 316 317 318 320 322 323 325 325 325 326 326 326 325 325 324 320 321 319 320 321 323 325 323 315 309 311 317 317 315 315 314 313 312 311 310 309 309 308 309 309 309 305 303 300 296 295 295 297 299 300 301 301 301 301 301 301 302 302 301 302 303 303
315 314 315 316 317 318 320 322 323 324 325 326 326 326 325 321 320 318 318 319 321 322 317 309 297 297 299 305 315 316 314 312 311 310 309 308 308 308 308 307 308 308 306 303 302 296 295 295 294 294 295 296 298 300 299 299 300 300 299 300 301 301 301
312 312 314 314 315 315 317 319 320 321 322 324 325 325 324 323 321 320 320 320 321 318 309 297 294 295 296 298 304 313 311 310 309 308 307 307 307 306 306 306 306 306 306 305 305 305 301 295 293 293 292 293 293 293 294 298 297 297 298 298 298 300 301
311 311 312 313 314 316 316 315 317 318 319 322 322 322 321 321 321 320 321 320 319 311 304 293 293 294 294 293 293 302 308 307 307 307 306 306 305 305 305 304 304 304 304 307 303 303 304 305 297 293 294 294 293 293 291 291 292 299 299 298 297 297 298
310 311 312 312 313 313 314 315 316 318 318 319 320 319 320 320 320 320 319 318 316 309 304 293 292 292 292 291 290 296 307 305 305 304 304 304 305 304 303 303 302 302 303 304 304 304 304 305 305 305 303 303 303 300 293 291 291 291 294 298 299 298 300
310 311 311 312 313 312 313 315 316 317 317 317 317 318 318 319 319 320 318 317 307 304 299 291 291 291 291 291 290 295 305 304 303 303 304 304 303 303 303 303 303 303 304 304 305 303 304 303 302 301 301 301 301 301 302 303 301 299 298 298 299 300 301
311 311 312 312 312 312 314 315 315 317 317 317 317 317 318 319 319 318 319 306 303 298 295 289 290 290 291 290 290 302 303 302 301 301 302 303 302 303 304 304 303 303 303 303 297 291 295 300 300 299 298 298 299 300 301 299 297 298 301 302 302 301 302
310 311 311 311 311 312 312 313 315 316 316 316 316 316 317 318 318 317 306 303 300 297 295 291 289 290 290 289 293 301 300 299 300 300 301 302 303 303 303 303 303 303 302 302 295 289 289 293 297 297 297 297 298 298 298 300 297 294 293 293 293 292 292
310 311 311 311 311 312 313 314 315 316 315 314 314 314 316 316 316 307 303 301 298 295 295 292 289 290 290 289 293 300 299 299 299 299 300 301 303 302 303 303 302 300 300 301 290 289 289 294 296 296 296 295 295 295 296 298 298 299 295 293 292 292 292
310 311 311 311 312 311 312 313 315 315 314 315 314 314 309 307 304 302 300 298 296 295 294 292 290 289 289 289 295 299 298 297 297 297 299 300 301 302 302 302 300 299 300 298 289 289 288 292 295 295 295 295 293 293 294 296 296 296 296 297 297 299 298
311 311 311 312 313 312 313 313 314 314 315 312 310 308 306 302 298 297 296 296 296 295 294 294 292 289 290 289 289 295 297 296 296 297 299 299 299 300 300 300 300 293 292 289 289 288 289 289 293 295 295 293 292 291 294 295 294 293 293 293 294 295 295
311 312 312 312 313 313 313 312 313 313 312 309 306 303 300 299 298 297 297 297 295 295 295 294 293 289 290 290 288 290 296 296 297 297 297 296 297 298 299 300 301 289 289 288 289 287 289 288 289 292 293 292 292 292 291 291 291 291 292 292 292 292 292
311 312 312 312 311 310 312 313 313 312 310 306 304 300 298 297 297 297 297 297 296 296 297 296 294 290 289 290 289 288 294 296 295 294 294 296 297 298 299 299 300 291 288 288 288 288 288 288 288 291 291 289 289 288 290 291 290 290 290 290 290 290 291
309 310 310 310 310 310 311 311 310 308 306 304 301 298 297 297 296 296 296 297 297 297 298 298 293 292 289 289 289 289 287 291 290 295 296 296 297 297 299 299 299 292 289 289 289 288 288 288 289 291 288 288 288 288 288 290 290 289 289 289 289 289 290
309 309 309 310 310 310 310 307 305 305 303 300 297 296 296 295 293 292 292 293 295 295 296 296 294 292 292 289 289 289 288 287 289 295 295 295 296 297 298 298 296 290 289 289 288 288 289 289 290 288 288 288 287 288 290 290 289 289 288 288 288 288 289

ECMWFFLT1_sfc_thetae_036.txt.gz
Theta_e
325 323 327 327 328 327 327 326 326 330 327 328 328 325 323 323 325 324 325 323 325 319 318 318 318 320 322 323 322 323 322 322 323 322 324 326 323 323 327 325 324 326 325 323 322 319 317 315 319 326 329 330 330 330 330 330 330 331 331 332 331 331 330
325 325 324 323 326 327 327 330 327 323 326 326 323 322 321 321 323 323 322 321 319 319 318 318 319 321 322 322 322 322 321 319 319 320 319 318 317 318 323 324 324 323 323 323 322 323 319 315 316 318 320 328 328 329 329 331 331 332 331 332 333 331 329
323 323 323 323 324 327 326 326 326 327 323 326 326 325 324 321 323 323 321 322 324 323 322 322 321 322 322 321 322 322 322 321 321 319 317 318 316 317 317 318 318 321 322 321 321 321 319 318 313 315 320 318 317 324 330 329 329 329 330 329 330 329 328
323 324 321 322 322 325 324 325 327 325 325 324 325 326 325 324 323 325 325 323 324 325 322 321 323 322 324 325 323 323 322 322 321 321 321 321 319 315 316 316 314 315 314 314 314 315 314 313 313 313 313 312 317 318 327 329 326 325 325 328 330 330 329
323 323 321 321 322 323 324 324 327 325 324 324 327 325 325 326 325 325 326 325 325 325 323 322 324 322 321 321 322 322 321 321 321 319 318 317 319 318 315 315 317 317 314 313 314 315 313 312 312 309 309 310 311 311 318 326 327 324 323 323 326 329 331
325 325 322 323 323 324 322 323 324 323 323 322 324 323 324 326 325 325 328 322 321 323 323 321 320 323 321 320 320 320 320 319 319 319 317 317 317 316 318 317 316 314 315 317 318 317 317 316 315 311 311 311 309 310 311 314 321 324 322 321 321 319 318
326 326 323 323 323 324 324 324 324 324 322 323 323 324 324 326 324 327 326 324 323 322 322 323 322 322 324 317 320 320 319 320 320 318 318 317 317 316 317 316 315 314 316 316 317 317 316 314 311 309 308 310 310 309 311 311 312 311 317 320 319 318 318
327 327 325 325 324 325 324 324 325 326 324 323 323 326 323 326 326 326 325 323 323 324 322 324 324 322 322 318 319 321 320 319 319 317 317 317 317 316 316 317 318 315 314 312 316 314 314 313 313 312 310 306 306 309 308 309 310 311 314 317 319 317 317
325 326 326 325 326 328 327 324 326 327 326 325 324 326 323 325 326 325 324 323 324 323 324 322 322 320 321 324 317 320 318 319 319 319 318 317 316 315 315 316 315 312 313 315 313 313 314 315 314 316 313 308 304 302 305 306 308 309 313 310 314 317 318
325 325 325 326 326 328 330 327 326 327 330 326 325 326 323 326 326 325 322 322 322 322 323 323 322 321 320 324 319 320 320 321 320 317 319 317 317 317 316 316 315 311 312 315 313 315 315 313 312 313 314 311 310 304 301 302 304 306 309 311 309 313 315
327 327 326 328 328 325 329 329 328 325 328 328 326 326 324 324 325 325 324 322 322 322 321 321 320 320 320 322 318 319 319 320 318 318 319 318 317 316 315 314 316 310 313 313 314 316 312 311 313 312 310 311 312 308 306 302 303 307 307 310 311 310 313
331 330 329 331 328 326 327 328 329 327 328 328 326 325 325 323 325 324 324 322 321 321 321 321 322 319 318 320 317 319 318 318 317 317 318 316 318 317 315 314 315 312 313 314 314 312 311 313 312 309 308 309 310 309 308 307 302 308 312 307 310 313 312
329 330 331 332 328 327 327 327 328 328 327 327 328 326 324 323 323 323 322 322 322 320 320 321 319 320 318 319 315 317 316 317 317 316 315 316 314 317 313 313 311 312 311 310 313 311 313 313 314 310 309 310 307 310 310 307 304 304 310 310 310 312 313
331 330 330 330 329 329 330 329 328 328 327 326 326 326 324 323 321 322 321 321 320 320 319 319 319 320 318 318 317 317 316 314 315 315 316 314 316 314 313 313 310 312 312 311 312 312 310 311 310 312 309 307 307 309 309 307 304 304 308 313 313 311 311
329 330 329 331 330 330 328 328 328 328 327 327 325 325 323 324 322 322 321 320 320 320 320 318 319 319 318 317 318 319 318 314 314 315 315 312 314 317 314 311 311 310 311 310 311 307 307 307 306 304 306 307 303 305 306 305 302 301 300 304 306 310 309
327 327 329 328 327 326 327 328 329 327 326 325 324 322 323 323 322 321 321 321 320 320 320 319 319 318 318 317 316 317 319 314 314 315 315 314 311 312 312 311 311 312 314 310 311 311 311 310 308 305 304 305 304 306 305 305 303 301 301 302 305 305 306
326 326 326 327 324 324 325 328 325 325 326 326 323 325 324 321 321 321 320 320 320 320 320 320 320 318 318 317 316 316 316 316 316 315 315 312 312 312 311 311 312 313 312 310 310 310 309 309 309 306 304 304 305 305 306 307 307 303 303 302 303 304 306
327 327 325 325 324 323 323 323 324 322 323 322 322 323 322 321 320 320 320 319 320 320 320 320 319 319 319 319 318 318 316 315 315 314 315 314 316 313 311 311 311 311 311 309 309 309 309 308 305 305 304 303 303 304 307 306 305 304 302 301 302 304 304
324 322 322 322 324 326 325 326 325 324 323 322 323 323 321 322 321 320 320 319 319 319 320 320 319 319 318 318 318 317 317 316 316 314 315 315 313 313 312 311 312 311 309 309 309 309 308 307 306 305 304 303 303 303 304 304 304 303 303 302 301 302 304
325 324 323 323 324 325 325 326 326 325 325 324 322 321 321 321 322 323 322 321 322 320 320 320 320 319 319 318 317 317 317 317 316 316 316 314 313 312 311 311 311 311 310 309 309 308 307 306 306 304 304 304 303 302 302 302 303 302 302 302 302 303 302
325 323 322 323 323 325 326 321 319 320 322 322 323 322 322 324 322 321 320 319 319 321 323 321 321 320 319 318 318 317 317 316 314 315 316 314 314 313 312 311 311 310 309 309 308 307 305 301 301 299 299 299 300 299 298 299 299 299 299 300 300 300 301
326 325 323 323 323 323 323 324 322 321 321 321 324 324 322 321 321 320 320 320 321 321 321 321 320 319 317 319 321 317 316 315 314 313 313 312 313 312 311 311 310 310 310 308 302 301 301 301 300 296 297 298 298 298 298 298 299 298 298 298 298 300 299
322 321 320 320 322 324 323 323 323 323 323 324 324 324 321 320 320 321 319 319 320 320 320 322 316 309 305 314 317 317 316 315 313 312 311 311 311 311 311 310 311 313 308 305 301 298 297 297 298 299 297 297 297 297 297 297 296 297 297 296 296 297 296
320 318 320 321 321 321 319 322 322 322 323 324 324 325 324 321 321 320 318 318 318 319 323 321 306 302 303 300 315 317 314 313 313 312 312 310 309 309 309 307 308 310 305 303 301 297 296 295 294 295 295 297 299 298 296 295 295 295 295 295 296 295 295
316 317 319 318 319 318 318 317 317 319 320 322 323 324 323 322 321 320 319 318 318 319 315 301 298 301 302 302 306 317 314 313 312 311 310 308 308 310 310 309 308 309 306 306 305 304 299 295 294 293 293 293 293 293 294 295 295 294 294 294 294 294 294
314 315 314 315 318 319 317 316 315 316 318 321 321 321 322 322 322 321 320 318 318 316 308 293 295 297 297 299 302 308 312 311 308 307 307 307 309 308 307 307 306 307 307 308 305 302 301 301 296 294 295 294 293 293 291 291 292 296 296 295 294 294 294
310 312 314 314 315 313 313 313 316 317 317 317 320 319 320 320 320 320 320 320 316 306 302 293 293 294 295 296 298 303 308 308 307 307 306 306 307 307 306 305 304 303 303 303 303 303 303 302 302 301 300 298 297 298 294 292 291 291 293 295 295 295 297
312 311 312 311 312 311 312 313 315 316 316 317 316 318 318 317 318 318 318 313 304 302 296 292 292 292 293 295 296 300 305 305 304 304 305 305 306 307 306 306 304 301 301 302 305 300 302 301 300 300 298 298 298 298 298 298 298 296 295 295 294 295 296
313 312 312 313 313 312 313 315 314 316 316 316 316 317 317 317 317 317 309 304 299 295 294 290 291 291 292 294 297 304 303 303 303 302 303 305 305 305 306 304 302 302 301 302 295 293 296 299 298 297 296 296 296 296 297 298 296 296 298 298 298 298 298
312 313 312 311 310 311 312 312 313 314 313 315 315 315 315 316 316 307 304 301 296 293 293 291 290 291 291 294 298 302 301 300 300 302 302 304 304 305 304 303 302 301 302 301 294 291 291 294 297 295 295 294 295 295 295 297 296 294 293 293 292 292 292
309 311 313 311 312 314 315 315 313 315 313 313 313 315 315 309 304 304 301 298 296 294 292 291 290 290 290 291 296 302 300 302 302 302 302 304 303 303 302 306 304 300 300 299 289 290 289 294 295 294 293 293 292 292 293 295 296 296 295 294 293 293 292
309 310 309 310 313 312 312 312 312 314 314 314 312 307 306 304 302 300 299 297 297 294 293 292 290 289 289 290 296 299 298 299 300 300 300 300 303 303 303 303 302 298 295 291 289 288 288 291 292 292 292 291 291 290 292 293 292 291 291 291 291 292 292
312 311 309 311 312 312 313 312 313 313 314 310 306 304 302 300 298 297 296 296 295 294 293 293 292 289 290 290 290 297 298 296 296 297 298 297 297 298 297 298 294 288 289 288 288 288 288 289 290 290 290 289 289 289 291 290 290 290 290 290 290 290 291
313 314 313 312 312 312 312 312 312 312 311 307 305 303 300 298 297 296 296 295 295 294 294 292 292 289 290 289 290 292 295 295 295 294 293 293 294 295 295 297 292 290 288 289 289 287 289 289 289 289 289 288 289 291 289 288 289 290 289 289 289 289 289
313 313 312 312 310 309 310 310 311 311 310 304 303 301 299 297 296 295 294 294 294 294 295 295 292 289 289 290 289 289 295 294 292 293 293 293 294 296 296 298 293 290 288 289 289 288 288 288 288 289 289 289 289 288 289 289 289 289 288 289 288 288 289
311 310 309 309 308 308 308 308 311 310 306 303 301 299 298 297 296 294 294 294 294 295 295 294 292 291 290 290 289 289 288 292 289 294 295 294 294 294 296 297 295 289 289 289 289 289 289 289 289 289 289 288 288 288 288 288 288 289 288 288 288 288 288
308 309 309 309 309 308 309 310 308 306 304 301 299 298 298 297 296 295 294 294 295 295 296 294 291 291 291 289 289 289 288 288 290 295 296 294 294 295 296 295 291 288 289 289 289 289 289 289 289 289 288 288 288 288 288 288 288 289 288 288 287 287 287

ECMWFFLT1_sfc_thetae_039.txt.gz
Theta_e
316 315 315 316 318 319 318 317 317 317 319 320 317 315 316 318 316 314 314 313 313 315 317 315 315 316 318 319 318 315 315 315 317 319 318 320 318 319 322 318 319 321 320 320 317 314 311 311 315 321 325 325 326 326 327 329 330 331 328 329 330 329 327
317 317 317 318 317 318 316 316 314 314 314 314 314 313 313 315 317 315 314 314 313 313 317 316 316 317 315 315 315 315 313 313 314 313 311 310 312 315 318 318 319 318 319 318 318 317 314 310 312 314 315 322 324 325 325 328 329 329 329 330 332 330 328
316 315 316 315 315 317 316 314 313 313 314 314 314 314 314 316 314 314 314 315 315 316 316 315 315 315 315 315 315 315 314 314 315 314 311 310 312 311 313 315 315 317 318 316 316 316 316 314 309 311 313 313 312 317 324 325 327 327 328 328 328 330 328
314 314 314 313 315 314 314 314 312 313 314 313 315 316 315 314 316 318 315 316 318 320 318 316 316 317 316 316 317 316 315 313 312 313 313 312 310 310 311 311 309 310 309 308 308 310 309 306 305 306 307 308 311 308 316 323 325 327 326 326 326 327 327
315 315 313 314 315 314 314 314 314 314 312 314 314 312 313 315 314 315 316 314 315 313 311 315 316 316 316 315 314 314 313 314 314 314 311 310 311 311 310 310 310 311 310 309 311 310 308 307 307 305 306 307 308 308 315 321 325 324 322 321 324 326 327
316 314 314 314 315 314 313 315 313 312 312 314 313 315 313 312 314 315 312 311 312 314 314 313 313 313 314 314 314 313 313 312 311 310 309 309 309 310 310 310 310 310 309 310 311 312 311 310 307 303 305 308 305 306 308 309 311 321 323 320 320 322 325
315 315 315 314 315 314 315 315 314 314 313 313 314 313 314 315 314 316 314 312 312 313 313 311 312 314 314 314 313 312 312 311 311 310 310 309 309 309 310 308 308 308 307 310 309 310 309 308 305 304 305 305 306 306 307 306 308 307 309 315 318 317 315
317 315 316 316 316 314 315 316 315 315 313 314 315 314 317 315 314 315 313 313 313 313 312 312 314 312 312 313 313 312 312 311 311 311 309 308 309 308 308 309 309 307 308 308 308 310 310 309 308 307 304 302 301 302 303 305 306 307 306 308 312 312 311
318 317 317 317 316 315 315 316 316 315 315 316 317 316 315 317 315 315 313 312 313 312 313 312 312 312 313 312 312 312 311 316 312 311 309 308 307 308 308 307 306 305 308 307 308 308 307 308 308 308 306 302 300 297 300 301 303 304 309 307 308 310 311
318 316 317 316 316 317 316 315 316 316 316 317 317 316 315 317 316 315 313 313 313 313 313 313 313 311 312 312 311 310 310 313 313 311 310 309 309 308 308 306 305 305 306 307 307 308 306 305 308 306 306 305 303 301 298 299 299 302 305 309 306 307 311
317 317 317 316 315 318 316 314 316 317 316 317 318 317 316 318 317 322 314 313 312 313 313 313 313 310 311 312 310 312 312 311 309 310 310 310 308 307 308 307 304 304 307 306 307 307 304 305 305 305 304 305 305 302 301 299 299 303 304 306 309 307 310
318 316 319 318 316 316 317 316 315 315 318 317 318 316 315 317 317 317 315 314 314 314 313 312 312 310 311 310 309 311 311 310 309 309 309 310 310 308 307 306 305 304 305 304 307 305 306 305 304 303 302 304 304 304 303 302 298 301 307 305 306 309 309
320 318 319 319 316 315 317 317 316 314 316 318 317 317 315 316 317 316 316 315 314 314 313 313 312 311 309 310 309 312 309 309 311 309 309 309 313 309 306 304 305 304 304 304 305 304 304 306 306 303 303 304 302 303 304 303 300 300 303 306 306 307 308
320 320 320 320 317 317 317 317 317 316 317 316 318 317 316 316 317 317 317 317 315 314 313 312 312 311 309 310 308 310 308 309 310 309 308 308 310 308 307 307 305 306 305 304 303 304 305 304 303 304 304 302 302 302 302 300 298 298 299 304 304 304 305
319 317 318 318 318 318 317 317 318 318 317 316 317 318 318 317 316 317 316 316 316 315 314 313 313 312 311 310 309 312 310 308 308 309 307 306 307 310 307 305 306 305 306 306 305 304 305 303 304 301 300 302 299 301 301 301 298 298 297 299 301 303 304
319 318 318 319 318 318 318 317 318 317 316 316 316 317 318 317 317 316 316 316 315 315 315 314 313 312 311 310 311 310 311 308 307 308 308 307 308 308 304 305 305 306 308 304 305 304 305 305 304 301 300 301 300 300 301 302 299 298 298 298 301 302 303
318 318 318 318 318 317 318 318 317 318 318 317 317 317 316 316 317 315 316 316 315 315 315 314 314 313 313 312 311 311 311 308 308 308 309 308 307 307 304 304 305 306 306 304 305 305 304 302 301 301 300 300 300 299 301 301 302 300 298 298 299 301 302
319 318 318 318 318 317 317 318 318 318 318 318 319 319 317 318 317 315 315 314 315 315 316 315 314 313 313 313 312 312 311 310 309 308 309 309 311 307 306 305 306 306 304 303 304 304 302 301 302 301 300 300 300 301 302 301 301 300 298 298 299 300 301
319 319 319 318 318 318 317 318 318 317 318 317 317 318 318 318 318 316 316 317 316 316 316 315 316 316 314 313 312 312 311 310 310 309 308 308 308 307 307 306 306 305 304 302 303 303 302 301 301 299 298 298 298 298 298 298 299 298 298 298 298 298 299
317 316 316 316 315 317 317 317 318 318 317 316 316 316 317 317 315 316 317 316 317 318 318 318 316 316 316 315 313 312 312 310 310 309 309 309 308 307 307 306 305 305 304 303 303 302 300 298 298 296 297 295 295 295 295 295 296 295 295 295 296 297 297
316 316 315 315 315 316 317 316 316 316 318 316 316 318 318 317 316 316 316 316 317 316 316 317 316 316 318 318 316 313 312 311 310 309 309 308 306 305 305 306 305 304 304 303 302 300 298 296 296 295 295 295 295 294 294 295 295 294 294 295 294 294 295
316 314 316 315 315 315 317 317 316 315 314 315 317 317 317 316 315 316 316 316 316 315 316 316 316 316 315 316 315 314 313 312 310 309 308 307 306 306 306 305 304 305 310 309 305 303 302 302 297 295 294 294 295 294 293 293 294 292 293 293 293 294 293
317 317 315 315 316 316 317 317 316 314 315 317 316 317 316 316 314 313 314 315 316 317 316 317 314 309 311 315 314 315 314 312 310 309 307 306 305 305 305 305 310 315 309 305 301 297 296 297 299 298 295 294 294 293 292 292 292 292 293 291 291 291 291
308 314 315 315 315 316 316 317 317 316 316 316 316 316 316 314 314 314 315 315 315 316 316 317 307 303 301 305 311 311 313 311 310 308 307 306 304 304 304 305 306 308 306 304 300 296 297 297 296 295 296 297 298 294 292 292 292 292 292 292 292 291 290
303 305 306 306 308 308 308 311 315 315 314 314 315 316 316 315 314 314 315 315 312 313 313 310 305 302 300 299 302 312 311 311 309 308 307 306 305 304 304 305 305 307 304 302 301 300 299 296 294 294 293 293 293 293 294 293 293 291 291 291 291 291 291
303 303 304 305 304 303 303 304 304 306 308 312 311 312 315 315 314 315 314 313 312 310 313 301 294 298 298 299 300 306 310 309 308 306 305 304 303 302 302 303 303 305 306 308 308 302 300 299 297 295 294 295 294 293 291 290 291 294 293 292 291 291 292
301 302 303 303 304 303 303 303 304 305 306 307 308 310 310 315 314 314 313 311 307 303 297 292 294 296 297 297 298 301 305 304 304 304 304 303 302 301 300 300 300 301 302 303 302 302 302 301 300 298 295 293 293 295 294 292 291 291 292 292 291 291 293
301 302 303 302 301 301 302 301 302 302 303 304 305 305 307 308 313 312 308 305 299 293 293 292 292 293 294 295 296 298 302 302 302 301 300 301 300 300 300 302 299 299 300 302 305 301 301 298 296 296 294 294 294 294 294 294 293 293 293 293 292 292 293
301 301 302 302 303 302 302 302 303 303 303 303 303 303 303 305 304 303 302 297 293 290 290 291 292 293 294 294 296 300 299 298 298 299 298 300 300 301 301 300 300 300 300 301 297 295 296 295 294 294 293 292 291 291 293 296 295 295 294 293 293 293 294
301 302 302 302 302 301 301 301 301 302 303 301 301 302 300 300 300 298 295 293 290 289 289 291 292 293 294 294 295 297 296 297 297 297 297 298 300 299 300 300 300 300 300 296 291 289 291 293 292 291 290 289 290 290 291 293 294 293 292 291 291 291 291
301 302 301 302 302 302 302 302 302 303 304 301 299 299 298 297 296 294 292 291 291 289 288 291 292 293 293 294 297 298 297 297 296 296 297 299 300 300 301 304 302 297 292 290 289 289 290 292 289 288 288 287 287 287 288 290 292 291 291 291 291 291 290
302 302 302 301 302 302 301 302 302 300 301 300 298 296 296 294 293 292 291 291 295 290 288 290 291 291 292 293 296 296 296 295 295 296 296 296 297 296 295 296 297 294 291 290 289 289 289 290 288 287 287 286 285 285 286 286 286 287 287 287 287 288 289
301 301 301 301 301 302 302 301 302 300 298 298 296 294 293 292 291 290 290 290 291 289 288 288 289 290 291 292 294 296 296 295 294 293 293 294 294 294 293 291 291 289 289 288 288 288 289 289 287 287 286 285 284 284 286 285 288 287 286 286 286 287 287
302 303 302 302 302 301 300 301 300 299 297 296 294 293 292 291 291 290 290 289 289 288 289 288 289 290 290 291 292 293 292 291 291 291 291 292 293 294 292 290 289 289 288 288 288 288 289 289 289 287 285 284 285 288 288 285 287 290 286 286 287 287 287
303 304 302 301 299 299 299 300 300 298 297 295 293 292 290 290 289 289 289 289 289 289 292 292 289 289 290 290 291 292 291 291 291 290 290 291 292 293 292 290 289 289 288 288 288 289 289 289 288 288 287 288 288 288 288 288 287 286 285 286 285 286 286
301 304 302 300 299 298 298 299 299 298 296 294 293 291 290 290 289 288 288 289 288 288 289 290 291 289 290 290 289 290 291 290 290 292 289 288 289 290 291 289 290 290 289 289 289 289 289 289 289 287 288 288 288 288 288 286 286 286 285 286 286 286 287
300 300 299 299 298 297 298 298 296 297 297 295 293 291 290 289 288 288 287 287 289 289 289 289 290 290 290 289 289 289 289 290 290 291 290 288 290 290 289 289 289 289 289 289 289 289 289 289 287 288 288 288 288 288 285 286 285 286 286 286 286 287 287

ECMWFFLT1_sfc_thetae_042.txt.gz
Theta_e
312 311 312 312 313 315 313 312 314 313 314 312 312 312 313 314 313 312 312 313 314 315 316 313 313 313 315 315 315 313 314 316 316 317 318 320 317 318 321 317 318 318 317 318 313 312 309 310 313 316 319 320 321 322 325 325 327 328 327 326 327 329 327
313 314 315 315 313 313 312 310 311 310 310 310 311 310 311 314 316 311 310 311 312 313 316 314 314 314 313 312 312 313 312 312 313 310 309 308 310 316 319 317 318 317 316 316 316 316 310 305 308 309 312 314 316 319 321 321 325 327 327 325 328 327 327
314 314 314 312 311 311 310 308 309 309 309 310 310 311 310 311 312 313 312 311 311 314 315 313 312 313 313 313 312 312 312 311 310 310 308 307 309 308 312 315 315 315 311 309 310 311 311 309 307 305 306 305 306 310 317 322 323 325 327 327 327 325 326
314 313 312 311 311 309 309 308 308 309 309 310 312 310 311 313 314 315 313 313 314 317 315 314 313 313 312 311 312 312 311 310 309 309 310 309 308 309 308 307 307 308 306 305 305 307 305 303 303 304 305 306 306 304 309 315 320 322 324 325 325 325 326
314 313 312 312 311 310 308 308 308 309 309 310 308 309 309 311 312 311 312 310 311 311 312 312 312 312 312 311 311 311 309 309 309 310 307 307 308 307 307 307 308 308 307 307 307 306 307 305 304 303 303 305 305 305 308 309 313 317 321 322 322 324 326
314 313 312 312 311 310 309 308 308 308 308 309 308 310 309 309 311 309 309 309 310 311 310 310 310 310 311 310 311 309 309 308 307 307 306 305 306 305 305 305 306 307 307 307 309 308 306 305 304 300 303 305 303 304 305 305 306 306 309 312 315 311 310
312 312 312 313 311 311 311 310 309 309 309 309 310 309 310 309 310 311 310 308 309 309 310 310 309 310 310 310 309 308 307 306 307 307 306 305 305 305 305 305 305 306 305 307 306 307 306 305 302 301 301 300 301 303 304 304 305 304 306 307 309 309 310
313 312 312 313 312 312 311 310 309 310 309 310 310 311 311 310 311 310 308 308 308 308 308 309 312 309 309 311 310 308 307 306 308 308 305 306 307 305 304 304 306 305 305 306 304 305 306 306 305 304 301 300 297 297 301 302 303 304 304 305 307 309 310
315 314 314 313 312 313 313 311 310 310 311 311 311 311 311 311 311 310 310 308 308 308 309 308 309 309 308 309 308 307 308 312 308 306 305 306 305 304 302 302 305 304 304 304 304 303 303 304 305 303 302 300 298 296 298 299 300 301 305 305 305 307 309
315 314 314 314 313 313 314 313 312 311 311 312 313 312 312 310 311 309 309 309 308 308 308 309 308 308 308 309 308 306 307 309 308 306 306 306 304 304 303 302 303 303 303 303 302 303 303 303 303 303 303 302 300 297 295 296 297 300 303 306 304 305 309
315 315 316 315 314 313 314 314 313 312 312 314 314 314 313 312 311 315 309 309 308 308 308 308 308 308 308 307 307 307 308 307 307 306 307 305 304 305 304 302 301 302 302 302 303 302 302 301 300 301 301 302 301 299 297 296 295 299 302 303 305 304 306
316 316 316 316 315 314 314 314 314 314 313 313 314 312 312 312 312 310 310 309 309 309 308 308 307 307 308 307 307 307 307 305 305 306 307 305 306 305 303 302 301 301 301 303 303 302 303 303 301 300 300 300 302 301 299 297 294 296 303 300 302 305 304
317 317 316 315 316 315 314 314 315 313 314 315 314 313 313 313 313 311 310 311 310 309 309 308 308 307 307 307 307 309 307 306 306 306 306 306 309 304 303 302 302 301 302 302 302 302 302 303 302 300 301 300 300 301 300 298 296 296 298 300 301 301 302
316 317 317 315 315 316 315 315 314 315 315 315 314 313 313 314 314 313 312 312 311 310 310 308 308 307 307 307 306 308 306 307 307 306 306 306 307 304 303 302 303 303 302 301 301 303 303 301 300 300 300 298 298 299 298 296 294 295 296 298 300 301 303
317 316 317 316 314 314 315 315 314 313 314 315 315 313 313 315 315 315 313 313 312 311 311 310 309 308 307 308 306 309 307 306 307 307 304 305 305 306 303 302 303 303 303 302 301 303 303 301 299 298 298 299 297 299 299 299 296 295 295 298 299 300 301
316 315 315 316 316 317 316 316 317 315 315 314 315 314 314 314 315 315 315 314 312 312 312 311 311 310 308 308 307 307 308 306 306 307 305 305 306 305 303 303 302 303 304 302 301 301 301 300 300 299 298 299 298 298 300 299 298 296 295 296 297 299 299
315 315 315 315 315 316 317 317 317 317 315 313 313 314 315 314 314 314 315 314 314 313 312 312 311 311 311 309 309 308 308 306 306 307 307 305 305 305 303 302 302 302 303 301 302 300 300 299 299 298 298 298 297 297 298 297 298 296 295 295 296 298 299
313 315 314 315 315 316 316 317 316 317 316 316 315 315 315 315 315 314 315 314 313 313 313 312 312 311 311 310 310 309 309 308 306 306 308 307 308 305 303 302 303 303 302 301 301 300 298 298 299 297 296 295 295 296 296 295 295 295 293 292 294 296 297
313 312 313 313 313 315 316 316 315 313 315 316 313 313 315 313 314 314 313 314 313 312 313 313 312 311 310 310 310 309 309 309 308 307 308 308 307 306 304 302 304 304 302 301 300 299 298 297 296 294 293 293 293 293 293 293 295 294 293 293 292 293 294
312 312 313 313 313 314 314 316 317 316 317 315 314 313 314 314 313 313 315 315 315 315 315 315 314 313 312 311 310 310 309 309 308 307 307 308 308 306 305 304 304 304 303 302 301 299 297 296 296 294 296 294 294 293 293 293 293 293 292 292 292 292 293
313 313 312 311 313 313 314 314 315 316 316 315 315 315 314 315 314 314 314 315 315 315 314 314 313 314 314 314 313 311 310 309 308 307 307 307 307 306 306 305 305 304 304 303 302 299 296 295 295 294 293 294 293 293 292 292 291 291 291 291 290 290 290
312 311 311 311 311 312 314 315 313 312 312 312 314 314 315 315 314 313 312 312 313 312 313 314 315 314 314 315 314 313 312 311 310 308 308 307 306 305 305 305 304 304 307 309 305 302 300 300 297 295 294 294 294 293 292 291 292 291 290 291 290 291 290
312 311 310 311 311 312 312 312 310 310 311 311 310 312 313 313 313 312 312 311 311 312 313 314 313 309 310 314 313 313 311 310 310 309 308 307 305 306 306 306 307 312 311 307 301 298 297 298 300 299 295 293 293 292 292 291 290 291 291 290 290 290 290
311 311 309 309 308 309 311 310 310 310 310 309 310 311 311 311 311 311 312 311 310 312 314 315 306 301 300 305 311 310 310 309 309 308 307 306 304 304 305 306 308 310 306 303 300 295 295 295 295 296 297 297 297 293 291 291 290 290 291 291 290 290 289
304 304 305 305 305 307 308 308 310 310 309 309 310 308 309 312 311 310 309 307 309 311 311 309 303 301 300 299 304 311 310 310 309 308 307 306 305 304 305 306 307 307 303 301 300 298 297 295 294 293 292 292 292 294 295 293 292 290 289 289 289 289 288
299 299 300 301 302 302 303 304 305 305 305 307 308 307 311 311 312 309 308 309 309 307 302 293 296 298 297 297 297 304 308 308 308 306 306 305 304 304 304 304 304 305 306 308 306 300 300 300 295 294 294 294 293 291 290 291 293 294 291 289 289 288 289
298 299 300 299 299 299 299 298 299 300 302 303 304 303 303 307 308 307 307 306 305 294 293 294 294 296 295 295 295 299 306 304 304 304 304 303 303 302 302 301 301 301 301 302 301 301 301 301 299 297 295 292 293 295 293 292 291 291 293 291 289 289 290
297 297 297 298 297 297 298 298 299 299 299 300 300 301 302 302 304 307 304 299 294 292 292 292 293 294 294 295 295 298 300 300 300 299 299 300 300 300 301 300 300 300 300 301 302 301 301 299 298 297 294 292 290 291 290 291 291 291 292 291 289 289 290
297 297 298 298 299 299 297 296 297 297 297 296 296 296 297 297 301 297 295 293 291 289 290 292 292 292 293 294 296 299 298 298 298 298 299 299 300 301 301 300 300 300 298 295 293 292 295 295 293 291 289 288 288 288 289 293 292 292 291 289 289 289 289
297 298 297 297 297 297 298 299 299 298 297 294 294 294 293 293 294 293 292 290 290 289 289 292 292 293 293 294 295 296 296 297 297 297 298 299 299 300 300 300 299 295 293 293 291 289 290 292 290 288 287 285 286 286 287 289 292 291 291 290 290 290 290
298 298 297 299 299 300 298 297 297 297 296 294 294 292 292 291 290 290 289 289 289 290 288 291 293 292 293 294 296 296 296 297 297 297 297 296 294 295 300 302 297 292 291 290 289 289 290 292 289 288 287 285 285 284 285 286 289 289 290 290 290 290 289
298 298 298 297 297 299 298 298 295 294 294 294 293 291 291 290 289 288 288 290 295 289 288 291 291 291 292 293 295 294 295 295 295 294 293 293 292 292 292 295 296 293 292 291 289 289 289 289 287 286 285 284 284 282 284 283 284 284 285 285 286 286 287
297 298 298 297 296 298 297 294 294 294 292 292 291 289 289 289 288 287 287 287 289 287 288 288 290 291 292 293 294 295 294 292 292 292 293 293 291 290 290 290 291 289 288 289 288 288 289 289 286 285 284 283 283 283 284 283 285 284 284 285 285 285 286
298 299 298 299 298 297 296 294 292 293 292 291 289 288 288 287 288 286 286 286 286 286 288 287 289 291 291 292 292 293 292 291 291 292 293 293 292 290 290 290 290 289 288 288 288 288 288 289 290 285 283 283 284 285 287 284 286 290 285 285 286 286 285
297 299 297 296 296 295 294 294 292 292 291 290 289 288 286 287 287 286 285 286 286 287 290 291 288 290 290 291 291 291 292 292 293 293 292 291 291 290 289 289 289 289 288 288 288 288 288 288 288 289 285 287 287 288 286 286 285 285 284 284 283 284 284
296 299 297 295 294 295 294 293 291 293 291 289 289 287 286 286 286 286 285 285 285 286 286 289 291 289 290 290 290 290 291 291 291 293 292 291 290 290 290 289 291 290 288 288 288 288 288 288 289 286 288 287 288 288 287 284 284 284 283 283 284 284 284
295 295 295 294 294 292 292 291 291 293 291 290 289 287 287 286 285 285 285 285 286 286 286 287 290 290 289 289 289 289 289 290 291 292 291 290 290 289 288 287 288 289 288 288 288 288 288 288 286 288 288 288 288 288 286 284 283 284 284 283 282 283 283

ECMWFFLT1_sfc_thetae_045.txt.gz
Theta_e
311 310 309 309 310 313 311 310 310 309 309 310 310 310 310 312 312 311 311 312 313 313 314 311 310 310 311 313 312 312 313 315 317 318 318 319 316 319 321 317 317 318 316 316 312 310 307 310 310 313 316 317 320 321 323 322 323 324 322 322 326 326 326
310 312 311 313 312 310 310 308 307 307 308 308 309 310 310 312 314 310 310 310 311 312 314 312 310 310 310 310 310 310 310 309 311 312 310 308 314 317 317 316 317 314 312 314 315 312 307 304 306 306 307 311 312 315 318 320 322 324 323 323 326 326 325
311 311 311 310 309 308 308 306 306 306 307 307 307 308 308 310 310 311 310 309 309 312 313 310 309 309 309 309 308 308 308 308 307 307 306 305 308 311 316 314 312 308 306 305 306 307 306 306 304 304 304 304 305 308 311 312 316 320 322 323 322 322 324
312 312 311 308 307 306 307 305 306 306 307 307 308 308 309 310 311 313 311 310 312 315 313 311 309 309 308 308 308 308 308 307 306 307 307 307 307 307 306 306 306 306 305 303 304 304 304 302 302 303 302 304 305 304 307 309 312 317 322 321 320 320 322
313 313 311 310 308 307 306 306 305 306 306 306 306 306 307 308 311 309 310 308 310 309 309 308 308 309 308 308 308 307 306 306 306 308 306 305 305 305 304 304 305 306 306 305 304 304 304 303 303 301 301 303 303 304 307 307 307 310 311 309 309 308 309
314 312 311 309 307 307 306 305 305 306 305 305 306 307 306 306 309 307 307 308 308 309 308 308 307 307 308 308 307 307 306 306 305 306 305 303 304 305 303 303 304 306 305 304 305 304 302 302 301 299 300 302 301 301 303 303 304 304 307 307 307 307 306
313 312 311 311 308 307 307 306 306 307 306 306 305 306 307 307 307 309 308 306 306 307 307 306 306 307 306 307 306 306 305 303 304 305 304 304 304 302 303 304 304 303 304 304 303 304 302 302 299 298 298 297 297 299 300 302 304 304 304 305 306 306 305
314 313 312 312 309 308 306 306 305 306 306 306 307 306 309 306 306 306 306 306 306 306 307 308 309 307 307 308 307 306 305 304 305 305 303 304 304 302 302 303 304 302 301 302 302 303 303 302 302 301 297 296 295 296 298 299 301 303 303 304 305 304 305
314 313 313 313 310 308 307 307 306 306 307 306 306 307 308 307 306 306 307 305 304 305 306 306 305 306 305 306 305 305 306 309 305 304 302 303 302 300 301 300 303 301 301 301 302 301 301 302 303 299 299 296 293 293 295 295 298 301 303 303 303 304 304
313 313 313 312 311 310 309 307 307 307 306 307 309 308 307 307 306 305 305 305 305 305 306 306 306 305 305 307 306 305 305 305 306 303 302 303 300 300 300 300 300 300 300 300 300 301 301 300 301 300 300 299 296 293 292 293 295 297 302 303 300 302 303
313 314 314 313 312 312 310 308 307 307 308 310 309 310 307 307 306 314 305 306 305 305 306 306 305 305 305 305 304 305 306 304 305 304 304 303 301 302 301 299 299 300 300 300 299 300 300 299 298 300 299 299 298 296 294 293 294 296 300 298 301 300 302
313 314 314 314 313 312 311 310 310 310 308 309 310 309 307 307 306 307 305 306 305 306 305 305 305 305 304 304 304 305 304 303 303 303 303 303 302 302 300 299 299 300 300 301 301 301 301 301 299 298 298 299 299 297 296 293 291 293 300 297 298 300 300
313 314 314 314 313 313 313 312 311 309 310 310 309 309 309 308 308 307 306 306 306 306 305 305 304 305 304 304 305 305 304 303 304 303 303 303 304 301 300 299 299 299 299 301 301 301 299 299 299 298 298 298 298 297 296 294 292 294 295 298 298 299 300
313 314 314 314 314 314 313 313 312 312 311 310 310 309 309 309 309 308 307 308 307 306 306 305 305 303 304 304 303 304 303 303 304 303 304 303 303 301 301 300 300 300 300 301 300 301 299 298 298 298 298 297 297 298 297 295 294 294 295 296 297 298 300
313 313 313 313 312 313 313 311 310 310 310 311 311 310 310 310 311 311 309 308 308 307 308 307 306 304 305 304 303 306 305 303 304 303 303 303 303 303 301 301 301 301 300 301 300 300 298 297 298 297 297 297 296 297 297 296 294 293 293 295 296 297 297
314 313 313 312 313 314 314 312 312 312 311 311 312 312 311 311 312 312 312 311 310 309 309 308 307 307 305 306 305 304 306 304 305 304 303 303 304 302 300 301 300 300 301 300 299 298 298 298 297 297 296 296 295 295 296 295 293 292 292 292 294 294 295
314 314 314 314 314 315 315 314 315 315 315 314 314 314 313 312 312 312 313 313 312 311 310 310 309 308 308 306 306 306 306 305 305 305 305 304 303 303 302 300 300 300 300 300 298 297 297 297 296 296 294 294 293 294 294 294 294 292 292 291 291 294 295
312 311 311 311 312 313 312 313 314 314 315 315 314 314 314 314 314 314 314 314 313 312 311 310 309 308 308 307 307 306 306 306 305 305 306 305 307 305 303 303 302 301 300 300 297 297 297 296 296 294 293 293 293 294 295 294 293 292 291 290 291 292 293
310 309 309 309 311 312 311 311 311 311 313 314 313 313 313 312 314 314 314 314 313 313 312 311 310 309 309 308 307 306 306 307 306 305 305 306 306 305 304 303 302 302 301 301 300 298 296 295 293 293 292 292 293 293 293 293 293 292 291 290 291 291 290
310 309 309 309 311 311 312 313 313 312 312 312 312 313 313 312 312 312 314 315 315 315 314 313 312 312 311 309 308 307 306 306 306 305 305 306 306 305 304 303 303 303 302 303 302 301 299 297 297 294 294 293 292 292 292 292 292 291 291 290 290 290 290
311 311 310 311 311 312 312 312 313 312 312 311 312 312 312 313 313 314 313 313 314 314 313 313 313 312 312 312 310 309 309 308 308 306 305 305 306 306 305 304 303 303 304 304 304 302 300 298 297 296 294 293 292 292 291 291 291 290 290 289 289 289 289
310 311 311 311 310 311 312 313 313 313 311 311 312 313 314 314 313 313 313 313 313 312 312 313 313 313 313 313 312 311 310 309 309 308 307 305 305 305 305 304 303 304 306 309 306 303 302 301 298 295 295 294 292 291 290 290 291 289 289 289 289 289 289
311 310 310 310 310 310 310 311 310 310 311 311 311 312 312 312 313 314 313 312 311 311 311 312 312 308 308 311 311 312 310 309 308 308 307 306 305 305 305 305 306 311 309 309 304 298 297 298 300 299 295 294 294 291 290 289 289 290 290 290 289 288 288
310 308 308 307 307 307 308 308 307 307 308 310 311 311 310 311 311 311 310 309 309 310 309 311 306 302 301 300 308 309 309 308 308 308 307 306 305 304 304 305 305 309 308 306 301 296 295 295 295 295 296 297 297 293 290 289 288 288 291 289 288 288 287
301 301 304 305 303 303 303 304 306 305 305 306 307 307 307 309 309 308 307 305 305 305 306 303 297 301 300 299 301 308 309 309 309 307 306 306 305 304 304 305 306 308 305 302 300 297 296 294 293 292 292 293 293 294 295 293 292 288 287 288 287 288 286
298 298 299 299 299 299 299 300 300 300 301 302 303 303 304 304 304 303 304 306 304 304 303 295 293 294 295 296 296 302 307 307 307 307 307 306 305 305 304 304 304 303 305 307 303 299 298 297 294 293 293 293 293 292 289 291 293 292 287 288 287 286 286
297 296 297 297 296 297 298 298 298 297 298 298 298 301 300 300 301 301 301 303 301 295 293 295 293 293 293 292 292 296 303 303 304 303 303 302 302 302 302 302 302 302 302 302 301 301 301 299 298 298 297 295 295 294 293 292 291 291 292 290 288 288 287
295 295 296 296 294 294 295 295 297 296 295 298 298 299 297 295 298 301 298 295 292 291 291 293 292 292 293 294 294 296 296 296 297 295 296 297 297 298 299 300 299 299 299 299 300 301 300 299 297 295 293 292 291 291 291 290 289 289 290 288 287 287 287
295 294 294 293 293 294 294 294 295 295 293 292 291 291 292 294 295 292 291 290 290 290 290 291 292 292 293 294 295 297 295 296 295 296 296 295 296 296 297 297 296 294 294 295 294 293 295 296 294 292 291 290 290 289 290 292 292 292 290 287 287 287 287
295 294 293 295 295 296 296 295 296 294 294 291 291 291 289 289 289 289 290 288 288 288 288 291 292 293 292 293 295 295 295 295 295 294 293 294 295 297 296 295 293 292 292 292 291 290 291 293 292 290 290 289 289 288 287 288 291 291 290 290 290 290 290
296 295 295 296 296 297 295 294 292 293 291 291 291 290 289 288 287 288 287 286 289 288 287 291 292 292 293 294 295 295 294 294 293 292 291 292 294 296 299 299 296 292 291 291 290 290 290 292 290 289 289 288 287 286 285 285 286 287 289 290 290 289 289
295 295 296 295 294 296 294 293 292 291 291 291 289 288 289 287 287 287 287 289 295 288 287 291 292 292 292 293 295 293 294 293 291 289 290 290 291 292 293 295 295 293 292 291 289 289 289 291 289 287 284 283 284 281 282 282 282 283 284 285 285 286 287
294 294 294 295 293 294 293 291 289 290 289 289 289 287 287 286 285 285 285 285 287 286 287 287 289 291 292 293 294 294 293 292 290 289 289 289 289 288 289 290 292 289 289 289 288 288 289 289 289 287 285 282 282 283 282 282 285 284 283 284 283 283 284
296 294 295 296 294 294 291 291 289 289 289 287 287 286 285 285 285 284 284 284 285 286 288 287 288 290 291 292 292 293 292 291 290 289 289 288 288 288 288 289 289 289 288 288 288 288 289 289 288 286 282 281 283 285 286 283 284 289 283 283 284 284 284
294 297 294 294 292 291 291 289 290 289 288 287 286 285 285 285 284 284 284 284 285 285 289 292 287 290 290 291 291 291 292 290 291 290 289 289 288 288 288 288 288 289 288 288 288 288 288 288 289 287 283 287 287 287 284 286 284 283 283 284 282 282 283
295 297 296 294 293 292 290 290 288 289 288 286 286 284 283 283 284 283 283 284 283 284 284 288 291 289 290 290 290 290 290 291 291 292 290 288 287 287 287 287 290 290 288 288 288 288 288 288 289 286 288 287 287 287 287 284 284 283 282 282 284 283 282
294 295 295 294 293 292 289 288 288 290 288 288 286 284 283 284 283 283 283 284 285 284 284 285 289 290 290 289 290 290 289 290 290 290 290 288 288 289 289 289 290 288 288 288 288 288 288 288 285 287 288 288 288 288 284 283 282 283 283 282 282 282 282

ECMWFFLT1_sfc_thetae_048.txt.gz
Theta_e
312 311 309 310 310 312 310 309 309 308 309 310 311 311 312 314 313 312 312 313 314 315 315 311 311 311 313 315 316 316 317 318 321 320 320 321 319 320 321 319 318 317 316 316 315 315 311 313 314 317 318 317 317 315 317 320 324 326 325 326 327 328 328
311 311 313 313 311 310 308 307 308 308 309 309 310 311 311 314 316 311 311 312 313 314 316 312 311 311 311 311 311 311 312 314 317 318 318 315 317 318 317 317 316 313 312 313 314 313 311 308 308 308 310 315 314 313 315 320 324 324 324 325 327 326 326
312 311 310 309 308 308 307 306 307 307 308 308 309 309 310 311 311 312 311 312 312 315 315 310 310 310 310 310 310 310 309 309 309 310 310 310 314 315 316 314 313 310 309 309 309 310 310 310 308 308 307 307 306 309 313 315 315 314 314 315 313 315 316
310 311 309 307 306 306 306 305 306 306 307 307 309 309 309 310 312 314 311 312 315 318 313 310 310 310 309 309 309 309 308 308 308 308 309 309 308 308 308 309 308 308 309 308 308 308 308 307 308 306 306 307 306 305 308 311 310 308 308 310 309 309 311
312 312 310 308 307 307 306 305 305 306 306 307 307 308 309 310 312 311 312 311 312 309 309 309 309 309 309 308 308 309 308 307 308 309 307 307 307 307 307 307 308 308 308 308 307 307 308 307 307 305 305 306 305 307 308 310 309 307 307 307 307 308 308
313 312 311 309 307 307 305 305 305 305 305 307 306 308 308 308 310 310 310 311 310 311 309 309 308 309 308 308 308 307 307 307 306 306 306 305 306 307 306 306 307 307 306 306 306 305 304 304 304 303 303 303 305 305 306 307 307 307 307 305 306 307 307
312 312 310 309 307 306 306 306 306 306 306 307 306 307 306 308 308 310 310 308 309 309 309 308 308 308 308 307 307 307 306 306 306 306 306 305 305 305 305 305 305 305 305 306 306 306 305 305 303 303 302 300 302 303 304 305 306 306 307 306 306 306 307
313 312 311 310 308 306 306 306 305 305 306 305 306 307 309 307 308 307 308 308 308 309 310 310 310 308 309 308 308 307 306 305 306 306 305 305 305 304 304 305 304 304 303 304 305 305 305 306 305 303 301 300 299 300 302 301 304 304 305 307 305 305 306
314 312 312 311 309 308 307 307 306 306 306 305 306 307 308 307 307 308 308 306 306 307 309 308 307 307 307 307 307 307 308 308 305 304 304 304 303 303 303 303 304 303 303 303 304 304 304 305 304 303 301 298 299 297 299 300 302 303 304 303 304 304 304
313 312 312 310 309 309 308 306 307 306 305 306 308 308 307 306 306 306 306 306 306 307 308 308 307 307 308 308 307 307 306 306 306 304 304 304 302 303 303 303 303 303 303 304 303 303 303 303 303 303 303 302 299 298 297 297 299 302 301 302 300 302 304
313 313 313 311 310 310 308 308 307 308 307 308 309 311 307 307 307 314 305 306 305 306 307 307 307 307 307 307 306 307 307 307 306 305 306 304 303 304 303 303 303 303 303 303 303 303 302 302 302 303 303 302 302 300 298 297 298 302 302 301 302 300 302
312 313 313 312 311 310 309 308 309 309 308 309 311 309 307 307 307 308 306 306 306 307 306 307 307 306 306 307 308 307 306 305 305 304 305 305 304 303 303 303 303 303 303 302 302 302 302 302 301 301 301 302 302 301 299 298 296 299 302 301 301 301 301
312 312 313 312 311 310 310 310 309 309 309 311 309 308 308 308 308 308 307 307 307 307 307 306 306 306 306 307 308 307 306 305 305 306 306 305 304 302 302 303 303 303 303 302 302 301 301 302 302 301 301 301 300 300 301 298 297 298 302 301 301 300 301
312 313 313 313 312 313 312 312 311 312 311 310 310 309 310 310 309 309 308 310 309 308 307 307 306 306 307 306 306 307 305 306 306 305 307 306 304 302 303 303 302 303 303 303 302 301 301 301 301 301 301 300 300 301 300 299 297 297 300 301 301 299 300
312 312 312 312 312 313 313 312 311 311 310 310 311 310 310 311 311 310 310 309 309 309 308 308 307 306 307 306 306 307 306 306 306 306 306 306 305 304 303 303 303 303 302 302 301 300 300 300 299 299 299 299 299 299 301 299 298 297 295 300 299 299 299
313 313 312 311 311 311 311 311 313 311 311 311 311 311 311 311 312 312 311 311 310 310 309 309 308 307 307 307 307 307 308 306 307 307 306 306 305 304 303 304 304 304 303 302 301 301 300 300 299 298 298 298 298 299 299 299 298 295 295 297 298 297 298
312 312 312 311 312 312 312 312 313 314 313 313 313 313 313 313 312 312 313 313 312 312 312 310 310 309 309 307 307 307 307 307 307 307 307 306 306 304 304 303 303 304 304 302 301 300 300 300 299 298 298 297 298 298 299 299 299 299 298 297 297 296 298
311 311 311 311 312 312 312 313 314 315 315 314 315 314 315 314 314 314 314 314 314 313 313 312 311 310 310 310 309 308 307 307 307 307 308 307 308 306 305 305 304 304 303 302 301 300 299 298 297 298 296 296 297 298 298 298 297 297 297 297 297 297 297
309 309 310 310 311 311 312 313 313 313 314 313 313 313 313 313 315 315 314 314 314 314 314 313 312 312 312 311 310 309 308 308 308 307 307 307 307 307 307 306 305 304 303 304 302 301 300 299 297 297 296 296 296 297 297 297 296 297 297 296 297 297 297
310 310 310 310 310 310 311 311 312 312 312 313 312 312 312 312 312 313 313 313 314 314 315 315 314 313 313 312 311 310 309 308 308 308 307 307 308 307 307 307 306 305 305 305 304 303 302 300 299 297 297 297 296 297 296 296 296 296 296 297 296 295 296
310 310 309 310 311 312 312 311 311 310 311 311 310 311 312 312 312 312 312 312 313 313 313 313 313 314 314 313 312 310 309 308 308 308 308 308 308 308 308 308 307 306 306 306 306 304 303 301 300 299 298 298 297 297 296 296 296 295 296 295 295 295 294
309 310 310 309 309 310 311 311 310 310 310 310 311 311 312 312 311 311 311 311 311 312 312 312 313 313 312 313 312 311 311 309 309 309 309 308 308 308 308 308 307 307 308 309 306 305 304 302 300 298 298 299 298 297 296 296 295 295 294 295 295 294 294
309 308 309 309 309 309 310 310 310 310 310 311 311 311 310 310 311 310 310 311 310 310 311 312 311 306 306 312 312 312 312 311 310 309 309 309 308 307 308 308 309 310 309 308 304 300 298 298 301 301 298 299 299 297 296 296 296 296 297 296 295 295 294
308 308 308 308 307 308 309 309 309 308 309 309 309 310 310 309 309 309 310 309 309 310 310 311 306 301 299 300 307 310 310 310 310 310 309 308 308 308 308 308 308 309 309 307 304 296 295 296 296 296 296 297 298 299 296 295 295 295 297 295 294 294 294
306 305 308 309 308 308 308 308 309 308 308 309 309 308 308 309 308 308 308 307 307 308 309 303 295 294 295 295 299 308 309 310 310 309 309 309 308 308 307 307 307 308 308 307 302 299 296 293 293 293 292 292 291 292 294 298 297 294 293 294 293 294 293
300 300 300 300 302 305 307 307 307 307 307 307 305 305 307 306 307 306 306 307 308 307 306 297 293 293 293 293 293 298 307 308 308 308 307 307 307 307 307 306 306 306 308 307 303 299 298 297 294 294 294 294 294 292 290 290 293 298 295 295 295 293 292
298 297 297 297 298 300 301 300 299 300 301 300 301 301 301 303 303 303 303 304 305 301 299 295 292 292 293 293 292 294 305 306 305 303 303 304 305 305 305 305 304 304 304 303 301 300 298 298 298 297 297 296 296 295 293 291 291 292 294 296 295 294 293
296 296 296 296 296 297 297 297 298 296 296 296 297 296 297 298 300 300 300 299 297 295 293 292 291 292 292 293 292 295 300 299 298 297 297 298 299 301 302 302 302 301 301 301 302 300 300 299 297 296 294 294 294 294 294 294 294 295 295 294 294 294 294
295 294 295 295 296 296 295 295 296 296 295 293 292 293 294 295 296 296 293 293 294 295 292 291 291 292 293 293 294 298 297 297 297 296 296 297 298 298 298 299 297 296 297 297 296 295 296 298 296 294 293 292 292 292 292 293 292 293 294 293 293 293 293
296 295 294 296 296 296 297 295 294 294 294 292 293 292 291 291 291 291 293 291 291 292 291 292 291 292 292 292 295 297 297 296 295 294 294 295 297 297 296 295 295 295 295 295 292 291 292 294 295 293 292 291 291 291 290 291 291 290 290 290 290 290 290
297 296 296 297 297 295 293 292 292 293 295 293 293 291 290 289 288 290 289 289 289 291 292 292 292 292 292 293 295 297 296 294 293 292 292 293 295 297 299 298 296 295 294 294 290 290 291 294 294 293 292 291 290 289 290 289 289 290 289 289 289 289 289
296 295 296 295 295 295 294 295 293 291 291 292 291 290 291 289 288 288 289 291 296 289 288 292 292 292 292 293 295 296 295 294 292 291 291 291 291 292 293 295 296 295 295 293 289 290 290 293 292 291 290 289 289 288 289 287 288 289 289 290 290 290 290
298 299 297 295 296 296 294 292 291 291 289 290 289 288 289 287 287 286 286 286 288 288 289 290 292 291 292 293 293 295 295 294 292 290 291 291 291 290 291 292 292 289 289 288 288 288 289 290 291 290 290 289 288 288 288 288 291 290 289 288 288 288 288
299 298 299 300 298 296 293 292 290 291 290 288 288 287 287 286 286 285 285 286 287 289 292 289 291 291 292 292 292 293 294 294 292 292 291 290 290 290 290 291 291 289 288 288 288 288 288 288 289 290 289 289 289 289 288 289 289 289 288 289 289 288 288
296 298 295 296 296 293 290 290 290 290 289 289 288 287 287 287 285 286 285 286 288 286 291 293 290 291 291 291 291 292 294 294 293 291 290 289 289 290 290 290 290 289 288 288 288 288 289 289 289 291 289 287 287 287 290 290 289 289 288 288 287 287 287
296 297 296 295 295 293 290 290 289 290 289 288 287 286 286 286 286 286 286 286 285 286 286 291 291 291 290 290 290 291 291 292 290 294 292 290 290 290 291 290 291 290 288 288 288 288 288 287 289 289 288 287 288 288 289 289 288 287 287 287 287 286 286
296 297 296 294 293 292 290 289 289 290 289 290 288 287 285 285 285 286 286 287 287 286 287 287 290 290 290 289 290 290 290 290 290 292 292 290 290 290 290 291 291 288 288 288 288 288 287 288 288 287 288 287 287 287 288 287 287 286 286 286 286 285 285

ECMWFFLT1_sfc_thetae_051.txt.gz
Theta_e
326 323 324 324 325 323 322 322 323 323 324 325 326 326 329 330 330 329 329 328 327 326 326 327 328 329 331 330 330 329 328 329 329 327 327 327 325 326 329 328 327 325 325 323 325 323 321 316 316 320 323 324 326 327 327 325 324 323 323 325 326 329 330
325 324 324 323 322 323 322 322 323 322 323 325 325 327 327 327 327 326 327 326 326 326 325 325 327 328 330 331 330 330 329 327 328 327 328 327 328 327 325 326 325 323 322 323 325 326 323 317 315 317 316 317 316 316 317 317 318 319 319 319 320 322 326
325 324 324 322 321 323 321 322 323 323 323 324 325 325 325 325 326 327 326 326 327 325 324 325 326 326 326 325 325 326 327 326 327 328 327 326 327 326 326 325 322 320 319 319 320 321 321 321 314 311 315 311 309 311 315 314 315 315 316 316 316 317 317
325 324 322 321 320 322 321 321 322 321 323 324 324 325 325 325 327 327 327 326 326 326 324 323 324 322 323 324 324 324 325 326 325 325 323 323 323 322 321 320 318 318 318 316 318 320 318 316 313 313 312 308 307 307 311 313 313 312 312 314 313 314 315
325 324 324 322 321 321 321 320 320 321 321 322 324 324 325 326 327 326 327 326 325 326 324 324 324 322 323 323 323 323 322 322 323 322 323 322 322 320 321 320 319 319 318 315 315 320 320 317 316 313 310 309 308 308 310 312 311 310 310 310 311 312 313
326 326 325 323 323 321 320 320 320 319 320 320 322 323 324 326 327 325 325 324 324 325 324 323 323 323 324 322 322 322 322 322 322 323 320 322 322 319 317 318 317 316 315 317 317 317 320 320 317 312 312 313 309 309 311 311 308 308 309 308 309 310 311
326 326 325 323 323 322 322 321 321 320 320 322 322 323 323 324 326 327 326 325 324 324 323 323 323 323 324 320 321 321 321 321 322 322 320 320 319 319 319 315 315 314 315 317 317 316 316 317 315 313 312 313 313 309 310 311 312 307 306 306 308 309 310
326 325 325 325 323 322 322 322 322 322 321 322 322 323 322 325 325 326 325 324 324 324 323 323 322 323 324 320 320 322 321 321 321 320 319 319 317 317 318 315 315 314 314 313 314 314 313 317 317 316 313 309 309 310 307 307 306 306 306 305 306 307 309
323 324 322 321 323 323 323 322 321 323 323 322 322 322 323 324 325 325 324 324 324 324 323 322 322 321 323 321 320 321 319 319 320 319 317 318 318 317 316 317 314 313 315 314 314 313 312 315 316 317 317 313 309 305 307 306 305 303 306 304 304 306 306
322 322 321 321 320 321 323 323 322 322 323 323 322 324 323 323 325 324 323 323 324 324 323 321 321 321 322 321 320 319 318 319 318 316 317 315 316 317 316 317 314 313 314 316 314 314 315 315 314 315 315 314 312 307 305 304 305 304 303 303 302 304 306
323 323 323 321 321 320 321 322 323 321 321 323 323 323 324 322 323 322 323 323 324 323 322 321 320 320 321 319 320 318 318 319 317 317 317 315 316 316 315 315 314 312 316 314 314 316 315 315 313 314 313 313 314 309 307 303 303 307 304 304 304 303 305
323 322 322 322 322 321 320 321 322 323 324 323 322 323 323 322 323 322 322 322 323 322 322 322 321 321 320 319 319 318 319 319 316 315 317 316 316 316 315 314 314 312 315 315 314 314 315 314 312 310 311 313 315 313 310 307 303 304 309 304 304 305 305
321 321 321 321 321 321 321 321 322 322 323 323 323 323 323 322 321 321 320 320 321 321 321 321 322 321 322 321 320 318 318 317 315 315 314 316 313 315 315 313 313 312 313 313 313 313 311 313 314 310 311 310 310 313 312 308 305 303 307 304 305 305 306
321 321 321 322 322 322 322 322 322 324 322 322 322 321 321 321 321 320 319 319 319 320 320 321 321 322 320 320 321 321 318 317 315 315 315 315 314 314 313 312 312 313 315 313 312 312 310 310 311 311 311 309 308 311 310 309 306 304 306 307 307 305 306
322 322 322 322 321 320 321 321 322 321 322 322 322 321 320 323 322 321 320 320 320 319 319 320 320 320 319 319 320 321 322 319 317 316 317 314 314 314 315 313 311 313 313 312 312 308 309 309 308 307 308 309 307 308 311 310 309 308 305 306 306 307 306
322 323 323 322 322 321 323 323 321 322 322 322 322 322 322 323 322 322 322 322 321 321 321 320 321 320 320 319 318 319 320 320 319 318 317 316 314 313 313 314 313 315 314 313 313 312 312 309 308 306 307 308 307 307 308 310 311 308 307 305 307 306 306
322 323 323 324 324 324 323 324 323 322 322 323 322 324 324 323 322 323 322 322 322 322 322 322 322 321 320 320 319 318 318 319 318 318 317 316 315 314 314 314 314 315 314 313 312 312 311 311 310 308 308 308 308 307 309 310 311 311 310 307 306 305 306
323 324 324 325 325 324 325 325 325 323 324 323 324 325 324 323 322 321 323 322 322 322 322 322 322 321 322 322 321 320 319 319 319 318 318 317 318 317 315 314 314 314 314 313 313 312 311 310 308 309 308 307 307 307 309 309 309 310 310 308 306 306 307
322 323 323 324 325 325 325 325 324 325 324 324 325 325 325 324 323 323 323 323 323 323 323 322 322 322 322 322 322 321 321 320 319 318 318 318 317 317 317 315 316 315 314 314 313 313 312 311 308 309 308 307 306 308 309 308 309 309 308 307 308 307 306
322 322 323 324 324 324 324 325 323 323 324 324 324 324 324 324 325 324 324 325 324 323 323 323 324 324 323 322 322 321 321 321 320 319 318 317 317 317 316 316 317 316 316 314 315 314 313 311 310 309 309 309 307 308 308 308 307 308 308 308 307 306 306
321 322 322 323 323 324 324 324 324 325 324 324 324 324 323 324 325 324 325 324 324 323 323 323 323 323 323 324 323 322 321 320 320 320 319 318 317 316 317 317 318 317 316 316 315 315 314 311 310 309 309 309 309 309 308 307 308 307 307 307 305 305 304
322 322 321 322 323 324 325 325 324 324 324 324 325 324 324 323 323 323 323 323 323 323 323 324 324 323 324 322 322 321 320 320 320 320 319 319 319 318 317 317 317 318 319 316 310 311 310 309 310 308 309 309 308 308 308 307 307 306 306 307 306 305 304
321 321 321 321 322 322 322 324 324 323 322 323 323 323 323 322 322 322 322 322 322 322 322 323 317 308 308 320 322 322 322 322 321 320 320 319 320 319 318 318 318 315 312 309 306 301 300 300 304 309 309 309 308 307 307 306 305 306 307 306 304 302 301
321 321 322 322 322 321 320 322 322 322 321 321 322 321 321 321 321 321 321 321 321 321 321 319 298 295 295 297 314 323 322 322 322 321 320 319 319 320 320 318 319 315 311 308 309 298 297 296 297 298 299 300 303 308 306 305 305 306 305 304 301 300 299
320 320 318 318 318 319 320 319 319 320 320 320 320 320 320 321 320 320 320 321 321 320 320 299 292 293 293 293 297 316 320 321 321 321 321 320 319 319 319 319 319 318 317 315 314 307 300 295 293 293 292 292 292 291 294 305 305 304 304 301 299 299 299
320 319 318 318 318 318 318 316 317 318 319 319 317 317 317 316 317 318 320 320 318 315 315 293 292 293 293 292 292 303 317 318 319 320 320 320 319 319 319 318 318 317 315 310 309 308 304 300 294 293 294 294 293 292 291 290 294 306 304 301 300 299 299
316 315 314 316 317 317 318 318 318 318 317 317 317 316 315 316 314 315 314 315 315 315 315 295 291 292 293 292 291 300 316 317 319 317 314 314 315 316 316 316 316 315 315 312 311 308 305 304 304 304 304 303 301 298 294 292 292 293 299 302 300 298 300
311 311 312 313 315 315 315 315 314 314 315 316 316 315 315 315 311 311 311 313 316 315 308 291 291 292 292 293 292 302 318 315 314 312 311 311 311 312 313 314 314 313 312 311 309 307 307 307 306 305 304 303 303 302 302 302 301 300 299 300 300 299 299
310 310 311 312 312 312 313 313 313 313 313 311 310 310 308 310 311 310 311 315 317 315 307 290 291 292 292 292 295 314 315 313 311 310 309 309 309 310 311 311 311 310 310 308 299 296 301 307 306 304 302 301 300 299 297 294 292 294 299 299 300 299 299
307 308 310 311 311 312 312 312 312 312 313 313 313 313 312 311 311 313 313 314 317 315 309 295 291 292 292 293 304 314 312 310 309 308 307 307 307 307 307 308 309 308 307 306 295 293 294 300 305 303 302 300 299 298 297 296 292 290 290 290 289 289 288
309 309 311 311 312 311 311 312 311 310 314 314 312 310 309 309 307 307 309 309 307 311 309 297 291 292 292 294 304 313 311 309 307 306 305 306 307 305 302 300 304 307 305 302 290 291 293 301 304 303 301 299 297 297 295 295 295 294 289 289 289 289 289
307 308 309 310 312 312 313 313 310 310 312 312 310 308 307 309 307 306 305 305 298 306 308 301 292 291 292 294 306 312 310 309 307 306 305 303 304 304 302 298 295 298 300 294 288 290 291 299 303 302 300 298 296 296 296 297 297 297 298 298 298 297 295
308 308 308 309 309 311 310 309 310 310 309 309 308 307 306 307 307 304 302 304 304 305 307 306 299 291 293 293 296 310 311 310 307 305 305 303 302 302 302 300 295 289 288 288 289 288 290 292 298 299 299 299 298 295 297 297 296 297 297 296 296 296 296
312 312 312 310 309 308 307 307 305 306 307 306 307 306 306 305 304 303 302 302 304 304 304 306 301 291 292 292 293 300 310 309 307 306 304 302 303 302 301 299 298 290 288 288 289 288 289 289 292 299 298 297 296 295 294 297 295 291 296 295 295 295 295
310 312 310 310 309 308 307 309 309 310 308 307 307 306 304 303 303 302 301 301 302 303 300 298 304 293 291 291 292 295 306 307 306 306 304 303 302 302 300 298 297 291 288 288 288 289 289 290 290 296 293 288 287 288 295 295 296 295 295 295 294 293 294
309 310 310 311 310 308 306 306 306 307 308 307 306 305 304 303 303 302 301 301 301 301 301 300 293 299 291 291 291 293 295 300 292 306 305 303 302 300 299 298 294 289 288 288 288 288 289 289 291 292 287 288 288 288 291 295 294 294 293 293 293 293 292
308 309 310 310 310 310 306 307 305 306 306 306 305 304 303 303 303 303 302 300 300 300 300 301 294 292 295 289 290 290 291 291 293 304 305 304 301 299 299 298 294 288 288 288 288 288 288 289 290 287 287 287 288 290 293 293 293 293 292 291 291 291 292

ECMWFFLT1_sfc_thetae_054.txt.gz
Theta_e
328 329 331 331 331 329 327 328 329 329 329 328 328 328 329 329 331 330 330 329 327 326 326 326 327 329 331 332 333 334 333 333 334 332 330 332 329 330 334 333 332 332 333 332 330 324 319 317 318 324 327 328 327 326 327 326 326 327 328 329 330 332 332
330 330 329 329 327 329 327 328 328 326 327 329 328 327 328 327 328 328 328 326 325 324 324 324 327 329 330 329 329 329 330 331 332 333 333 331 330 329 330 328 329 329 329 331 333 330 322 320 319 320 320 323 323 322 322 323 323 324 324 324 324 325 328
330 329 328 326 326 327 326 327 326 325 324 325 327 326 325 325 327 327 325 325 326 325 326 328 328 328 328 327 328 328 330 330 330 331 330 330 330 330 327 327 325 324 324 327 328 328 328 327 320 319 320 319 315 316 320 319 320 321 321 322 323 323 325
330 329 326 326 324 325 325 325 325 325 325 323 324 325 326 326 326 326 325 325 327 328 325 325 325 324 325 326 327 328 329 328 327 329 329 329 327 326 325 324 321 321 321 320 324 327 326 323 320 318 318 315 314 314 317 319 318 318 318 320 319 320 321
331 328 326 325 325 324 325 324 323 323 324 323 323 322 325 326 326 325 327 326 326 327 325 326 325 324 325 325 325 326 326 327 328 327 327 325 324 323 323 322 320 321 320 320 321 323 323 323 321 317 315 314 313 311 313 317 316 316 316 317 318 319 320
331 329 327 325 326 324 323 322 321 321 321 321 321 322 325 325 324 325 324 323 324 326 326 324 325 325 324 323 323 324 325 324 324 325 323 324 324 321 319 320 318 317 316 318 321 322 323 323 321 316 315 316 312 312 313 314 312 313 314 314 316 317 318
331 330 328 327 326 324 324 322 322 320 320 322 323 322 324 325 324 323 323 324 323 324 324 325 325 325 324 320 322 322 323 324 324 324 322 323 323 322 321 317 317 315 316 318 319 322 322 320 317 317 316 317 317 313 314 313 313 310 310 312 313 315 316
331 330 328 327 327 325 323 322 322 322 322 322 322 324 326 326 325 325 325 323 323 324 324 325 323 324 323 319 320 322 322 322 322 322 321 322 320 320 320 318 317 317 316 314 316 318 320 322 320 319 317 314 313 314 311 312 311 309 308 309 311 311 313
331 331 328 327 327 327 325 323 323 324 323 323 324 325 326 325 325 325 325 324 324 323 323 323 322 322 323 321 319 321 319 318 320 320 320 320 320 321 320 319 317 315 317 315 315 316 317 322 322 321 319 316 311 309 311 309 309 308 310 308 309 310 311
332 331 329 329 329 328 326 324 323 325 326 325 325 326 326 327 326 326 324 325 325 324 323 323 322 323 322 321 321 320 319 319 319 317 318 319 320 319 319 318 316 315 316 318 317 317 319 320 321 321 319 316 315 311 309 308 309 307 308 309 307 308 311
331 331 330 330 330 327 325 324 325 324 325 325 326 326 327 327 326 325 325 325 326 325 324 323 322 323 323 320 321 320 319 320 319 319 319 319 319 319 318 318 317 314 317 316 315 317 317 318 318 318 317 317 316 313 311 309 309 310 307 310 311 308 310
332 331 330 330 329 327 325 324 324 323 325 326 324 325 325 324 324 325 325 324 325 324 324 324 324 323 323 322 321 320 322 321 318 318 319 319 319 318 318 317 317 316 318 318 316 316 318 316 315 315 316 318 317 317 314 310 307 309 313 310 310 311 310
330 330 331 329 328 326 324 323 322 323 325 324 325 325 323 323 323 324 323 322 323 324 323 324 324 324 324 324 323 321 321 321 319 318 317 318 316 318 317 316 315 315 316 316 315 315 314 316 316 313 315 315 316 317 315 313 309 308 312 312 312 311 312
330 330 330 329 328 326 325 323 323 324 323 324 325 324 323 323 322 323 323 322 322 324 323 324 325 325 324 324 324 322 321 321 319 319 318 317 317 318 316 316 315 315 317 316 315 315 313 313 315 316 315 314 314 315 314 312 310 310 313 315 314 312 313
330 330 330 329 328 327 325 324 325 323 324 325 325 323 322 323 323 323 323 323 324 324 324 324 324 325 323 323 324 324 324 322 321 320 320 318 318 317 318 317 315 316 317 315 315 312 312 312 312 312 314 316 315 317 319 317 314 313 311 314 313 315 314
328 329 329 328 328 327 326 326 326 325 323 324 324 323 322 324 324 324 324 324 324 324 324 324 326 325 325 324 323 324 324 323 323 322 321 320 318 318 318 318 318 318 318 317 316 316 315 314 313 312 315 317 317 318 318 318 316 314 313 313 316 314 315
329 329 329 328 328 328 326 326 325 323 323 323 322 324 324 323 324 325 324 324 324 325 325 326 326 326 325 325 325 324 324 325 324 323 322 321 320 320 319 319 319 319 318 318 317 316 315 315 314 314 316 318 319 318 320 320 319 317 315 313 315 313 315
327 328 329 328 329 329 328 328 326 324 324 323 323 324 325 326 326 325 326 325 325 326 326 326 326 326 327 326 325 325 324 324 325 324 324 323 322 321 321 320 320 319 319 318 318 317 316 315 314 315 315 316 316 318 319 318 318 318 317 315 314 315 315
327 328 328 329 329 329 328 328 327 325 325 324 325 326 326 326 325 325 325 324 325 326 326 326 325 325 325 326 326 326 326 326 325 325 325 324 323 323 322 321 321 320 319 318 319 318 318 317 314 315 315 315 315 316 317 317 318 318 316 315 316 313 314
327 328 329 329 330 328 328 328 328 327 326 325 326 326 326 327 327 325 325 326 326 326 326 326 326 327 326 326 326 326 327 326 326 326 326 325 325 324 324 323 323 322 321 320 319 319 319 318 316 316 315 316 315 316 316 317 316 316 316 315 315 315 314
328 328 329 329 329 329 329 329 327 327 326 325 326 325 326 327 328 327 328 327 328 328 327 327 327 328 327 328 328 327 327 327 326 326 326 325 325 325 324 324 324 324 323 322 321 320 320 318 317 316 316 316 315 314 315 315 315 314 315 315 314 313 313
327 327 327 327 328 328 328 328 328 327 326 327 328 328 328 328 327 326 327 328 327 328 327 328 330 328 329 327 327 327 327 326 327 326 327 327 327 326 325 325 325 325 325 322 314 314 314 311 318 315 315 315 314 314 314 314 314 313 313 313 313 314 312
326 326 326 326 327 328 328 329 328 327 327 327 327 327 327 328 326 326 326 327 328 329 329 329 312 302 303 323 328 327 327 327 327 327 327 327 326 326 326 326 326 321 315 313 310 305 303 302 306 313 320 316 313 313 313 313 311 310 310 310 312 310 310
325 324 324 324 325 326 325 325 324 324 325 324 326 327 329 326 326 327 327 328 327 327 326 318 296 295 297 298 319 328 328 327 327 326 326 326 325 326 326 325 326 321 317 314 314 300 301 300 299 299 296 299 308 315 313 310 311 311 310 310 309 309 308
324 324 325 324 325 325 324 323 322 321 322 322 324 325 325 325 327 328 327 327 327 327 323 297 294 294 296 297 299 322 325 324 323 323 322 322 321 322 322 323 324 323 323 320 320 314 305 297 295 293 292 293 292 291 295 309 310 309 308 307 307 308 308
323 322 322 322 323 323 322 322 322 322 321 323 324 324 325 326 325 327 328 326 325 325 321 292 292 292 293 293 295 306 323 323 322 321 322 321 321 321 322 321 322 321 320 313 315 317 315 306 295 293 293 294 293 293 291 291 293 307 309 307 307 307 306
324 323 322 322 322 321 322 322 324 324 323 323 323 323 323 324 323 322 322 321 322 324 319 294 291 292 293 293 295 301 324 323 321 321 320 321 321 321 321 321 319 319 320 318 319 317 314 310 307 306 306 307 305 300 294 293 293 294 301 307 305 304 306
319 319 320 321 322 321 321 322 321 322 321 320 319 318 319 319 319 319 319 319 319 322 312 290 293 291 292 293 294 297 323 322 321 320 320 319 319 320 320 321 320 318 318 318 318 314 313 311 310 310 309 308 309 309 309 308 307 307 305 306 306 305 305
315 317 317 317 318 318 319 318 318 318 317 317 317 319 318 317 318 318 319 318 317 317 313 290 292 292 292 294 292 319 320 319 319 318 317 317 317 318 318 318 318 317 317 314 301 297 306 312 312 310 309 309 308 305 300 294 292 293 300 304 306 305 305
313 314 314 314 314 316 316 317 317 317 316 315 315 315 316 317 316 316 316 317 316 316 317 298 291 292 292 291 296 319 318 317 317 316 316 316 315 314 314 315 316 314 312 310 297 294 295 302 312 310 309 308 307 305 302 299 293 291 290 290 288 288 288
311 312 313 312 313 315 315 315 315 316 314 314 314 315 315 315 315 316 315 314 317 315 316 300 292 293 292 292 298 318 316 316 316 315 314 314 313 310 306 298 308 312 309 307 291 292 291 304 312 310 309 307 306 305 302 301 300 298 289 290 290 290 290
311 311 311 312 314 313 314 314 315 315 314 314 314 314 314 313 314 314 315 316 304 316 316 303 291 293 291 294 307 318 315 315 314 314 313 311 312 310 307 301 295 301 304 297 289 291 291 301 311 309 308 307 304 304 304 304 304 303 302 301 300 297 297
312 311 311 314 314 313 314 314 314 314 314 312 312 312 312 312 312 313 314 315 316 317 316 314 303 290 294 295 293 313 315 312 312 312 312 310 310 309 307 304 297 289 289 289 289 289 290 292 307 307 307 306 305 303 304 304 302 301 302 302 302 303 302
311 311 311 312 311 312 312 311 314 315 314 312 312 312 312 312 312 311 313 314 314 316 316 315 306 291 293 293 294 296 315 313 312 311 310 309 309 309 307 304 301 290 288 289 290 289 291 290 293 306 305 303 301 298 296 303 298 291 300 301 301 301 301
313 313 312 312 313 313 314 314 314 314 312 311 311 310 311 309 310 310 311 312 314 314 307 302 312 293 291 292 293 292 309 313 312 312 309 308 308 309 308 304 301 292 288 289 289 290 290 291 291 300 296 289 288 289 299 299 301 301 300 300 299 298 299
313 313 313 314 312 311 313 313 313 312 311 311 310 310 309 309 308 308 309 310 311 313 312 305 294 304 290 292 291 293 292 304 295 313 309 307 307 307 306 302 296 289 289 289 289 289 290 289 292 294 287 288 290 286 290 300 299 299 299 298 298 298 298
312 313 313 313 312 312 312 312 312 312 311 310 309 309 308 308 306 307 307 307 310 310 312 310 296 294 299 289 291 290 291 292 295 309 310 308 308 307 305 302 295 288 289 289 288 289 289 290 292 287 287 287 287 289 297 298 298 299 296 296 296 297 298

ECMWFFLT1_sfc_thetae_057.txt.gz
Theta_e
327 329 330 329 330 329 327 328 328 328 329 329 330 329 330 330 331 330 330 330 327 328 327 327 329 329 330 331 332 332 331 333 333 331 328 328 325 326 332 331 332 333 331 328 327 324 319 316 320 326 326 326 325 324 324 324 324 325 326 327 328 328 328
329 329 329 328 327 329 328 327 327 327 329 329 328 328 327 326 327 327 327 325 325 324 325 327 329 328 328 329 329 329 329 329 330 331 331 329 328 326 328 329 329 327 328 328 328 328 323 319 318 319 320 323 323 323 323 324 323 325 324 325 326 327 328
328 327 326 326 327 328 327 326 325 325 325 326 327 325 326 325 325 325 325 327 329 327 327 327 326 326 326 327 328 330 330 329 329 329 328 327 327 327 325 325 324 323 323 324 325 325 324 324 317 317 319 319 316 318 322 321 322 323 323 324 325 326 325
327 327 325 325 325 326 324 325 325 324 324 322 323 326 325 325 326 325 326 327 329 327 324 323 324 323 325 327 327 328 328 327 326 327 326 326 325 323 322 321 319 320 320 319 321 323 321 320 321 318 320 319 316 315 318 320 320 320 321 323 322 322 323
328 326 325 324 324 324 325 324 324 323 322 322 323 324 324 324 325 325 326 327 325 326 325 325 324 324 325 325 325 326 326 326 327 325 325 323 324 320 321 319 318 318 318 318 320 322 323 323 320 318 316 316 315 315 316 319 319 318 318 319 320 321 321
328 326 325 325 325 324 324 323 322 320 320 320 321 322 323 325 324 324 324 324 325 325 324 322 323 322 323 323 323 323 323 322 321 322 320 322 322 319 318 318 316 315 316 319 323 321 324 325 320 316 316 318 313 313 314 315 313 315 317 318 319 319 320
328 327 325 325 325 324 323 322 322 320 320 321 321 322 323 323 323 324 324 323 323 324 325 326 325 323 322 319 322 322 322 323 323 323 321 322 321 321 320 317 317 316 316 318 321 322 321 320 317 316 316 316 315 311 312 312 313 311 312 314 317 318 318
328 326 325 326 326 324 323 323 323 322 321 321 322 324 323 323 323 323 323 323 323 324 323 324 323 322 321 318 319 320 320 321 320 320 321 322 320 319 321 318 317 316 316 314 316 320 321 321 319 318 316 312 312 313 311 309 309 309 310 311 313 314 315
329 328 326 326 325 325 324 323 323 324 323 322 324 324 324 324 323 322 322 323 323 324 323 322 322 321 322 320 319 320 319 319 321 320 320 321 320 321 320 318 317 315 317 317 317 317 320 322 321 320 318 315 310 306 310 309 309 308 311 309 311 313 313
329 327 325 327 326 326 326 325 324 324 325 324 324 325 324 324 325 324 323 323 324 324 323 322 322 322 322 321 320 319 319 319 320 319 320 320 320 320 319 319 316 316 316 318 318 319 320 322 322 321 318 316 315 310 308 307 308 308 310 311 308 310 313
328 328 327 327 326 325 325 326 326 324 323 323 324 325 326 325 324 324 324 324 325 324 324 323 322 322 323 321 320 319 320 321 319 319 319 318 319 320 319 318 318 316 318 318 317 319 319 320 319 319 317 317 317 313 311 308 307 311 311 312 311 309 311
330 328 328 328 327 324 324 325 325 325 325 324 323 325 325 324 324 323 324 324 325 324 324 324 324 323 322 321 322 321 322 321 320 319 320 320 319 320 319 318 317 316 318 318 318 318 320 318 317 316 316 318 318 318 314 311 308 311 314 310 311 313 312
330 329 328 327 325 324 323 325 324 325 324 324 324 324 323 323 323 323 323 322 323 324 323 324 324 323 324 323 323 321 322 321 319 318 319 320 317 319 319 317 317 317 318 316 316 317 316 317 318 315 317 317 316 318 317 314 311 308 314 313 313 313 315
332 329 327 327 325 325 325 325 325 326 324 323 324 323 322 322 321 322 322 322 323 324 324 325 326 327 325 324 324 323 323 322 320 319 318 318 318 319 318 316 316 316 318 317 316 315 314 315 316 317 317 315 314 316 315 314 311 311 314 317 316 314 316
332 331 331 326 325 323 323 323 325 324 324 323 324 322 321 321 322 322 321 321 322 323 324 325 325 326 325 325 325 324 324 323 322 321 321 319 319 319 319 318 317 318 318 317 317 314 313 313 313 314 315 317 316 318 320 317 314 313 312 315 314 316 316
330 332 331 328 325 323 323 323 323 323 323 322 323 322 322 322 322 322 322 323 322 323 323 324 326 326 325 325 324 325 325 324 323 323 322 321 319 319 320 320 319 319 320 319 318 318 315 315 314 314 316 318 317 318 318 318 316 313 313 314 317 315 316
330 331 330 329 325 324 323 324 323 323 322 322 321 323 323 322 322 323 323 322 322 323 325 326 326 326 326 326 325 325 325 325 325 324 323 322 321 321 321 320 321 321 320 319 319 318 317 317 316 315 316 318 318 318 320 318 318 317 315 314 315 315 316
330 331 331 330 329 325 324 325 325 321 322 321 321 321 322 322 323 323 324 322 324 324 325 325 326 326 326 327 327 326 326 325 326 325 326 324 325 323 321 321 321 321 321 319 320 318 318 316 316 316 316 318 318 319 320 319 320 319 318 315 315 317 317
329 329 329 329 328 326 324 323 323 323 323 321 322 322 322 322 322 322 323 323 324 324 324 325 325 325 325 327 327 328 327 326 325 325 325 326 324 324 323 322 323 322 320 320 320 320 321 317 316 317 317 317 317 318 318 320 319 319 318 317 317 315 316
328 328 328 329 328 326 323 323 322 321 322 321 322 322 323 322 323 323 324 324 323 324 324 325 325 325 325 325 326 326 327 326 326 327 326 326 326 326 325 325 325 324 323 322 321 320 320 320 318 318 317 317 316 318 318 317 317 317 317 316 316 315 314
328 328 329 328 328 325 325 324 322 321 322 322 322 322 323 322 325 326 326 322 323 325 324 325 325 325 325 326 325 326 327 327 327 326 327 326 326 325 326 326 326 325 324 324 323 322 324 321 319 318 318 318 317 316 316 317 316 314 315 314 313 313 313
325 327 327 328 328 326 326 325 324 322 323 323 323 323 325 326 325 324 324 324 324 325 326 326 325 324 328 326 326 326 327 324 324 324 324 325 325 325 326 326 326 326 328 320 314 314 313 314 321 318 319 318 316 316 315 314 314 314 313 312 312 314 312
325 328 327 326 327 328 328 328 328 325 323 323 326 327 324 323 324 325 323 325 327 328 328 324 309 301 303 319 322 319 320 325 324 323 325 323 325 324 325 326 326 320 315 314 311 305 302 302 304 314 321 320 317 316 316 317 314 314 312 311 311 312 311
325 325 325 327 326 321 321 323 323 326 325 325 326 326 324 322 319 322 324 325 325 326 322 313 296 295 297 298 319 325 323 322 323 324 324 324 325 323 322 324 325 322 320 316 317 302 302 300 297 296 296 299 305 322 317 314 313 314 312 311 311 310 309
324 323 323 323 324 324 325 322 322 324 326 325 326 326 326 325 324 325 322 322 323 323 316 297 295 296 295 295 299 320 326 324 323 322 323 322 321 321 321 323 324 325 325 325 323 317 305 295 293 293 294 294 293 291 295 312 314 312 312 311 310 309 309
323 322 322 321 320 319 322 322 322 322 322 324 325 325 326 326 323 325 325 323 320 322 314 293 295 295 296 294 294 304 324 321 321 320 321 320 319 319 319 319 321 323 321 317 318 321 315 307 295 293 294 294 294 294 292 291 295 310 311 309 308 308 309
323 323 322 321 321 321 320 320 321 321 323 324 324 324 325 326 324 318 319 320 321 321 316 294 294 294 295 293 293 297 324 320 320 319 319 319 319 319 319 319 317 320 321 319 320 319 318 313 308 307 308 309 307 301 294 293 294 295 302 309 309 308 310
321 322 322 321 321 320 321 322 321 322 323 323 322 321 321 319 321 321 320 321 321 321 314 290 292 291 292 292 293 295 322 320 319 319 318 318 318 319 319 320 318 317 318 318 317 318 317 314 313 312 312 310 309 308 309 309 310 310 310 309 309 308 308
319 319 318 318 319 319 319 320 320 320 320 320 320 319 318 318 317 317 317 317 317 318 310 289 292 292 292 292 292 316 319 318 317 317 317 317 318 319 319 319 318 317 318 316 300 296 303 318 314 313 311 311 311 310 304 295 291 294 302 306 307 306 305
316 316 316 317 316 317 317 318 318 318 316 316 316 316 316 316 316 316 316 315 314 316 314 297 292 292 292 291 296 320 317 316 316 316 316 316 315 314 312 313 317 316 315 311 295 295 294 296 312 312 311 310 310 308 305 301 294 291 291 291 289 289 289
314 314 314 315 315 316 316 317 317 316 315 314 314 315 315 315 315 315 315 315 316 315 317 301 293 293 291 290 295 318 316 316 316 315 314 314 312 312 307 299 309 314 312 308 291 291 289 302 312 311 310 309 308 308 306 305 303 301 290 291 290 290 290
313 313 314 314 315 314 315 315 315 316 315 315 315 314 313 313 314 314 315 316 311 315 316 305 292 292 293 292 303 319 316 315 314 314 312 311 312 311 308 301 295 299 303 297 289 291 290 300 311 310 309 308 306 306 307 307 306 306 304 303 302 299 298
312 311 311 313 314 314 314 314 314 314 314 314 312 312 312 312 312 313 314 312 312 316 316 315 307 291 294 294 292 309 317 313 312 311 311 310 310 309 308 305 298 290 290 289 290 290 291 291 308 310 309 307 305 304 307 307 306 305 303 302 303 305 304
313 312 313 313 313 313 313 313 314 313 313 313 312 312 312 312 312 313 313 314 313 315 317 315 308 291 294 292 291 296 316 312 312 311 309 309 309 309 307 305 302 291 289 289 290 290 291 291 293 308 305 303 300 298 297 303 303 295 302 303 303 302 303
313 313 313 312 313 312 313 312 312 312 311 311 311 311 312 311 311 311 312 312 313 315 314 310 313 293 291 294 291 292 310 315 314 312 309 308 307 309 306 304 301 293 289 289 289 290 290 291 292 301 296 289 289 289 301 300 301 303 303 302 301 300 300
313 315 314 314 313 313 313 312 311 311 311 311 310 311 311 309 309 309 310 310 312 313 314 311 302 307 288 291 290 292 290 304 296 316 309 308 308 306 305 302 296 290 289 289 289 289 290 290 293 294 288 289 290 287 290 298 301 301 299 300 300 299 298
311 312 314 314 312 314 313 313 312 312 311 310 310 310 310 309 308 308 308 307 309 310 311 311 300 298 297 289 290 290 291 289 292 309 312 310 309 308 305 301 295 289 289 289 288 289 289 291 294 287 288 288 287 289 297 299 299 300 298 297 297 298 299

ECMWFFLT1_sfc_thetae_060.txt.gz
Theta_e
331 328 330 330 332 330 330 330 331 333 331 332 332 329 331 331 332 330 332 329 333 329 329 328 328 330 330 331 332 332 331 330 329 327 326 328 325 325 329 326 327 329 328 328 326 321 317 313 316 320 321 321 321 321 321 322 325 327 327 329 328 329 329
330 329 327 327 328 329 329 332 331 327 329 330 327 327 326 325 326 328 331 331 329 332 327 328 327 326 328 330 331 330 328 329 330 329 326 327 327 324 326 326 326 326 327 327 326 325 318 315 315 315 314 319 320 321 321 322 322 323 325 326 326 326 326
328 327 327 328 328 332 328 327 328 329 329 331 330 328 328 325 328 330 329 331 330 326 324 322 323 326 328 328 329 329 329 328 329 328 327 326 324 326 326 326 323 323 322 323 324 321 321 321 314 314 316 314 312 315 319 319 321 323 323 323 323 322 322
328 327 325 326 328 328 324 325 327 327 326 326 329 327 326 327 329 330 329 325 326 327 322 321 325 326 329 329 328 327 326 326 325 324 323 325 323 321 321 319 316 319 321 321 320 322 320 318 316 315 315 314 313 313 317 318 318 319 321 321 321 320 319
327 325 324 325 325 324 326 326 325 323 324 326 327 328 327 326 328 327 328 327 326 327 325 326 325 323 323 323 323 323 322 323 323 323 322 320 322 321 318 320 318 320 319 321 323 323 321 320 319 314 313 313 313 312 315 320 318 318 318 318 318 319 318
327 326 326 325 326 326 327 324 323 322 323 323 324 323 326 328 328 327 327 328 327 328 328 325 323 322 322 323 322 322 322 321 321 321 319 320 320 318 318 317 317 315 318 322 323 323 322 321 320 312 312 313 308 309 311 313 310 314 316 316 316 316 316
328 327 327 326 327 327 327 325 323 322 323 323 325 325 325 324 324 324 325 324 326 326 325 324 322 322 323 318 319 321 320 320 321 321 320 321 320 320 320 315 315 315 318 321 321 324 320 320 316 313 311 311 310 307 308 308 309 308 311 314 315 314 314
328 328 327 328 328 327 325 325 324 325 322 323 325 323 323 325 326 326 326 325 326 325 326 324 323 321 320 316 318 320 320 320 320 320 320 319 320 319 317 317 317 316 315 316 317 320 323 320 315 315 313 309 311 307 303 304 305 305 306 309 312 311 312
326 328 328 328 329 326 326 326 325 324 325 325 323 324 325 324 323 324 324 326 326 326 325 325 323 322 323 321 321 321 318 321 321 320 319 320 320 319 318 317 315 313 315 316 316 317 318 322 320 324 323 309 305 303 306 303 304 303 307 305 308 309 309
328 329 328 329 327 328 328 326 325 325 326 325 325 326 324 325 325 324 324 326 327 325 322 323 323 323 323 321 319 319 319 321 320 320 320 319 319 319 318 317 315 315 315 316 317 317 320 320 321 316 317 314 314 306 302 301 304 304 305 307 304 306 309
331 329 329 328 327 327 328 326 327 324 324 325 325 325 326 327 325 325 326 326 326 326 327 326 321 323 324 322 321 320 321 321 319 319 318 318 318 319 318 316 317 315 317 317 317 318 317 317 316 315 314 316 313 312 306 303 303 308 307 307 306 305 307
332 329 329 328 327 327 325 326 324 324 324 325 324 325 325 324 325 325 326 326 327 326 326 326 326 324 322 322 323 323 324 321 318 317 319 318 318 320 318 318 318 318 317 315 317 315 315 315 322 314 315 316 316 315 307 306 303 308 312 306 309 309 308
330 328 327 326 326 325 325 325 325 324 324 324 325 325 324 323 324 324 325 324 326 325 326 326 325 326 326 325 325 322 322 321 319 320 320 322 318 321 316 315 316 315 317 317 315 318 317 316 316 316 316 315 314 315 312 309 305 306 312 310 310 310 312
326 329 326 327 325 325 326 325 325 325 323 324 324 324 323 322 322 323 322 322 323 325 326 327 327 327 326 326 324 324 325 323 318 317 318 319 320 319 317 314 315 318 318 317 317 316 315 315 314 315 315 313 312 315 312 309 306 306 309 319 315 312 314
326 324 328 326 325 325 326 325 326 324 323 324 323 322 321 323 323 322 321 321 322 322 326 325 327 328 327 325 326 327 327 325 321 322 323 318 319 323 321 317 316 318 318 317 316 311 311 313 311 312 314 316 313 317 317 312 310 308 307 312 311 313 313
326 326 328 324 324 323 325 326 325 324 323 323 323 323 321 323 322 321 321 322 321 322 324 325 327 328 326 326 324 326 328 325 322 322 322 321 317 319 321 320 318 319 323 319 319 317 316 314 313 312 313 315 315 315 315 315 313 310 308 310 313 311 314
325 325 328 326 323 323 324 325 324 324 322 322 322 324 323 321 321 322 321 321 322 322 323 325 327 327 324 325 325 325 325 325 325 324 324 322 319 319 321 321 319 320 320 320 319 317 316 315 315 314 314 314 316 317 317 317 315 313 313 314 313 311 314
324 325 326 327 325 323 324 323 323 322 323 321 321 324 322 322 321 321 323 321 321 321 323 323 324 327 327 328 327 327 325 325 326 325 325 324 325 322 321 320 321 321 320 319 317 318 317 315 314 315 314 315 315 316 320 316 316 316 314 313 315 315 315
324 324 325 325 327 324 323 323 322 322 322 320 321 324 322 321 321 321 321 321 321 322 323 326 324 325 325 327 325 325 324 323 324 323 320 321 321 320 320 320 323 322 319 319 320 318 318 316 316 316 315 315 314 316 314 317 317 316 314 313 313 313 313
323 321 325 327 327 325 322 323 323 322 322 321 321 323 323 322 325 325 321 323 325 324 324 324 327 326 327 324 323 322 320 321 320 320 322 321 321 321 319 320 321 323 321 320 320 319 318 318 318 316 315 314 314 314 315 314 313 313 313 313 312 311 312
323 323 326 328 324 323 323 322 323 323 324 323 322 320 322 323 323 325 324 323 323 323 324 324 323 325 326 323 323 323 321 319 320 320 320 320 320 322 322 321 321 322 323 322 320 321 320 319 317 316 316 316 315 313 312 312 312 311 311 310 309 309 310
324 324 322 322 322 322 321 322 321 320 323 324 325 321 324 322 323 324 323 323 323 324 323 321 315 315 323 323 322 321 321 321 321 321 320 321 322 321 319 322 323 322 319 315 309 309 309 314 319 317 318 317 315 314 312 311 313 310 310 308 308 310 309
323 323 321 321 322 321 320 320 319 323 323 323 326 325 322 323 323 323 322 321 322 322 321 317 304 300 304 318 321 321 322 321 321 320 320 319 319 320 321 320 323 319 314 312 307 300 298 300 305 310 312 314 314 313 313 312 309 310 309 308 308 307 306
322 322 322 322 320 319 319 320 321 324 323 323 324 324 323 322 322 321 321 320 321 321 318 309 296 294 295 298 319 323 321 321 321 320 319 320 318 319 320 321 322 317 315 312 304 296 296 295 295 296 296 299 304 310 312 312 309 311 309 308 308 306 305
320 321 321 320 320 320 320 319 319 321 324 323 323 324 322 323 322 321 321 320 320 320 314 299 293 296 294 294 298 314 323 322 322 320 320 319 319 320 321 320 323 325 322 320 312 307 300 295 294 294 294 294 293 293 297 305 307 308 307 307 306 305 304
319 321 321 321 320 320 319 317 318 321 323 324 322 320 321 322 322 321 321 320 320 319 314 294 294 295 295 293 293 302 321 322 320 320 319 319 319 318 317 319 321 322 321 320 318 311 307 302 296 295 296 297 296 294 292 292 296 305 307 307 305 305 305
319 319 319 319 318 318 319 320 320 321 323 324 323 320 318 319 321 319 319 318 319 317 312 296 294 295 294 292 292 296 320 321 319 317 316 317 317 317 317 316 318 318 318 315 317 312 309 307 304 305 306 306 302 299 294 294 295 297 302 307 305 303 305
319 320 319 319 319 319 320 320 320 320 322 323 321 320 318 317 318 318 318 320 319 317 312 293 292 292 291 291 292 293 318 320 317 316 316 317 316 314 315 318 317 314 312 308 304 312 312 309 308 309 307 306 305 305 302 299 298 302 305 306 305 304 303
319 319 319 318 319 319 320 319 320 321 321 322 322 321 320 319 318 317 319 320 318 315 306 288 291 291 293 293 291 310 320 317 315 314 314 311 309 309 309 313 314 312 308 304 296 292 297 308 311 309 307 306 305 302 297 294 292 293 296 297 298 298 298
317 317 317 317 317 319 319 319 320 321 320 319 318 317 316 316 317 317 318 318 316 314 310 294 290 291 291 290 300 318 319 316 314 314 311 310 308 305 306 311 313 309 306 300 292 291 293 301 310 309 308 307 307 303 300 299 293 291 291 291 290 290 290
315 314 315 315 316 317 319 318 318 318 317 316 315 314 315 315 315 315 314 315 315 314 311 298 291 291 291 290 297 313 317 314 313 311 310 309 307 304 304 306 310 307 302 298 291 291 292 303 306 308 308 306 305 303 300 301 301 301 290 291 291 290 290
313 314 313 315 317 316 316 315 315 316 316 315 314 314 313 313 313 313 314 315 313 314 312 302 291 291 291 290 302 315 316 312 311 310 309 308 307 305 300 299 300 299 298 293 290 291 291 299 306 307 307 305 303 302 302 302 302 299 296 297 296 294 294
313 312 313 316 315 316 316 315 317 315 314 312 311 313 313 312 312 311 312 313 315 314 312 309 298 292 291 290 291 309 314 313 311 311 309 307 306 304 301 298 295 290 290 290 290 291 291 293 302 302 302 300 299 297 298 302 301 301 301 300 299 299 299
319 316 319 315 317 317 319 316 316 318 315 315 311 311 311 312 311 311 310 310 312 315 315 312 301 289 291 291 291 301 314 314 311 309 309 306 306 304 301 299 296 291 290 290 290 290 291 292 294 297 296 295 294 294 293 299 302 297 299 299 298 298 299
313 317 314 316 319 316 315 319 315 316 315 313 315 315 313 311 310 310 311 311 312 315 314 309 305 292 292 292 293 296 311 313 305 313 312 307 305 304 301 298 295 291 290 290 290 290 291 291 292 295 290 288 289 288 292 294 296 298 300 299 298 296 296
312 314 315 316 314 315 315 315 315 315 313 313 313 313 313 312 311 310 310 310 312 314 313 309 300 299 291 291 291 291 293 302 296 311 309 304 303 303 300 296 293 291 289 289 289 289 290 292 292 290 288 288 288 288 291 293 294 297 296 296 297 296 294
312 314 312 313 314 313 313 315 314 313 312 311 310 309 311 311 309 308 308 308 310 312 311 309 299 295 293 290 290 290 289 290 293 305 309 305 303 299 297 294 292 289 289 289 289 289 289 291 291 288 288 288 288 289 291 293 294 296 294 294 293 293 295

ECMWFFLT1_sfc_thetae_063.txt.gz
Theta_e
321 320 321 321 323 322 322 321 321 321 323 323 323 323 325 325 322 321 322 323 323 324 324 322 322 323 325 327 326 325 325 325 323 321 320 321 318 318 322 322 322 323 322 321 320 315 313 309 311 317 319 318 318 319 322 324 325 324 325 326 327 327 326
322 322 322 322 321 321 320 321 321 321 320 320 321 319 317 319 321 321 321 322 322 323 324 321 321 324 324 323 322 321 322 322 322 320 320 320 321 319 321 319 321 321 322 321 321 318 312 310 310 312 311 315 316 317 318 321 323 325 325 325 325 320 317
321 320 320 319 319 321 319 317 318 319 319 319 320 319 317 319 321 321 320 320 319 318 320 320 321 321 321 321 321 321 321 318 318 319 318 316 317 319 321 321 319 319 320 319 318 317 315 314 309 309 310 309 309 312 317 318 321 322 321 319 317 316 313
320 319 318 319 320 318 318 318 317 317 318 317 317 319 320 320 321 322 319 320 319 321 320 319 319 322 320 318 317 317 317 316 316 315 314 315 314 312 314 319 320 320 317 316 316 316 314 312 311 311 311 311 310 310 314 317 318 319 319 317 315 313 312
320 320 319 319 317 317 318 317 316 316 316 317 318 316 317 318 318 317 319 318 317 316 318 318 317 317 316 317 316 315 315 315 315 315 313 313 312 310 310 310 312 317 320 320 319 318 315 314 312 310 309 310 310 311 315 314 316 317 317 315 314 312 310
321 320 320 318 317 317 318 315 314 315 315 314 314 315 315 319 320 319 318 316 315 318 316 315 316 317 317 316 316 315 315 315 314 313 311 311 312 310 308 309 310 313 318 320 321 319 318 316 313 309 309 309 306 308 311 313 311 312 314 314 314 313 311
320 320 319 318 318 319 316 315 315 315 314 313 315 316 317 318 317 317 317 317 316 315 315 315 315 314 314 314 313 313 313 313 314 313 312 311 311 310 310 308 309 310 311 316 319 319 318 315 309 308 308 307 307 308 308 306 309 307 308 310 312 312 311
321 320 319 319 320 318 316 315 315 316 315 316 316 315 316 316 317 317 316 314 315 314 314 313 314 313 313 313 313 313 313 313 313 313 312 312 313 310 309 308 309 309 310 312 313 316 319 317 311 309 307 304 302 302 302 302 304 306 306 306 310 311 311
322 320 320 320 320 318 317 316 316 315 316 315 315 316 317 316 315 316 316 316 316 315 315 315 314 314 314 314 313 312 313 318 313 313 312 312 311 310 309 309 310 309 310 311 312 312 314 315 313 311 309 306 300 298 299 299 301 302 306 303 305 308 310
320 319 319 319 318 318 318 317 316 317 315 315 317 316 315 314 315 315 316 317 316 314 314 314 314 313 312 312 312 312 313 313 313 311 311 311 310 309 309 309 309 310 311 310 310 311 312 311 313 313 311 305 302 300 297 296 298 298 303 304 301 304 307
321 320 320 318 318 319 317 317 318 316 316 317 318 317 315 316 317 321 315 313 313 313 315 315 314 314 314 313 313 312 312 311 311 310 312 312 311 310 310 311 310 308 309 310 309 309 310 312 311 312 310 309 305 302 299 298 299 302 301 304 302 302 305
321 320 319 319 319 319 318 318 317 317 317 317 317 317 317 316 316 315 314 315 316 316 315 315 315 314 313 313 313 314 313 312 311 310 311 311 311 310 308 308 309 310 310 309 310 309 310 311 309 309 309 310 308 305 304 301 298 303 303 302 304 305 304
321 320 319 319 319 318 318 318 317 317 317 317 317 317 316 316 316 316 316 316 315 315 316 316 314 314 315 315 314 312 310 310 310 308 309 311 313 310 308 308 309 310 309 309 309 308 307 309 310 309 310 309 307 307 306 303 301 302 305 303 304 305 305
323 322 320 320 319 319 318 318 317 317 318 317 317 317 317 317 317 317 316 316 315 314 316 315 316 317 317 315 314 313 314 313 311 310 311 312 312 309 309 310 310 311 310 309 308 309 308 307 308 310 310 308 307 307 307 304 302 302 305 310 306 308 309
323 323 320 320 320 321 319 319 318 318 317 317 317 317 316 317 316 316 315 315 316 317 317 317 317 318 317 316 316 320 317 312 312 314 312 311 312 314 311 310 312 312 313 312 310 307 308 307 309 310 311 311 310 311 307 305 302 302 303 307 306 309 308
323 325 324 320 320 321 321 320 319 318 318 317 317 316 316 317 316 315 315 315 315 316 317 317 318 318 316 316 316 316 317 314 313 315 314 312 312 314 312 311 312 313 315 311 310 309 308 309 309 310 310 311 311 310 311 309 306 304 304 305 307 307 307
322 323 324 324 320 321 321 320 319 319 318 317 317 316 316 316 316 316 316 315 316 316 317 318 319 319 319 317 317 318 317 317 317 317 317 317 316 315 313 312 312 313 313 311 311 312 309 311 310 310 310 310 311 311 312 311 310 307 305 306 307 307 310
320 322 322 323 323 322 321 320 320 319 318 317 316 316 316 316 316 317 318 317 316 316 318 318 318 319 319 318 318 318 317 318 318 317 317 317 319 315 315 314 315 314 312 312 311 312 313 312 312 311 311 310 311 313 313 312 312 311 309 307 307 310 310
319 320 321 322 321 320 321 320 319 318 317 316 316 316 315 315 316 317 317 315 316 318 320 320 320 319 318 318 319 319 319 318 318 317 316 316 315 315 315 315 315 315 314 312 312 311 313 312 313 311 311 310 311 311 310 311 311 310 309 308 307 309 309
318 319 319 319 320 320 319 318 319 318 317 316 315 316 315 316 314 316 317 317 318 320 319 319 320 320 320 320 318 317 317 317 316 315 314 316 316 316 316 316 315 316 315 315 314 313 313 312 312 311 310 310 310 310 309 309 309 309 308 307 307 306 306
319 319 319 319 320 320 320 319 317 317 318 316 316 317 315 318 317 317 318 320 320 318 316 316 317 318 318 319 318 316 315 314 314 313 312 312 315 316 316 317 317 317 318 317 316 316 315 313 313 312 310 310 309 309 309 308 308 307 307 307 306 306 306
319 319 319 319 318 318 319 319 320 320 319 317 318 316 317 320 319 318 319 319 319 318 316 314 314 316 317 319 319 315 315 314 313 313 314 314 314 313 314 317 318 317 317 312 308 309 311 313 313 310 309 309 308 309 308 308 308 306 304 302 303 303 303
318 317 317 317 316 316 317 317 317 320 321 318 319 319 319 319 318 318 318 318 317 316 313 311 309 306 310 317 317 317 316 315 313 312 313 313 313 314 316 314 317 316 311 309 304 299 299 302 307 309 307 307 308 308 306 305 304 303 303 302 302 301 301
318 317 316 316 317 316 317 317 317 318 319 318 318 320 319 318 317 317 317 317 315 313 310 306 297 295 296 303 317 316 316 316 315 314 313 312 312 313 313 315 313 312 310 308 301 296 296 296 296 297 298 302 307 307 305 304 303 302 302 303 300 300 298
317 316 316 316 316 317 317 317 317 317 318 317 317 318 318 317 317 316 317 316 314 311 307 300 294 294 294 297 305 316 317 317 317 314 314 314 314 313 314 316 314 316 311 307 305 302 299 296 295 294 294 295 295 296 300 304 303 301 300 301 301 299 299
316 316 316 316 315 316 315 315 316 316 316 317 317 317 317 317 316 316 316 315 313 310 306 295 294 294 294 293 294 305 318 316 317 314 314 313 313 313 314 316 315 315 314 313 309 303 301 299 296 296 296 296 295 294 292 293 297 303 303 301 300 298 298
316 316 316 315 314 313 313 312 313 314 315 315 315 315 314 314 314 314 314 313 312 309 306 297 293 294 294 292 291 297 313 313 312 312 311 310 310 310 314 314 311 308 308 308 306 304 302 300 300 301 300 300 300 299 296 295 296 297 300 302 301 299 298
315 315 315 315 313 313 312 313 313 312 313 314 313 312 307 312 312 312 313 313 310 309 307 294 292 292 292 293 292 295 311 312 310 308 306 306 307 309 312 309 306 304 302 300 300 304 303 303 302 303 301 300 298 295 295 296 297 298 299 300 299 297 296
314 314 314 313 313 313 312 312 311 311 311 313 312 311 312 312 312 312 313 312 309 307 299 290 291 292 293 293 292 304 311 309 307 306 305 305 306 308 308 306 303 300 298 297 295 295 300 304 303 302 300 298 295 292 292 294 293 295 296 295 295 294 294
312 312 312 312 311 310 311 312 312 314 314 313 313 313 313 312 312 312 312 310 308 305 301 291 290 292 292 292 297 309 310 308 306 304 303 304 305 307 306 303 301 298 297 295 293 293 297 301 303 302 301 299 297 294 293 294 292 291 291 291 292 292 291
309 310 310 310 310 310 311 312 314 314 314 313 312 312 312 312 312 313 312 310 309 307 303 292 290 291 292 291 300 308 308 306 304 303 302 301 302 303 305 305 303 298 296 294 292 294 296 300 301 302 302 300 297 295 294 296 297 294 292 291 290 290 290
310 310 310 311 311 312 311 311 310 310 310 310 309 308 309 311 310 309 308 309 311 307 302 295 291 290 291 289 296 306 308 305 304 302 301 300 298 298 298 300 301 298 296 294 292 294 295 298 299 299 299 298 296 294 293 295 295 294 294 295 294 293 293
304 307 309 309 310 311 310 308 307 308 308 307 308 306 306 310 309 307 306 308 309 307 304 299 293 290 289 288 294 304 307 305 303 302 301 300 297 294 294 293 293 290 291 291 292 292 293 294 296 296 295 294 291 291 291 294 295 294 294 294 293 293 293
305 308 308 307 307 308 307 306 307 307 307 306 305 306 304 306 307 306 307 307 307 303 305 300 293 290 291 290 291 302 306 305 304 303 301 299 297 295 293 292 291 291 290 291 291 291 291 291 292 293 291 291 291 290 291 290 291 295 293 293 293 293 295
306 309 309 307 306 306 307 307 306 306 304 304 305 303 302 304 305 305 305 307 307 305 307 303 296 290 292 293 294 298 305 302 302 303 301 299 297 295 293 290 290 290 290 290 290 290 290 290 290 291 289 289 288 288 289 291 290 291 291 292 291 290 289
302 305 306 306 305 305 304 304 305 305 303 302 304 304 303 304 303 302 302 303 305 306 305 300 295 294 291 291 290 292 295 299 297 305 302 299 297 294 292 290 291 291 290 290 290 289 289 289 290 288 288 288 288 289 290 289 288 290 289 289 289 289 290
299 299 300 302 304 304 304 305 305 304 303 302 302 301 302 302 301 301 301 300 304 305 304 300 294 293 292 291 291 291 293 295 298 302 302 299 296 293 291 290 290 289 290 290 290 289 289 289 287 288 288 288 288 289 289 289 288 291 288 286 288 289 290

ECMWFFLT1_sfc_thetae_066.txt.gz
Theta_e
319 317 318 318 318 320 319 320 321 321 321 322 321 321 321 321 320 321 321 321 321 321 323 321 320 321 323 323 323 322 321 320 320 319 317 318 315 316 319 319 320 320 317 316 314 312 311 309 309 314 316 317 320 321 323 324 326 326 325 324 322 320 318
319 318 320 321 319 319 318 318 319 318 318 318 317 317 317 320 321 320 320 320 320 320 322 321 320 321 320 319 319 320 319 318 318 317 319 316 317 318 318 317 319 317 317 316 315 312 309 308 306 308 310 313 316 318 320 322 324 323 321 317 317 315 314
320 319 318 317 317 316 316 315 316 316 315 315 315 315 317 317 318 321 320 319 317 320 321 319 318 317 317 317 316 315 314 314 313 315 314 314 317 318 318 319 318 315 315 314 312 311 312 309 308 308 309 311 311 311 317 319 319 316 315 313 311 311 310
319 318 316 316 315 314 315 313 314 314 314 314 317 317 317 317 318 320 316 316 318 322 320 318 316 315 314 314 314 314 313 312 311 311 311 311 312 314 317 319 319 318 315 312 312 311 309 307 308 307 307 309 312 312 312 315 316 315 313 311 310 309 309
319 318 317 316 315 314 313 313 313 314 314 315 314 314 314 315 316 315 317 315 317 315 314 314 314 314 314 313 312 312 311 311 311 311 309 307 308 309 310 313 317 316 316 315 315 314 311 310 310 308 308 309 310 310 313 313 314 313 311 309 309 308 307
319 318 318 316 315 315 313 313 313 313 312 313 312 314 313 314 315 313 314 314 314 315 314 314 313 314 313 313 313 312 311 310 309 309 308 307 307 308 307 308 312 316 317 316 317 314 313 311 311 308 307 307 307 308 310 312 309 310 310 308 307 306 306
318 319 318 316 316 315 314 313 314 312 312 312 313 314 314 314 314 314 314 313 313 314 314 312 312 311 311 311 310 310 310 308 309 308 307 307 307 306 308 308 309 314 314 317 316 315 313 310 308 308 307 305 306 309 307 305 308 306 307 309 309 308 307
319 319 317 317 316 314 314 314 314 312 312 313 314 313 314 313 312 311 312 312 312 312 312 312 313 310 310 311 311 310 310 309 310 310 307 308 309 307 307 307 309 310 312 316 317 315 314 312 310 309 307 306 302 300 301 301 302 303 305 304 309 308 307
319 317 317 317 315 314 314 314 313 312 313 313 312 313 313 313 312 312 312 311 310 310 310 309 310 310 310 310 309 310 311 313 309 308 306 307 307 306 306 306 308 307 310 314 316 315 314 312 310 308 308 308 304 297 298 299 300 301 305 301 304 307 308
317 316 317 315 314 314 314 314 313 313 313 312 314 313 312 311 311 312 312 311 311 311 310 310 310 309 309 309 309 309 309 308 309 306 307 307 305 307 307 307 307 306 306 308 311 314 316 313 310 308 308 307 305 301 296 295 298 296 301 300 299 303 307
318 317 318 316 315 314 313 314 313 313 312 314 314 314 312 311 314 317 311 310 310 310 310 310 309 309 309 309 308 308 308 308 308 308 309 308 307 307 307 307 307 306 306 306 308 309 311 311 310 309 306 303 303 303 298 296 296 296 299 301 299 300 303
319 319 318 317 317 315 315 314 313 313 313 313 314 312 311 312 311 310 309 309 310 310 310 310 310 310 309 308 309 309 308 308 307 306 306 308 307 307 307 307 306 306 305 305 306 307 307 310 309 309 307 305 304 302 301 299 296 299 300 300 301 301 303
320 319 318 318 316 316 316 315 314 315 314 314 312 313 313 312 311 310 310 312 311 310 311 311 310 310 311 310 310 309 307 306 306 306 307 307 308 307 307 307 307 306 305 306 306 306 305 306 308 308 307 304 303 302 302 300 298 300 301 298 300 301 304
319 319 319 318 317 317 316 316 316 316 316 315 315 314 314 312 312 313 312 312 311 311 310 310 310 311 311 309 308 308 308 308 308 307 307 307 308 308 308 308 308 308 307 306 304 305 307 307 306 306 306 305 304 304 303 301 300 299 303 304 302 302 303
319 319 319 318 317 317 316 316 316 316 315 317 316 315 315 314 313 313 312 312 312 312 311 312 312 313 312 310 310 313 310 308 309 308 308 308 308 310 307 308 309 309 309 308 306 307 306 307 307 306 305 306 304 305 303 301 300 299 300 303 304 305 303
321 319 318 317 317 317 317 317 317 316 317 317 317 316 316 315 314 312 312 312 313 313 314 314 313 313 313 314 313 312 312 311 311 310 310 309 310 309 309 308 307 308 311 309 308 307 307 307 307 308 307 307 306 306 306 304 302 301 301 302 303 303 303
321 321 319 317 317 317 317 317 318 317 317 317 317 316 316 315 314 313 313 312 314 314 315 315 314 314 316 315 315 315 314 314 314 313 313 311 312 311 309 309 309 308 309 309 308 308 308 308 308 308 308 307 309 308 306 305 304 301 301 303 304 304 305
319 319 319 319 318 318 317 317 318 317 317 317 317 316 316 315 315 315 315 314 315 314 314 315 316 315 316 315 316 315 315 314 314 313 313 313 316 310 310 310 310 308 308 309 306 308 308 308 308 309 308 308 308 308 308 308 307 306 304 303 304 306 306
318 318 318 318 318 319 318 318 318 317 317 317 316 316 316 315 316 315 316 315 315 317 316 316 316 315 315 315 315 315 315 315 314 314 312 312 312 311 310 310 311 310 309 309 307 307 307 307 308 308 308 308 308 308 308 307 307 306 305 302 303 305 306
315 316 318 318 319 319 318 319 318 317 317 317 316 315 315 315 315 316 316 318 319 319 318 318 317 316 317 316 316 315 314 314 314 313 313 313 312 312 311 311 311 312 312 310 308 308 307 308 310 307 307 307 307 307 306 306 307 307 306 305 304 304 304
317 317 317 317 316 317 317 317 317 317 317 317 316 316 314 316 316 316 317 319 319 319 318 317 317 317 317 316 315 314 313 313 312 311 310 312 312 312 313 313 313 313 313 312 310 308 310 310 310 308 306 307 307 306 305 305 305 305 305 303 301 301 300
315 316 316 316 316 317 318 317 318 319 318 317 317 316 316 317 317 317 317 317 316 317 317 317 317 316 316 315 315 314 313 312 311 312 311 310 311 311 313 313 312 311 314 314 311 312 312 312 310 308 305 307 306 306 304 304 304 302 301 302 301 299 299
314 315 315 315 314 314 315 316 316 317 318 317 315 316 317 317 317 317 317 315 314 315 315 315 314 310 311 315 314 314 313 312 313 313 312 310 309 310 312 311 313 314 310 308 306 301 301 304 308 310 308 308 307 305 304 302 300 300 302 301 299 298 298
314 314 314 314 313 313 314 313 312 313 315 315 316 316 317 316 316 317 316 314 312 311 311 311 304 301 303 307 314 314 314 313 314 314 313 312 311 310 310 310 307 309 308 307 301 297 297 297 297 298 300 304 307 306 304 303 300 299 299 299 296 297 296
313 313 312 313 313 313 312 312 313 313 314 314 315 315 315 316 316 316 315 313 312 311 309 304 295 297 299 302 308 315 314 314 314 313 312 311 311 312 312 309 308 308 305 304 303 300 298 295 295 294 294 294 294 294 299 303 301 300 299 300 298 296 296
311 310 310 311 311 311 311 311 312 313 314 315 315 315 314 314 314 314 314 312 310 309 307 296 295 297 298 299 302 309 314 313 313 312 312 312 312 311 311 311 310 309 309 311 307 301 299 298 296 296 297 297 296 295 293 293 297 302 301 301 299 296 294
310 310 310 310 310 310 310 310 309 310 312 313 314 314 313 312 312 313 312 311 310 309 308 298 294 295 296 296 295 303 315 313 312 312 312 313 313 312 312 311 309 307 305 304 302 301 300 299 299 300 300 299 299 298 296 295 295 296 299 301 300 297 297
309 310 309 309 309 309 309 308 309 308 312 313 313 312 312 312 312 312 311 310 309 307 309 296 293 294 294 293 292 298 312 310 307 306 306 308 312 312 310 309 308 305 302 301 303 302 301 300 300 300 299 297 295 295 295 296 298 299 300 299 298 298 297
306 307 309 308 308 308 308 307 308 307 307 308 309 309 310 311 310 310 310 309 308 308 304 293 293 293 292 292 292 307 308 306 305 305 305 307 308 307 306 305 303 301 299 299 300 298 300 302 300 299 296 294 293 292 292 294 292 295 298 297 296 296 295
307 306 306 307 307 307 307 307 307 307 308 308 308 307 308 310 311 311 310 308 307 306 302 294 292 292 292 291 298 308 305 304 305 304 305 305 304 304 303 302 301 299 298 298 297 295 296 299 300 298 296 294 293 292 291 292 292 291 292 293 293 293 292
307 307 307 306 306 305 306 307 306 307 307 305 307 306 307 308 307 309 310 308 306 305 305 293 290 292 292 291 302 306 304 304 303 303 301 301 302 301 303 304 303 299 298 297 294 295 295 300 300 298 297 295 293 291 291 293 293 292 292 291 291 290 290
305 304 304 304 306 306 305 308 307 309 309 309 310 309 308 307 305 305 305 306 309 307 304 294 290 291 291 290 302 306 304 303 302 301 301 297 297 298 299 300 302 299 298 296 292 295 296 300 300 299 297 295 294 292 292 292 292 292 293 294 293 291 291
303 304 304 305 305 305 305 305 306 309 307 309 308 306 308 308 307 305 303 305 307 305 303 298 293 290 290 290 295 305 303 302 301 300 299 298 295 292 292 292 293 292 292 292 292 293 295 297 300 298 297 295 294 293 291 291 293 290 292 292 290 290 290
300 301 302 302 302 302 302 303 303 303 304 302 302 302 303 303 304 302 303 303 304 302 304 300 292 290 290 291 293 301 303 303 301 300 298 296 295 293 292 291 290 291 291 291 291 291 292 293 294 295 294 292 290 291 290 289 290 294 290 290 290 289 290
300 300 299 299 298 298 300 302 302 301 302 302 301 300 299 301 302 301 300 301 302 302 303 302 294 290 291 292 294 299 303 302 302 301 298 295 294 293 292 291 291 291 290 290 290 290 290 291 291 292 289 289 288 289 290 289 289 288 289 289 289 289 288
299 300 299 298 298 296 298 299 301 300 301 302 301 301 300 300 300 299 299 299 299 299 299 298 296 295 292 292 293 296 298 300 296 301 299 296 294 293 291 290 292 292 290 289 289 289 289 289 290 288 288 288 289 289 290 289 289 289 288 288 288 288 286
298 298 298 298 297 296 297 298 299 300 300 300 299 298 297 299 300 299 300 300 298 299 297 295 294 295 294 292 292 294 295 296 296 300 300 297 294 292 291 290 291 290 289 289 289 289 289 289 287 288 288 288 289 290 289 289 287 288 287 287 287 286 286

ECMWFFLT1_sfc_thetae_069.txt.gz
Theta_e
320 317 317 316 317 319 318 318 318 318 319 319 320 319 319 321 319 318 319 319 319 318 321 317 317 317 320 320 319 318 320 320 320 319 317 316 319 317 318 317 316 317 313 311 313 313 313 311 312 318 319 321 322 323 325 325 325 323 320 318 316 315 314
318 318 318 318 317 318 317 316 317 316 316 315 316 317 317 321 322 319 318 318 318 318 320 319 317 316 316 317 318 318 317 315 317 317 318 316 314 315 316 314 316 314 314 313 312 312 311 311 310 313 314 320 321 321 323 321 318 317 316 315 315 313 313
319 317 316 315 316 317 316 313 314 314 313 313 313 314 316 318 319 318 317 317 316 318 319 316 315 314 314 313 313 314 314 314 313 317 318 315 314 315 316 317 314 311 312 311 309 311 310 310 311 312 314 315 314 317 319 316 314 312 311 311 310 310 309
317 317 316 315 315 315 314 312 313 312 312 314 314 314 314 316 316 317 315 315 317 320 317 314 313 313 312 312 312 311 310 310 310 311 312 313 314 314 315 316 316 315 312 309 310 309 307 308 310 311 313 315 316 314 314 314 312 310 310 309 309 308 308
317 317 316 314 314 314 313 312 311 312 311 312 311 312 313 314 316 314 315 314 314 312 312 312 312 312 311 311 310 310 309 308 308 310 310 312 311 312 312 313 313 313 313 313 312 310 311 311 312 310 311 312 312 311 312 309 310 309 308 307 308 308 308
318 317 315 314 313 313 312 311 311 311 310 312 310 312 311 312 315 313 313 312 311 312 311 312 310 311 311 310 310 308 307 306 306 306 308 307 310 314 310 309 312 314 313 313 313 312 311 311 312 310 307 307 308 307 309 308 306 307 307 305 305 305 306
318 317 315 314 313 313 313 312 312 311 311 311 310 311 311 312 313 313 312 311 310 310 311 310 309 309 309 309 308 308 307 305 305 306 305 305 306 306 308 311 312 313 313 314 313 313 312 312 310 310 307 307 307 308 304 304 307 304 305 306 307 305 304
318 316 315 315 313 312 312 312 311 310 311 311 312 311 312 311 311 311 311 311 310 309 310 310 311 309 309 310 310 309 308 306 307 307 305 306 307 306 307 309 311 312 314 313 313 312 313 313 312 310 310 306 301 299 300 299 299 302 303 303 307 306 305
318 316 315 314 312 312 312 312 310 310 312 311 311 311 310 311 311 311 310 309 308 308 307 308 308 308 307 308 307 308 308 310 306 305 304 305 305 304 305 307 312 310 314 314 313 312 311 311 311 310 311 308 303 298 297 298 298 301 303 301 302 305 306
316 315 315 313 312 311 312 311 311 311 310 311 312 310 310 309 310 310 309 308 307 307 307 307 307 306 306 307 307 306 306 305 307 305 305 306 303 304 305 306 308 308 310 314 314 312 310 309 309 309 309 307 305 302 295 294 298 296 302 298 301 304 306
316 316 315 313 312 312 310 311 311 311 310 311 313 312 310 310 311 314 308 307 307 307 307 307 306 306 307 306 306 306 305 306 307 306 306 305 304 305 306 305 305 306 306 313 313 313 311 309 308 308 305 302 305 304 296 297 298 295 299 298 297 301 303
316 317 315 314 313 312 311 311 311 310 310 310 312 310 310 310 308 307 307 306 306 307 307 307 307 307 306 306 307 306 305 305 305 305 304 306 305 306 305 304 304 303 304 307 310 311 310 309 307 306 304 302 302 301 302 299 296 298 298 299 298 298 302
317 316 314 313 313 312 312 311 311 310 311 312 309 309 310 309 307 306 307 307 307 306 307 307 307 306 306 306 306 306 303 305 305 304 303 305 307 307 307 306 304 303 303 305 306 308 309 309 308 307 305 303 300 301 301 298 298 299 299 296 298 300 302
316 315 314 314 313 313 312 312 312 312 311 310 311 311 310 309 308 308 308 309 307 307 307 307 307 306 306 305 305 305 304 306 306 304 306 306 306 307 308 307 306 305 303 304 303 306 308 308 307 307 306 302 301 301 301 297 298 298 300 300 298 300 301
316 315 314 314 313 313 312 312 312 312 312 313 313 312 312 311 310 310 310 309 309 308 307 307 308 306 306 306 307 309 306 306 305 304 305 305 305 308 307 307 307 305 305 304 304 305 306 306 306 305 303 303 301 302 300 298 298 297 298 300 301 301 300
316 315 314 314 313 313 312 312 313 312 311 311 311 313 313 313 313 311 310 310 310 310 309 309 309 308 307 307 308 308 308 306 306 305 306 305 306 306 308 307 305 305 307 306 304 304 304 305 305 305 303 303 302 302 301 300 299 298 299 299 300 300 300
316 315 314 314 313 312 312 312 313 312 312 312 312 310 312 312 311 311 312 312 312 312 312 310 310 310 310 310 309 310 309 308 308 307 308 307 307 307 307 307 306 305 306 306 304 305 304 304 304 304 303 302 303 303 302 301 302 298 297 301 301 299 302
316 315 314 314 313 313 313 313 313 312 312 312 312 313 314 313 313 314 314 313 314 313 313 312 311 311 311 310 311 311 310 309 309 309 308 309 314 308 308 307 306 305 304 305 303 304 304 305 305 306 305 304 304 304 305 304 303 302 301 301 301 302 301
316 316 316 315 315 315 315 314 313 312 313 312 311 313 313 313 314 314 313 313 314 315 315 314 314 312 311 310 310 311 310 310 311 310 309 309 309 308 309 308 306 304 304 305 303 303 304 304 306 305 306 306 306 306 305 303 304 303 303 300 301 302 301
316 316 316 316 317 316 315 315 314 314 314 314 313 313 313 313 314 314 314 315 316 316 316 316 315 313 312 311 312 311 310 309 310 309 310 309 309 308 309 309 307 308 307 304 305 305 305 304 306 304 304 305 304 306 305 303 304 304 304 302 301 301 301
316 317 316 315 315 316 316 316 316 316 316 315 315 314 314 315 314 314 315 316 317 317 317 316 314 312 312 312 312 311 311 310 310 310 310 311 310 310 310 309 309 309 309 307 306 304 307 306 305 305 303 305 305 305 304 303 303 303 303 301 298 298 296
315 314 316 315 314 314 316 317 317 316 316 316 317 315 315 315 315 314 315 316 317 317 317 316 315 314 314 313 312 312 310 310 310 309 309 309 309 309 310 310 308 308 312 315 310 309 309 309 307 306 303 303 304 304 302 302 302 301 299 301 298 296 298
315 313 314 314 314 313 314 315 316 316 316 316 315 315 314 315 315 315 315 315 315 315 315 316 314 310 311 315 313 312 310 308 308 309 308 308 308 308 309 309 312 316 313 312 309 303 302 304 308 308 306 305 304 303 302 301 300 300 301 300 298 298 297
313 314 312 311 313 314 315 312 314 316 316 315 314 314 315 315 315 315 315 314 313 314 315 314 307 302 303 306 313 312 311 309 308 308 308 308 308 308 307 305 304 309 308 307 301 296 296 296 297 298 299 302 306 304 302 301 298 299 299 297 295 297 296
312 311 311 311 313 311 311 311 311 313 313 314 314 313 314 313 313 314 313 313 313 313 312 309 302 299 299 301 307 312 311 311 310 310 310 309 308 308 307 305 304 305 303 303 302 300 298 295 294 294 294 294 293 293 298 302 301 298 298 298 296 295 296
308 308 309 309 309 309 309 309 309 311 311 311 312 313 313 311 310 310 312 311 311 311 310 303 298 298 297 297 299 308 312 312 311 310 310 309 309 308 307 306 305 305 308 309 305 300 300 299 297 297 297 298 297 295 292 293 297 301 301 300 297 294 293
307 306 307 307 307 307 307 308 308 307 309 309 309 309 309 310 310 311 311 311 310 310 309 302 296 297 296 296 296 304 311 311 311 310 310 310 310 309 308 307 306 305 303 302 301 300 300 300 299 299 298 297 297 297 296 295 295 296 299 300 299 298 295
308 308 306 306 306 305 305 305 306 305 306 308 308 309 310 310 310 310 309 309 309 309 310 300 294 295 295 295 295 303 311 310 310 309 309 309 310 310 309 308 306 304 302 301 301 300 300 299 298 297 295 294 293 293 293 294 296 298 299 299 300 300 298
309 310 309 306 306 306 304 304 305 303 305 306 306 304 304 307 307 308 308 307 306 307 306 294 294 294 295 295 294 306 307 306 305 304 304 306 308 310 308 307 305 303 301 300 299 296 298 299 297 295 293 292 292 291 291 293 292 295 297 297 297 297 296
306 308 309 308 306 305 304 304 303 303 304 303 303 303 305 306 307 308 307 306 306 306 300 294 293 293 293 292 295 306 305 304 304 303 303 305 306 307 306 305 303 302 300 299 297 294 295 297 297 295 293 292 291 291 291 292 292 291 291 291 291 291 291
306 307 306 305 304 302 302 302 302 303 306 304 304 305 304 306 305 305 305 306 306 301 301 297 293 293 292 291 297 306 305 305 303 302 301 300 302 302 303 305 305 301 300 300 294 293 294 297 296 294 293 292 292 291 289 290 292 293 292 292 291 291 290
298 299 299 300 301 302 302 304 303 304 304 304 306 305 304 304 303 304 307 306 308 304 305 298 292 292 292 291 296 304 304 304 302 300 300 298 297 299 301 302 304 301 301 299 292 293 294 297 296 295 294 293 292 290 290 289 291 292 291 290 290 289 290
297 296 296 296 297 298 299 301 304 306 304 303 303 302 304 303 303 305 304 303 305 305 305 299 294 291 292 292 294 303 304 304 302 300 300 300 298 294 294 295 296 295 295 294 293 293 294 295 297 295 295 294 292 292 291 290 291 289 290 288 287 290 289
296 296 296 295 295 296 297 299 300 301 301 300 302 302 302 301 302 304 304 303 303 303 305 301 295 291 291 292 292 298 303 304 303 301 299 298 298 296 294 292 292 293 292 293 293 293 293 294 295 296 295 295 294 294 292 292 290 293 290 290 290 289 290
297 297 296 295 294 294 295 296 298 299 299 298 298 296 296 299 300 299 298 299 300 300 302 302 295 292 290 290 292 295 302 302 302 301 298 297 295 295 294 292 292 292 291 292 292 293 293 293 293 296 293 291 290 291 292 290 289 289 288 288 288 287 287
295 296 296 295 294 293 294 294 294 295 296 298 297 296 295 296 297 298 297 296 295 295 295 297 295 295 293 291 291 294 297 299 296 301 300 297 296 295 292 292 292 292 290 291 292 292 292 292 292 290 289 289 289 289 290 288 288 288 287 287 287 286 285
294 294 294 294 294 293 294 294 294 294 294 296 296 297 296 295 294 295 296 295 294 293 292 292 292 291 291 292 292 294 294 295 296 300 300 299 296 294 292 291 292 290 290 290 290 291 290 290 289 288 289 289 289 290 289 288 287 287 286 286 286 284 284

ECMWFFLT1_sfc_thetae_072.txt.gz
Theta_e
322 319 319 318 319 321 320 319 320 319 320 321 321 321 321 322 319 318 319 319 319 320 323 320 321 320 321 323 324 324 323 323 323 322 321 320 321 320 320 319 319 319 316 314 319 317 315 312 314 320 323 323 322 321 321 320 319 318 317 317 316 316 316
319 318 319 320 319 320 317 317 317 316 315 315 317 319 319 320 323 318 318 319 319 321 322 318 319 320 322 322 321 321 322 321 322 322 321 320 320 319 317 317 317 316 316 316 316 318 316 314 312 315 315 320 319 318 316 315 314 315 315 316 316 315 316
318 317 317 317 317 317 316 314 314 313 313 315 315 316 318 319 319 319 318 318 318 321 321 317 317 317 318 320 321 322 321 321 320 321 321 319 319 318 319 318 315 315 315 315 314 316 316 317 314 313 316 315 313 314 314 312 312 313 313 313 313 313 313
317 316 315 315 315 316 315 313 313 312 313 313 315 315 316 317 318 320 317 317 320 323 318 315 315 316 315 316 315 317 318 320 318 318 318 318 318 319 318 319 318 317 315 313 314 315 316 315 314 314 315 315 314 312 311 312 312 311 311 312 312 311 311
317 317 316 316 316 316 314 312 312 313 311 311 312 314 315 316 318 317 318 315 315 314 313 313 313 313 313 312 312 312 312 312 314 318 317 317 318 318 318 317 317 314 313 316 315 315 317 316 316 313 313 313 311 310 310 310 310 309 309 309 310 311 311
318 317 316 315 315 315 313 312 313 312 311 312 312 314 313 314 316 314 313 314 313 314 313 313 312 312 311 311 310 309 309 310 311 314 317 317 318 319 318 316 316 315 316 315 315 317 318 318 316 312 312 312 310 309 311 309 308 309 308 308 308 308 308
316 316 315 315 314 314 314 313 313 313 312 313 312 314 313 314 315 315 313 312 312 313 312 311 311 311 310 309 309 308 308 307 308 311 312 312 313 314 316 317 316 316 315 316 317 318 317 315 314 312 310 309 309 307 306 308 307 305 307 309 309 308 307
317 316 315 315 314 313 313 313 313 312 312 311 312 312 314 313 313 312 313 312 311 312 312 312 311 311 311 311 310 310 309 307 308 309 308 310 311 312 315 317 316 316 315 315 317 318 318 317 315 313 310 306 305 305 305 303 304 306 306 308 309 308 308
317 315 315 314 313 314 313 313 312 311 312 311 311 312 312 313 312 313 312 310 309 309 310 310 310 310 309 309 309 309 309 311 307 307 307 308 308 310 313 315 316 315 315 315 317 317 318 317 316 314 312 309 305 303 303 305 304 305 306 307 308 309 308
316 315 314 313 313 312 313 312 312 311 311 311 311 311 311 311 311 311 310 309 308 309 309 309 309 309 309 309 307 307 308 308 309 306 307 307 306 308 312 315 316 315 314 315 315 315 315 315 316 315 313 310 309 306 302 302 304 305 307 304 306 307 309
316 315 314 312 312 312 310 311 311 311 311 311 312 312 311 310 312 314 309 308 308 309 309 308 308 307 308 307 307 307 307 308 307 307 308 307 307 309 309 311 314 314 314 314 314 314 314 315 315 313 311 310 311 307 302 302 303 302 307 302 304 307 308
316 315 313 313 312 312 311 311 312 311 310 311 312 310 310 310 309 308 308 308 308 308 308 308 308 308 308 308 309 307 306 307 307 307 307 309 308 309 308 308 309 311 312 314 313 313 313 313 313 310 308 309 307 309 306 305 303 305 305 307 305 303 308
316 314 313 313 312 312 312 312 311 310 311 312 309 310 310 309 309 308 308 308 308 308 308 308 308 308 307 307 307 307 306 307 307 307 308 308 308 308 308 307 307 309 310 313 313 313 312 312 312 310 308 307 305 307 308 305 304 304 304 305 304 303 307
315 314 313 313 312 311 312 312 312 312 311 310 310 310 309 308 308 309 308 309 309 309 309 308 308 308 308 306 306 306 307 307 308 307 309 309 309 309 308 307 307 307 310 313 312 312 312 311 311 310 307 306 305 306 306 304 303 303 305 304 305 304 306
315 314 313 313 312 312 311 311 311 311 311 310 311 310 309 309 309 309 309 309 308 309 309 309 308 308 308 308 308 308 307 307 307 307 308 309 308 309 309 308 307 307 308 311 310 311 312 310 310 310 307 306 306 306 305 305 303 304 304 305 305 304 305
315 314 313 313 312 312 311 311 312 311 310 311 311 311 310 310 310 309 309 309 309 309 310 310 309 308 308 308 309 309 308 308 308 308 309 308 309 309 309 309 308 308 308 309 309 310 310 311 310 310 308 306 306 306 304 305 305 303 304 303 305 304 305
315 314 313 313 312 312 312 312 312 311 311 311 311 311 311 311 310 310 310 310 310 310 311 312 311 310 310 310 311 311 310 309 309 309 310 310 309 309 309 309 308 308 308 308 307 308 308 309 309 309 308 306 307 305 306 306 307 305 304 304 306 303 305
314 314 313 313 312 312 312 312 312 311 311 311 311 311 312 311 311 311 311 311 311 311 312 312 312 312 311 311 312 312 312 311 310 310 310 310 313 310 310 310 309 308 308 308 307 307 307 308 307 308 306 305 305 306 307 307 306 306 305 305 305 306 305
314 314 313 313 313 312 312 312 311 311 312 311 310 311 312 312 312 311 312 312 312 313 314 314 313 313 313 313 313 313 313 312 312 312 312 312 311 311 311 310 308 308 308 309 307 307 307 307 307 307 307 306 307 307 308 307 307 307 306 306 306 305 306
314 314 314 314 314 313 312 312 312 312 312 311 311 311 311 312 313 312 312 313 314 315 315 315 315 314 314 314 314 314 313 312 311 312 311 311 311 311 312 311 309 309 308 308 308 308 307 308 308 307 308 308 308 308 307 307 307 307 307 306 305 305 305
314 314 314 314 314 313 313 312 312 312 312 311 311 311 312 313 313 313 314 315 316 316 316 315 315 314 314 314 314 313 313 312 312 311 311 311 311 311 312 312 311 310 310 309 309 308 309 309 308 308 307 308 308 308 307 307 307 307 307 306 305 304 303
315 315 315 315 314 314 314 314 313 313 313 312 313 312 313 314 314 313 314 316 316 316 316 316 315 315 314 314 313 313 312 312 312 312 311 309 309 310 310 310 310 310 314 312 309 308 309 309 309 308 307 308 308 307 306 307 307 306 306 306 303 303 303
315 315 314 315 314 313 314 315 314 313 313 313 314 314 314 314 314 314 314 315 316 316 315 315 314 309 310 315 313 313 312 311 311 312 311 309 309 310 310 309 315 317 314 311 307 301 300 302 306 309 309 308 307 306 306 306 306 306 306 305 304 303 302
313 314 314 313 312 313 313 314 314 314 314 314 314 313 313 313 314 314 314 315 315 315 315 314 306 301 303 306 313 313 313 312 311 311 311 310 310 309 308 308 309 313 311 308 302 296 296 297 298 298 299 302 306 308 306 305 305 306 306 305 302 303 302
310 311 311 312 312 311 310 310 311 312 312 313 313 313 313 314 314 314 314 314 314 313 313 309 301 299 299 300 306 313 313 313 312 311 312 311 310 309 308 308 307 307 306 306 303 302 299 295 295 294 294 294 294 294 299 306 305 304 304 303 302 302 302
308 308 308 308 308 310 310 310 308 309 311 312 312 312 312 313 313 314 314 313 312 312 312 304 298 297 297 296 297 307 313 313 312 312 311 311 310 309 308 307 307 307 308 309 306 302 302 301 297 296 297 297 296 294 292 293 298 307 307 305 303 300 301
308 307 307 307 307 307 306 307 306 306 308 309 310 309 309 310 310 311 311 311 310 310 309 303 296 297 297 297 295 300 312 312 312 312 312 311 311 310 309 308 308 307 306 305 303 304 304 304 304 303 301 300 300 299 296 295 295 296 302 305 304 303 300
310 309 307 307 306 307 305 303 306 306 307 308 307 306 306 308 308 308 309 309 309 308 306 297 296 297 297 296 295 296 311 312 312 311 311 311 311 310 309 309 308 307 304 303 303 304 304 303 302 300 298 297 297 297 298 299 302 303 303 304 305 304 302
311 311 309 307 306 306 304 303 305 304 305 304 303 303 304 306 306 307 307 308 306 308 302 294 295 296 296 296 295 306 311 311 311 310 309 310 310 310 309 309 307 305 303 303 300 297 300 303 302 299 297 297 296 296 294 294 293 296 301 303 303 302 300
305 307 308 307 306 305 305 306 306 304 307 304 305 305 305 305 306 307 306 306 306 304 302 295 294 294 295 294 297 307 309 309 308 308 308 309 310 310 309 308 307 305 303 302 297 294 294 298 300 299 298 296 296 296 294 294 292 291 291 291 291 291 291
297 298 298 299 301 304 305 304 304 304 305 304 305 304 304 305 304 305 306 305 305 305 304 297 293 294 294 293 298 307 308 308 306 306 305 306 308 309 308 306 307 305 304 302 294 293 293 299 300 298 297 296 296 295 294 294 295 294 292 291 291 290 290
295 295 295 296 297 299 300 304 305 305 305 305 304 303 304 305 304 302 304 305 307 305 304 302 294 293 293 293 296 305 307 307 306 303 304 303 303 305 306 306 305 303 304 300 292 293 293 298 299 298 298 297 296 295 294 295 296 296 296 295 294 294 293
295 295 294 294 295 296 298 299 301 305 305 306 305 303 304 304 304 303 302 303 304 304 303 303 297 292 293 292 293 301 306 307 306 304 303 304 303 302 302 303 301 295 295 293 292 292 293 295 299 298 298 298 296 295 295 295 295 295 294 293 293 293 292
295 295 295 294 295 295 295 295 297 299 301 302 302 301 301 302 303 302 302 302 302 302 304 304 300 292 292 292 292 293 302 304 304 304 303 303 304 303 301 301 300 295 293 292 292 292 293 293 295 298 299 298 299 297 294 296 293 293 294 294 294 293 293
295 295 295 294 293 294 294 294 295 296 298 299 299 298 297 297 298 299 299 301 302 302 304 304 300 293 291 291 291 291 297 303 305 305 303 302 300 301 303 301 300 295 292 292 292 292 292 293 293 299 298 292 290 291 296 294 293 293 293 292 292 292 292
293 294 294 294 293 293 293 293 294 295 295 295 295 296 297 296 296 297 297 297 297 299 298 298 295 297 292 291 290 290 291 295 296 303 302 301 302 302 300 299 298 294 291 292 292 292 293 292 294 296 290 290 291 290 291 293 292 292 292 292 292 291 291
292 292 293 294 294 293 292 292 293 293 294 295 295 295 296 296 297 298 298 296 297 296 294 295 293 293 293 291 291 291 291 291 293 302 303 302 300 299 298 297 296 291 291 292 292 292 292 293 294 289 290 290 290 291 293 292 292 292 290 290 290 290 290

ECMWFFLT1_sfc_thetae_078.txt.gz
Theta_e
334 335 338 339 341 339 339 340 342 343 342 340 342 343 344 342 343 342 342 342 341 340 339 339 339 340 340 340 340 338 336 336 335 332 329 330 328 330 335 334 335 336 335 333 331 326 323 320 321 326 327 329 329 328 328 328 329 329 329 331 331 331 332
337 336 337 338 338 339 339 339 339 338 339 339 338 339 339 338 339 339 341 341 339 336 335 334 339 341 341 341 339 337 336 335 335 334 331 331 331 331 332 331 331 330 331 332 331 329 324 322 320 322 321 325 326 326 327 328 328 329 329 329 329 329 330
336 336 337 335 336 338 338 338 336 335 336 337 339 338 337 337 336 336 336 335 336 334 332 332 333 336 341 341 340 338 337 335 336 335 333 330 331 330 331 330 329 328 327 327 328 326 325 327 319 319 323 322 319 320 325 327 328 328 328 328 329 329 327
336 336 335 335 336 338 336 334 335 334 334 334 336 337 337 335 336 335 334 334 335 335 332 331 333 331 334 337 341 341 339 337 336 337 336 334 333 332 331 331 330 329 326 324 324 324 324 323 322 321 322 323 320 318 321 324 326 327 327 328 328 326 322
334 335 336 337 337 336 333 332 333 333 333 334 334 334 335 335 336 335 335 335 333 334 333 333 333 331 333 334 335 337 339 340 339 337 338 336 335 333 334 334 334 331 329 327 326 326 326 325 324 321 319 320 320 320 320 323 325 325 326 328 326 321 319
336 336 336 336 335 333 332 332 332 330 331 332 332 333 334 336 335 335 334 333 333 334 334 332 333 333 333 333 334 335 336 337 338 338 336 337 336 334 333 334 332 330 330 331 330 328 328 329 326 321 322 322 318 318 320 320 320 323 324 323 321 318 316
337 338 336 334 334 334 333 332 331 331 330 331 332 332 333 334 334 334 335 334 334 334 334 334 334 334 334 330 332 333 335 337 339 339 338 339 338 337 337 334 334 332 332 333 332 331 329 328 324 323 321 320 319 317 319 319 319 317 319 319 317 317 316
337 336 336 336 335 334 334 332 332 331 330 331 331 334 334 335 335 335 334 333 332 334 334 334 333 333 333 328 329 332 331 332 336 337 337 338 337 337 337 335 334 333 333 332 333 331 329 329 326 325 321 316 316 317 317 319 318 316 314 314 315 316 317
335 335 334 335 336 335 333 331 331 332 332 332 333 334 335 335 334 333 332 331 331 332 332 331 330 329 330 328 327 330 329 329 333 335 334 336 338 338 338 337 334 332 334 333 333 331 328 329 329 328 323 321 316 314 318 316 317 313 314 311 314 316 316
336 334 333 334 334 334 333 332 331 331 334 333 333 335 335 334 334 333 330 330 330 330 330 329 328 328 328 329 329 330 330 331 330 329 330 332 338 338 338 336 334 334 333 335 332 332 332 332 330 329 325 321 321 317 314 313 314 313 313 313 310 312 317
335 335 335 335 335 334 333 332 333 332 331 333 333 334 334 334 334 331 329 328 330 329 329 328 326 326 328 327 328 329 329 330 329 329 330 331 335 338 337 336 335 332 334 334 333 334 334 332 327 324 323 324 322 317 316 313 313 316 313 314 313 311 315
333 333 333 334 335 334 333 332 331 331 333 333 331 333 333 332 332 329 328 327 328 328 329 328 326 326 326 325 325 325 328 327 326 326 330 332 333 334 335 334 333 332 334 335 335 334 332 328 324 323 322 323 322 321 318 315 312 314 315 311 312 314 314
333 331 332 333 333 332 331 331 332 333 331 330 330 331 330 330 329 328 326 325 325 326 325 326 326 325 325 324 324 322 324 324 322 325 328 331 328 331 332 331 329 331 333 333 332 330 328 326 325 321 322 322 321 322 320 317 312 311 315 313 312 313 315
333 331 332 333 332 332 332 332 331 331 330 329 331 331 330 329 327 327 324 323 323 323 324 325 326 325 324 323 323 322 322 321 320 324 327 329 327 328 326 326 327 330 332 329 327 328 325 325 324 322 322 319 320 322 319 318 314 313 317 317 314 312 314
334 332 333 333 332 331 331 331 331 330 328 329 331 330 328 328 327 325 323 321 321 321 322 324 324 324 322 322 322 322 322 320 321 323 326 324 327 326 328 325 323 328 328 326 326 323 324 322 320 319 318 318 316 319 320 317 315 314 314 316 313 314 314
334 334 333 332 331 329 331 331 331 328 327 328 330 329 328 328 326 324 322 320 320 321 321 322 323 322 321 320 320 321 322 321 322 323 323 323 322 325 326 327 327 328 327 326 326 324 324 322 321 319 319 319 317 318 318 317 315 313 313 313 315 313 314
333 333 332 331 330 330 330 330 329 327 326 327 326 329 329 327 325 323 321 319 320 321 321 321 321 320 319 319 320 320 321 322 321 322 321 321 321 323 323 325 326 328 328 326 325 323 323 323 322 321 320 321 319 318 320 320 318 316 314 312 315 313 314
333 332 332 331 332 331 330 329 329 327 327 326 326 327 327 327 325 322 321 318 319 320 320 320 320 320 321 321 320 320 320 320 321 321 322 322 324 322 323 322 323 325 327 325 326 324 323 324 321 322 320 319 319 319 319 319 318 317 316 314 314 316 316
332 332 332 332 332 331 330 329 329 328 326 325 326 325 326 325 323 320 319 318 319 320 320 320 320 320 321 322 322 322 321 321 320 320 321 321 321 323 323 322 323 323 324 324 324 325 325 325 322 322 322 320 319 320 319 318 318 318 316 315 315 315 317
329 328 329 331 331 329 328 328 327 326 326 325 324 324 324 324 323 321 319 319 319 320 320 320 321 322 322 323 324 324 324 324 323 324 323 322 322 322 322 322 323 323 322 322 322 323 325 326 324 324 323 323 321 321 320 319 317 317 317 316 316 317 316
326 326 325 326 327 328 328 328 327 326 325 324 324 322 322 323 323 322 320 320 320 322 322 321 322 323 323 324 325 325 325 325 325 325 327 326 327 326 325 323 322 322 322 322 323 323 324 323 323 324 323 324 323 321 320 320 319 317 316 317 316 315 315
323 323 322 323 324 325 326 327 327 326 326 325 325 323 322 323 322 322 321 322 322 324 323 324 325 325 326 325 326 325 325 324 325 325 326 327 327 327 327 327 326 326 333 323 310 315 316 317 325 320 323 325 325 322 321 320 318 317 316 316 315 316 314
322 322 323 324 323 324 326 327 327 326 325 325 325 324 322 323 322 322 320 321 322 325 325 328 324 310 313 326 327 327 327 327 326 327 326 326 327 327 327 328 330 320 315 314 311 304 303 304 307 320 328 326 324 323 322 321 318 318 316 314 314 314 314
323 323 324 325 323 323 324 325 325 324 325 325 325 324 324 323 323 322 321 323 324 325 326 328 302 304 304 302 324 328 327 326 327 327 327 327 326 326 327 327 330 326 321 315 318 299 300 299 300 301 300 304 311 329 324 321 321 320 316 315 316 315 314
323 323 321 319 319 319 321 323 323 323 323 324 325 325 324 323 324 323 323 324 326 326 328 304 297 299 301 300 303 330 328 327 327 327 327 327 327 327 327 328 329 331 328 327 327 323 311 299 298 298 299 301 302 299 299 322 326 321 319 316 315 315 315
321 321 321 320 318 317 319 322 322 322 323 325 324 324 324 325 324 325 325 324 324 325 328 296 297 295 297 297 297 309 328 329 328 327 328 327 327 329 329 329 329 330 328 320 322 325 326 321 299 294 297 298 298 298 298 297 297 319 327 318 318 317 316
320 321 321 320 320 320 320 320 320 322 323 322 323 323 324 324 324 324 324 324 324 325 328 299 295 294 295 295 294 303 327 328 330 329 328 328 329 330 330 329 328 329 330 328 326 325 326 325 323 320 319 320 321 312 297 298 300 298 307 324 323 320 320
320 321 322 321 321 319 319 319 319 321 322 323 323 322 323 323 325 325 325 325 325 326 323 294 295 294 295 295 293 299 327 329 329 329 328 328 325 326 330 330 330 329 329 329 327 324 326 325 324 323 323 323 324 324 322 322 321 322 322 324 326 327 324
320 320 321 322 321 320 320 322 321 322 323 324 324 324 324 324 324 325 325 325 325 325 318 293 293 294 293 294 293 320 326 327 327 326 327 328 329 329 331 331 331 329 328 329 316 306 312 326 324 323 321 323 323 322 317 300 293 295 314 326 325 325 326
318 320 321 320 319 318 320 321 321 322 321 322 323 323 323 324 325 325 324 325 325 324 322 299 292 293 294 291 301 323 325 325 325 326 327 328 329 329 330 329 329 326 325 327 311 300 301 305 323 322 322 322 322 320 316 309 296 292 292 292 292 292 293
316 317 318 318 319 319 320 319 321 323 323 322 322 323 324 323 323 323 324 324 323 325 320 299 292 292 293 292 300 319 323 324 324 325 326 328 329 328 328 318 320 325 325 329 297 297 298 309 321 322 322 321 320 318 314 310 307 300 292 292 291 291 292
311 313 314 316 317 318 319 320 321 322 323 323 322 322 323 324 323 323 322 321 314 323 319 302 292 293 293 293 303 319 321 322 323 325 326 326 328 327 328 320 310 314 318 317 292 295 296 305 320 322 322 321 319 317 314 310 306 305 306 305 304 304 303
309 309 310 311 313 314 317 319 320 320 321 321 320 320 319 320 321 321 321 321 321 322 321 316 303 291 293 293 293 312 321 321 320 322 323 323 323 326 325 326 316 298 296 296 293 293 295 296 317 322 323 321 319 316 312 308 308 309 309 310 308 308 308
309 309 310 310 311 312 313 314 316 317 318 319 318 318 320 320 320 319 319 319 319 318 319 318 307 292 293 293 294 296 320 320 320 320 321 321 322 323 323 323 323 304 296 296 293 292 293 294 295 315 320 319 319 316 307 311 308 302 311 310 309 308 308
308 308 309 310 310 309 310 312 312 313 314 315 315 315 317 318 318 318 319 319 320 318 312 306 315 295 291 292 292 291 311 319 313 318 318 321 320 321 321 321 321 300 294 295 292 292 292 294 293 313 315 296 294 297 312 309 310 310 309 309 307 306 307
305 306 307 308 308 308 309 309 310 311 312 312 312 312 312 313 315 314 316 316 317 318 317 310 297 307 293 291 291 291 292 303 297 315 318 318 318 318 320 320 313 295 295 292 292 291 292 292 294 310 290 292 295 296 302 311 309 309 307 307 306 306 306
302 304 304 305 305 306 307 307 307 308 308 308 308 308 308 310 310 310 310 312 314 314 315 315 299 294 302 291 290 290 290 290 292 312 318 318 318 317 317 319 310 292 292 291 291 291 291 292 303 291 290 293 294 297 310 308 307 307 305 304 305 306 306

ECMWFFLT1_sfc_thetae_081.txt.gz
Theta_e
334 334 335 337 339 338 338 339 341 341 342 341 340 339 339 340 340 341 340 340 338 339 337 338 338 338 337 336 337 337 337 335 335 333 331 330 330 330 334 333 333 333 334 331 328 324 322 319 321 328 331 331 331 330 331 331 331 330 332 334 334 332 331
333 335 333 336 337 338 341 339 338 340 341 341 340 339 339 340 340 341 340 340 339 339 335 337 339 336 337 338 338 338 338 335 334 335 334 332 330 331 330 331 331 330 331 331 331 328 324 320 320 321 323 328 328 329 329 330 331 331 331 332 330 329 329
334 332 335 335 338 338 338 338 338 339 339 340 341 340 340 339 339 341 342 341 340 339 333 335 338 337 338 338 338 338 337 335 336 336 334 334 337 333 334 330 329 328 328 328 327 326 326 326 320 320 323 322 320 323 328 328 329 330 332 331 329 329 327
332 332 332 331 333 334 332 333 335 336 337 336 338 338 338 337 336 336 336 336 335 335 332 332 333 337 339 338 340 340 339 338 337 336 336 335 335 332 332 334 330 328 326 326 326 327 325 323 321 320 323 323 320 320 324 327 328 329 330 329 326 324 323
331 331 331 327 331 332 330 332 334 333 333 335 336 335 336 336 336 334 335 334 333 334 332 332 332 331 333 336 338 338 337 339 337 336 335 336 335 333 334 333 336 331 330 330 326 327 326 325 324 322 320 322 322 321 323 326 328 328 328 325 320 318 317
330 330 330 333 334 335 334 333 332 332 333 333 333 334 335 335 334 334 334 332 333 333 333 332 332 332 332 332 332 337 337 335 334 334 333 334 334 333 329 334 333 330 331 333 331 328 329 332 325 323 323 323 319 319 321 323 325 327 325 320 318 315 314
331 332 330 332 332 333 334 333 332 333 332 333 332 333 334 333 333 334 334 334 333 334 333 334 333 332 333 330 333 333 336 337 337 338 335 334 335 331 335 334 331 330 333 333 331 329 329 326 324 322 320 321 322 319 321 321 322 320 319 318 317 316 314
332 333 332 332 333 333 334 332 332 332 331 332 332 333 333 334 334 334 334 333 333 334 334 334 334 334 333 331 331 332 332 335 338 336 335 336 335 333 333 333 335 333 334 336 334 329 329 327 325 324 322 318 318 320 318 318 318 318 316 316 317 316 315
332 332 332 333 334 334 333 332 332 332 332 331 333 333 334 334 332 332 331 331 332 333 333 333 332 331 331 330 329 331 330 330 335 336 335 338 337 337 336 335 332 333 334 331 330 331 330 330 329 327 326 323 318 315 316 315 316 314 315 314 316 317 315
333 331 330 334 336 334 333 333 331 331 332 334 331 333 333 332 332 331 330 330 332 333 333 331 331 331 330 330 330 329 329 330 330 329 331 336 337 338 335 334 333 331 332 332 331 330 331 331 330 328 327 324 323 317 314 313 314 312 313 315 313 314 316
334 334 335 334 335 333 332 332 332 331 330 332 331 332 333 332 332 330 330 329 331 331 331 330 329 329 330 329 329 329 329 331 330 330 330 331 336 337 335 333 332 330 332 331 333 331 331 329 329 327 326 326 325 323 319 313 312 314 312 316 316 313 314
334 334 334 334 335 332 331 330 331 330 331 331 331 332 333 332 331 329 328 327 329 330 329 329 328 327 328 328 328 328 328 329 327 328 329 330 331 336 334 334 333 331 333 333 332 332 333 329 326 325 325 325 325 324 320 316 312 314 316 313 315 316 313
332 333 331 334 332 332 331 330 330 330 331 331 332 332 331 331 330 328 326 326 327 329 328 327 326 326 327 327 326 325 326 325 323 324 326 329 327 331 334 332 331 332 333 332 332 331 327 326 326 324 323 323 323 324 322 317 315 312 316 314 314 314 314
332 331 332 332 332 332 331 330 330 331 331 330 331 331 330 331 328 326 324 324 324 326 327 326 326 326 325 324 324 324 322 322 321 324 326 327 326 328 327 327 330 333 334 330 327 327 324 323 323 323 323 322 321 322 320 318 314 312 315 317 315 314 315
331 331 331 331 330 330 331 330 332 331 330 330 331 329 330 329 327 325 323 322 323 323 324 325 325 325 323 323 323 321 322 321 323 324 325 324 326 325 327 326 326 331 328 325 326 322 322 321 319 318 318 320 319 321 322 318 315 313 312 315 313 315 314
331 332 331 330 329 329 330 330 330 330 328 329 330 330 329 328 326 324 322 322 321 321 322 323 324 324 323 322 320 322 323 324 324 325 324 324 323 324 325 325 326 327 326 325 325 324 323 321 319 317 317 318 319 319 319 319 316 315 314 312 315 312 314
332 330 330 329 329 329 330 330 329 328 328 329 329 329 328 326 325 323 321 319 319 320 321 322 323 322 320 320 321 321 321 324 324 324 323 322 322 323 324 324 324 325 325 324 323 323 322 322 321 318 317 318 318 318 319 320 318 317 316 312 313 311 313
330 329 329 328 329 329 329 329 328 326 327 327 327 328 327 326 325 322 320 318 319 320 321 321 320 319 320 321 321 321 321 322 323 323 323 323 326 323 322 323 323 324 324 323 323 322 323 322 320 320 319 318 316 319 320 318 317 317 315 313 313 314 315
329 330 328 328 328 328 328 329 327 326 325 325 327 328 326 326 323 320 318 319 319 319 318 319 318 318 319 321 322 322 322 322 322 322 321 321 322 322 323 322 323 324 323 323 323 323 324 323 320 322 319 318 317 318 320 318 319 318 316 314 315 314 316
329 330 332 330 329 328 328 328 327 326 326 325 325 326 325 325 323 320 318 319 319 319 319 319 320 320 320 320 320 320 321 321 321 322 322 321 321 322 322 322 323 323 323 323 323 323 324 324 323 322 322 322 321 320 318 318 317 316 316 316 315 316 315
329 329 330 331 328 328 328 328 327 326 326 325 325 323 324 324 323 320 319 319 319 320 320 320 321 322 323 323 323 323 323 324 323 323 324 323 323 322 323 322 322 322 322 323 325 324 326 322 323 323 323 323 322 321 320 318 318 316 316 316 315 314 315
326 326 327 329 328 327 328 327 326 325 325 326 324 323 324 324 322 320 319 320 319 321 322 323 324 325 326 326 326 325 325 324 325 325 325 325 326 325 324 324 322 328 328 320 310 313 314 315 328 322 322 323 322 320 320 320 319 317 316 315 314 316 315
324 325 326 326 327 326 326 326 326 324 324 324 324 323 323 323 321 321 319 319 321 323 323 329 313 301 304 324 327 327 326 327 325 326 326 326 327 327 327 327 330 322 318 315 310 304 302 303 307 317 321 325 323 321 320 318 318 317 317 315 314 314 313
324 324 324 325 326 325 325 325 325 324 324 324 323 323 322 322 321 322 320 321 323 325 328 324 297 297 299 296 325 330 327 327 328 328 327 327 327 326 327 325 328 328 324 318 317 297 300 301 302 301 300 303 309 322 326 321 318 319 316 316 317 316 315
323 322 322 323 323 322 324 323 323 323 324 324 323 324 322 322 321 323 321 322 324 324 327 298 297 296 298 296 300 323 329 328 326 328 326 326 326 327 326 327 328 329 326 325 325 322 311 300 299 300 299 300 300 299 302 319 324 324 323 319 316 316 317
320 320 320 320 320 320 320 321 324 325 326 326 324 322 322 322 322 322 323 322 323 323 327 295 295 294 294 297 293 306 326 328 326 325 326 326 326 326 326 326 325 327 327 326 325 327 327 322 301 296 299 298 298 298 299 297 299 319 325 322 320 322 318
319 319 319 319 320 321 320 320 322 321 323 325 324 324 323 322 322 322 322 323 323 324 324 297 294 294 295 294 295 301 326 326 328 327 326 326 328 328 325 323 324 326 324 324 325 327 325 325 327 323 322 322 323 318 298 295 294 295 307 319 322 321 325
320 319 319 319 320 321 320 321 323 324 326 326 324 323 323 323 325 325 325 324 323 325 311 293 293 293 294 294 294 298 326 326 327 328 328 328 328 325 327 326 326 325 326 327 326 323 325 324 325 326 326 325 324 323 325 326 324 322 321 322 322 323 328
322 320 320 320 320 320 320 320 320 323 325 326 326 327 327 325 324 324 325 324 324 320 307 292 292 293 293 296 293 319 325 326 324 324 323 325 326 327 328 328 326 326 324 322 315 307 315 328 324 324 324 324 324 324 325 299 294 296 305 313 320 325 327
321 321 322 320 320 320 320 320 320 321 321 322 323 325 324 326 326 325 324 324 323 320 313 296 292 293 294 293 298 323 324 322 321 321 321 323 322 323 327 327 326 323 323 324 310 302 306 310 322 321 321 322 323 323 326 310 296 292 292 292 291 291 292
320 319 319 320 322 323 323 323 322 323 323 322 322 322 323 324 325 324 324 322 321 320 313 300 293 293 294 294 298 319 325 323 322 322 323 323 323 323 324 321 323 323 322 323 302 298 300 314 322 321 320 320 320 320 322 316 313 304 293 294 294 294 295
317 318 318 319 320 320 322 323 324 322 322 324 324 325 323 324 323 323 323 322 317 319 314 303 293 294 293 293 302 319 321 322 321 322 322 321 325 323 325 321 316 316 319 308 291 298 297 309 322 321 320 320 320 317 321 315 313 311 311 311 309 309 308
317 317 318 319 318 319 320 321 322 321 322 322 321 321 322 322 320 321 322 323 322 323 321 316 304 291 293 294 293 306 320 320 320 322 322 322 321 322 322 323 315 299 295 295 294 293 295 295 316 321 320 321 321 317 313 312 313 313 311 311 311 311 311
314 315 315 315 316 318 319 319 320 321 320 320 321 321 321 320 319 321 321 322 321 321 321 318 306 292 295 292 292 295 317 321 321 319 320 320 320 320 322 320 321 296 294 295 295 293 293 293 293 311 318 320 321 318 308 312 310 303 312 311 310 309 308
312 312 313 314 314 314 315 316 317 318 317 318 318 319 320 319 318 318 319 319 320 318 316 310 315 296 293 293 292 291 306 314 305 313 319 320 320 321 321 321 321 303 295 297 296 294 293 293 293 308 316 302 295 297 315 313 312 312 312 310 309 308 306
308 309 310 311 312 312 312 313 314 315 315 315 315 315 315 316 316 316 316 316 319 317 315 313 301 308 292 294 291 292 290 296 292 310 316 317 318 319 321 321 310 293 295 294 294 292 293 291 293 307 296 291 295 298 305 313 312 312 310 310 309 308 308
306 307 307 307 308 309 309 310 310 311 312 312 312 312 312 313 313 313 313 314 316 315 317 313 300 299 299 289 290 289 289 289 290 303 306 314 314 312 310 308 300 290 290 291 291 291 291 292 302 295 291 292 294 298 312 311 309 310 306 307 307 306 307

ECMWFFLT1_sfc_thetae_084.txt.gz
Theta_e
334 332 334 334 338 337 336 337 338 340 340 339 336 335 337 338 338 340 338 339 338 338 338 338 338 339 337 337 336 337 337 337 334 329 329 328 327 328 332 331 330 332 330 329 325 322 318 315 318 324 326 326 326 328 329 329 329 329 329 331 332 331 332
336 335 335 335 334 336 334 335 334 335 335 336 336 336 336 339 338 339 338 339 339 338 336 337 342 336 338 335 335 337 335 334 336 335 332 330 328 327 329 329 330 329 330 330 329 326 320 317 317 318 319 325 326 326 327 328 328 330 329 328 332 328 326
333 334 335 334 334 333 331 332 333 333 335 333 333 332 334 337 340 339 341 339 341 338 335 337 339 338 337 337 336 336 335 334 336 335 333 333 333 332 333 331 328 326 325 326 327 325 324 322 317 318 319 319 318 321 326 325 327 328 328 328 328 324 323
332 333 331 330 331 330 331 332 330 330 333 333 333 335 335 338 338 338 338 336 338 337 333 334 335 338 338 337 337 337 336 335 334 334 334 333 334 332 331 332 330 327 324 320 323 324 323 321 319 319 320 320 319 319 323 326 326 327 325 326 324 319 318
333 332 330 329 329 331 333 333 334 333 334 333 334 333 337 336 337 336 336 336 336 338 334 334 334 335 337 337 337 340 336 336 336 335 334 332 332 332 332 332 331 331 330 328 327 327 323 323 320 318 318 319 319 320 323 324 330 324 322 317 315 315 316
334 332 331 330 330 332 332 331 330 330 332 333 335 334 335 337 336 336 336 337 338 341 339 336 335 334 335 335 335 337 336 334 335 334 334 332 332 331 331 333 332 331 330 330 328 328 329 326 322 318 318 319 316 317 321 323 321 323 316 312 312 313 313
333 332 331 330 333 335 334 333 333 332 331 333 333 334 335 335 336 337 337 336 336 336 336 336 335 335 334 330 333 334 336 336 336 334 334 334 334 333 334 331 332 330 332 333 329 329 327 325 321 319 317 317 318 317 320 322 321 315 312 311 311 311 311
333 332 333 335 334 334 334 334 334 334 333 332 332 334 335 335 336 336 335 335 336 337 335 335 335 334 334 331 330 333 334 334 335 336 334 333 334 333 333 332 333 331 332 332 332 327 328 328 324 321 319 315 315 315 315 318 317 313 310 309 309 308 308
333 333 334 335 337 336 333 333 334 334 334 334 333 334 336 334 334 333 333 334 334 335 335 334 333 332 334 331 330 332 331 333 332 333 333 335 333 334 334 333 332 331 332 331 331 329 327 328 327 324 322 318 314 311 313 313 312 309 312 308 308 308 307
333 333 332 334 334 332 331 332 336 335 335 334 334 336 334 334 333 333 331 333 336 335 334 334 333 334 334 330 330 332 330 331 331 330 329 334 334 336 335 333 332 332 330 331 330 332 330 327 328 326 324 321 319 312 310 309 309 307 310 311 306 306 309
333 333 333 333 332 331 332 333 334 333 333 333 333 335 334 334 333 332 330 333 335 335 335 333 328 333 333 330 331 329 329 331 329 330 331 333 333 333 333 333 332 330 330 331 330 330 329 328 326 327 325 325 325 315 312 309 307 310 309 311 309 307 308
333 333 334 334 333 333 331 333 333 332 332 332 332 334 333 332 331 329 330 331 332 333 333 332 330 331 331 329 332 328 329 330 329 329 330 332 334 334 332 331 331 329 330 331 330 330 329 328 327 325 324 325 324 324 317 311 306 311 313 310 309 310 307
332 331 332 330 329 329 332 331 331 331 331 331 332 332 330 330 328 326 328 329 331 331 329 329 330 330 329 329 328 327 330 328 325 326 325 329 330 333 333 331 329 329 331 330 329 329 326 327 326 323 324 324 324 324 320 314 309 308 314 312 309 308 308
330 330 329 329 329 328 331 330 331 332 331 332 332 332 330 328 326 325 326 326 328 329 329 329 330 329 327 327 332 323 325 326 322 325 325 326 326 328 327 328 329 330 331 328 327 327 325 324 324 324 322 322 322 322 319 316 310 309 314 314 310 308 309
331 331 329 328 327 327 328 329 331 330 331 331 332 330 328 329 326 325 323 324 326 325 327 328 328 328 327 328 324 327 327 327 323 322 326 323 325 327 328 326 329 330 328 325 325 321 322 321 319 319 320 321 320 320 319 317 311 309 308 310 310 310 309
329 329 328 328 328 327 329 330 330 330 330 330 332 331 329 327 326 324 323 323 322 323 324 326 327 328 326 325 322 326 329 326 324 325 324 323 322 324 326 326 326 327 328 324 324 323 322 320 316 314 316 318 318 319 318 317 312 310 308 309 311 309 309
332 327 326 327 328 329 330 330 329 328 328 329 328 331 329 326 327 325 324 321 321 322 323 326 328 324 324 324 324 324 324 325 326 326 325 323 321 323 324 325 325 326 325 323 324 321 320 321 320 315 314 316 317 318 318 317 315 311 310 308 308 308 310
330 331 329 330 330 330 330 330 329 327 329 330 329 328 328 327 326 322 324 319 319 321 321 323 324 323 326 325 325 324 323 324 326 326 327 323 327 323 323 323 323 324 324 323 324 321 319 321 319 318 315 313 314 319 318 318 315 314 312 309 309 310 310
329 329 332 330 329 330 329 329 329 328 328 327 328 327 327 326 322 319 318 319 319 320 320 321 319 319 321 325 325 325 325 325 326 323 321 322 321 324 325 323 324 323 323 323 323 323 321 320 320 318 316 312 312 315 316 317 316 314 313 311 308 311 308
326 326 331 328 329 328 328 327 326 325 328 328 329 326 328 326 328 320 321 321 320 320 319 320 321 321 321 324 324 325 324 325 324 323 325 322 323 323 322 323 323 324 323 323 324 323 322 324 324 322 321 318 319 315 318 318 314 313 312 311 309 310 308
325 327 331 329 327 327 328 327 326 325 326 327 328 325 324 323 327 323 324 321 320 322 322 320 319 321 320 323 324 323 325 325 322 323 325 324 324 324 325 323 324 324 324 324 324 324 325 324 324 320 323 321 321 320 316 316 316 314 312 312 308 308 310
328 329 330 329 327 326 328 330 327 326 327 326 327 326 326 324 326 321 322 323 320 324 324 324 320 322 327 322 325 325 325 325 324 325 325 324 324 323 325 323 323 318 319 316 310 311 312 318 326 324 322 321 320 319 318 318 317 315 314 312 311 312 310
326 327 328 327 326 326 327 330 326 325 325 324 327 326 326 323 323 324 320 321 323 325 322 319 308 303 306 320 326 327 328 325 327 325 325 325 325 326 325 325 323 319 315 313 308 302 301 304 310 318 317 318 319 320 318 316 315 315 315 313 311 310 309
325 324 324 324 325 324 325 328 324 324 325 324 327 327 327 323 325 326 319 323 323 323 319 311 296 296 296 302 320 327 325 324 324 325 325 324 324 324 324 323 324 325 324 322 316 299 301 300 299 300 302 307 314 320 318 320 319 318 317 314 313 312 310
322 321 321 321 322 323 324 325 324 325 325 326 329 328 327 324 324 328 324 324 323 319 311 296 293 294 295 294 301 320 327 325 327 324 323 325 323 322 322 321 322 322 323 322 324 320 312 301 300 300 298 298 300 303 308 317 317 316 319 316 314 315 315
320 319 319 319 320 321 321 321 322 323 322 322 324 324 325 325 325 327 326 322 321 316 309 294 294 295 295 294 294 311 323 326 324 326 324 323 321 321 321 321 319 320 324 324 324 323 322 321 306 298 298 299 298 296 297 298 304 317 320 319 317 315 316
318 317 318 318 318 317 318 318 319 320 321 323 323 323 323 323 323 323 323 322 316 311 306 296 294 295 295 294 292 303 323 325 327 324 322 322 321 320 323 322 319 320 324 323 321 321 323 322 321 320 316 315 316 312 297 295 296 299 307 316 316 316 319
317 317 318 319 319 318 319 319 319 319 321 323 322 321 321 322 323 322 322 320 315 309 303 294 294 294 295 294 293 303 324 327 326 326 325 324 322 323 321 324 322 324 324 322 321 320 322 320 319 319 320 320 319 320 319 312 310 311 310 313 315 315 317
316 317 318 320 319 319 319 320 320 321 323 323 323 323 323 323 321 321 322 319 315 310 303 292 293 294 294 293 294 317 325 325 325 324 324 324 324 325 325 324 326 324 322 323 315 304 310 319 320 318 318 319 319 318 306 299 294 294 302 306 305 305 303
320 317 318 318 318 319 319 320 321 322 321 321 321 322 323 323 324 322 320 318 315 312 308 295 293 294 294 292 301 319 324 322 322 322 322 323 323 322 323 323 325 321 321 321 308 300 300 306 318 317 317 317 319 319 312 307 294 292 292 293 293 294 294
319 320 318 318 319 320 320 319 320 321 320 319 319 322 323 322 322 321 320 319 316 312 308 298 293 294 293 293 298 314 319 321 321 321 320 322 323 322 320 319 321 320 318 319 300 295 296 306 316 317 318 317 316 316 313 313 308 302 294 294 295 295 296
319 318 318 319 320 319 320 321 321 321 321 321 321 322 321 321 320 319 319 318 314 314 312 304 294 294 294 293 299 308 315 318 319 319 320 319 322 321 321 317 314 314 317 307 292 294 294 304 315 316 316 316 315 315 315 315 310 306 306 307 306 308 306
318 317 317 318 319 318 318 320 322 321 321 321 320 321 321 320 319 319 320 321 320 318 312 307 299 293 294 293 294 306 313 317 314 315 318 318 318 318 320 319 305 293 295 295 293 292 294 294 309 313 314 314 315 315 313 312 312 311 309 308 307 308 308
311 315 318 318 318 318 319 319 319 320 319 320 319 317 318 319 319 319 318 318 319 318 315 309 301 292 293 293 293 299 311 309 308 310 314 316 317 315 317 317 308 294 293 292 293 292 293 292 293 305 310 312 313 314 309 311 308 305 309 307 306 306 305
309 309 310 312 312 314 318 319 318 318 317 317 317 316 316 316 318 318 318 319 318 315 314 309 308 294 292 293 292 295 306 305 301 307 313 315 314 311 310 308 302 294 291 291 290 291 292 293 291 300 308 299 297 300 310 311 309 308 308 307 305 303 303
306 307 308 309 309 310 311 312 315 318 317 316 316 317 317 317 316 316 317 315 314 312 312 309 301 302 293 293 291 291 292 298 292 309 310 311 311 309 308 307 302 293 290 291 292 291 292 290 292 299 290 290 291 293 298 309 308 308 308 307 306 304 303
305 306 306 306 306 306 307 309 309 309 310 313 312 314 316 315 315 315 315 314 312 312 311 310 301 299 295 289 289 289 289 290 292 305 308 312 310 307 305 304 299 292 292 292 290 289 290 291 294 289 289 290 290 293 304 309 308 310 306 304 303 303 304

ECMWFFLT1_sfc_thetae_087.txt.gz
Theta_e
328 329 330 331 332 334 332 333 333 332 334 334 332 331 332 334 334 335 334 332 333 334 333 331 328 331 331 330 329 329 330 330 329 327 325 327 325 324 326 325 325 326 325 321 322 319 317 315 317 323 324 324 325 324 325 327 328 327 327 327 327 328 326
330 330 330 331 331 331 330 330 331 330 330 331 333 332 331 332 332 332 332 331 332 334 334 333 332 331 330 329 328 328 328 329 328 327 327 325 325 324 325 322 324 323 324 323 323 321 318 316 316 317 318 324 324 323 325 325 326 326 326 326 328 324 323
330 330 330 329 329 328 328 327 327 327 328 328 329 330 330 331 331 330 332 332 330 332 333 333 332 332 332 329 330 329 329 329 328 328 326 325 326 325 325 324 322 319 320 321 320 320 319 320 316 316 318 318 317 320 321 322 325 326 326 325 323 322 321
329 329 328 327 327 325 326 326 325 326 327 326 327 328 330 331 330 330 331 331 331 333 332 333 332 331 330 331 332 331 330 330 329 327 327 327 327 326 326 325 322 321 319 317 319 320 319 316 317 317 318 318 318 318 320 323 324 325 325 322 319 318 317
330 329 327 326 326 325 325 325 324 325 326 326 327 328 328 331 330 330 330 329 329 330 330 331 333 332 332 332 331 331 331 329 328 328 326 327 327 326 325 324 323 322 321 321 322 322 319 319 318 317 316 318 318 318 322 322 325 324 320 316 317 316 315
330 328 327 326 326 327 327 326 326 325 326 325 326 326 327 328 327 327 327 327 328 330 329 330 332 333 332 330 330 331 329 329 328 328 326 325 326 325 324 325 325 326 324 323 324 322 321 321 319 316 317 318 315 317 319 320 318 316 314 314 315 315 314
328 327 326 326 327 328 328 327 326 327 326 326 326 325 328 328 329 329 330 329 327 328 329 329 330 331 330 330 330 330 330 328 329 326 326 325 326 327 327 326 325 325 323 323 324 324 321 320 317 316 315 315 316 316 318 319 318 307 307 311 313 313 312
327 327 326 328 329 328 327 327 326 327 327 328 328 329 330 330 330 329 328 327 327 326 327 328 329 329 328 329 329 328 330 330 329 327 325 327 327 326 324 324 324 323 324 326 325 324 323 321 319 317 316 313 312 313 313 316 315 305 304 305 309 309 310
328 328 328 329 328 328 328 328 327 327 328 328 329 329 329 329 327 327 328 328 327 326 326 324 324 324 326 327 327 328 328 330 329 328 325 327 326 324 323 324 326 325 325 325 325 324 324 322 320 318 318 316 313 310 312 313 308 300 305 302 303 307 308
326 328 329 328 328 326 327 327 327 328 328 328 328 329 327 326 325 325 326 326 326 326 325 324 325 325 325 326 326 326 326 327 328 327 326 327 327 326 325 325 324 325 324 324 325 324 324 322 321 320 319 317 316 312 309 307 301 299 301 303 300 303 306
330 329 329 328 326 326 325 325 326 327 327 328 329 328 326 326 326 328 325 325 326 325 325 325 324 325 324 323 325 325 326 327 324 323 324 326 325 326 326 326 324 323 324 325 324 324 323 322 321 321 320 318 315 313 311 306 300 302 300 303 303 302 303
330 329 328 327 326 326 325 325 326 327 327 327 326 325 325 324 323 323 323 323 324 323 324 322 322 324 323 323 323 323 324 325 324 323 324 326 325 326 325 324 323 323 324 324 324 324 323 323 322 322 321 321 317 313 309 305 302 304 305 302 304 305 303
330 329 327 326 326 325 326 326 325 325 325 326 326 325 323 322 322 321 322 323 324 322 321 319 322 322 322 322 321 321 322 323 324 324 324 325 331 327 325 324 324 324 323 324 324 323 322 323 321 320 321 320 319 316 309 306 304 304 306 304 303 303 303
328 328 327 326 326 325 325 325 325 325 326 325 325 324 322 321 320 321 321 322 322 319 318 320 320 320 320 319 320 320 321 322 322 321 323 323 326 326 325 324 324 325 324 323 322 322 322 321 320 320 320 319 318 314 310 307 305 306 305 306 304 302 303
327 327 325 325 325 325 324 325 325 325 325 325 326 324 322 322 321 321 321 321 320 319 319 318 317 317 318 316 316 318 317 318 319 319 320 321 321 325 323 324 325 324 324 323 322 321 321 320 320 318 319 319 317 317 314 309 306 304 302 303 303 303 303
326 325 324 323 323 324 324 324 324 324 325 325 326 324 323 322 320 319 319 320 319 318 318 317 318 317 315 313 314 318 319 318 318 318 319 319 320 322 323 323 323 322 323 321 319 319 318 318 317 318 318 318 317 316 315 311 308 305 302 301 302 302 302
326 325 323 323 323 323 324 323 324 324 324 324 324 323 322 320 318 317 318 318 317 317 318 318 317 315 315 315 316 318 317 318 318 318 318 318 321 322 321 321 319 319 319 317 317 316 314 315 314 317 317 316 316 316 315 311 310 306 304 302 302 303 304
324 323 322 322 322 323 323 323 322 322 322 322 324 321 321 319 316 316 317 316 316 316 316 317 315 314 316 315 316 316 316 316 317 318 318 320 324 320 319 319 318 317 316 316 316 313 313 314 315 314 316 315 315 316 315 311 309 308 306 303 303 305 305
323 322 322 322 323 323 323 322 321 322 322 322 321 320 319 317 315 314 314 314 315 316 315 315 314 314 315 315 314 315 316 316 316 317 317 319 319 319 318 317 317 316 316 315 315 314 316 315 316 313 309 310 314 314 312 310 309 308 307 305 305 305 304
323 323 323 322 323 322 322 322 322 322 322 320 319 319 318 314 313 313 313 314 315 315 315 314 313 313 315 315 316 317 316 314 315 316 315 316 317 317 318 318 316 316 316 315 315 315 314 314 315 314 314 313 311 312 311 309 309 307 306 305 304 304 304
322 323 323 322 321 321 321 320 321 321 322 321 320 319 317 314 312 312 314 314 313 315 314 313 313 313 315 316 315 316 315 313 315 315 314 316 317 316 315 314 313 313 313 313 315 314 317 316 315 314 315 314 313 311 309 310 308 307 306 305 304 302 304
322 322 322 321 321 320 320 319 319 320 321 321 321 318 317 317 315 314 314 316 315 314 313 313 313 314 314 315 315 315 316 316 317 317 318 318 318 318 317 316 315 315 317 314 309 309 312 316 316 311 312 314 315 313 309 310 310 307 306 306 303 305 303
321 321 321 321 320 320 320 319 319 319 319 319 319 318 315 315 313 314 316 315 313 312 310 308 305 306 312 318 318 319 319 319 318 318 318 318 318 319 319 319 322 322 317 313 307 302 300 302 308 312 311 311 312 313 312 310 309 309 308 307 305 304 303
320 319 319 319 318 319 320 319 319 318 317 317 318 317 315 313 313 316 315 311 309 307 304 303 298 298 302 310 320 320 318 317 318 318 317 316 316 317 316 318 317 321 320 319 307 299 299 299 298 299 299 302 307 310 310 310 310 310 308 308 306 305 304
317 317 318 318 319 319 320 319 319 319 318 319 317 316 314 313 316 315 313 311 308 305 301 297 295 296 298 303 311 319 320 319 318 318 318 317 317 316 317 318 317 318 321 320 318 311 304 298 297 298 299 300 300 298 298 306 309 309 311 311 310 309 307
316 316 316 316 317 317 317 318 318 318 318 318 319 318 318 318 316 314 312 310 307 305 301 295 294 295 296 298 305 315 320 319 317 317 318 317 316 316 316 317 316 317 322 324 319 316 315 313 304 300 300 301 300 302 302 297 296 308 309 311 311 309 311
315 315 316 316 316 316 317 316 317 318 318 318 318 318 317 315 314 312 310 308 306 304 301 296 294 295 295 296 300 311 321 320 318 318 318 317 315 314 315 314 314 314 317 317 314 315 314 313 312 312 313 313 313 311 302 298 297 296 301 309 310 309 310
315 316 316 316 316 316 316 317 318 317 318 318 317 316 315 314 313 311 310 309 306 302 300 294 294 295 296 298 302 309 319 320 320 319 317 316 315 314 315 315 312 313 317 318 314 311 314 314 311 312 311 312 313 314 312 310 307 307 306 307 307 310 310
316 316 314 316 316 316 316 317 317 316 317 318 318 318 317 316 314 312 311 310 307 304 299 293 294 295 296 299 305 316 318 317 316 316 316 316 315 314 314 314 314 313 313 314 303 296 299 309 312 311 310 310 312 311 308 299 293 294 301 305 306 306 305
314 315 316 316 315 316 316 316 316 316 317 317 318 318 317 317 316 314 311 310 308 304 301 295 293 295 296 299 307 316 317 317 317 318 318 318 318 318 317 316 315 312 314 307 294 293 295 305 311 311 311 310 311 311 311 304 296 293 293 294 296 296 296
314 314 314 315 315 315 316 315 315 316 317 317 317 317 318 317 316 314 312 310 309 305 302 296 294 295 296 298 306 314 315 316 316 316 316 318 317 314 310 309 311 310 308 301 292 294 297 307 311 310 311 310 311 311 311 307 305 301 296 294 294 294 294
315 315 315 315 314 314 314 316 317 317 317 318 317 317 316 314 313 312 312 310 310 307 303 299 294 294 295 297 306 313 315 313 312 313 314 316 316 313 308 304 300 300 301 296 291 293 294 304 308 308 307 307 307 307 309 308 303 301 300 301 301 302 302
314 315 315 313 312 314 313 316 317 317 317 317 316 316 315 316 315 315 314 313 310 307 303 300 297 294 296 298 301 310 310 310 310 311 313 313 311 309 306 304 299 291 291 291 291 291 291 294 303 303 305 304 304 306 308 308 306 303 302 302 302 301 301
305 308 313 314 312 312 313 315 315 315 314 314 314 314 315 314 313 312 312 312 310 307 305 301 296 294 296 297 299 302 306 307 307 310 309 306 307 305 304 301 298 293 290 291 291 292 292 290 291 299 301 302 301 297 297 305 306 302 303 302 301 301 301
304 304 304 305 311 313 313 314 313 313 313 313 313 312 312 311 311 310 310 309 308 306 306 302 298 293 293 294 295 297 303 302 301 309 307 305 303 303 301 299 297 293 291 292 291 291 291 290 291 298 293 288 289 290 295 299 302 304 303 301 301 300 299
301 302 302 302 301 301 303 307 309 312 313 313 312 311 311 311 311 309 306 305 305 305 303 299 294 294 290 291 291 291 292 295 295 306 305 303 301 299 299 297 296 294 292 292 291 290 289 291 295 292 288 289 291 291 295 300 301 304 302 304 302 301 298
299 300 301 301 299 298 297 298 299 299 301 307 311 311 308 310 309 306 305 304 303 303 302 300 295 292 291 288 288 288 288 288 290 300 303 301 299 298 297 297 295 293 292 292 289 289 290 290 291 288 289 292 294 295 299 301 303 306 302 302 303 303 303

ECMWFFLT1_sfc_thetae_090.txt.gz
Theta_e
326 328 330 330 330 330 330 330 330 329 332 332 331 329 331 332 332 331 330 328 328 330 329 327 325 326 326 326 327 327 326 327 326 324 323 324 322 321 322 321 321 322 322 316 319 318 317 315 317 322 324 325 325 326 327 326 325 325 325 325 326 324 323
327 327 328 329 329 330 329 328 328 329 330 330 330 329 331 332 332 330 330 329 329 331 330 327 327 328 327 325 324 325 325 325 326 325 325 324 323 321 321 318 320 320 318 318 320 317 316 315 315 317 318 323 323 323 323 325 326 324 325 325 324 321 320
328 328 328 328 328 328 328 327 327 327 328 328 328 328 328 329 328 329 330 330 330 331 331 328 328 328 327 325 325 325 324 323 324 326 326 324 324 321 322 322 319 318 317 317 316 316 317 317 316 316 318 318 317 319 322 323 324 324 324 322 320 318 317
327 327 328 327 327 327 327 327 327 325 325 325 325 324 326 328 327 328 328 329 329 332 332 329 328 328 327 327 327 326 326 325 323 324 323 323 323 322 321 322 321 321 318 316 316 317 315 314 316 317 318 317 316 317 320 323 325 324 321 319 318 316 315
328 327 325 326 327 326 326 325 324 324 323 324 324 325 325 326 326 325 327 327 328 328 329 330 329 329 328 328 327 327 326 326 326 325 323 322 322 323 321 320 320 318 317 319 319 319 317 316 318 317 317 317 317 317 321 323 325 320 317 317 316 314 313
328 326 325 325 326 325 324 323 323 323 322 323 323 324 324 326 326 325 325 324 325 327 328 330 329 329 329 329 328 327 327 326 326 325 324 323 324 323 323 322 321 320 319 320 321 319 318 319 319 316 314 317 315 316 320 322 319 314 315 315 315 313 312
327 327 325 323 323 325 325 324 324 324 323 324 324 324 326 326 326 326 326 326 326 327 327 329 329 330 330 329 329 328 327 326 326 325 326 324 324 324 323 322 321 321 319 322 321 320 319 318 317 316 315 312 313 315 317 318 312 309 308 311 312 312 311
327 327 325 325 324 325 325 325 324 325 324 324 325 325 326 326 325 325 326 326 326 327 327 328 330 329 328 329 329 328 327 326 326 325 324 324 325 323 321 323 322 322 320 321 322 321 322 320 319 318 316 313 311 312 312 315 308 305 305 304 308 308 308
326 325 325 325 325 325 326 325 325 325 325 326 325 325 326 326 326 326 327 326 325 327 327 328 328 327 326 327 325 326 326 329 326 325 324 324 324 323 323 320 321 321 322 322 322 322 322 321 320 319 318 316 313 309 310 311 305 302 305 300 303 306 307
325 325 324 325 326 327 326 325 326 326 326 326 326 326 326 326 326 326 326 324 324 326 326 326 326 326 325 326 325 324 326 324 326 325 323 324 323 323 321 321 322 321 321 322 322 322 321 320 320 320 320 318 316 312 309 307 300 298 301 301 299 302 306
326 326 325 326 327 326 325 325 325 325 326 327 327 327 326 324 324 329 324 323 323 324 324 324 325 325 325 324 324 324 324 324 323 321 323 324 323 322 321 321 320 320 320 322 321 321 320 320 319 319 319 316 315 314 312 307 299 299 300 301 299 299 303
326 326 327 328 327 326 325 324 325 326 326 326 325 324 323 323 323 323 323 322 322 323 323 323 323 323 324 323 323 322 322 323 322 322 321 323 322 323 322 321 319 320 320 321 321 321 320 319 319 318 317 317 314 310 310 304 297 299 301 300 301 303 303
327 327 328 326 325 325 325 325 326 324 325 325 324 324 324 323 323 323 323 323 322 322 322 321 322 322 322 323 322 322 322 322 322 322 321 320 326 323 322 321 320 320 320 320 320 320 319 318 319 318 317 317 313 309 305 302 300 300 302 301 301 301 303
328 328 326 325 325 324 324 325 326 326 325 324 324 323 323 323 322 322 322 322 321 320 320 320 321 321 321 320 320 321 320 321 322 320 321 321 324 323 323 322 320 321 321 321 319 319 319 320 319 318 319 317 314 309 306 303 300 300 302 302 301 301 302
328 326 324 324 324 324 324 324 323 324 324 324 323 322 322 322 321 322 321 320 318 319 320 321 321 321 320 319 318 320 320 320 320 319 319 320 319 324 322 321 320 319 320 320 319 320 320 319 319 319 318 318 315 311 308 305 302 300 300 300 299 300 300
326 324 323 323 323 324 324 324 324 324 324 323 322 322 322 321 321 321 320 319 318 317 318 318 318 319 318 317 316 316 319 319 318 318 318 318 319 321 322 321 319 318 320 319 317 318 319 318 318 319 318 317 314 312 309 308 304 301 300 299 299 298 299
324 323 323 323 323 323 324 324 324 324 324 323 321 321 321 320 320 320 320 318 317 316 317 317 315 315 315 315 315 316 317 317 318 318 318 317 319 320 320 320 318 318 317 317 316 314 314 315 316 315 315 314 312 312 309 307 307 303 300 300 299 298 299
322 322 322 323 322 323 323 323 323 324 324 322 321 320 319 319 319 319 319 318 317 316 316 315 314 314 315 316 316 316 317 317 317 317 317 319 324 320 318 317 317 318 315 315 311 311 311 312 313 315 315 315 313 312 310 308 306 304 302 300 300 299 299
321 321 321 321 321 323 323 322 322 322 323 322 320 319 318 318 318 318 318 317 317 316 315 314 314 314 314 314 314 314 315 316 316 317 317 318 318 318 318 316 316 314 313 312 310 310 311 311 312 310 312 314 314 312 308 306 305 304 303 302 300 299 299
320 321 321 320 321 322 322 321 321 321 321 321 319 318 317 316 316 317 316 316 316 315 314 313 313 313 313 313 314 313 313 314 314 314 314 314 315 315 315 314 313 314 313 312 312 312 311 310 312 309 310 312 311 311 307 306 305 304 303 301 300 300 300
319 319 320 321 321 321 321 320 320 319 319 319 318 317 314 314 314 314 314 314 313 312 311 310 311 312 313 313 312 312 314 314 314 313 313 312 312 311 311 310 310 311 312 312 313 311 312 311 311 311 309 309 310 310 307 305 304 303 302 301 301 300 299
319 320 319 319 320 320 320 320 320 319 318 317 318 316 313 312 313 314 313 313 313 312 312 311 312 313 312 312 314 315 315 316 315 314 314 314 314 315 315 313 311 311 315 314 311 312 314 313 311 309 308 309 308 309 307 305 305 303 302 302 300 301 300
318 319 319 319 318 318 319 319 319 318 318 318 317 315 313 313 314 313 312 311 311 310 308 307 308 310 312 316 316 316 316 316 316 316 316 315 315 315 317 317 318 319 313 311 306 301 301 305 309 310 309 310 311 309 307 306 305 303 303 302 300 300 300
319 318 318 317 317 318 317 318 318 318 317 317 315 313 314 314 313 312 311 309 308 307 306 305 303 302 304 308 316 316 315 315 315 315 315 314 314 314 314 314 314 319 315 312 305 299 298 298 298 299 302 307 311 311 309 308 307 305 305 305 303 301 300
317 317 317 318 317 316 316 316 316 315 316 315 313 313 313 312 311 310 309 308 307 305 303 300 301 302 304 305 310 317 316 316 315 314 314 314 314 314 314 314 314 316 317 314 311 308 304 298 297 298 298 298 298 301 304 308 308 307 306 306 304 304 302
315 315 315 315 315 315 316 316 315 315 315 315 314 313 311 311 310 310 309 307 305 304 302 296 298 301 303 304 305 312 317 316 315 314 314 314 313 313 313 313 314 316 320 322 318 313 311 309 302 300 300 300 300 300 299 299 302 307 311 310 310 307 306
314 314 315 315 314 315 316 315 314 315 315 315 313 311 310 310 310 309 308 306 304 303 303 297 297 299 300 301 303 309 316 316 316 315 314 313 313 311 310 311 312 314 314 314 312 311 310 308 307 307 308 308 308 305 298 297 296 297 304 310 310 310 310
315 315 316 315 315 315 315 315 315 314 314 313 311 310 309 308 308 308 307 306 304 302 300 294 297 300 301 302 304 308 317 317 315 314 312 312 312 312 313 314 313 313 311 307 302 304 309 308 306 306 305 308 307 308 304 303 303 303 303 305 306 308 308
314 315 315 315 315 314 313 313 314 314 314 313 312 311 310 309 308 307 307 306 305 303 300 293 297 299 299 301 304 314 316 316 315 315 315 316 315 315 315 315 314 310 307 304 298 293 300 308 307 308 307 306 308 307 303 299 294 293 296 300 304 305 305
313 313 314 314 313 313 314 313 314 315 315 314 313 312 311 310 310 308 307 306 305 302 301 295 295 298 299 300 306 315 316 316 316 315 314 311 309 310 312 312 310 307 305 304 295 293 296 305 308 307 306 305 306 306 308 303 297 294 293 293 293 293 294
313 312 313 314 313 313 313 314 314 314 314 314 313 312 312 311 310 309 308 306 305 303 301 297 295 297 299 303 308 316 316 316 314 313 311 310 307 305 307 311 309 305 304 301 293 294 295 304 306 305 305 304 304 305 305 306 307 302 297 297 296 295 294
313 313 312 312 313 313 314 314 313 316 315 314 312 312 310 310 309 308 308 307 307 304 302 300 295 296 298 301 309 314 314 314 313 311 310 307 306 304 302 300 300 300 300 295 291 291 293 301 304 302 302 302 301 302 302 301 302 303 302 302 299 299 298
307 311 312 312 313 312 313 315 315 315 314 314 313 313 312 311 308 306 305 304 304 304 302 301 297 295 297 299 302 311 313 312 310 310 309 306 304 302 302 300 297 290 290 291 291 290 290 294 301 299 301 301 300 301 300 299 300 298 298 299 299 297 298
304 305 308 311 311 312 313 314 314 314 314 314 314 313 311 309 308 307 306 305 303 302 301 299 296 293 295 296 299 304 310 310 308 306 304 303 303 301 300 299 297 292 291 291 290 289 289 291 295 298 298 299 298 298 294 298 298 299 298 297 296 296 296
302 302 303 303 303 303 306 310 312 314 314 313 312 310 308 306 305 304 303 302 300 299 299 298 297 293 292 294 295 299 304 302 304 304 303 302 301 300 299 297 296 293 291 290 289 290 289 290 293 296 292 290 289 289 295 297 297 299 300 301 299 296 297
298 300 300 301 300 300 302 304 306 309 312 311 310 308 305 304 303 302 301 301 300 299 298 297 294 294 291 291 291 293 296 300 297 304 303 301 300 299 297 295 295 294 290 288 288 288 290 292 294 291 289 290 292 294 296 298 299 300 299 300 301 301 301
297 296 297 297 297 298 299 300 302 303 306 309 308 306 304 302 301 300 299 298 297 297 297 297 295 293 292 290 289 291 293 294 296 300 300 299 296 295 294 294 293 292 291 288 286 286 287 289 290 289 291 294 294 295 296 298 298 298 296 297 299 301 302

ECMWFFLT1_sfc_thetae_093.txt.gz
Theta_e
328 329 330 330 328 328 328 329 331 332 331 331 330 330 330 331 330 329 328 327 327 327 327 326 326 325 325 324 326 326 324 324 323 322 320 321 321 319 321 318 318 320 318 314 317 316 316 314 316 322 325 325 325 326 326 326 326 326 325 326 325 323 323
329 329 330 330 328 329 327 328 330 330 329 329 330 330 330 331 331 329 327 326 327 327 328 325 325 326 325 325 325 324 323 323 323 322 322 321 320 318 318 314 318 317 315 316 317 313 316 315 315 317 317 322 323 323 325 326 326 325 325 324 324 321 320
327 328 328 329 329 329 328 327 328 327 328 329 328 329 329 330 330 329 327 327 327 328 327 325 325 325 325 324 325 325 324 323 322 323 323 321 322 319 319 318 314 314 314 314 313 315 316 315 314 315 318 317 316 319 323 324 325 325 322 320 318 317 317
327 328 328 328 328 329 327 326 326 326 327 327 326 325 328 329 328 329 327 327 328 330 328 325 325 326 324 324 324 324 324 324 323 323 322 320 321 321 319 319 319 319 317 313 315 315 313 311 316 316 318 319 318 318 321 324 324 321 319 316 314 313 314
326 327 328 327 328 328 328 326 326 326 326 324 323 323 324 326 327 326 327 327 328 328 328 326 326 326 325 324 324 324 323 323 322 323 321 321 320 320 319 319 319 319 316 317 318 317 316 315 317 317 317 318 318 319 322 322 321 318 316 314 313 312 313
326 326 327 328 329 328 328 327 326 325 325 324 323 323 323 324 326 325 325 326 326 328 329 327 327 327 325 325 325 324 323 323 323 323 321 321 321 322 321 318 319 318 317 317 319 316 316 317 318 316 317 319 315 317 321 320 315 313 314 313 312 311 312
326 326 326 327 327 328 328 327 327 326 325 325 323 323 325 325 325 326 327 326 326 326 327 328 327 327 326 325 325 324 323 323 323 322 322 322 321 321 321 319 318 318 316 319 319 318 318 317 316 316 316 314 316 317 318 316 312 309 309 309 310 310 310
325 325 325 326 326 326 326 327 327 326 325 324 324 324 325 325 325 325 325 325 324 324 325 326 327 326 326 326 325 325 324 323 323 323 320 321 322 320 318 321 319 317 318 320 320 319 320 319 318 317 316 313 313 315 314 310 308 304 305 303 308 307 309
325 324 324 324 325 326 326 326 327 326 325 324 324 323 324 325 324 324 324 324 324 324 324 325 326 326 325 326 324 324 324 325 323 321 321 321 321 319 319 317 319 317 319 320 320 320 320 320 319 318 318 317 314 311 311 310 307 301 304 301 303 306 307
325 324 324 324 324 324 324 325 326 326 325 325 324 324 324 324 324 323 324 323 323 323 323 324 325 325 324 325 325 323 324 323 323 322 320 322 320 319 317 318 319 318 318 320 319 320 320 319 320 319 319 317 317 314 310 309 306 300 302 299 303 303 306
325 325 324 324 324 324 324 324 324 325 324 325 325 325 324 323 323 327 323 322 321 323 323 324 324 324 323 322 323 324 324 323 322 319 320 321 319 318 318 318 318 318 318 320 320 319 319 319 319 319 317 314 314 314 312 308 306 299 301 301 298 300 303
325 325 325 324 324 324 324 324 324 325 325 325 325 324 323 323 323 323 321 319 321 322 322 323 323 322 323 322 320 321 319 321 321 319 317 320 318 320 319 319 316 317 318 319 319 319 318 318 318 320 317 315 311 309 311 305 301 300 302 302 299 301 303
325 325 325 325 324 325 325 325 324 322 323 324 324 324 323 323 322 322 319 319 320 321 321 321 322 322 321 322 321 321 319 320 320 320 318 318 323 320 319 318 317 318 317 318 318 318 317 317 319 319 317 314 309 309 308 301 302 302 301 301 299 301 303
325 325 325 325 325 325 325 322 323 324 324 322 322 322 322 322 322 321 320 320 320 320 320 319 319 321 320 319 319 319 318 319 320 317 319 318 320 319 319 319 317 317 317 318 317 317 317 317 318 318 317 314 308 306 306 300 299 298 300 300 299 300 301
326 326 325 325 324 323 323 323 323 324 323 323 324 323 322 322 322 321 321 319 319 319 318 319 318 320 319 317 316 320 319 318 319 317 317 318 317 320 317 317 317 315 316 317 317 317 317 317 318 317 316 315 309 307 306 302 299 298 298 299 297 299 300
325 326 325 324 322 321 322 323 324 323 323 322 323 323 322 321 321 321 319 318 317 316 318 318 318 319 318 317 317 317 318 318 319 318 318 317 318 317 317 316 316 315 318 317 316 316 317 317 317 317 316 315 312 307 305 304 301 299 299 298 297 298 299
324 324 323 322 321 322 322 323 324 324 323 322 322 322 323 321 321 320 318 317 316 316 317 318 317 318 318 317 317 317 316 316 316 317 317 317 317 317 317 316 314 315 315 316 315 315 315 315 315 316 315 312 313 311 306 304 304 300 299 299 297 297 298
323 323 321 321 321 322 322 322 322 323 322 321 322 322 321 319 319 318 317 316 315 315 316 316 316 314 314 315 316 317 316 316 315 316 317 317 322 317 317 317 317 315 314 314 311 312 313 313 314 314 315 314 311 311 308 306 304 302 300 300 298 297 297
321 321 320 320 321 322 321 321 322 322 322 321 321 321 319 318 319 317 316 315 315 315 315 315 315 314 313 313 314 316 317 316 316 315 315 317 318 318 318 316 315 314 312 313 311 310 311 312 312 311 313 313 312 309 307 305 303 302 301 300 299 297 296
320 319 319 320 321 322 322 321 322 322 322 321 319 317 317 317 316 316 315 314 314 314 313 313 313 313 313 313 314 315 315 314 314 314 313 314 315 316 317 316 313 312 312 310 310 311 310 309 311 309 312 312 310 309 306 305 303 302 301 299 298 297 297
319 319 320 321 321 321 320 320 321 322 322 320 317 316 315 316 314 314 313 313 312 313 312 312 312 312 313 313 314 314 315 314 313 311 310 310 311 312 312 312 311 310 310 310 311 309 310 309 308 307 307 311 310 308 305 303 302 301 300 299 298 298 297
320 319 320 321 321 320 320 320 321 321 321 318 317 316 314 313 312 312 311 311 311 311 311 311 312 312 312 313 314 315 314 314 312 311 311 310 310 309 309 309 309 310 315 317 313 312 312 313 310 308 305 309 309 307 304 303 302 300 299 299 298 298 297
319 318 319 319 318 318 318 319 320 319 317 316 313 311 311 312 312 311 310 309 308 309 308 308 312 308 311 315 315 315 315 313 313 313 313 312 312 311 311 311 316 316 313 311 307 302 301 305 309 311 309 308 309 307 304 303 301 301 301 299 298 298 297
318 318 318 316 315 316 316 316 316 317 317 313 311 311 312 311 310 310 309 307 306 306 305 307 302 301 303 307 315 315 314 313 313 313 313 313 312 311 311 311 310 314 312 310 304 298 297 297 297 299 301 306 310 309 306 303 301 301 302 301 299 297 297
316 316 317 316 316 316 316 315 314 313 312 310 311 311 311 310 309 308 307 306 305 304 304 305 299 301 302 304 308 315 315 314 313 313 313 313 312 312 312 313 312 311 310 309 308 306 303 298 297 297 297 297 296 297 300 304 304 302 302 301 300 300 300
315 315 316 316 315 316 316 313 312 312 310 310 311 310 309 309 308 308 307 306 305 304 303 301 299 301 301 302 304 310 314 314 313 313 313 312 311 311 311 312 313 313 315 317 314 310 309 307 302 301 302 303 302 298 294 294 296 304 305 304 303 302 301
313 313 314 314 314 313 312 312 311 310 310 310 309 308 308 308 308 307 307 306 305 303 303 301 300 300 300 301 303 307 314 314 313 312 311 310 310 309 310 312 312 310 309 307 307 309 308 307 306 308 308 308 307 305 300 298 297 296 302 306 305 305 305
313 314 314 314 313 313 310 310 311 311 310 309 308 308 308 307 307 306 306 306 305 303 302 299 298 299 300 301 302 306 314 314 313 312 312 312 312 313 313 312 310 308 307 306 303 303 309 307 306 307 306 306 305 304 302 300 299 301 303 304 303 303 304
313 313 313 312 312 311 311 310 310 310 309 308 308 307 307 306 306 305 305 305 305 303 299 298 299 299 300 300 304 313 313 313 314 313 312 312 313 314 313 310 308 307 306 304 300 296 303 308 308 307 305 304 304 304 303 299 294 295 296 297 298 300 300
311 312 312 313 312 311 311 309 309 309 308 307 307 307 307 306 306 306 305 305 305 303 301 296 297 298 299 301 307 314 314 312 311 309 309 310 311 311 310 308 307 306 304 302 296 294 297 302 306 305 304 303 302 303 302 303 300 295 294 293 293 293 293
311 311 311 311 311 311 311 311 310 309 309 308 307 307 307 306 306 306 305 304 303 301 300 297 294 298 300 303 307 313 311 310 309 307 306 306 306 307 310 310 309 305 303 300 292 295 298 304 305 303 303 302 301 301 301 301 303 303 299 296 295 294 293
312 312 311 311 311 311 312 311 310 309 308 309 308 307 307 305 304 304 304 304 305 302 301 299 295 297 300 302 309 314 313 310 308 306 304 303 303 302 301 301 302 301 300 294 290 292 295 302 303 302 301 300 300 300 299 298 299 299 300 302 301 299 297
306 309 311 311 312 311 311 311 311 310 309 307 307 306 306 305 303 302 302 301 300 300 300 299 296 294 299 301 304 312 312 309 306 304 303 303 301 300 300 299 297 291 291 291 291 291 292 296 301 300 301 301 300 300 299 298 299 297 297 297 297 296 295
302 303 306 308 308 309 311 312 312 311 310 309 307 305 303 301 300 300 300 300 299 299 299 298 296 293 296 298 301 305 310 308 305 303 301 301 301 300 299 298 297 292 290 290 291 290 291 291 294 298 298 299 297 296 294 299 298 297 297 297 296 297 297
300 301 303 305 307 307 309 313 312 311 310 307 305 303 302 301 300 300 300 299 299 298 299 298 297 294 294 296 297 299 304 303 303 302 301 300 299 299 298 297 296 292 290 290 290 291 291 291 292 297 292 289 289 290 297 298 296 296 297 296 297 296 297
297 299 300 302 304 304 306 310 311 310 307 305 303 302 301 301 300 299 299 299 299 299 298 297 294 295 293 293 294 295 296 299 297 303 302 300 299 298 297 296 296 291 289 290 290 290 291 292 293 291 289 290 291 291 294 294 295 296 295 295 295 295 295
296 297 298 299 301 302 303 305 307 307 305 303 302 300 300 300 299 298 298 297 297 298 298 298 294 292 293 291 292 292 292 293 296 301 301 300 298 297 296 295 294 289 290 289 288 288 287 288 289 289 291 292 292 293 295 295 295 294 292 292 293 293 294

ECMWFFLT1_sfc_thetae_096.txt.gz
Theta_e
327 328 330 330 329 329 328 329 331 331 331 331 331 331 331 331 330 329 328 328 327 327 329 327 326 325 326 327 328 327 326 326 326 324 323 323 321 321 323 321 320 321 321 318 322 319 317 314 317 323 325 325 326 327 328 327 327 327 326 326 326 325 324
327 328 330 330 328 329 327 329 330 331 331 332 331 331 330 330 331 330 328 327 327 327 329 327 326 326 326 326 326 325 325 325 325 325 324 323 322 320 319 318 320 320 320 320 321 319 318 316 315 317 318 322 324 325 326 327 326 326 326 325 325 322 321
327 328 330 328 328 327 327 327 328 330 329 329 330 330 329 330 330 330 328 327 327 328 328 327 327 326 325 326 327 326 325 324 325 325 325 324 324 322 323 320 319 318 319 319 318 319 320 319 316 316 318 318 317 320 325 325 324 323 322 321 319 319 319
326 328 327 327 327 327 326 326 327 328 328 328 328 328 329 330 329 330 328 327 328 330 328 326 327 326 326 326 326 326 325 325 324 324 323 323 323 322 322 322 321 321 320 317 318 318 317 316 317 317 319 320 319 318 321 323 321 319 318 317 316 316 317
327 327 327 327 327 326 326 325 327 326 326 327 327 327 328 329 329 329 328 327 328 329 327 327 327 327 326 326 326 326 325 325 325 325 324 323 323 323 322 322 322 322 319 320 321 320 319 318 319 317 318 319 319 320 320 319 319 317 316 315 315 316 317
327 328 328 328 328 328 328 326 326 324 325 325 325 326 327 328 329 328 327 326 327 328 328 326 326 327 326 325 325 325 325 324 325 325 324 324 324 323 323 322 322 321 320 320 321 319 319 321 320 317 319 320 317 318 320 319 315 314 315 313 314 314 315
325 326 327 327 328 329 329 328 327 326 325 326 326 327 328 328 328 329 328 328 328 328 328 327 326 326 325 325 325 325 324 325 325 325 325 324 324 324 324 322 321 321 320 321 321 321 320 320 319 318 317 317 319 317 319 317 313 315 313 311 312 313 313
325 325 326 327 328 329 329 329 329 328 327 328 327 327 327 327 327 327 327 327 327 327 328 327 327 326 326 326 326 325 325 324 325 325 324 324 323 322 322 323 321 320 320 321 322 322 322 321 321 320 318 315 315 317 314 311 311 309 311 307 311 312 312
325 325 324 326 328 329 329 329 328 328 328 329 328 326 325 326 326 326 327 326 325 325 326 327 326 326 325 325 325 325 324 325 324 324 323 324 324 323 323 321 322 321 321 321 322 322 322 322 322 322 321 319 315 312 314 313 312 309 308 308 308 310 311
325 325 325 324 326 327 328 328 328 327 327 327 326 326 325 325 325 325 325 325 324 324 325 326 326 326 325 326 325 324 324 325 324 324 322 323 323 323 322 322 323 321 321 322 322 322 323 322 322 323 322 321 320 315 312 312 313 313 306 306 310 307 309
326 326 326 325 324 324 325 326 327 326 325 325 326 325 325 325 324 327 324 323 323 324 324 325 326 326 326 325 325 325 325 325 324 322 322 323 322 322 321 321 321 321 321 322 322 322 322 322 322 322 321 320 320 318 315 313 313 310 309 305 305 306 306
325 326 326 325 324 324 324 325 324 324 324 324 324 324 324 324 323 324 323 322 322 323 323 325 325 325 325 324 324 324 323 324 323 322 322 323 322 323 322 321 321 321 321 321 321 322 322 322 322 322 321 319 318 318 317 313 311 310 309 309 306 304 307
325 326 325 323 323 324 323 324 323 323 324 324 324 324 323 323 323 323 322 322 321 322 323 323 324 324 324 324 324 323 323 323 323 322 320 321 323 322 322 321 320 321 320 321 321 321 321 322 323 322 320 317 316 317 313 308 310 309 305 309 306 305 307
324 325 325 326 323 323 323 324 324 324 324 324 324 323 323 323 323 323 322 321 322 322 322 322 323 323 323 322 322 323 322 323 323 321 321 321 323 322 322 321 319 319 320 320 320 320 320 321 322 322 319 314 313 314 313 309 306 303 304 304 305 305 306
323 324 324 325 323 323 323 323 324 324 324 322 323 323 323 322 323 322 321 321 321 322 322 322 322 322 321 320 320 322 322 322 322 321 322 322 321 322 321 321 319 319 320 320 319 319 319 320 320 319 318 315 312 313 311 308 305 305 305 304 304 304 305
323 324 324 322 322 323 323 323 324 323 323 322 323 323 323 323 322 321 321 320 320 320 321 321 321 322 321 321 320 320 321 322 321 321 321 322 322 320 321 320 319 319 319 319 319 319 319 320 320 320 318 316 312 311 310 308 307 305 304 304 303 303 304
323 324 321 322 322 322 322 322 323 323 323 322 322 322 323 323 322 321 320 319 319 319 320 320 320 321 320 320 320 320 320 320 321 322 322 321 321 321 320 319 318 318 319 318 317 318 318 319 319 319 319 317 314 310 311 309 310 307 305 304 302 302 303
322 322 321 321 321 321 322 323 323 323 322 321 322 322 322 322 321 321 319 318 318 318 319 319 319 319 319 319 320 320 319 319 320 320 321 321 323 320 320 320 318 318 318 317 316 317 318 318 318 319 318 317 316 312 311 309 309 308 306 305 303 301 303
322 321 320 320 320 321 321 322 322 322 322 322 321 321 321 320 321 320 319 318 318 318 318 319 319 319 317 317 318 319 318 318 318 318 319 321 321 321 320 319 318 318 318 318 317 316 317 318 317 318 317 316 315 313 311 309 308 308 307 305 304 301 301
321 320 319 320 320 321 321 322 322 321 321 321 320 319 320 319 319 318 317 317 317 317 317 318 318 317 316 316 317 317 316 316 316 317 318 320 320 320 320 319 318 317 317 317 317 316 316 316 317 317 318 317 315 313 311 309 307 306 306 305 302 303 301
320 320 319 319 321 321 321 321 321 321 321 320 320 319 318 318 317 316 316 316 316 316 316 315 315 315 315 315 316 316 316 316 315 314 315 315 316 317 317 318 317 316 316 315 317 316 316 316 315 316 315 316 315 313 311 308 307 306 305 305 305 302 302
320 320 319 319 319 320 321 320 320 321 321 320 320 319 318 316 314 313 312 313 313 313 314 314 314 314 314 314 315 315 315 314 314 313 312 312 312 312 312 312 312 314 318 316 311 311 312 312 314 314 311 314 314 313 309 308 307 305 305 305 303 302 302
319 319 318 318 318 318 319 319 320 319 320 320 318 316 315 314 313 312 311 310 311 311 312 313 314 309 310 314 315 315 314 314 314 314 313 312 312 312 313 314 317 317 313 310 305 300 299 302 308 311 311 313 313 311 309 307 306 306 305 304 304 303 302
318 318 317 316 316 317 317 318 319 319 318 315 314 313 313 313 312 311 310 310 309 309 310 312 303 301 302 306 314 315 314 314 314 314 313 312 311 311 311 312 312 312 310 308 304 298 298 298 297 298 300 305 310 312 309 307 307 306 306 306 303 302 303
317 316 316 315 315 315 316 316 316 316 315 313 312 312 311 311 309 309 309 308 308 308 309 305 298 300 301 303 308 315 315 314 313 313 312 312 312 313 314 314 315 316 315 313 311 310 305 299 298 297 297 296 295 295 299 308 307 305 306 306 304 304 304
315 315 314 314 314 315 315 314 314 315 314 311 312 311 310 309 308 308 308 308 307 307 307 299 298 299 300 301 303 310 315 314 313 313 313 313 314 314 314 313 312 311 313 316 314 312 313 311 302 300 300 300 298 296 294 294 297 308 308 307 306 305 305
312 312 313 313 314 313 312 312 311 311 310 310 309 309 308 308 307 307 307 307 306 306 306 300 298 298 299 299 301 306 314 314 313 313 313 313 314 313 313 313 311 310 310 311 311 312 311 311 312 311 310 309 308 305 299 296 297 298 304 311 310 310 310
312 312 312 313 312 311 310 310 310 308 308 308 308 308 307 307 306 306 306 307 306 304 303 297 297 297 298 300 301 305 314 313 313 313 313 313 313 313 312 312 311 310 309 309 308 311 312 311 311 310 308 308 307 306 305 303 302 304 306 308 309 309 309
311 311 311 311 311 309 308 308 307 307 306 306 306 306 306 306 306 306 306 306 306 303 300 294 297 298 298 300 303 313 314 314 313 313 313 313 312 311 310 310 309 309 308 307 301 299 304 311 310 309 307 307 307 306 305 302 295 295 299 302 304 305 304
310 310 310 310 309 308 308 307 307 308 306 306 306 306 305 305 306 306 306 306 305 303 301 295 295 298 299 300 306 313 312 312 311 311 310 311 310 310 310 310 309 308 306 304 296 295 299 304 309 307 306 305 305 305 303 303 300 295 293 293 292 292 292
310 310 309 309 309 308 308 308 308 308 307 306 305 305 305 305 304 305 304 304 304 303 301 296 294 298 300 302 306 312 311 310 308 307 306 306 306 305 307 309 308 306 303 300 294 296 298 305 306 305 304 303 304 304 303 302 305 303 294 293 293 292 293
306 309 309 309 309 308 307 306 307 307 306 306 305 305 304 303 302 302 302 302 304 302 301 299 295 298 298 301 307 311 311 308 306 304 303 302 302 302 301 300 299 299 299 295 293 295 297 303 306 305 304 304 303 301 300 300 301 303 305 306 304 304 303
303 305 308 309 309 308 307 306 305 305 304 304 303 303 302 301 300 300 301 301 300 300 300 299 297 296 298 299 302 310 308 306 303 303 303 302 301 301 301 300 297 291 291 291 292 292 294 297 304 305 306 305 303 301 300 300 299 301 302 302 302 301 301
300 302 305 308 309 309 309 307 307 305 304 303 302 301 301 301 300 300 300 300 299 300 301 300 297 294 296 298 300 303 308 306 304 303 301 300 301 301 300 299 296 292 291 291 291 292 293 294 297 303 304 302 300 298 297 301 299 298 301 300 301 301 301
299 300 302 305 309 309 309 309 307 306 304 303 302 301 301 300 300 299 299 299 299 298 299 299 299 294 294 295 296 299 304 303 303 303 301 300 300 300 299 298 295 292 291 291 291 291 292 293 293 298 294 291 290 293 300 299 299 300 300 300 300 299 299
298 299 300 302 305 307 308 307 306 305 303 302 302 301 300 300 300 299 299 299 299 298 297 297 294 295 293 293 294 294 296 299 296 303 302 300 300 298 298 296 294 292 290 290 290 291 292 292 294 293 290 290 291 291 295 298 297 298 298 298 298 297 297
298 298 298 300 303 304 304 304 303 303 303 302 301 300 300 300 300 299 298 297 298 298 298 297 294 293 293 292 293 293 293 294 296 301 301 300 299 300 299 296 292 290 290 290 290 290 290 291 292 291 291 291 292 293 297 297 297 296 294 295 296 296 296

ECMWFFLT1_sfc_thetae_099.txt.gz
Theta_e
332 333 335 337 337 334 333 333 333 333 334 335 335 334 335 335 334 334 334 335 335 334 333 332 331 334 335 335 336 336 337 335 334 332 329 329 327 328 330 331 332 332 333 331 329 324 322 318 320 329 331 331 332 332 332 332 332 333 331 330 330 330 331
334 334 336 336 335 333 332 333 333 333 334 334 334 334 334 335 334 334 335 335 335 335 335 335 334 334 334 330 331 332 334 335 336 336 332 329 330 330 327 329 331 330 329 331 331 330 323 320 319 323 325 328 329 331 333 333 330 332 329 328 328 327 328
332 333 334 335 335 334 332 331 332 332 333 333 334 334 334 334 335 335 335 335 335 336 336 337 337 334 333 332 333 333 334 334 335 335 332 332 331 333 331 331 330 328 328 327 327 326 325 325 319 320 323 324 321 323 329 328 327 327 327 327 327 327 328
332 333 332 333 334 334 331 331 331 331 333 333 334 333 333 334 335 335 335 335 336 336 337 338 337 334 333 333 333 334 335 335 333 334 333 334 334 333 332 332 331 329 327 327 327 327 326 322 321 321 322 323 323 324 324 325 326 327 326 327 327 326 327
332 332 332 332 332 332 331 331 331 332 332 332 333 333 333 333 334 334 335 335 335 336 337 338 338 336 333 333 334 334 335 336 336 334 333 334 334 333 333 333 333 333 333 330 330 330 328 326 324 322 321 322 322 322 322 322 324 325 325 325 325 326 326
333 332 332 332 334 333 332 331 330 329 331 330 331 330 331 332 333 332 333 333 335 337 338 337 337 338 337 337 336 336 336 334 334 335 334 335 334 333 333 334 334 333 332 333 332 331 331 330 326 321 322 323 320 320 321 323 320 323 324 323 325 324 325
332 332 332 332 334 334 333 331 330 330 330 330 330 331 332 333 333 334 334 335 336 338 338 338 337 337 337 336 336 336 336 336 336 336 336 337 337 336 337 333 333 333 334 333 333 332 330 328 325 324 321 321 323 320 321 321 323 321 321 323 325 324 324
331 332 332 333 331 333 333 332 331 331 331 331 331 333 334 333 334 334 335 336 336 337 338 337 336 337 337 336 336 337 337 337 336 336 336 333 332 335 336 335 334 334 334 333 332 332 331 330 328 326 322 319 320 321 319 320 321 322 322 322 324 324 324
329 330 330 330 331 331 331 331 332 334 333 332 332 332 333 333 334 334 335 335 336 336 337 336 336 336 336 336 336 337 336 335 335 335 335 333 333 335 335 336 335 333 335 333 333 332 331 332 331 330 327 324 319 317 318 318 320 320 322 321 321 322 323
327 327 328 329 331 331 331 332 332 333 331 331 331 332 332 333 334 335 335 335 336 336 336 336 336 336 336 336 336 335 336 336 336 334 335 331 333 336 336 336 335 335 334 335 333 333 333 333 332 330 329 327 326 320 316 315 318 319 319 322 320 320 322
328 329 330 329 329 327 328 329 330 329 328 329 330 330 330 332 333 334 335 335 335 335 335 335 335 336 337 336 336 335 335 335 334 335 335 335 335 336 336 336 336 334 334 334 333 334 333 332 331 330 329 330 330 323 321 318 318 321 320 321 323 319 321
330 330 331 328 327 326 326 328 329 330 328 330 330 330 330 331 331 333 334 334 334 334 336 332 332 333 335 336 335 335 335 334 334 333 335 335 335 335 335 335 335 334 334 334 334 334 334 333 332 331 330 330 329 330 325 320 316 321 325 321 319 320 321
330 330 329 325 325 325 326 327 329 329 329 330 330 330 330 330 331 332 332 333 333 335 334 330 330 330 332 334 333 334 334 334 333 334 334 334 333 333 334 334 334 334 333 333 333 333 332 332 333 330 330 329 329 328 327 322 320 319 321 322 320 317 320
329 329 328 328 326 326 327 328 329 329 330 330 331 331 329 329 330 331 330 332 333 334 333 330 330 330 328 328 330 334 334 334 333 334 334 333 332 332 331 332 332 334 334 333 332 332 331 331 332 331 330 328 327 328 326 323 320 317 316 317 319 317 317
329 329 329 328 326 326 327 328 329 330 329 330 331 331 330 329 329 329 327 328 329 331 333 333 331 331 328 330 332 335 335 335 334 334 335 332 331 330 331 331 330 333 333 332 332 330 330 330 329 329 327 328 326 327 327 324 321 319 316 315 315 315 316
327 328 328 326 326 327 327 329 331 330 330 330 331 331 331 330 330 329 328 329 329 331 333 333 333 332 330 330 334 334 335 335 335 334 334 334 332 332 332 332 333 333 332 332 332 331 331 330 330 328 328 328 327 327 325 325 323 320 318 315 317 314 315
327 326 325 327 327 328 329 329 330 330 330 331 330 331 332 331 330 330 330 331 331 332 332 333 333 335 335 335 334 334 334 336 335 335 335 334 333 333 333 332 331 332 332 332 331 331 330 331 330 329 329 328 328 326 326 326 326 324 320 316 313 315 315
326 326 326 327 328 328 329 329 329 329 330 329 330 330 330 331 330 330 330 330 330 331 332 333 333 334 335 336 335 335 334 335 335 335 335 334 333 334 333 333 332 332 332 331 330 330 329 330 329 330 329 328 327 327 326 325 325 323 321 319 316 313 315
326 326 327 328 328 328 329 329 329 329 329 329 329 329 329 329 329 329 329 329 330 330 330 332 333 333 334 334 335 335 335 334 334 335 335 335 334 334 334 333 332 332 331 331 330 330 330 330 329 329 329 327 327 327 326 324 324 323 322 320 317 312 313
326 326 327 328 328 327 327 328 328 328 329 330 329 328 328 328 329 328 328 329 328 329 329 331 333 333 332 332 333 333 333 334 333 334 334 334 334 334 334 333 333 332 332 332 331 330 330 330 330 330 330 329 328 327 325 324 322 321 321 319 316 316 314
325 326 326 326 326 326 327 327 328 328 328 328 328 328 327 327 326 328 327 326 327 328 329 329 330 330 330 331 332 332 332 333 332 332 333 333 334 334 333 333 332 332 332 332 332 331 331 330 330 330 330 330 329 327 325 324 322 321 320 319 317 314 313
324 324 324 324 325 325 325 326 327 328 328 328 328 327 326 324 322 322 323 326 326 327 327 327 328 328 329 330 331 331 332 331 331 330 330 329 330 330 330 330 329 330 328 321 314 318 320 321 331 330 330 330 328 327 326 324 323 320 320 319 317 316 313
323 323 322 323 324 325 325 325 326 327 328 328 327 326 326 326 322 320 320 321 323 326 327 327 320 313 317 328 329 330 331 331 329 328 326 325 325 327 327 327 324 315 311 310 306 301 301 306 309 322 330 330 328 327 325 324 322 322 321 319 318 316 314
322 321 321 322 323 324 324 324 325 325 326 325 324 324 324 322 321 320 320 320 322 324 324 323 305 303 305 310 324 328 329 328 328 327 325 324 323 323 322 321 319 314 312 309 305 297 297 297 297 297 298 301 309 328 326 323 323 322 320 320 319 316 315
320 320 321 320 320 322 323 323 324 324 324 323 323 324 323 322 320 318 317 318 320 321 323 307 298 300 302 305 313 328 329 328 328 327 326 323 322 322 321 321 321 322 321 318 314 310 303 297 296 296 296 296 295 293 297 320 323 319 320 319 316 316 315
318 318 318 319 320 321 321 321 321 319 317 319 321 320 318 320 318 316 315 316 318 319 318 297 297 299 300 302 305 318 327 328 326 325 324 324 323 323 323 323 323 323 321 318 319 318 315 310 300 298 299 299 298 296 294 293 297 321 321 318 317 315 316
316 317 317 317 317 318 317 316 316 316 316 317 318 317 316 315 315 315 317 318 318 317 316 300 297 298 299 300 303 313 327 326 326 324 324 324 325 325 325 323 322 322 324 325 324 322 321 320 320 321 321 320 317 311 302 300 301 301 313 322 321 319 318
315 315 315 314 314 314 314 314 313 313 314 314 314 315 315 313 313 315 316 317 316 314 310 295 296 297 298 300 302 311 326 325 324 324 324 324 324 325 326 325 324 323 323 324 324 322 324 323 322 321 319 318 317 316 315 314 315 319 320 322 321 320 319
314 314 313 312 311 310 310 311 311 311 310 310 310 311 312 314 315 315 315 315 315 313 308 294 296 297 298 300 304 323 324 324 323 322 321 321 321 322 323 324 324 323 323 320 307 304 313 323 323 321 319 318 317 314 310 301 294 296 308 316 317 316 312
313 313 313 311 309 308 308 308 309 310 309 309 307 307 309 313 314 315 315 315 315 313 310 298 295 296 298 301 311 324 323 322 321 319 318 319 320 320 321 322 323 321 319 315 301 300 303 311 322 321 319 318 317 314 312 308 295 292 293 292 292 291 291
310 312 312 311 310 308 307 307 308 309 308 307 307 307 308 307 308 310 312 313 313 312 309 300 295 297 299 304 312 322 321 319 318 317 315 314 314 312 309 307 314 318 315 311 295 299 302 315 321 319 318 317 315 312 311 313 312 304 292 293 292 292 292
308 310 310 310 310 308 307 307 307 307 306 305 305 306 306 305 305 307 308 309 308 310 310 304 296 296 298 303 315 322 319 316 315 313 313 311 311 309 305 302 299 304 307 300 292 295 300 312 319 319 317 316 312 310 309 314 315 315 314 313 312 312 309
305 307 310 310 310 309 308 307 306 305 304 304 304 305 304 304 303 304 306 307 308 309 309 306 299 295 298 299 303 318 318 316 312 312 312 310 308 306 305 303 298 292 292 293 293 294 296 301 316 318 317 315 312 308 310 312 312 314 313 312 312 312 311
303 305 308 311 311 310 309 307 307 306 305 305 305 304 303 303 303 302 302 303 304 304 306 306 300 294 295 297 299 306 312 310 309 308 308 307 306 304 302 300 298 293 292 292 293 293 295 296 301 314 314 313 311 308 306 310 306 303 309 309 309 310 310
303 303 306 310 309 307 308 308 307 306 306 304 303 303 303 303 302 301 300 300 300 300 300 300 302 294 293 295 295 299 308 308 306 307 306 305 303 302 301 300 298 293 291 292 292 292 293 294 296 304 300 292 292 295 306 306 306 306 306 306 306 305 306
301 302 302 304 306 305 306 305 306 306 305 304 303 302 302 302 302 301 300 300 300 300 299 298 294 297 293 293 293 294 296 301 298 309 306 303 301 300 301 299 296 293 291 291 292 292 293 293 295 295 290 291 292 293 298 304 305 306 305 305 305 304 303
301 301 301 301 300 300 301 302 302 302 304 304 303 302 301 301 301 300 299 299 299 300 300 298 294 293 294 292 293 293 293 294 297 304 305 303 302 302 300 298 294 291 291 291 290 290 291 292 294 290 291 291 293 296 304 304 303 304 302 302 302 302 302

ECMWFFLT1_sfc_thetae_102.txt.gz
Theta_e
337 338 341 342 342 341 340 339 340 340 340 339 339 337 337 338 338 337 337 337 339 336 337 337 338 338 339 338 338 338 334 336 337 334 334 334 331 331 334 336 334 336 337 335 334 326 323 321 324 332 333 330 334 334 332 332 332 333 334 337 337 335 336
339 339 341 342 341 342 339 339 340 340 339 339 338 338 337 338 337 338 337 337 338 336 335 339 337 340 340 337 337 333 331 336 336 335 334 333 334 332 332 333 333 332 331 334 334 332 325 322 319 322 325 331 333 332 333 333 332 334 334 335 334 333 333
337 337 339 338 340 342 339 338 339 339 339 337 337 337 337 337 338 338 338 338 337 338 338 336 337 339 340 337 340 340 340 338 338 336 337 334 335 336 334 332 329 332 327 327 330 329 329 328 321 322 328 324 323 328 331 331 334 335 334 334 332 332 332
337 337 338 337 337 338 339 339 338 338 338 338 339 337 339 337 337 338 339 339 339 337 337 338 337 338 339 340 340 342 342 341 338 337 336 337 337 332 332 333 332 331 328 326 327 328 328 326 324 323 323 326 329 325 329 330 331 332 332 333 331 330 330
336 335 336 335 338 337 337 336 337 337 337 336 334 335 337 339 339 339 339 338 339 340 340 337 336 337 339 340 340 339 339 340 340 339 337 336 336 332 335 335 335 332 332 331 330 328 328 327 326 324 323 324 324 325 326 328 329 328 328 329 329 328 329
337 337 336 337 338 336 335 336 336 336 334 334 334 331 336 336 338 340 338 337 338 340 340 337 337 338 336 338 339 338 337 338 339 338 337 333 332 335 336 338 337 332 331 335 333 328 330 330 328 325 325 326 324 325 326 327 325 327 328 327 328 327 328
336 337 337 335 338 338 337 336 338 335 334 334 334 333 336 336 336 336 337 337 339 339 340 334 335 335 336 335 335 335 337 338 338 334 338 339 338 338 339 336 336 333 333 334 332 334 331 330 327 327 327 326 325 322 325 326 327 324 325 327 327 327 327
336 336 336 337 338 335 336 339 339 336 334 335 334 335 336 336 335 336 336 336 338 340 339 334 335 336 336 335 335 336 334 336 334 337 335 334 336 337 336 334 334 336 333 331 333 334 332 332 330 330 328 323 322 323 322 324 325 325 324 326 326 326 327
335 335 335 336 338 336 336 335 337 336 335 336 336 335 335 336 336 337 336 335 339 341 336 335 334 334 336 336 336 337 331 331 333 333 335 338 337 337 338 338 333 333 334 333 334 334 332 332 332 333 330 326 322 319 322 322 323 322 326 324 326 327 327
332 332 333 335 335 334 335 335 336 337 337 337 336 336 336 336 337 336 335 335 334 338 334 335 339 335 334 338 334 333 330 332 334 333 336 337 338 338 337 335 336 336 337 337 335 335 335 334 333 333 331 330 326 321 318 319 321 321 324 326 322 324 326
333 334 335 334 334 333 334 334 336 337 338 337 336 336 337 337 337 337 337 336 336 339 339 338 338 336 337 333 333 334 334 335 334 333 334 336 337 337 337 337 334 335 335 337 336 337 337 336 334 333 331 328 332 325 323 319 320 324 324 328 327 322 325
334 334 334 335 335 334 334 334 334 336 337 337 336 335 335 335 337 338 336 335 336 334 337 338 338 338 338 335 334 334 333 333 333 335 335 336 337 336 331 333 335 337 336 336 337 337 338 337 335 334 332 330 329 330 327 323 321 327 328 325 327 327 324
331 330 333 335 336 332 334 334 333 333 335 335 336 335 334 334 336 337 337 335 332 335 337 335 337 336 336 332 331 332 334 335 334 333 333 331 333 334 335 334 331 334 336 336 336 336 336 336 336 332 331 331 332 333 328 324 321 323 328 327 326 326 325
332 333 334 335 334 333 333 333 333 333 333 334 335 334 333 333 335 335 335 334 334 333 331 334 335 335 336 337 334 334 335 335 332 335 334 332 334 335 335 332 332 334 336 335 334 335 334 335 335 334 333 331 330 332 329 327 323 324 327 330 328 323 325
333 332 332 333 332 332 333 333 334 333 333 334 334 333 333 333 335 336 336 336 334 334 333 334 334 334 334 335 336 337 337 334 332 332 335 332 335 334 335 332 331 333 334 334 334 332 333 333 332 331 331 329 334 332 332 326 323 324 323 326 324 324 322
331 332 332 332 328 332 332 333 334 333 333 334 335 334 334 334 335 336 336 335 335 334 334 334 334 332 334 335 335 336 336 334 330 331 332 332 332 333 334 333 333 333 334 333 334 333 333 333 331 328 329 329 326 328 329 328 325 322 321 321 323 320 321
329 329 330 328 330 332 332 333 333 333 334 334 333 335 335 335 335 334 336 335 334 334 334 334 333 333 333 334 335 335 334 332 329 331 331 332 331 333 335 333 333 334 334 333 333 333 333 333 331 328 327 327 328 328 331 331 329 323 321 319 321 318 320
328 329 328 328 329 331 332 331 332 332 334 333 334 334 334 335 335 335 334 334 334 333 333 333 332 332 334 335 336 336 335 331 331 334 333 333 334 334 334 334 333 334 334 333 334 333 332 334 330 329 327 328 328 330 331 330 328 325 322 319 320 321 321
327 328 328 329 330 330 330 331 332 331 332 332 333 333 333 334 334 335 334 333 334 334 334 331 331 332 332 332 333 333 332 330 329 329 334 335 334 335 335 334 334 334 334 333 333 333 334 333 330 330 329 328 328 330 331 330 329 325 323 320 320 319 321
327 327 328 328 331 329 330 330 331 330 331 331 332 333 333 333 334 335 333 332 331 332 333 335 331 330 331 332 332 331 332 332 333 334 336 335 335 335 335 334 335 335 334 334 334 334 334 333 332 331 331 331 330 330 330 328 326 324 323 322 319 320 319
325 326 327 329 329 330 330 330 330 331 331 330 332 329 331 334 332 331 332 334 332 334 334 330 330 330 331 332 332 331 333 336 334 335 337 336 336 336 335 335 335 335 334 334 336 336 335 333 333 333 333 333 331 330 329 327 326 325 323 323 320 318 319
325 326 326 326 327 328 329 330 331 330 330 331 329 329 331 330 333 332 331 332 333 334 334 332 330 330 330 330 328 334 335 334 335 336 336 335 336 335 334 334 335 334 331 321 311 316 319 320 334 332 332 333 331 330 329 328 326 324 324 323 321 322 319
324 325 326 325 326 327 327 327 328 328 329 331 330 330 328 331 328 330 330 330 332 333 332 332 327 318 319 330 333 335 335 336 336 336 335 335 336 336 335 336 327 316 313 311 306 301 301 303 306 325 333 334 331 330 328 327 325 324 324 321 321 320 319
324 324 326 327 326 325 326 327 326 327 328 327 326 326 327 325 326 327 328 328 330 332 332 330 312 308 311 315 327 332 333 335 335 335 335 335 334 335 334 331 328 319 318 314 310 297 297 297 297 298 297 301 310 336 332 327 326 326 323 322 323 322 320
322 323 325 325 325 326 326 326 326 326 327 327 326 326 327 325 325 326 327 328 328 329 332 314 304 303 306 310 317 330 331 332 334 333 333 333 333 332 330 330 330 329 329 327 324 318 306 297 296 296 296 296 295 294 297 324 329 327 326 323 323 323 323
321 322 323 324 324 324 324 323 323 323 324 325 326 325 326 325 323 324 324 323 326 327 324 299 301 301 303 306 310 320 328 329 329 330 331 330 331 331 330 329 330 329 323 318 322 323 320 314 300 299 300 301 301 300 298 296 299 326 328 325 324 322 322
319 320 321 321 321 321 321 319 318 320 322 323 322 321 322 321 321 322 323 323 323 321 317 299 298 299 302 303 306 312 328 329 329 329 329 330 332 332 331 330 328 326 325 326 325 324 322 321 322 324 325 324 323 316 306 305 306 307 318 327 325 325 325
319 319 318 317 316 316 317 316 315 316 316 316 317 318 317 317 317 318 320 321 318 315 308 294 297 297 299 301 304 311 330 330 329 330 330 332 331 331 330 329 328 326 327 327 327 324 326 327 328 328 327 325 323 319 315 313 313 320 327 327 327 327 326
318 318 318 316 314 313 313 314 314 314 314 314 315 316 316 316 316 316 318 318 316 312 307 293 296 297 298 301 304 329 332 332 331 330 329 331 330 330 328 328 328 328 328 328 311 306 318 328 327 326 324 323 321 317 310 298 294 297 309 316 316 314 311
316 317 316 315 314 313 313 314 313 314 312 312 312 312 312 314 315 316 317 318 316 312 307 296 295 297 300 300 312 330 331 329 329 328 327 327 328 327 325 327 329 328 328 326 303 303 307 314 326 325 324 323 321 319 315 312 298 294 293 293 292 292 293
314 315 314 313 312 312 313 313 312 312 310 309 308 309 311 311 312 312 312 314 314 311 310 300 294 295 297 294 308 330 329 328 327 326 324 323 321 319 313 302 318 326 324 322 296 301 300 318 326 325 324 322 320 318 317 315 312 305 294 294 293 293 294
313 313 313 313 313 312 311 312 312 313 311 309 308 309 310 309 309 310 312 313 310 313 312 306 295 295 295 296 316 330 327 325 322 321 321 320 320 319 316 307 299 306 313 303 292 295 296 311 326 324 323 321 317 316 316 315 314 315 316 316 316 317 312
311 312 311 312 313 312 312 312 311 311 311 309 308 309 308 307 306 307 308 309 310 312 311 308 300 294 296 299 300 328 325 322 320 320 320 318 316 315 314 312 303 292 292 293 293 293 294 298 323 324 322 319 316 314 318 319 319 318 317 316 316 315 315
309 310 310 310 310 311 312 311 310 310 310 311 309 307 306 305 304 304 305 306 305 304 306 308 301 294 295 297 300 307 320 319 316 314 314 314 312 309 308 305 303 293 292 292 293 293 295 295 301 319 317 316 315 313 312 317 316 307 316 314 313 311 312
308 308 309 309 308 307 308 309 309 309 309 310 309 308 306 305 304 303 303 303 303 303 301 299 304 295 294 295 296 300 313 313 311 310 308 306 305 304 302 301 300 294 291 292 292 293 293 295 297 306 302 294 294 299 316 315 315 313 312 311 310 308 308
305 306 306 306 306 305 305 305 306 306 306 306 306 307 307 307 306 305 305 304 303 303 302 299 294 298 293 294 294 295 297 303 299 310 306 304 303 302 302 300 297 293 291 291 291 292 293 294 297 297 291 293 294 296 303 311 309 309 308 307 307 306 306
304 304 304 304 303 302 302 303 302 303 304 304 303 302 302 303 303 302 302 302 303 303 303 301 295 293 295 293 293 293 293 293 297 306 307 305 304 302 300 298 294 290 291 291 290 291 291 292 294 291 292 293 296 300 307 307 306 307 304 304 304 305 306

ECMWFFLT1_sfc_thetae_105.txt.gz
Theta_e
338 338 341 341 343 342 342 343 343 344 345 344 343 342 342 341 341 341 340 339 340 341 341 338 336 338 339 339 340 340 340 339 338 333 332 330 329 330 337 334 335 337 335 331 331 328 324 320 322 330 332 332 334 333 334 336 335 334 334 334 334 334 337
339 340 340 340 340 341 340 340 342 342 342 342 342 341 341 340 340 341 339 338 340 340 340 336 335 336 335 335 336 337 339 341 340 337 336 333 333 331 329 330 336 333 333 332 331 330 326 323 324 323 326 333 333 333 334 334 333 335 335 336 336 335 336
338 338 340 339 339 341 336 335 337 340 341 341 342 341 341 341 340 340 339 339 337 337 339 338 339 338 339 339 339 337 338 339 340 338 336 333 333 336 333 333 332 331 329 328 329 328 328 329 322 323 327 325 325 327 332 332 333 333 334 335 335 333 333
338 337 337 339 341 336 333 333 332 336 340 340 341 341 341 341 341 340 340 336 336 337 337 337 335 335 336 338 337 337 339 338 338 337 335 334 336 335 334 336 333 331 329 327 327 328 326 324 325 324 325 325 326 324 332 333 334 331 332 335 331 331 332
338 336 336 337 338 337 335 332 333 336 339 339 341 339 340 341 340 339 339 337 337 337 337 337 337 336 337 338 339 338 337 338 337 337 337 334 334 336 338 336 335 334 333 331 331 329 327 325 327 325 324 325 325 326 328 330 332 331 331 331 330 330 330
338 337 338 338 338 334 333 334 335 335 337 337 337 338 340 340 338 339 339 339 337 338 338 337 336 336 338 337 336 335 335 336 336 333 332 334 332 331 336 337 337 334 334 335 334 332 331 332 329 327 327 328 325 324 327 328 326 330 329 329 329 328 329
337 339 337 336 331 334 332 332 335 336 336 337 337 337 340 339 338 339 340 338 339 337 336 336 336 337 335 335 333 332 331 335 335 333 335 333 333 335 340 338 334 333 333 333 334 333 334 330 325 326 325 327 327 322 326 326 328 325 326 329 328 328 328
337 336 337 335 334 334 336 337 337 337 336 336 335 337 339 340 339 339 339 340 338 337 336 336 336 338 334 333 334 335 336 334 334 334 333 336 337 338 336 334 332 334 333 334 334 333 333 332 328 327 327 322 322 323 322 324 324 325 325 327 327 327 327
336 336 336 338 338 339 338 337 337 338 336 338 339 338 338 339 338 338 337 335 335 336 336 336 337 337 337 335 336 337 335 337 335 333 334 333 335 336 334 333 332 333 335 333 334 335 334 334 333 330 329 325 321 318 321 320 322 324 327 324 326 327 327
335 335 334 336 338 339 339 338 336 338 337 336 337 337 339 338 338 338 337 338 337 337 336 337 337 337 336 336 337 337 337 338 338 336 336 336 334 335 333 332 334 334 335 336 337 334 335 334 332 332 330 330 325 322 319 318 320 322 323 325 321 324 327
335 335 335 335 337 336 337 334 336 337 336 337 336 335 339 338 338 338 336 338 338 338 338 337 337 336 336 337 336 335 337 336 335 335 335 335 333 333 334 333 332 334 336 338 336 337 337 335 334 332 337 331 330 324 322 319 321 324 323 326 325 321 325
335 335 335 335 335 335 334 334 335 335 334 335 336 337 336 337 338 337 337 338 336 336 336 337 336 336 335 335 335 335 335 335 333 333 334 332 333 331 329 327 331 332 339 336 335 335 335 334 336 333 332 331 330 330 327 325 320 324 327 323 325 325 324
333 334 334 333 333 333 333 330 330 331 331 333 336 334 337 336 335 334 338 336 337 337 336 335 334 334 333 333 334 333 334 334 333 333 334 333 332 331 331 329 333 335 336 334 334 334 334 334 335 336 331 332 330 333 328 324 323 322 329 326 326 325 325
333 334 334 334 334 333 331 331 331 332 332 332 333 336 336 335 335 337 336 333 335 336 335 335 334 334 331 331 334 333 333 333 332 332 331 333 332 332 333 330 332 333 335 334 333 334 334 332 332 334 332 334 331 332 328 326 323 323 326 328 326 324 324
333 333 334 337 335 332 331 331 329 331 333 331 333 336 335 336 336 336 336 335 335 335 336 335 334 333 330 331 333 334 333 333 332 331 331 331 331 331 331 330 330 333 334 333 334 331 333 333 333 333 331 330 332 331 334 326 323 325 322 325 324 325 323
332 332 332 333 333 332 332 333 332 330 332 331 332 335 336 335 335 334 333 335 333 334 334 334 336 334 332 333 333 333 333 333 332 331 330 330 330 331 331 332 330 332 335 332 333 333 334 332 333 328 330 329 329 331 328 328 326 324 323 323 325 321 322
330 331 331 331 331 331 332 331 330 329 329 333 331 333 336 334 334 333 333 336 336 335 335 334 333 334 333 334 332 332 331 329 329 329 329 329 330 331 331 332 332 333 332 331 332 334 333 332 332 330 329 329 329 331 330 330 327 325 323 320 321 319 320
329 329 330 331 331 332 332 331 331 330 332 331 332 335 333 335 334 333 331 331 334 332 333 331 332 332 334 334 334 330 326 329 330 330 331 331 332 329 329 330 331 333 333 331 330 333 332 331 330 329 328 327 328 330 330 328 325 324 323 320 320 321 321
327 329 329 330 330 331 332 331 331 332 331 331 332 332 332 331 333 330 332 333 332 333 328 330 331 331 330 330 330 329 328 330 330 330 332 333 330 331 332 330 331 331 334 332 332 332 331 330 329 329 327 327 328 329 327 328 325 324 322 320 320 318 320
326 327 328 328 330 330 331 332 331 330 332 330 330 331 329 330 331 330 331 331 329 331 333 335 335 336 335 333 332 328 330 331 332 333 334 333 332 332 331 330 330 333 333 333 332 333 332 333 330 334 327 331 329 329 328 326 323 322 322 321 320 319 318
326 326 328 329 329 330 330 330 332 330 330 329 328 330 330 329 330 330 330 329 328 330 333 334 334 335 336 335 335 333 331 333 333 333 332 332 331 330 330 332 333 331 331 333 335 333 334 330 328 326 331 330 330 329 327 326 324 321 321 320 318 317 318
326 327 328 328 328 329 329 330 332 331 331 330 329 328 329 329 330 330 330 331 329 331 332 333 333 334 334 333 336 334 333 332 334 331 330 329 330 329 329 333 332 334 332 323 316 320 324 323 329 329 326 327 327 328 326 326 324 322 322 321 319 320 317
325 326 327 327 328 328 329 329 330 330 330 330 328 328 330 330 329 329 329 330 331 331 331 332 328 321 324 333 333 334 332 332 331 330 328 330 330 329 333 332 327 318 314 312 308 305 304 306 313 328 328 327 326 328 327 325 323 323 322 320 319 318 317
323 324 326 327 327 327 327 327 328 329 330 329 327 327 328 327 326 328 328 328 329 329 330 329 309 307 309 315 328 331 331 331 330 328 328 327 327 329 331 329 326 320 317 314 309 298 299 298 298 298 299 302 314 334 326 329 324 328 322 321 320 318 317
322 322 324 324 325 325 325 324 325 326 327 328 328 327 327 327 327 327 328 327 328 330 330 316 304 303 306 307 316 331 330 328 326 327 327 328 328 330 331 331 331 332 331 330 323 317 306 298 297 297 297 298 298 298 302 324 328 324 324 321 323 323 321
320 321 321 322 323 323 322 322 322 322 323 325 326 326 327 327 327 327 326 326 326 326 320 297 300 300 303 304 306 319 328 328 329 327 330 329 331 332 330 329 331 332 327 325 328 327 322 315 301 300 302 304 304 302 300 299 304 327 329 327 322 322 322
319 320 320 320 321 320 320 319 319 320 320 322 322 321 323 323 324 324 325 324 322 316 311 298 294 296 298 301 305 312 327 328 328 330 329 330 331 330 329 331 328 327 327 328 329 326 324 323 323 325 326 326 325 317 307 304 306 309 320 328 326 323 326
318 318 319 318 318 318 317 317 317 317 317 317 318 317 318 318 319 319 319 319 317 313 307 294 294 294 295 297 299 307 327 328 327 329 331 331 330 331 329 329 330 328 328 327 328 325 325 325 326 327 325 321 318 314 311 310 312 322 329 328 326 323 320
317 317 317 317 316 316 316 316 315 315 315 316 317 317 316 317 317 318 318 317 314 311 307 294 294 295 296 297 297 327 331 327 327 328 329 329 326 329 331 329 327 326 326 327 308 304 317 328 327 325 321 319 317 313 307 298 295 299 310 315 315 313 311
315 315 316 315 315 314 314 314 315 315 314 313 313 313 313 313 315 315 314 315 313 310 308 297 293 293 294 292 309 328 328 326 327 328 328 325 323 320 317 326 327 326 327 321 298 294 294 313 326 323 322 321 319 316 313 310 299 295 295 295 295 295 296
314 314 314 314 314 313 313 314 314 315 313 312 310 310 311 312 312 311 310 311 312 309 307 300 294 294 296 295 302 326 323 320 325 326 326 325 322 317 311 302 320 326 321 314 294 294 295 322 324 324 323 320 319 316 314 314 313 307 296 296 295 296 297
313 312 312 313 314 313 312 312 313 314 313 312 310 310 310 309 309 307 306 305 304 306 306 302 295 294 295 297 310 324 323 322 323 324 323 321 319 317 312 305 298 300 305 299 293 295 297 314 325 322 322 321 318 317 317 317 315 315 315 314 313 314 311
312 311 311 311 311 312 312 312 312 312 311 311 310 310 309 309 307 306 306 304 302 301 303 303 298 293 295 297 301 321 322 322 320 319 320 317 315 312 310 307 301 292 293 293 293 294 295 300 321 322 322 320 318 315 318 319 320 319 319 315 315 316 315
310 310 311 311 310 310 310 310 310 311 310 310 310 309 309 308 308 307 306 305 303 301 300 301 300 293 294 295 298 306 315 314 311 310 309 306 307 306 305 303 301 294 292 293 293 293 295 296 300 312 312 312 311 312 312 317 317 308 314 313 313 313 314
309 309 309 309 309 307 308 308 308 307 307 309 309 309 309 309 308 307 307 306 304 302 300 297 299 295 293 294 295 298 308 309 309 307 303 302 301 301 301 300 299 294 291 292 293 294 294 295 296 306 302 295 295 297 315 316 315 314 312 311 310 309 309
305 307 306 305 305 304 305 306 307 307 306 305 305 305 305 306 306 305 305 305 305 304 302 299 294 296 293 293 294 294 296 301 299 306 303 301 301 300 300 300 298 293 291 291 292 292 294 295 297 298 293 294 295 297 303 310 310 310 309 308 307 307 306
304 304 304 303 302 302 303 303 304 305 305 304 303 302 302 302 302 302 302 303 304 305 305 303 296 293 293 291 293 293 293 293 296 301 301 299 299 297 297 297 295 292 292 293 293 292 292 293 295 293 293 293 295 300 308 307 307 308 304 304 304 305 306

ECMWFFLT1_sfc_thetae_108.txt.gz
Theta_e
339 342 344 345 345 344 342 342 342 344 344 342 342 341 341 341 340 339 339 336 335 335 335 334 334 334 334 334 335 335 334 332 331 329 328 330 325 328 333 331 333 332 331 330 330 324 321 318 320 326 330 329 330 331 331 332 332 331 331 331 333 333 334
340 343 342 343 344 342 340 341 342 341 343 343 342 341 341 340 339 340 339 338 336 334 334 333 334 334 332 332 332 333 332 332 332 331 330 329 329 329 329 330 331 329 330 331 329 329 324 320 319 321 322 327 328 329 330 332 331 332 332 332 334 332 332
340 342 341 341 339 340 339 341 340 342 342 343 342 341 341 340 340 339 339 338 337 337 335 334 334 333 333 332 332 332 332 331 332 331 330 331 330 332 332 330 328 327 328 328 327 327 326 326 320 320 322 322 321 324 329 329 331 331 332 332 332 333 332
338 338 338 336 337 336 336 337 338 338 340 340 341 341 341 340 340 340 339 339 338 338 338 337 334 333 334 334 333 332 331 331 332 331 331 331 331 332 331 331 328 327 324 325 325 326 324 323 322 321 323 323 323 322 327 330 330 331 334 332 330 331 330
338 337 336 332 332 331 333 336 339 339 336 337 340 340 340 340 340 340 339 339 338 336 336 337 336 335 335 335 333 332 332 333 334 331 331 329 331 330 331 329 328 329 328 325 327 328 324 325 323 321 322 323 323 324 328 329 330 330 330 331 329 329 328
338 338 335 335 335 331 331 333 335 335 336 336 337 335 335 334 334 338 338 337 337 336 336 336 336 336 336 335 333 332 332 332 333 332 332 332 332 329 330 331 330 329 328 330 333 330 330 331 327 322 323 324 320 321 326 327 326 327 329 329 328 328 327
338 337 339 334 334 334 333 333 334 334 334 335 335 330 331 335 335 338 339 338 336 336 336 337 336 336 336 336 334 333 333 333 334 334 333 333 332 332 334 330 330 329 331 333 333 332 328 326 325 323 322 322 323 321 324 324 326 323 325 327 327 326 326
338 337 336 337 337 336 336 335 335 336 335 335 334 333 333 332 332 334 337 337 337 334 334 335 336 336 335 335 334 333 333 334 334 333 333 333 331 330 331 331 331 333 332 332 332 331 330 328 327 324 323 319 318 320 320 323 322 323 322 324 326 325 325
336 336 335 336 337 339 338 337 335 336 336 336 334 333 332 333 332 332 334 335 336 335 335 335 334 335 335 333 333 332 331 334 333 332 332 332 331 331 330 334 333 332 333 333 332 333 331 331 333 327 324 323 318 314 319 318 319 320 325 321 323 324 325
335 334 334 335 336 336 337 338 335 335 336 335 333 331 329 331 331 333 332 333 335 333 332 334 334 334 334 333 333 332 331 332 331 331 332 331 330 332 333 332 331 332 333 334 336 335 330 329 331 334 330 326 323 318 315 315 317 318 321 322 319 321 324
334 334 335 335 336 335 335 336 336 334 332 334 331 331 331 331 331 332 332 331 332 332 333 333 334 333 333 332 332 333 331 331 329 329 331 331 330 333 333 332 332 332 333 335 332 332 336 330 330 329 329 330 328 323 319 315 316 320 319 321 322 320 323
334 334 334 335 334 333 333 334 334 334 333 333 332 330 329 327 330 332 332 330 332 333 332 332 333 334 333 332 332 333 332 331 329 328 331 330 332 332 331 331 331 331 332 333 332 332 334 333 330 328 329 331 325 324 323 320 316 320 322 319 320 323 323
332 333 333 333 333 332 333 332 332 331 332 332 332 331 330 330 330 330 330 331 331 331 333 334 334 333 334 331 332 330 331 333 332 330 330 331 332 331 330 329 329 329 331 332 332 333 332 333 332 329 329 327 327 327 325 321 318 318 326 322 321 322 323
331 331 332 333 333 332 333 333 332 332 331 331 331 331 330 329 329 330 331 328 328 330 332 332 333 331 331 331 330 330 329 330 330 331 331 331 331 330 329 328 328 329 331 331 331 332 331 332 333 331 329 328 326 329 323 320 318 320 323 327 324 321 322
330 331 331 331 331 331 332 332 332 332 331 331 331 330 330 329 329 329 329 330 330 331 331 331 330 330 330 330 330 330 330 331 328 330 331 330 330 330 330 329 329 330 331 331 332 331 330 331 331 329 329 329 328 329 327 324 321 319 319 322 323 326 321
328 328 329 330 331 330 330 331 331 330 329 329 331 329 330 329 328 329 331 330 329 330 331 328 332 333 331 330 329 329 329 329 327 329 329 330 330 330 330 329 328 329 331 330 331 330 331 330 329 328 328 328 328 327 328 326 322 320 319 319 322 319 317
326 327 327 328 329 330 330 331 331 331 330 331 330 331 332 330 328 330 330 329 329 330 330 331 331 332 330 330 330 328 330 329 331 330 330 330 330 330 328 327 328 328 329 327 329 331 330 329 329 327 328 325 326 329 329 327 326 322 320 318 319 317 318
325 326 326 327 328 330 330 331 331 329 330 330 329 329 331 331 330 331 330 330 329 330 329 329 328 330 329 328 329 329 329 329 330 330 330 330 331 330 327 327 329 328 327 327 327 328 328 329 328 327 326 326 326 326 327 327 326 326 321 319 318 319 317
324 326 327 327 329 330 330 329 329 329 329 328 330 331 330 330 331 331 329 330 330 330 329 329 331 330 330 329 329 329 329 329 329 330 330 330 330 331 329 329 329 329 329 327 327 325 326 325 326 325 327 328 326 323 324 325 325 322 322 319 317 314 315
325 326 327 328 329 329 329 330 329 328 329 329 329 328 329 329 330 329 330 331 330 330 328 328 328 328 329 330 329 328 327 327 330 329 330 332 332 331 330 328 325 326 327 327 327 327 327 329 325 324 326 325 325 326 322 322 322 320 319 317 316 315 315
325 325 327 327 328 328 328 328 330 330 330 329 328 328 329 329 329 329 329 330 330 330 330 330 329 328 330 330 329 329 328 328 329 331 331 330 330 330 329 328 326 326 327 327 327 326 329 326 326 326 326 326 325 322 324 324 322 319 318 317 315 313 314
324 324 325 325 325 325 325 326 327 327 328 328 328 328 328 330 331 331 331 330 329 329 330 331 330 330 331 330 329 328 329 329 328 329 330 330 330 329 329 330 328 329 328 329 320 321 324 324 326 325 325 326 325 323 324 323 323 317 316 317 314 315 312
322 322 322 322 322 323 323 323 324 324 326 327 327 327 326 328 328 329 329 329 330 330 329 330 324 319 320 329 328 328 328 327 327 328 329 329 327 326 327 330 328 326 319 317 315 311 310 314 321 326 326 326 325 325 324 324 321 320 317 316 314 313 311
320 320 320 321 321 320 319 319 319 320 321 323 325 324 326 327 326 327 326 326 326 327 320 307 297 298 305 313 328 328 328 327 328 328 328 328 326 326 327 324 318 317 315 313 311 303 300 301 302 300 301 309 318 328 323 319 323 321 322 320 318 314 311
318 318 319 319 319 318 318 317 317 317 318 319 322 323 323 323 324 324 323 319 316 314 311 300 295 296 296 297 304 324 328 326 327 326 327 327 326 325 325 323 322 323 322 317 312 307 303 299 298 299 300 300 299 298 304 320 322 320 321 318 319 319 317
317 317 317 318 318 317 316 315 315 315 315 317 318 319 319 319 318 319 318 316 312 311 307 297 295 296 295 295 294 307 329 328 328 326 324 325 326 326 325 325 325 326 323 320 319 314 310 306 302 302 304 305 304 301 298 298 306 323 325 323 320 318 320
316 316 316 316 315 315 314 314 315 314 314 315 315 315 317 316 316 316 315 313 311 308 303 296 294 296 296 296 294 303 324 329 328 327 326 326 326 326 326 325 325 323 322 323 320 317 315 314 316 321 318 315 312 308 303 302 306 309 316 322 321 319 321
315 315 315 315 314 314 314 314 314 313 312 312 312 312 313 314 313 313 313 312 310 307 301 294 295 295 295 296 298 309 324 325 325 324 324 324 324 326 326 326 326 324 324 324 322 319 319 321 321 317 313 310 307 305 303 304 311 318 320 320 314 312 311
313 313 313 313 313 313 313 313 312 312 311 310 311 310 308 307 307 307 309 310 309 307 303 294 295 296 296 296 307 323 323 323 323 323 317 314 311 311 320 322 321 322 319 313 303 307 316 322 317 314 311 310 308 305 302 299 298 303 309 311 309 307 304
311 311 311 312 311 311 312 312 312 312 310 310 309 309 307 305 305 304 303 304 305 304 302 296 294 296 297 299 311 320 321 322 321 316 313 311 309 305 304 313 321 317 312 309 299 302 306 312 318 316 313 311 310 308 306 305 298 297 297 297 296 296 296
310 310 310 309 310 310 311 312 311 312 310 309 308 308 308 306 306 304 301 301 302 302 301 297 295 296 298 302 311 320 319 320 318 312 310 309 307 305 303 301 304 305 306 306 297 298 304 316 319 316 314 312 310 309 309 309 307 302 296 296 297 297 298
309 309 309 308 309 308 309 309 311 311 311 310 309 308 307 306 305 304 302 301 300 300 300 298 294 295 297 300 312 318 318 315 313 311 308 305 304 303 302 300 298 297 299 297 294 296 300 314 321 318 316 314 312 311 311 312 312 311 311 312 312 312 309
307 307 308 307 308 308 308 308 308 309 310 310 309 308 307 306 304 303 302 300 299 298 299 298 295 294 296 298 302 310 309 307 304 303 304 303 301 301 300 299 297 292 292 293 293 295 295 299 310 312 316 315 313 312 315 315 316 315 312 312 311 310 309
305 305 306 306 307 307 307 307 307 306 306 307 307 307 306 306 305 304 303 302 300 298 298 297 296 293 294 295 298 303 306 305 303 302 301 300 299 298 297 297 297 294 292 293 293 293 294 295 298 303 303 303 305 309 309 312 310 307 311 310 309 308 307
304 304 304 305 305 305 306 306 305 305 304 304 304 303 304 304 304 304 304 303 302 300 298 296 296 293 293 294 294 297 302 302 301 300 299 298 298 297 297 296 295 294 293 293 293 293 293 294 295 301 296 294 296 299 308 308 309 308 307 306 305 304 304
300 301 301 302 302 302 303 304 304 303 302 302 301 301 301 302 302 301 302 303 303 303 301 299 295 295 292 292 293 293 294 296 295 300 297 296 297 296 297 297 297 295 293 293 293 293 293 294 296 296 294 295 295 297 301 306 306 306 304 304 303 303 303
300 299 299 299 299 298 299 302 302 301 301 300 299 299 299 300 300 300 299 300 301 302 303 303 298 295 294 292 292 292 292 293 294 298 298 296 296 296 296 296 295 293 293 293 293 294 293 293 294 293 294 295 297 298 304 304 303 305 303 302 302 303 302

ECMWFFLT1_sfc_thetae_111.txt.gz
Theta_e
332 333 335 336 335 336 335 336 336 337 338 338 337 336 335 331 329 329 331 329 330 332 333 332 333 333 332 332 332 333 332 331 330 326 324 327 324 324 327 326 327 329 326 324 322 320 319 317 320 326 326 327 326 327 328 328 328 328 328 329 331 331 330
333 333 335 336 334 334 333 334 335 336 337 335 334 334 333 330 330 331 330 330 329 331 333 332 331 332 332 331 331 331 330 330 330 328 327 326 326 325 324 324 326 325 324 326 324 322 318 317 318 320 321 326 326 327 326 328 329 328 329 329 331 332 330
332 332 333 334 332 332 330 330 331 333 333 332 331 332 330 331 330 330 331 330 329 332 333 331 331 332 332 332 331 331 331 330 330 329 327 327 328 327 327 326 323 324 323 324 321 321 321 322 318 319 321 320 319 324 326 326 326 327 329 329 330 331 331
331 330 330 329 327 327 328 330 330 332 333 331 328 328 328 332 331 331 330 330 331 333 330 329 330 328 330 331 331 332 331 328 329 329 328 328 328 327 327 327 325 324 322 320 322 321 319 319 319 318 320 322 322 321 324 325 325 328 329 329 329 329 329
333 331 330 329 327 326 325 327 330 331 332 330 327 328 329 329 328 330 331 331 332 332 330 330 331 331 330 330 329 330 330 328 330 329 328 328 328 327 327 328 327 327 325 325 325 324 321 320 321 319 319 322 322 321 324 323 326 328 328 328 328 328 329
335 335 333 331 330 328 327 326 326 327 329 328 325 325 326 327 328 328 328 330 331 331 330 329 330 332 331 330 330 329 328 328 329 329 328 328 327 326 326 328 328 327 326 325 326 326 324 324 322 319 321 323 318 320 323 323 322 327 328 328 328 328 328
333 331 329 331 331 329 329 327 327 327 327 327 326 325 326 327 328 330 331 329 329 329 329 328 330 331 331 330 331 329 329 329 330 329 328 329 328 327 328 327 327 327 326 327 326 327 325 324 321 321 320 320 321 320 322 323 325 322 325 327 328 327 326
328 328 328 332 333 333 330 329 329 327 327 327 325 327 327 327 327 327 327 328 329 330 330 329 330 330 331 331 332 330 329 329 330 330 328 328 328 327 327 327 327 327 326 329 328 328 328 326 324 323 321 317 317 319 319 321 322 322 321 324 327 326 324
327 327 327 328 329 330 329 329 327 327 327 328 326 327 328 327 327 327 327 327 328 330 330 330 330 329 330 331 330 330 329 330 329 330 329 329 328 328 328 328 327 327 328 329 330 329 328 327 326 325 323 321 317 313 317 317 318 319 324 322 324 325 324
329 328 328 328 328 329 327 327 327 327 327 327 326 325 326 327 327 327 326 327 328 329 330 330 330 330 330 329 328 329 329 330 329 328 329 329 328 328 328 328 327 328 330 330 330 330 328 328 327 326 326 322 320 317 314 314 315 316 321 323 320 321 326
328 328 328 329 329 327 326 325 326 326 325 326 327 326 325 326 327 328 327 327 327 328 328 328 327 327 328 329 330 330 329 328 328 328 329 328 326 326 327 328 329 329 330 330 329 328 327 327 327 326 325 325 323 318 317 314 313 317 319 322 320 318 324
326 327 328 327 327 326 326 325 324 324 324 325 327 326 325 326 327 326 326 327 328 328 329 329 328 326 328 329 330 328 328 328 327 327 327 328 327 327 327 328 328 328 330 330 328 328 328 327 326 327 325 325 323 321 318 316 313 316 321 317 318 322 324
328 327 327 326 326 326 325 326 326 324 325 326 326 327 327 326 327 326 327 326 327 327 327 329 327 327 328 329 329 326 327 327 326 326 326 328 328 328 328 329 328 328 329 329 328 328 328 328 327 326 326 324 323 324 322 318 316 316 319 317 318 322 325
324 325 325 325 325 325 325 325 326 326 327 326 326 326 326 326 325 325 326 327 327 326 324 325 328 329 328 329 327 326 328 328 326 326 327 327 328 328 328 328 328 328 329 328 328 328 328 329 327 325 326 325 324 324 322 318 317 316 317 322 320 321 324
322 322 322 322 323 324 324 325 325 326 325 326 326 326 325 325 325 326 325 325 326 326 326 327 327 326 325 326 327 328 326 326 327 327 328 326 328 328 327 327 327 328 329 328 328 329 328 328 328 326 325 324 324 323 323 319 317 316 316 319 318 321 321
322 322 322 321 322 323 324 325 326 325 325 326 326 326 326 326 327 326 326 326 326 326 326 327 326 325 325 326 326 326 325 325 325 326 326 328 328 328 327 326 326 326 328 328 328 329 328 328 328 325 324 325 323 323 323 323 319 317 317 316 318 317 317
322 322 322 322 322 323 326 325 326 325 325 325 325 326 326 327 327 326 326 326 326 325 326 326 325 328 327 326 326 326 325 325 325 325 326 328 328 327 326 326 325 326 327 326 327 325 326 324 323 322 324 323 323 323 323 324 322 319 317 316 316 316 315
322 323 323 324 324 325 326 326 326 325 325 325 326 326 326 327 327 327 326 326 327 327 326 326 326 325 325 325 327 325 325 325 325 325 326 327 329 328 326 325 326 326 325 325 323 322 324 323 324 323 323 323 323 323 324 323 323 321 318 316 315 316 316
321 322 322 324 324 324 324 325 325 325 325 325 327 327 326 326 326 326 325 326 325 325 325 325 324 324 325 325 325 325 325 326 325 325 326 326 326 326 325 324 326 326 325 324 322 323 324 323 323 322 322 323 323 321 321 321 322 320 320 319 315 312 313
320 320 321 321 321 320 320 321 321 322 324 326 326 325 325 325 326 325 324 325 325 325 324 325 324 324 325 325 325 325 325 324 324 324 325 327 326 326 326 325 325 326 325 324 323 323 322 322 322 322 323 323 323 320 319 320 321 320 318 317 315 312 311
319 319 320 319 318 317 318 318 319 320 321 323 323 323 324 325 326 327 325 324 325 326 326 325 324 324 325 326 325 324 323 324 324 325 325 325 326 326 326 325 324 325 325 325 324 323 324 322 322 322 322 322 321 320 319 318 319 319 318 317 313 310 310
319 319 319 317 316 316 316 317 317 317 318 320 322 321 323 324 322 322 320 320 321 322 322 324 325 324 323 325 324 324 323 323 324 324 324 325 325 325 325 325 324 324 326 327 320 321 322 321 322 321 320 321 321 320 319 318 317 318 317 315 311 312 310
317 318 317 316 315 315 315 315 315 316 316 318 319 319 319 319 318 315 315 316 315 312 310 308 306 308 315 323 324 324 323 323 323 323 323 324 324 324 324 325 326 326 322 320 315 314 311 312 317 322 322 321 320 319 319 319 317 317 316 313 311 310 308
316 315 315 314 314 315 314 314 313 314 314 315 316 316 316 315 315 314 313 312 311 310 307 304 297 295 297 304 324 322 322 321 322 323 323 323 320 321 321 320 318 321 319 318 314 308 307 307 308 309 312 315 318 321 320 319 319 317 314 312 311 310 308
315 314 314 313 314 314 313 312 311 311 311 311 311 312 312 312 312 312 311 309 307 307 305 300 294 296 297 297 306 322 323 322 322 322 323 322 322 321 319 319 319 320 318 316 311 308 302 299 301 301 303 304 307 308 310 318 317 316 315 313 312 310 308
313 313 313 313 314 313 312 311 310 310 309 308 308 306 306 306 306 309 310 309 307 304 303 297 294 296 296 297 303 317 323 322 321 320 321 322 321 320 319 319 321 320 318 317 314 310 309 307 302 301 301 302 301 298 299 304 310 319 319 316 316 314 314
311 312 312 312 313 312 311 310 310 310 309 307 306 305 304 303 303 304 306 307 307 305 302 297 294 298 301 301 305 312 320 316 313 312 312 314 319 322 321 320 319 318 319 317 315 316 318 316 314 312 310 309 308 306 302 301 302 305 312 318 316 311 310
310 311 311 311 311 311 310 310 309 309 308 307 305 304 303 302 302 302 303 305 305 304 302 295 296 302 304 305 305 308 314 312 310 308 307 307 307 312 318 321 319 318 318 318 318 318 318 314 312 309 307 306 305 304 304 307 312 313 311 310 309 309 309
309 309 309 309 309 310 309 309 308 308 307 306 306 305 303 302 301 300 301 302 303 302 302 295 296 302 303 303 305 312 311 309 307 305 304 303 303 304 306 309 311 311 312 313 310 306 309 313 311 309 307 306 305 304 302 300 299 302 306 306 305 304 302
308 308 308 307 307 307 308 309 309 308 306 305 304 303 302 301 300 299 299 300 300 301 300 297 295 301 302 303 305 310 308 306 304 303 303 302 301 301 302 304 304 304 303 303 298 298 302 307 311 309 308 306 306 305 303 303 298 296 296 296 295 295 295
307 306 306 306 306 306 307 308 309 308 306 305 303 303 302 301 300 299 298 298 299 298 298 297 295 298 300 301 306 309 307 305 303 302 301 301 301 300 300 301 303 300 299 298 295 297 301 308 310 309 308 307 306 305 305 306 306 302 297 297 297 297 297
305 305 305 305 305 305 305 305 306 307 307 306 305 304 303 301 300 299 298 298 300 298 297 297 294 295 297 299 304 306 305 303 301 301 300 299 299 299 299 299 298 297 297 295 293 294 296 307 314 311 309 308 306 306 306 308 309 308 308 306 305 305 303
304 304 304 304 305 304 305 304 304 304 304 304 304 304 303 302 300 299 299 298 297 297 296 296 295 293 295 296 298 305 304 301 299 298 299 299 298 298 298 297 297 293 293 293 293 293 294 296 305 308 311 310 308 307 309 311 310 307 306 305 304 304 303
301 302 303 303 303 303 303 303 303 303 302 303 302 302 302 301 301 300 300 299 298 297 297 296 294 293 293 294 295 298 300 299 299 298 297 296 297 296 296 296 296 293 292 293 293 293 294 294 297 302 301 302 303 304 305 307 306 304 306 304 303 302 302
300 300 301 301 301 301 302 302 302 301 301 301 300 299 299 299 299 299 299 299 299 298 298 297 296 294 293 293 293 295 297 297 298 298 296 296 296 296 296 296 295 294 292 292 292 293 293 294 295 300 297 294 295 296 305 304 304 303 303 302 301 301 301
298 299 299 299 299 298 300 300 300 300 299 299 298 298 298 297 297 297 298 298 299 299 298 298 295 295 293 293 293 293 294 295 295 298 296 295 295 295 296 296 296 294 292 292 292 292 293 294 296 295 293 294 295 296 300 303 302 302 302 301 301 300 300
297 297 298 298 298 298 298 298 298 298 297 296 296 296 296 297 296 295 295 296 297 298 299 299 296 294 295 293 293 293 293 293 294 296 297 296 296 296 296 295 295 293 293 293 293 293 293 294 295 293 294 294 295 297 302 301 301 300 299 299 299 299 299

ECMWFFLT1_sfc_thetae_114.txt.gz
Theta_e
328 330 332 333 334 333 331 331 331 331 332 333 333 331 331 330 329 328 328 328 329 329 331 333 333 334 334 334 334 334 333 332 330 327 325 325 323 322 326 325 325 326 325 323 321 319 317 315 317 324 327 326 327 327 326 326 326 326 327 327 328 327 327
329 331 332 332 329 328 328 329 330 329 329 328 330 331 329 329 329 328 328 329 329 329 330 331 332 333 333 333 332 332 331 331 330 329 327 326 325 323 323 324 324 324 323 323 323 321 319 317 318 319 320 324 325 327 327 327 327 327 327 327 329 329 327
326 327 329 328 327 327 328 327 328 327 328 328 328 330 329 329 328 328 327 327 328 329 330 329 331 332 332 333 333 332 332 330 330 329 327 327 326 326 325 324 322 322 321 320 321 320 319 321 318 319 321 319 318 322 327 327 326 326 327 327 328 329 328
327 327 327 327 325 324 323 324 325 328 327 327 326 326 326 327 326 328 327 327 327 328 329 329 329 330 331 332 332 332 332 330 329 328 327 327 327 326 326 325 323 323 321 319 319 320 319 316 317 320 321 322 321 320 324 327 327 327 327 327 328 328 328
331 330 328 326 326 324 324 324 324 325 327 325 325 325 324 325 326 326 328 328 328 328 327 328 329 330 330 330 330 329 330 330 330 328 327 326 326 326 326 326 325 325 324 323 323 323 321 319 319 319 320 322 322 322 325 326 327 326 326 327 328 329 329
334 333 331 328 327 326 326 325 323 324 323 324 323 323 324 324 325 325 326 326 327 329 329 329 330 331 330 329 328 328 327 328 328 328 327 326 326 326 326 327 327 326 325 325 326 324 323 322 320 318 320 323 319 321 323 324 322 325 327 327 328 329 329
332 331 330 330 330 329 328 325 324 324 324 324 323 323 324 324 325 326 326 326 327 327 328 328 329 330 329 329 328 326 327 328 328 328 327 327 327 327 327 326 326 326 326 327 327 325 322 321 319 319 320 321 320 320 323 323 324 322 325 328 328 328 328
328 328 328 328 328 327 327 327 326 324 325 325 324 325 325 324 324 324 325 325 326 327 327 327 327 328 329 329 329 328 328 328 327 328 328 328 327 326 326 326 326 327 327 327 326 326 325 324 322 321 321 317 317 320 319 322 322 322 323 325 327 326 326
325 324 324 325 324 323 324 323 324 323 325 324 324 325 325 325 324 324 324 325 326 326 327 327 327 327 328 327 327 328 327 329 328 328 327 328 327 327 326 326 326 326 327 327 327 327 326 325 323 323 323 320 317 315 318 318 319 320 324 322 325 326 324
323 322 322 323 324 324 323 323 322 323 322 323 324 323 325 326 325 325 324 325 326 327 327 328 328 328 328 327 326 327 327 328 328 327 328 328 327 327 326 326 325 325 326 327 328 327 327 325 325 325 324 322 321 318 315 315 317 318 321 323 320 322 324
325 325 325 324 325 325 323 323 323 323 323 324 324 324 325 325 325 327 325 325 325 326 327 328 329 328 327 327 327 327 328 329 328 327 328 328 327 327 326 327 326 326 327 326 326 327 326 325 325 325 324 324 323 319 318 316 316 318 318 320 321 318 323
321 320 321 320 320 321 322 321 322 322 323 323 324 324 323 324 324 324 326 326 326 326 327 327 327 326 325 324 325 326 327 328 328 327 327 327 327 327 326 326 327 326 327 326 326 327 326 325 325 325 325 324 323 322 319 318 313 315 319 318 319 322 324
320 320 320 319 320 320 321 322 322 322 323 324 323 323 323 323 324 326 327 326 326 327 327 327 327 327 326 325 325 326 327 327 327 326 326 327 328 327 326 326 326 327 327 327 327 326 324 324 326 325 324 323 322 322 321 318 315 315 318 319 317 321 324
318 319 319 319 319 321 323 323 322 323 323 323 323 323 323 324 324 324 324 325 325 325 325 325 326 327 326 325 326 327 327 327 326 325 325 325 327 326 326 326 326 327 328 327 326 325 325 325 325 325 323 322 320 321 320 318 315 315 316 318 319 321 324
320 321 320 320 321 323 325 324 323 323 321 322 322 323 323 323 323 324 324 324 323 324 325 326 325 326 326 326 326 327 326 326 325 325 325 325 325 326 325 325 326 327 327 327 326 326 326 326 325 324 323 323 322 321 321 319 317 316 315 316 318 322 322
322 323 322 322 322 323 323 323 323 322 322 323 323 323 324 324 324 324 324 324 324 325 326 327 327 326 326 327 327 326 326 326 325 324 324 324 325 326 324 324 325 327 327 326 325 326 326 326 325 324 323 323 322 322 323 323 319 316 316 314 318 320 320
321 321 320 319 318 318 318 320 322 322 322 323 323 324 325 324 324 325 325 325 325 325 326 326 326 327 327 326 326 326 325 325 325 325 325 325 325 325 324 323 323 324 324 324 324 324 325 325 324 324 323 322 322 322 321 321 322 318 317 315 316 319 320
319 318 317 317 315 315 316 318 320 320 321 322 322 323 324 324 325 326 324 323 323 324 326 326 326 326 325 325 326 326 325 324 324 325 325 325 328 327 326 324 324 324 324 323 323 322 322 323 324 323 322 322 322 322 322 321 321 320 317 316 315 317 318
316 315 315 314 313 314 315 316 318 319 320 321 321 322 322 323 323 322 322 322 323 325 325 326 326 325 324 324 324 325 323 323 323 324 324 325 326 327 326 325 325 325 324 322 322 323 322 322 323 322 321 322 322 321 321 320 320 320 319 317 315 312 316
315 314 313 312 313 314 315 316 316 317 318 319 318 318 318 317 317 317 317 319 320 323 325 325 324 324 325 325 325 324 322 323 324 324 324 324 324 324 325 325 324 325 324 322 322 322 322 321 322 321 321 321 321 320 320 320 320 319 318 316 315 314 314
315 314 313 312 313 314 314 314 315 315 316 316 316 316 315 315 314 314 314 315 315 315 315 317 318 320 323 324 323 323 323 323 323 323 323 323 323 322 323 324 323 324 323 323 323 323 323 321 321 320 319 322 321 319 318 319 319 318 317 316 314 312 311
314 313 313 313 313 312 312 312 313 312 312 312 313 313 313 313 312 311 311 311 311 311 310 309 309 308 314 323 322 321 320 321 321 321 321 322 322 323 323 322 322 322 324 324 320 320 320 320 321 319 320 321 320 319 317 317 318 317 317 316 313 311 309
313 313 313 312 311 311 311 311 310 309 308 308 308 309 309 309 310 310 310 309 309 309 308 307 306 301 300 315 323 322 321 321 321 320 321 322 322 322 323 323 323 325 321 319 314 311 311 311 315 321 321 321 319 319 318 317 317 317 316 314 313 311 308
313 312 313 312 311 310 310 309 308 307 307 306 306 306 306 305 306 307 308 308 307 306 306 304 297 295 297 308 322 322 321 320 321 321 320 320 320 320 319 319 318 321 319 318 314 306 307 306 306 309 311 315 317 320 318 316 317 317 316 315 313 310 309
312 312 312 311 310 310 309 308 307 306 306 305 305 304 303 303 303 304 306 307 307 305 304 301 295 299 302 303 310 318 316 316 317 319 320 321 319 318 318 318 318 319 319 318 313 310 310 306 303 301 301 305 309 311 308 314 317 316 316 314 311 311 309
311 310 311 310 310 309 308 307 306 305 304 305 304 302 302 302 302 302 304 305 306 305 303 298 298 300 300 300 301 308 309 309 308 307 307 311 317 318 318 318 316 316 316 318 317 312 312 307 300 299 299 300 300 299 295 296 302 316 317 315 313 311 310
309 309 310 310 309 308 307 305 305 305 304 303 302 301 301 300 301 301 302 304 305 304 301 298 298 298 299 299 299 303 307 306 304 303 304 304 306 309 316 317 315 313 314 315 315 315 314 313 312 311 310 310 310 307 303 302 299 304 311 316 315 312 309
308 308 308 309 308 307 306 305 304 304 303 302 301 300 300 299 300 300 301 303 303 303 300 296 296 297 298 298 298 301 306 304 304 303 302 302 302 304 305 310 314 315 314 313 311 312 313 312 310 308 306 305 303 303 302 304 309 311 310 309 309 309 308
307 307 307 307 307 306 305 304 303 303 302 302 301 300 300 299 299 299 300 301 301 299 298 294 295 296 297 298 299 305 304 303 302 302 301 301 301 302 303 305 307 308 309 308 302 299 305 311 309 306 305 304 303 301 299 298 296 299 303 304 305 304 302
306 306 306 305 305 305 305 305 304 304 302 301 300 299 298 298 299 298 299 299 299 298 297 294 293 295 296 298 301 304 303 302 301 301 300 301 301 300 301 303 303 304 303 303 299 298 299 305 308 306 305 304 303 302 301 301 297 295 295 295 295 295 295
304 304 304 304 303 304 304 304 304 304 302 300 299 298 298 298 298 298 298 298 298 297 296 295 293 294 295 296 301 304 303 302 301 301 300 300 300 300 300 300 302 300 299 298 295 297 301 306 308 307 306 305 305 304 304 305 304 302 297 297 296 296 296
303 303 303 303 303 303 303 303 303 303 302 301 299 298 298 297 297 298 298 298 299 296 296 296 294 293 294 295 300 302 302 301 300 300 300 299 299 298 298 299 298 296 297 295 293 294 297 306 310 309 308 307 306 305 305 305 302 302 302 302 303 303 301
302 302 302 302 303 302 303 302 301 301 300 300 298 298 298 297 297 297 298 297 297 297 296 295 294 293 294 295 296 300 299 298 297 297 297 298 297 297 297 297 297 292 292 293 293 293 294 296 303 305 306 306 304 303 305 304 303 303 301 302 301 302 302
300 301 301 301 301 301 301 300 299 299 298 298 297 297 297 297 297 297 297 298 297 297 297 295 294 292 293 294 294 296 298 297 297 296 296 296 296 295 295 296 296 293 292 293 293 293 294 294 297 300 300 300 300 301 302 303 302 301 302 301 301 301 301
300 300 300 300 299 299 299 299 299 297 297 296 296 295 296 296 296 296 296 297 297 297 298 297 296 293 292 293 293 294 296 296 296 296 295 295 295 295 295 296 295 293 292 292 292 293 293 294 295 300 297 294 295 296 302 302 302 302 301 301 300 300 300
298 299 299 299 298 297 298 297 297 296 295 295 295 294 294 294 294 294 294 295 296 297 297 298 295 295 293 292 292 292 293 294 294 297 295 294 294 294 295 296 296 294 293 292 292 292 293 293 295 294 293 294 295 296 299 301 300 300 300 299 299 298 298
297 297 298 298 297 295 295 295 295 295 294 294 294 293 293 293 293 292 292 293 294 295 297 298 296 294 294 292 292 292 292 292 293 295 295 294 294 294 294 295 294 292 293 293 293 293 293 293 294 293 293 294 294 296 300 299 298 298 296 297 297 298 298

ECMWFFLT1_sfc_thetae_117.txt.gz
Theta_e
323 324 326 327 328 330 329 328 327 328 328 328 329 329 329 328 328 327 328 329 328 329 329 329 329 332 333 334 334 333 332 332 329 325 325 327 322 322 325 324 324 325 324 324 322 319 316 314 317 323 325 326 326 326 328 326 325 324 324 324 324 324 324
324 325 327 327 327 328 328 328 326 327 327 326 327 328 329 328 328 327 327 328 328 328 330 329 329 330 331 331 332 332 332 331 330 330 327 327 325 323 322 322 323 322 323 324 323 320 315 315 314 317 319 324 325 325 327 328 326 325 325 325 326 326 325
322 322 324 324 324 323 327 327 325 325 326 326 326 326 327 328 327 326 326 326 325 326 328 329 329 329 330 330 331 332 332 331 331 330 328 327 327 325 324 323 321 321 321 321 321 319 318 317 315 316 319 319 317 322 326 326 326 325 325 326 326 327 325
324 324 322 323 322 322 322 322 325 325 325 325 325 326 325 326 326 326 325 325 325 326 327 326 326 327 328 329 330 331 331 331 330 330 329 329 328 325 325 324 322 321 319 318 319 319 319 317 315 315 318 320 320 320 323 326 326 326 326 326 327 328 326
328 327 324 323 323 322 321 322 322 326 328 327 327 326 326 325 324 324 325 325 325 326 326 326 327 327 328 329 329 329 329 330 329 328 327 327 327 326 325 325 324 324 323 322 322 322 320 320 319 318 319 321 321 322 325 326 327 326 326 326 327 328 328
331 330 329 326 326 325 323 322 322 323 325 325 326 325 325 324 324 323 323 323 324 325 326 327 328 329 329 329 328 328 327 327 326 326 326 326 327 325 324 325 325 324 324 325 324 323 323 322 321 318 320 322 319 320 323 325 323 325 327 327 328 329 329
326 326 326 326 326 325 324 324 323 322 321 321 322 322 324 324 323 324 324 324 324 324 324 325 326 328 329 329 329 328 327 327 327 327 327 327 326 326 327 325 325 325 325 326 325 324 323 321 319 318 319 321 321 320 322 323 324 322 324 327 328 329 329
324 322 322 324 323 323 322 320 321 319 320 322 322 324 325 323 323 324 324 323 323 324 326 326 327 328 328 328 328 328 328 328 327 327 326 326 326 327 326 325 325 325 326 326 326 325 325 323 322 320 320 317 317 320 319 322 322 323 322 326 328 328 329
324 322 321 321 321 320 320 319 321 320 322 322 323 323 324 324 323 323 323 323 325 326 327 328 327 327 327 327 327 327 327 328 327 326 326 326 326 326 326 326 325 325 327 327 327 327 326 325 324 323 322 320 316 314 318 318 319 320 326 323 326 327 328
322 320 319 318 318 319 318 319 319 320 320 320 322 323 323 323 323 323 323 324 326 327 327 327 327 327 327 327 327 326 326 327 327 327 327 326 326 327 327 326 325 325 326 327 327 327 326 325 325 324 324 321 320 317 314 315 317 318 322 325 321 324 327
321 320 318 317 317 318 319 320 320 320 320 321 321 322 322 322 322 325 323 324 325 326 326 327 327 327 327 327 327 327 327 327 326 327 327 327 327 327 326 326 326 325 326 327 327 327 326 326 324 324 323 323 322 318 318 315 316 320 320 324 324 322 324
320 319 319 320 319 318 319 319 319 320 320 321 321 321 321 322 322 322 323 324 324 323 325 326 327 327 327 326 326 326 327 327 326 326 327 327 327 327 326 325 325 324 325 325 326 327 327 326 325 325 324 324 322 321 319 318 315 319 323 320 323 323 323
319 317 317 317 318 320 323 322 321 321 322 322 322 322 322 323 324 324 325 324 324 324 325 326 327 327 326 326 325 324 325 326 326 325 326 327 328 326 326 325 324 325 325 325 325 326 326 326 326 325 324 323 322 321 320 317 315 315 320 322 320 320 323
318 319 319 320 320 321 321 321 321 322 323 323 324 324 324 324 324 324 325 325 325 325 325 325 326 326 326 326 326 325 325 326 325 325 325 325 327 327 326 325 326 326 326 325 325 325 325 325 325 324 324 323 322 322 321 318 315 312 315 318 319 320 323
320 320 319 318 317 317 317 318 319 320 320 323 323 323 324 324 324 325 325 325 325 325 325 326 326 326 325 325 325 326 326 326 326 326 325 325 325 326 324 325 325 326 327 326 326 325 325 324 324 324 323 323 322 321 322 319 316 314 315 314 317 320 321
318 317 316 316 314 314 314 315 318 317 320 321 322 322 323 323 324 324 325 325 325 324 324 325 326 326 326 325 325 326 326 326 325 325 324 324 324 325 324 324 325 326 326 325 325 325 325 325 324 323 323 323 322 321 322 321 318 315 315 313 316 318 320
315 314 313 312 311 311 312 314 317 318 319 320 319 320 320 319 319 319 319 319 321 323 324 325 326 327 326 326 326 326 326 325 325 324 324 324 324 325 324 323 324 325 325 325 324 324 324 324 323 323 323 322 322 321 321 321 320 317 315 314 316 318 319
312 311 310 310 310 312 313 315 316 317 318 317 317 317 317 316 315 315 314 315 316 317 320 325 325 326 325 325 325 325 325 325 324 323 324 324 326 325 324 324 324 324 323 323 322 322 323 323 323 323 322 322 322 321 321 321 320 320 317 315 315 318 320
310 309 310 310 311 313 313 314 314 314 315 314 314 314 314 313 313 312 312 312 313 313 315 318 320 322 324 324 324 324 323 323 323 322 322 323 325 325 325 324 324 324 323 321 321 321 322 323 323 322 321 321 322 321 320 320 320 320 318 316 316 314 317
311 309 311 312 312 312 312 311 310 310 311 310 310 310 310 310 311 311 311 311 311 311 312 313 314 314 317 322 322 320 318 320 320 321 321 322 323 323 324 325 324 324 322 321 321 321 321 322 322 321 321 321 321 321 319 319 319 318 317 315 315 315 316
311 311 311 311 311 310 310 309 309 309 309 308 308 307 307 307 308 309 310 310 310 310 310 310 310 310 312 318 320 319 321 321 320 322 322 322 322 322 322 323 323 324 324 322 322 321 321 321 321 321 321 322 321 320 319 318 318 317 316 315 314 313 315
312 311 310 310 310 310 309 308 308 308 307 306 306 306 306 306 306 307 308 309 309 309 309 308 308 307 308 314 321 318 320 320 320 320 321 322 322 323 322 322 322 322 324 325 319 319 320 320 321 320 320 321 320 320 319 318 317 317 316 314 313 312 312
312 311 310 309 309 309 308 308 307 306 305 305 304 305 304 305 305 306 307 307 307 307 306 306 306 304 305 313 322 320 319 318 318 319 320 320 321 321 321 321 324 325 322 320 316 311 310 312 316 320 320 320 320 319 318 318 317 316 316 314 313 311 310
311 310 310 309 308 308 307 306 305 305 304 304 303 303 303 303 303 306 306 305 304 304 303 302 298 297 297 303 311 310 310 309 309 310 312 314 316 318 318 319 318 321 320 319 316 308 304 307 308 309 310 314 317 320 318 317 317 317 316 315 314 311 311
310 309 309 308 307 306 305 305 304 303 303 302 302 302 302 302 304 305 305 304 302 302 301 299 295 296 297 298 303 306 305 305 305 305 306 307 309 313 316 316 316 317 318 320 317 314 308 304 305 306 306 305 303 301 308 317 317 316 316 315 313 312 311
309 309 307 306 306 305 304 303 302 302 301 302 301 300 300 301 302 303 303 302 301 300 299 296 295 296 296 296 298 303 304 303 303 303 303 304 305 307 311 315 314 314 315 318 317 313 311 306 300 299 299 300 301 299 294 296 304 317 318 316 314 312 311
308 308 307 306 305 304 303 302 302 302 301 301 300 300 300 300 301 301 302 302 301 299 297 295 294 295 296 296 297 300 303 303 302 302 302 302 303 304 306 309 310 310 310 312 314 315 313 313 312 309 306 304 303 301 298 297 299 306 311 317 314 312 310
307 307 306 306 305 304 303 302 301 301 300 299 299 299 299 298 299 300 300 300 300 299 297 294 294 294 295 296 297 299 302 302 302 301 301 301 302 302 304 305 307 307 307 307 307 311 311 309 307 305 303 302 301 300 299 298 300 307 312 312 310 309 308
305 305 305 304 304 303 302 301 300 300 300 299 299 299 298 298 298 298 298 298 298 297 296 293 294 294 295 295 298 302 302 301 301 301 300 301 301 302 302 302 303 303 304 304 301 298 303 308 306 304 303 303 303 302 301 298 295 296 298 300 301 300 299
304 303 303 302 302 302 301 300 300 300 299 299 298 298 297 297 298 297 297 297 296 296 295 294 293 294 294 295 299 302 301 301 300 299 299 300 300 300 301 302 301 301 301 300 297 297 299 304 306 305 304 303 303 303 303 304 299 296 295 295 295 295 295
303 303 302 301 301 301 300 300 299 299 298 298 297 298 298 297 297 297 297 296 296 295 295 294 292 293 294 295 298 300 300 299 299 299 299 299 299 299 300 301 302 300 299 298 295 296 300 305 306 305 303 302 301 301 301 303 304 303 298 298 297 296 296
303 302 301 301 301 300 299 298 298 298 298 298 298 298 298 297 297 297 297 297 298 295 294 294 293 292 293 294 297 298 298 297 297 297 298 298 298 297 297 298 298 297 297 296 294 295 297 304 305 304 303 301 300 299 300 302 301 301 302 301 301 302 300
302 300 299 299 299 298 298 296 295 296 296 296 296 297 297 297 296 296 297 296 296 296 295 294 293 292 293 293 294 298 297 296 296 296 297 297 296 296 296 296 296 292 292 292 293 293 294 297 302 303 303 301 300 299 302 302 301 301 301 301 301 301 301
299 299 298 298 298 297 296 295 295 295 294 295 295 295 295 295 295 295 296 297 296 296 296 295 294 292 292 292 293 295 295 295 295 295 296 296 296 295 295 295 295 293 292 292 292 293 293 294 296 300 300 299 299 300 301 301 301 300 300 300 300 300 300
299 299 299 297 296 295 295 295 294 294 294 294 293 293 293 293 293 293 294 296 296 296 297 296 295 293 292 292 292 293 294 294 294 294 294 294 295 295 295 295 294 293 292 292 292 293 293 293 294 298 295 293 293 294 301 301 301 301 300 299 299 299 299
298 298 297 296 295 293 293 294 294 293 293 293 293 292 292 292 292 292 293 293 295 295 296 296 294 294 292 292 292 292 292 293 293 295 293 292 293 294 295 295 295 294 292 292 292 292 292 293 295 294 292 293 293 294 297 299 298 299 299 298 298 297 297
297 297 297 296 294 292 292 293 293 293 293 293 292 292 292 292 292 291 291 291 292 293 294 295 294 293 293 291 291 291 291 291 292 293 293 291 291 292 292 293 293 291 292 292 292 292 292 292 293 292 293 293 294 295 298 297 297 297 296 296 296 296 297

ECMWFFLT1_sfc_thetae_123.txt.gz
Theta_e
336 337 339 341 340 339 338 338 338 337 336 337 338 337 338 337 336 335 335 335 334 334 334 333 333 334 334 334 335 336 337 337 334 329 329 331 329 329 331 328 329 331 331 330 329 324 322 320 325 330 331 330 331 331 332 330 330 331 330 332 332 332 333
339 339 339 338 337 337 337 337 337 337 337 337 338 337 337 336 336 336 335 334 334 334 333 334 333 333 333 332 332 333 332 333 333 333 331 329 330 329 330 327 328 328 328 328 327 327 322 320 322 323 323 328 330 331 330 331 331 331 331 332 333 332 333
338 338 338 337 337 336 338 338 338 336 336 338 337 336 336 335 336 336 335 335 334 334 333 333 333 332 332 332 332 332 333 332 333 334 331 331 332 331 331 329 328 327 327 326 325 325 325 324 320 321 323 322 321 328 330 329 331 332 330 334 333 332 332
337 336 335 335 336 336 335 336 336 336 337 336 337 337 337 335 335 335 335 334 334 334 333 333 332 333 332 332 331 331 331 330 330 332 332 331 331 330 330 328 328 327 327 324 325 325 324 321 321 319 322 324 324 325 329 331 331 331 331 331 332 333 332
336 336 335 334 334 334 334 333 334 335 335 336 335 335 335 335 334 334 334 334 333 333 333 334 333 332 332 332 332 332 331 331 331 331 331 331 331 330 330 330 327 329 329 329 330 330 326 325 323 322 323 325 324 325 331 331 333 332 332 330 330 330 331
336 336 334 334 334 333 332 332 332 330 331 331 331 330 331 331 331 331 331 331 332 332 332 331 332 332 332 331 331 330 330 329 330 330 330 331 331 329 329 331 331 328 326 328 327 326 329 329 326 322 324 327 321 323 327 328 326 330 331 331 331 330 332
333 333 333 332 332 332 332 331 330 329 329 329 329 329 329 329 329 330 331 331 331 330 330 330 330 330 330 330 330 330 330 331 332 332 331 329 332 329 330 331 332 329 328 329 330 329 327 325 324 323 323 324 324 322 327 326 327 326 328 330 331 332 333
332 331 331 331 331 330 330 330 329 329 328 328 327 328 329 329 329 330 330 330 330 329 329 330 330 330 330 330 330 330 330 331 331 332 332 331 329 330 329 329 331 332 331 331 331 329 329 327 326 325 324 319 320 321 320 324 325 324 324 328 331 332 333
331 331 330 330 330 330 329 328 328 328 327 327 328 328 328 328 329 329 330 330 330 329 329 329 329 330 330 330 331 331 330 331 330 330 330 331 331 331 330 331 331 330 331 330 331 328 328 328 327 328 326 323 318 315 320 320 323 323 327 325 329 331 332
329 328 328 328 329 329 328 328 327 327 327 328 327 328 328 328 328 328 328 329 329 329 329 329 329 330 330 330 330 330 330 332 331 329 331 331 331 333 332 331 330 329 330 331 331 329 328 328 329 328 327 323 322 316 317 317 321 322 325 327 324 327 330
328 327 327 327 328 327 327 327 326 325 325 326 326 327 327 327 327 327 327 328 328 328 328 329 329 330 330 330 330 330 330 331 330 330 330 331 332 333 332 331 330 329 331 332 331 331 331 330 329 330 329 328 325 320 318 317 320 324 324 327 327 326 329
326 326 326 326 326 325 324 323 323 324 325 326 325 325 324 324 324 324 324 325 326 326 327 328 329 329 329 329 330 330 330 330 328 329 329 329 330 332 331 331 333 332 332 331 331 331 331 331 330 330 328 327 325 324 321 320 316 323 328 324 327 330 329
324 323 324 324 323 321 321 321 322 323 323 324 323 322 321 320 320 320 320 321 321 322 322 324 325 327 329 329 329 329 330 330 328 328 329 330 330 330 329 328 328 329 331 330 329 330 330 329 329 329 327 325 324 325 324 321 319 319 326 327 328 329 331
322 322 321 321 320 320 320 321 321 321 322 321 320 320 319 318 318 318 318 319 319 319 320 320 322 325 328 328 329 330 330 329 328 329 328 329 329 329 328 328 328 330 331 329 329 329 329 328 328 328 327 326 324 324 323 321 318 319 323 331 331 328 331
320 320 320 320 319 319 319 319 319 318 318 318 318 317 316 316 317 318 318 318 317 317 317 318 319 321 322 325 327 329 329 328 328 328 329 327 329 329 329 327 328 329 330 330 329 328 329 329 327 327 326 325 323 323 324 322 320 319 318 324 327 329 331
318 318 318 318 317 316 316 317 317 316 316 316 316 315 315 315 316 316 316 316 315 315 315 315 317 318 319 320 322 325 327 327 327 327 327 327 327 329 328 328 328 330 330 329 329 329 329 328 328 327 327 326 324 323 323 324 322 319 320 321 326 326 327
316 316 316 315 314 314 315 315 315 314 313 314 313 314 314 314 314 314 313 313 313 313 313 314 315 316 317 318 319 323 326 327 327 327 327 326 327 327 327 327 327 329 329 328 328 329 330 328 327 327 326 326 325 325 324 324 324 322 321 319 322 324 326
314 314 313 313 313 313 312 312 312 311 311 311 311 311 312 312 312 311 311 310 310 310 310 310 311 313 315 317 319 322 325 325 326 326 326 327 327 328 327 327 327 328 328 327 327 328 330 328 328 327 326 327 326 326 325 324 324 324 321 319 320 324 327
312 312 312 312 312 311 311 310 310 310 310 309 310 310 310 310 310 309 309 308 309 308 308 308 309 311 315 319 320 321 322 323 324 325 325 326 326 327 327 326 327 328 327 327 327 327 329 328 329 328 327 326 326 326 324 324 324 323 322 322 322 321 324
311 311 311 310 311 310 309 309 308 308 309 309 308 308 308 308 308 307 307 307 307 308 308 308 308 310 315 316 316 316 317 318 319 322 322 322 322 321 321 322 324 325 326 327 328 328 328 327 327 327 328 327 326 325 324 323 323 323 323 322 323 324 323
311 310 310 309 309 308 308 307 307 308 308 308 308 308 307 306 306 306 306 306 306 307 306 306 305 307 311 313 314 313 313 314 315 316 317 317 319 320 319 320 321 322 323 323 324 326 328 326 326 325 327 326 325 325 324 323 323 322 321 321 320 319 321
310 309 309 308 308 307 307 307 307 307 307 307 307 307 307 306 305 305 306 306 305 305 304 304 303 304 308 311 311 311 310 311 311 312 313 314 316 317 317 317 317 318 320 313 307 308 309 311 320 323 325 326 325 324 323 322 321 321 321 320 319 321 320
309 308 307 307 306 307 307 307 306 306 305 305 305 306 306 305 305 305 305 305 304 303 303 303 302 299 301 308 309 309 309 309 309 309 310 311 312 313 314 315 316 316 315 309 303 299 298 299 302 305 307 311 317 323 323 322 321 321 320 319 319 318 316
308 307 307 306 306 306 306 306 305 305 305 305 304 304 304 303 304 305 304 304 303 303 302 301 296 295 296 298 307 307 307 307 307 307 308 308 308 310 312 313 313 315 315 313 308 299 297 297 297 297 297 298 300 306 314 321 321 322 320 320 321 319 318
307 306 306 305 305 305 304 304 304 304 304 304 304 304 305 304 304 304 304 303 303 302 302 298 294 295 296 296 301 307 306 306 306 306 306 307 308 309 310 311 312 312 313 312 311 309 304 299 297 297 297 296 295 295 295 301 310 319 321 320 319 318 319
306 305 305 304 304 304 304 303 303 303 303 303 304 307 306 305 304 304 303 302 302 302 302 295 294 295 296 295 296 304 307 306 305 304 305 305 306 307 308 309 309 309 309 311 312 310 309 308 302 300 300 300 299 297 294 294 295 304 314 319 319 318 318
305 305 304 304 303 303 303 302 303 304 304 306 307 305 305 305 304 304 303 303 302 301 298 295 293 294 295 295 296 301 307 306 305 304 304 305 305 305 305 306 306 306 306 306 307 310 309 309 307 306 304 303 302 300 298 297 297 297 301 305 307 306 303
304 304 304 303 303 303 303 302 302 303 304 307 307 306 305 305 304 304 304 303 302 300 298 293 293 293 294 296 297 302 308 307 306 305 305 305 305 305 306 306 306 305 305 304 303 304 309 308 308 307 306 304 303 301 300 300 300 302 302 302 301 300 301
303 303 302 302 302 302 302 302 302 303 304 304 304 304 305 305 303 303 304 304 302 300 298 292 292 293 293 294 299 307 308 307 305 305 304 304 304 304 306 306 306 305 304 303 299 295 302 308 307 306 305 305 305 304 303 300 296 297 300 301 301 300 299
303 302 302 302 301 301 301 301 302 303 303 303 303 302 304 303 302 302 302 302 302 302 300 294 292 292 293 294 301 307 307 307 306 304 304 305 304 302 302 304 304 304 303 302 295 294 296 302 306 305 304 304 304 304 304 305 300 297 296 296 296 296 296
303 302 302 302 302 301 302 302 301 302 302 302 301 302 302 301 302 301 301 300 301 300 299 295 291 292 293 293 300 306 305 305 304 304 303 304 304 303 300 298 302 302 301 300 293 294 295 304 306 305 304 303 302 301 302 304 305 303 299 298 297 296 296
302 301 301 301 301 300 301 301 301 301 301 301 302 302 302 301 301 301 301 300 299 300 299 296 292 292 292 293 301 307 305 304 303 303 303 302 302 302 301 298 296 295 297 295 292 293 294 302 304 304 304 303 301 299 300 303 302 302 303 302 302 302 301
302 301 300 300 300 300 301 300 301 300 301 301 301 301 301 300 300 300 301 300 300 300 299 297 295 291 292 293 294 304 305 303 302 301 301 301 301 301 300 299 296 291 291 291 291 292 292 295 303 303 303 302 301 300 303 302 302 303 303 302 302 302 302
302 301 301 300 300 300 300 300 301 301 301 301 301 300 300 300 299 299 300 300 299 299 299 298 295 291 291 292 292 297 303 302 302 301 300 299 299 299 298 298 297 292 290 290 291 291 292 293 296 302 301 301 301 302 301 303 302 300 302 302 302 302 302
302 302 302 301 301 300 301 301 302 301 301 300 300 299 299 299 299 299 299 299 300 299 297 296 298 292 291 291 291 292 299 300 300 301 299 299 298 298 298 297 296 292 290 290 290 291 291 292 294 302 299 293 292 294 304 303 304 303 302 302 302 301 301
301 302 302 302 302 301 301 301 301 301 300 300 299 299 299 299 299 298 298 298 299 299 299 297 293 295 291 290 290 291 291 295 293 300 299 298 298 297 298 297 296 292 290 290 290 290 290 292 295 296 291 292 293 294 299 304 303 302 301 301 300 299 300
301 301 301 302 301 301 300 300 300 300 300 299 298 298 298 299 298 298 297 297 298 298 299 298 294 292 293 290 290 290 290 290 292 298 298 297 297 297 296 296 294 290 290 290 290 290 290 290 293 290 292 292 295 297 304 303 302 302 301 300 300 299 299